<?xml version="1.0" encoding="UTF-8" standalone="no" ?>
<gpx xmlns="http://www.topografix.com/GPX/1/1" xmlns:xsi="http://www.w3.org/2001/XMLSchema-instance" xsi:schemaLocation="http://www.topografix.com/GPX/1/1 http://www.topografix.com/GPX/1/1/gpx.xsd" version="1.1" creator="VisuGPX - https://www.visugpx.com">
  <metadata>
    <name>VTT vendredi 23 fevrier (à 3, sans Ghis)</name>
    <desc><![CDATA[Une sortie de plus de 29 km, une température de 2°, et, au km 5, la montée des 7 Fontaines (on a profité de l'absence de Ghis qui déteste cette côte). Heureusement le vélo magique m'a permis de pousser Christine ; puis ce fut la descente sur Scey, sympa avec le petit détour du parcours sportif. La suite est classique, sur route, mis à part le détour ente Pontcey et Chemilly (je savais qu'il serait pénible car boueux). Une certaine fatigue à l'arrivée, sauf pour l'inoxydable Christian... ]]></desc>
  </metadata>
  <trk>
    <name><![CDATA[2018-02-23 13:41]]></name>
    <desc><![CDATA[<p>Heure de départ: 02/23/2018 13:41<br/>Heure d'arrivée: 02/23/2018 16:08<br/>Distance: 29,4 km (02:26)<br/>Temps déplacement: 02:06<br/>Vitesse moyenne: 12,03 km/h<br/>Vitesse moyenne mouv.: 13,93 km/h<br/>Vitesse Max.: 40,73 km/h<br/>Altitude minimale: 207 m<br/>Altitude maximale: 325 m<br/>Vitesse de montée: 230 m/h<br/>Vitesse de descente: -380,2 m/h<br/>Gain d'altitude: 203 m<br/>Perte d'altitude: -223 m<br/>Temps de montée: 00:53<br/>Temps de descente: 00:35<br/></p><hr align="center" width="480" style="height: 2px; width: 517px"/>]]></desc>
    <trkseg>
      <trkpt lat="47.68626" lon="6.04545">
        <ele>233.92</ele>
        <time>2018-02-23T12:41:41Z</time>
      </trkpt>
      <trkpt lat="47.68622" lon="6.0454">
        <ele>248.47</ele>
        <time>2018-02-23T12:41:44Z</time>
      </trkpt>
      <trkpt lat="47.68624" lon="6.04546">
        <ele>246.33</ele>
        <time>2018-02-23T12:41:48Z</time>
      </trkpt>
      <trkpt lat="47.68628" lon="6.04545">
        <ele>239.48</ele>
        <time>2018-02-23T12:41:56Z</time>
      </trkpt>
      <trkpt lat="47.68633" lon="6.04541">
        <ele>236.25</ele>
        <time>2018-02-23T12:42:19Z</time>
      </trkpt>
      <trkpt lat="47.68634" lon="6.04534">
        <ele>236.27</ele>
        <time>2018-02-23T12:42:22Z</time>
      </trkpt>
      <trkpt lat="47.68632" lon="6.04526">
        <ele>236.28</ele>
        <time>2018-02-23T12:42:24Z</time>
      </trkpt>
      <trkpt lat="47.68626" lon="6.0452">
        <ele>236.23</ele>
        <time>2018-02-23T12:42:26Z</time>
      </trkpt>
      <trkpt lat="47.68618" lon="6.04515">
        <ele>235.59</ele>
        <time>2018-02-23T12:42:28Z</time>
      </trkpt>
      <trkpt lat="47.68614" lon="6.04512">
        <ele>235.22</ele>
        <time>2018-02-23T12:42:29Z</time>
      </trkpt>
      <trkpt lat="47.68607" lon="6.04508">
        <ele>235.01</ele>
        <time>2018-02-23T12:42:31Z</time>
      </trkpt>
      <trkpt lat="47.686" lon="6.04502">
        <ele>234.45</ele>
        <time>2018-02-23T12:42:33Z</time>
      </trkpt>
      <trkpt lat="47.68592" lon="6.04496">
        <ele>233.23</ele>
        <time>2018-02-23T12:42:35Z</time>
      </trkpt>
      <trkpt lat="47.68588" lon="6.04493">
        <ele>232.61</ele>
        <time>2018-02-23T12:42:36Z</time>
      </trkpt>
      <trkpt lat="47.68583" lon="6.0449">
        <ele>232</ele>
        <time>2018-02-23T12:42:37Z</time>
      </trkpt>
      <trkpt lat="47.68579" lon="6.04486">
        <ele>231.41</ele>
        <time>2018-02-23T12:42:38Z</time>
      </trkpt>
      <trkpt lat="47.68573" lon="6.04482">
        <ele>230.88</ele>
        <time>2018-02-23T12:42:39Z</time>
      </trkpt>
      <trkpt lat="47.68568" lon="6.04478">
        <ele>230.31</ele>
        <time>2018-02-23T12:42:40Z</time>
      </trkpt>
      <trkpt lat="47.68562" lon="6.04473">
        <ele>229.78</ele>
        <time>2018-02-23T12:42:41Z</time>
      </trkpt>
      <trkpt lat="47.68555" lon="6.04469">
        <ele>229.25</ele>
        <time>2018-02-23T12:42:42Z</time>
      </trkpt>
      <trkpt lat="47.68549" lon="6.04466">
        <ele>228.69</ele>
        <time>2018-02-23T12:42:43Z</time>
      </trkpt>
      <trkpt lat="47.68543" lon="6.04462">
        <ele>228.13</ele>
        <time>2018-02-23T12:42:44Z</time>
      </trkpt>
      <trkpt lat="47.68538" lon="6.04458">
        <ele>227.57</ele>
        <time>2018-02-23T12:42:45Z</time>
      </trkpt>
      <trkpt lat="47.68533" lon="6.04454">
        <ele>227.04</ele>
        <time>2018-02-23T12:42:46Z</time>
      </trkpt>
      <trkpt lat="47.68528" lon="6.0445">
        <ele>226.58</ele>
        <time>2018-02-23T12:42:47Z</time>
      </trkpt>
      <trkpt lat="47.68522" lon="6.04446">
        <ele>226.22</ele>
        <time>2018-02-23T12:42:48Z</time>
      </trkpt>
      <trkpt lat="47.68517" lon="6.04443">
        <ele>225.85</ele>
        <time>2018-02-23T12:42:49Z</time>
      </trkpt>
      <trkpt lat="47.6851" lon="6.0444">
        <ele>225.47</ele>
        <time>2018-02-23T12:42:50Z</time>
      </trkpt>
      <trkpt lat="47.68504" lon="6.04437">
        <ele>225.1</ele>
        <time>2018-02-23T12:42:51Z</time>
      </trkpt>
      <trkpt lat="47.68499" lon="6.04434">
        <ele>224.72</ele>
        <time>2018-02-23T12:42:52Z</time>
      </trkpt>
      <trkpt lat="47.68494" lon="6.04433">
        <ele>224.3</ele>
        <time>2018-02-23T12:42:53Z</time>
      </trkpt>
      <trkpt lat="47.68489" lon="6.04433">
        <ele>223.98</ele>
        <time>2018-02-23T12:42:54Z</time>
      </trkpt>
      <trkpt lat="47.68484" lon="6.04433">
        <ele>223.88</ele>
        <time>2018-02-23T12:42:55Z</time>
      </trkpt>
      <trkpt lat="47.68479" lon="6.04433">
        <ele>223.93</ele>
        <time>2018-02-23T12:42:56Z</time>
      </trkpt>
      <trkpt lat="47.68474" lon="6.04432">
        <ele>224</ele>
        <time>2018-02-23T12:42:57Z</time>
      </trkpt>
      <trkpt lat="47.68469" lon="6.04432">
        <ele>224.03</ele>
        <time>2018-02-23T12:42:58Z</time>
      </trkpt>
      <trkpt lat="47.68464" lon="6.04431">
        <ele>224.01</ele>
        <time>2018-02-23T12:42:59Z</time>
      </trkpt>
      <trkpt lat="47.68459" lon="6.04431">
        <ele>223.97</ele>
        <time>2018-02-23T12:43:00Z</time>
      </trkpt>
      <trkpt lat="47.68453" lon="6.04431">
        <ele>223.89</ele>
        <time>2018-02-23T12:43:01Z</time>
      </trkpt>
      <trkpt lat="47.68448" lon="6.04431">
        <ele>223.76</ele>
        <time>2018-02-23T12:43:02Z</time>
      </trkpt>
      <trkpt lat="47.68442" lon="6.04431">
        <ele>223.71</ele>
        <time>2018-02-23T12:43:03Z</time>
      </trkpt>
      <trkpt lat="47.68436" lon="6.04431">
        <ele>223.73</ele>
        <time>2018-02-23T12:43:04Z</time>
      </trkpt>
      <trkpt lat="47.6843" lon="6.04431">
        <ele>223.74</ele>
        <time>2018-02-23T12:43:05Z</time>
      </trkpt>
      <trkpt lat="47.68424" lon="6.04431">
        <ele>223.71</ele>
        <time>2018-02-23T12:43:06Z</time>
      </trkpt>
      <trkpt lat="47.68418" lon="6.04431">
        <ele>223.73</ele>
        <time>2018-02-23T12:43:07Z</time>
      </trkpt>
      <trkpt lat="47.68412" lon="6.04431">
        <ele>223.72</ele>
        <time>2018-02-23T12:43:08Z</time>
      </trkpt>
      <trkpt lat="47.68408" lon="6.04431">
        <ele>223.64</ele>
        <time>2018-02-23T12:43:09Z</time>
      </trkpt>
      <trkpt lat="47.68403" lon="6.04428">
        <ele>223.51</ele>
        <time>2018-02-23T12:43:10Z</time>
      </trkpt>
      <trkpt lat="47.684" lon="6.04423">
        <ele>223.34</ele>
        <time>2018-02-23T12:43:11Z</time>
      </trkpt>
      <trkpt lat="47.68399" lon="6.04411">
        <ele>223.07</ele>
        <time>2018-02-23T12:43:13Z</time>
      </trkpt>
      <trkpt lat="47.684" lon="6.04397">
        <ele>222.64</ele>
        <time>2018-02-23T12:43:15Z</time>
      </trkpt>
      <trkpt lat="47.684" lon="6.0439">
        <ele>222.4</ele>
        <time>2018-02-23T12:43:16Z</time>
      </trkpt>
      <trkpt lat="47.684" lon="6.04382">
        <ele>222.22</ele>
        <time>2018-02-23T12:43:17Z</time>
      </trkpt>
      <trkpt lat="47.684" lon="6.04374">
        <ele>222.07</ele>
        <time>2018-02-23T12:43:18Z</time>
      </trkpt>
      <trkpt lat="47.68399" lon="6.04366">
        <ele>221.95</ele>
        <time>2018-02-23T12:43:19Z</time>
      </trkpt>
      <trkpt lat="47.68399" lon="6.04358">
        <ele>221.88</ele>
        <time>2018-02-23T12:43:20Z</time>
      </trkpt>
      <trkpt lat="47.68398" lon="6.0435">
        <ele>221.84</ele>
        <time>2018-02-23T12:43:21Z</time>
      </trkpt>
      <trkpt lat="47.68398" lon="6.04342">
        <ele>221.78</ele>
        <time>2018-02-23T12:43:22Z</time>
      </trkpt>
      <trkpt lat="47.68398" lon="6.04334">
        <ele>221.69</ele>
        <time>2018-02-23T12:43:23Z</time>
      </trkpt>
      <trkpt lat="47.68398" lon="6.04326">
        <ele>221.57</ele>
        <time>2018-02-23T12:43:24Z</time>
      </trkpt>
      <trkpt lat="47.68398" lon="6.04318">
        <ele>221.4</ele>
        <time>2018-02-23T12:43:25Z</time>
      </trkpt>
      <trkpt lat="47.68398" lon="6.04309">
        <ele>221.23</ele>
        <time>2018-02-23T12:43:26Z</time>
      </trkpt>
      <trkpt lat="47.68398" lon="6.04301">
        <ele>221.07</ele>
        <time>2018-02-23T12:43:27Z</time>
      </trkpt>
      <trkpt lat="47.68397" lon="6.04293">
        <ele>220.9</ele>
        <time>2018-02-23T12:43:28Z</time>
      </trkpt>
      <trkpt lat="47.68396" lon="6.04283">
        <ele>220.8</ele>
        <time>2018-02-23T12:43:30Z</time>
      </trkpt>
      <trkpt lat="47.68397" lon="6.04274">
        <ele>220.8</ele>
        <time>2018-02-23T12:44:01Z</time>
      </trkpt>
      <trkpt lat="47.68396" lon="6.04267">
        <ele>220.81</ele>
        <time>2018-02-23T12:44:03Z</time>
      </trkpt>
      <trkpt lat="47.68396" lon="6.0426">
        <ele>220.77</ele>
        <time>2018-02-23T12:44:06Z</time>
      </trkpt>
      <trkpt lat="47.68397" lon="6.04253">
        <ele>220.64</ele>
        <time>2018-02-23T12:44:10Z</time>
      </trkpt>
      <trkpt lat="47.68392" lon="6.04247">
        <ele>220.49</ele>
        <time>2018-02-23T12:44:13Z</time>
      </trkpt>
      <trkpt lat="47.68386" lon="6.04246">
        <ele>220.39</ele>
        <time>2018-02-23T12:44:15Z</time>
      </trkpt>
      <trkpt lat="47.68381" lon="6.04242">
        <ele>220.28</ele>
        <time>2018-02-23T12:44:17Z</time>
      </trkpt>
      <trkpt lat="47.68376" lon="6.04234">
        <ele>220.17</ele>
        <time>2018-02-23T12:44:19Z</time>
      </trkpt>
      <trkpt lat="47.68371" lon="6.04224">
        <ele>220.06</ele>
        <time>2018-02-23T12:44:21Z</time>
      </trkpt>
      <trkpt lat="47.68367" lon="6.04215">
        <ele>219.95</ele>
        <time>2018-02-23T12:44:23Z</time>
      </trkpt>
      <trkpt lat="47.68362" lon="6.04207">
        <ele>219.83</ele>
        <time>2018-02-23T12:44:25Z</time>
      </trkpt>
      <trkpt lat="47.68359" lon="6.04198">
        <ele>219.71</ele>
        <time>2018-02-23T12:44:27Z</time>
      </trkpt>
      <trkpt lat="47.68358" lon="6.04189">
        <ele>219.58</ele>
        <time>2018-02-23T12:44:29Z</time>
      </trkpt>
      <trkpt lat="47.68361" lon="6.04183">
        <ele>219.45</ele>
        <time>2018-02-23T12:44:31Z</time>
      </trkpt>
      <trkpt lat="47.68362" lon="6.04176">
        <ele>219.31</ele>
        <time>2018-02-23T12:44:33Z</time>
      </trkpt>
      <trkpt lat="47.68363" lon="6.04166">
        <ele>219.16</ele>
        <time>2018-02-23T12:44:35Z</time>
      </trkpt>
      <trkpt lat="47.68365" lon="6.0416">
        <ele>219.02</ele>
        <time>2018-02-23T12:44:37Z</time>
      </trkpt>
      <trkpt lat="47.6837" lon="6.04156">
        <ele>218.87</ele>
        <time>2018-02-23T12:44:39Z</time>
      </trkpt>
      <trkpt lat="47.68376" lon="6.04158">
        <ele>218.72</ele>
        <time>2018-02-23T12:44:41Z</time>
      </trkpt>
      <trkpt lat="47.68381" lon="6.04159">
        <ele>218.57</ele>
        <time>2018-02-23T12:44:43Z</time>
      </trkpt>
      <trkpt lat="47.68387" lon="6.04159">
        <ele>218.41</ele>
        <time>2018-02-23T12:44:45Z</time>
      </trkpt>
      <trkpt lat="47.68393" lon="6.0416">
        <ele>218.2</ele>
        <time>2018-02-23T12:44:47Z</time>
      </trkpt>
      <trkpt lat="47.684" lon="6.04162">
        <ele>217.95</ele>
        <time>2018-02-23T12:44:49Z</time>
      </trkpt>
      <trkpt lat="47.68407" lon="6.04163">
        <ele>217.67</ele>
        <time>2018-02-23T12:44:51Z</time>
      </trkpt>
      <trkpt lat="47.68412" lon="6.04164">
        <ele>217.38</ele>
        <time>2018-02-23T12:44:53Z</time>
      </trkpt>
      <trkpt lat="47.6842" lon="6.04164">
        <ele>217.11</ele>
        <time>2018-02-23T12:44:55Z</time>
      </trkpt>
      <trkpt lat="47.68428" lon="6.04164">
        <ele>216.87</ele>
        <time>2018-02-23T12:44:57Z</time>
      </trkpt>
      <trkpt lat="47.68437" lon="6.04163">
        <ele>216.65</ele>
        <time>2018-02-23T12:44:59Z</time>
      </trkpt>
      <trkpt lat="47.68441" lon="6.04162">
        <ele>216.55</ele>
        <time>2018-02-23T12:45:00Z</time>
      </trkpt>
      <trkpt lat="47.68449" lon="6.04161">
        <ele>216.34</ele>
        <time>2018-02-23T12:45:02Z</time>
      </trkpt>
      <trkpt lat="47.68456" lon="6.04162">
        <ele>216.12</ele>
        <time>2018-02-23T12:45:04Z</time>
      </trkpt>
      <trkpt lat="47.68464" lon="6.04163">
        <ele>215.9</ele>
        <time>2018-02-23T12:45:06Z</time>
      </trkpt>
      <trkpt lat="47.68472" lon="6.04164">
        <ele>215.67</ele>
        <time>2018-02-23T12:45:08Z</time>
      </trkpt>
      <trkpt lat="47.68479" lon="6.04165">
        <ele>214.72</ele>
        <time>2018-02-23T12:45:10Z</time>
      </trkpt>
      <trkpt lat="47.68488" lon="6.04166">
        <ele>212.99</ele>
        <time>2018-02-23T12:45:12Z</time>
      </trkpt>
      <trkpt lat="47.68496" lon="6.04167">
        <ele>212.57</ele>
        <time>2018-02-23T12:45:14Z</time>
      </trkpt>
      <trkpt lat="47.68504" lon="6.04168">
        <ele>211.99</ele>
        <time>2018-02-23T12:45:16Z</time>
      </trkpt>
      <trkpt lat="47.68512" lon="6.04168">
        <ele>211.25</ele>
        <time>2018-02-23T12:45:18Z</time>
      </trkpt>
      <trkpt lat="47.68519" lon="6.04169">
        <ele>211.1</ele>
        <time>2018-02-23T12:45:20Z</time>
      </trkpt>
      <trkpt lat="47.68526" lon="6.0417">
        <ele>211</ele>
        <time>2018-02-23T12:45:22Z</time>
      </trkpt>
      <trkpt lat="47.68533" lon="6.04172">
        <ele>210.91</ele>
        <time>2018-02-23T12:45:24Z</time>
      </trkpt>
      <trkpt lat="47.6854" lon="6.04174">
        <ele>210.82</ele>
        <time>2018-02-23T12:45:26Z</time>
      </trkpt>
      <trkpt lat="47.68546" lon="6.04175">
        <ele>210.74</ele>
        <time>2018-02-23T12:45:28Z</time>
      </trkpt>
      <trkpt lat="47.68552" lon="6.04176">
        <ele>210.66</ele>
        <time>2018-02-23T12:45:30Z</time>
      </trkpt>
      <trkpt lat="47.68557" lon="6.04176">
        <ele>210.58</ele>
        <time>2018-02-23T12:45:32Z</time>
      </trkpt>
      <trkpt lat="47.68563" lon="6.04178">
        <ele>210.51</ele>
        <time>2018-02-23T12:45:34Z</time>
      </trkpt>
      <trkpt lat="47.68569" lon="6.04181">
        <ele>210.43</ele>
        <time>2018-02-23T12:45:36Z</time>
      </trkpt>
      <trkpt lat="47.68576" lon="6.04185">
        <ele>210.36</ele>
        <time>2018-02-23T12:45:38Z</time>
      </trkpt>
      <trkpt lat="47.68582" lon="6.04188">
        <ele>210.29</ele>
        <time>2018-02-23T12:45:40Z</time>
      </trkpt>
      <trkpt lat="47.68589" lon="6.0419">
        <ele>210.22</ele>
        <time>2018-02-23T12:45:42Z</time>
      </trkpt>
      <trkpt lat="47.68595" lon="6.04193">
        <ele>210.16</ele>
        <time>2018-02-23T12:45:44Z</time>
      </trkpt>
      <trkpt lat="47.68602" lon="6.04195">
        <ele>210.1</ele>
        <time>2018-02-23T12:45:46Z</time>
      </trkpt>
      <trkpt lat="47.68608" lon="6.04197">
        <ele>210.04</ele>
        <time>2018-02-23T12:45:48Z</time>
      </trkpt>
      <trkpt lat="47.68615" lon="6.042">
        <ele>209.98</ele>
        <time>2018-02-23T12:45:50Z</time>
      </trkpt>
      <trkpt lat="47.68622" lon="6.04202">
        <ele>209.92</ele>
        <time>2018-02-23T12:45:52Z</time>
      </trkpt>
      <trkpt lat="47.68629" lon="6.04204">
        <ele>209.85</ele>
        <time>2018-02-23T12:45:54Z</time>
      </trkpt>
      <trkpt lat="47.68636" lon="6.04206">
        <ele>209.79</ele>
        <time>2018-02-23T12:45:56Z</time>
      </trkpt>
      <trkpt lat="47.68644" lon="6.04207">
        <ele>209.72</ele>
        <time>2018-02-23T12:45:58Z</time>
      </trkpt>
      <trkpt lat="47.68651" lon="6.04209">
        <ele>209.66</ele>
        <time>2018-02-23T12:46:00Z</time>
      </trkpt>
      <trkpt lat="47.68659" lon="6.04211">
        <ele>209.6</ele>
        <time>2018-02-23T12:46:02Z</time>
      </trkpt>
      <trkpt lat="47.68666" lon="6.04213">
        <ele>209.53</ele>
        <time>2018-02-23T12:46:04Z</time>
      </trkpt>
      <trkpt lat="47.68673" lon="6.04215">
        <ele>209.47</ele>
        <time>2018-02-23T12:46:06Z</time>
      </trkpt>
      <trkpt lat="47.6868" lon="6.04216">
        <ele>209.4</ele>
        <time>2018-02-23T12:46:08Z</time>
      </trkpt>
      <trkpt lat="47.68687" lon="6.04218">
        <ele>209.34</ele>
        <time>2018-02-23T12:46:10Z</time>
      </trkpt>
      <trkpt lat="47.68694" lon="6.0422">
        <ele>209.28</ele>
        <time>2018-02-23T12:46:12Z</time>
      </trkpt>
      <trkpt lat="47.68702" lon="6.04222">
        <ele>209.22</ele>
        <time>2018-02-23T12:46:14Z</time>
      </trkpt>
      <trkpt lat="47.68709" lon="6.04223">
        <ele>209.16</ele>
        <time>2018-02-23T12:46:16Z</time>
      </trkpt>
      <trkpt lat="47.68717" lon="6.04225">
        <ele>209.1</ele>
        <time>2018-02-23T12:46:18Z</time>
      </trkpt>
      <trkpt lat="47.68723" lon="6.04227">
        <ele>209.04</ele>
        <time>2018-02-23T12:46:20Z</time>
      </trkpt>
      <trkpt lat="47.6873" lon="6.04227">
        <ele>208.98</ele>
        <time>2018-02-23T12:46:22Z</time>
      </trkpt>
      <trkpt lat="47.68737" lon="6.04228">
        <ele>208.92</ele>
        <time>2018-02-23T12:46:24Z</time>
      </trkpt>
      <trkpt lat="47.68745" lon="6.04229">
        <ele>208.86</ele>
        <time>2018-02-23T12:46:26Z</time>
      </trkpt>
      <trkpt lat="47.68751" lon="6.0423">
        <ele>208.79</ele>
        <time>2018-02-23T12:46:28Z</time>
      </trkpt>
      <trkpt lat="47.68758" lon="6.04231">
        <ele>208.72</ele>
        <time>2018-02-23T12:46:30Z</time>
      </trkpt>
      <trkpt lat="47.68767" lon="6.0423">
        <ele>208.67</ele>
        <time>2018-02-23T12:46:32Z</time>
      </trkpt>
      <trkpt lat="47.68774" lon="6.04229">
        <ele>208.64</ele>
        <time>2018-02-23T12:46:34Z</time>
      </trkpt>
      <trkpt lat="47.68782" lon="6.04229">
        <ele>208.61</ele>
        <time>2018-02-23T12:46:36Z</time>
      </trkpt>
      <trkpt lat="47.68789" lon="6.0423">
        <ele>208.58</ele>
        <time>2018-02-23T12:46:38Z</time>
      </trkpt>
      <trkpt lat="47.68796" lon="6.04232">
        <ele>208.54</ele>
        <time>2018-02-23T12:46:40Z</time>
      </trkpt>
      <trkpt lat="47.68803" lon="6.04232">
        <ele>208.5</ele>
        <time>2018-02-23T12:46:42Z</time>
      </trkpt>
      <trkpt lat="47.68809" lon="6.04235">
        <ele>208.47</ele>
        <time>2018-02-23T12:46:44Z</time>
      </trkpt>
      <trkpt lat="47.68814" lon="6.04238">
        <ele>208.45</ele>
        <time>2018-02-23T12:46:46Z</time>
      </trkpt>
      <trkpt lat="47.6882" lon="6.0424">
        <ele>208.44</ele>
        <time>2018-02-23T12:46:48Z</time>
      </trkpt>
      <trkpt lat="47.68826" lon="6.04239">
        <ele>208.45</ele>
        <time>2018-02-23T12:46:50Z</time>
      </trkpt>
      <trkpt lat="47.68834" lon="6.04238">
        <ele>208.47</ele>
        <time>2018-02-23T12:46:52Z</time>
      </trkpt>
      <trkpt lat="47.68842" lon="6.04238">
        <ele>208.49</ele>
        <time>2018-02-23T12:46:54Z</time>
      </trkpt>
      <trkpt lat="47.68849" lon="6.04239">
        <ele>208.52</ele>
        <time>2018-02-23T12:46:56Z</time>
      </trkpt>
      <trkpt lat="47.68855" lon="6.0424">
        <ele>208.54</ele>
        <time>2018-02-23T12:46:58Z</time>
      </trkpt>
      <trkpt lat="47.68862" lon="6.04241">
        <ele>208.56</ele>
        <time>2018-02-23T12:47:00Z</time>
      </trkpt>
      <trkpt lat="47.6887" lon="6.04243">
        <ele>208.58</ele>
        <time>2018-02-23T12:47:02Z</time>
      </trkpt>
      <trkpt lat="47.68877" lon="6.04246">
        <ele>208.61</ele>
        <time>2018-02-23T12:47:04Z</time>
      </trkpt>
      <trkpt lat="47.68884" lon="6.04249">
        <ele>208.64</ele>
        <time>2018-02-23T12:47:06Z</time>
      </trkpt>
      <trkpt lat="47.68891" lon="6.0425">
        <ele>208.69</ele>
        <time>2018-02-23T12:47:08Z</time>
      </trkpt>
      <trkpt lat="47.68896" lon="6.0425">
        <ele>208.74</ele>
        <time>2018-02-23T12:47:10Z</time>
      </trkpt>
      <trkpt lat="47.68901" lon="6.04252">
        <ele>208.8</ele>
        <time>2018-02-23T12:47:12Z</time>
      </trkpt>
      <trkpt lat="47.68905" lon="6.04253">
        <ele>208.85</ele>
        <time>2018-02-23T12:47:14Z</time>
      </trkpt>
      <trkpt lat="47.6891" lon="6.04254">
        <ele>208.93</ele>
        <time>2018-02-23T12:47:17Z</time>
      </trkpt>
      <trkpt lat="47.68917" lon="6.04251">
        <ele>209.18</ele>
        <time>2018-02-23T12:47:27Z</time>
      </trkpt>
      <trkpt lat="47.68921" lon="6.04243">
        <ele>209.56</ele>
        <time>2018-02-23T12:47:29Z</time>
      </trkpt>
      <trkpt lat="47.68924" lon="6.04237">
        <ele>209.9</ele>
        <time>2018-02-23T12:47:30Z</time>
      </trkpt>
      <trkpt lat="47.68927" lon="6.04231">
        <ele>210.19</ele>
        <time>2018-02-23T12:47:31Z</time>
      </trkpt>
      <trkpt lat="47.68931" lon="6.04223">
        <ele>210.43</ele>
        <time>2018-02-23T12:47:32Z</time>
      </trkpt>
      <trkpt lat="47.68933" lon="6.04216">
        <ele>210.62</ele>
        <time>2018-02-23T12:47:33Z</time>
      </trkpt>
      <trkpt lat="47.68937" lon="6.04208">
        <ele>210.79</ele>
        <time>2018-02-23T12:47:34Z</time>
      </trkpt>
      <trkpt lat="47.68941" lon="6.042">
        <ele>210.94</ele>
        <time>2018-02-23T12:47:35Z</time>
      </trkpt>
      <trkpt lat="47.68944" lon="6.04193">
        <ele>211.08</ele>
        <time>2018-02-23T12:47:36Z</time>
      </trkpt>
      <trkpt lat="47.68947" lon="6.04186">
        <ele>211.19</ele>
        <time>2018-02-23T12:47:37Z</time>
      </trkpt>
      <trkpt lat="47.6895" lon="6.04179">
        <ele>211.3</ele>
        <time>2018-02-23T12:47:38Z</time>
      </trkpt>
      <trkpt lat="47.68954" lon="6.04173">
        <ele>211.42</ele>
        <time>2018-02-23T12:47:39Z</time>
      </trkpt>
      <trkpt lat="47.68956" lon="6.04167">
        <ele>211.55</ele>
        <time>2018-02-23T12:47:40Z</time>
      </trkpt>
      <trkpt lat="47.68959" lon="6.0416">
        <ele>211.66</ele>
        <time>2018-02-23T12:47:41Z</time>
      </trkpt>
      <trkpt lat="47.68962" lon="6.04154">
        <ele>211.78</ele>
        <time>2018-02-23T12:47:42Z</time>
      </trkpt>
      <trkpt lat="47.68965" lon="6.04148">
        <ele>211.91</ele>
        <time>2018-02-23T12:47:43Z</time>
      </trkpt>
      <trkpt lat="47.6897" lon="6.04136">
        <ele>212.16</ele>
        <time>2018-02-23T12:47:45Z</time>
      </trkpt>
      <trkpt lat="47.68972" lon="6.04131">
        <ele>212.26</ele>
        <time>2018-02-23T12:47:46Z</time>
      </trkpt>
      <trkpt lat="47.68975" lon="6.04125">
        <ele>212.38</ele>
        <time>2018-02-23T12:47:47Z</time>
      </trkpt>
      <trkpt lat="47.68977" lon="6.04119">
        <ele>212.49</ele>
        <time>2018-02-23T12:47:48Z</time>
      </trkpt>
      <trkpt lat="47.6898" lon="6.04114">
        <ele>212.58</ele>
        <time>2018-02-23T12:47:49Z</time>
      </trkpt>
      <trkpt lat="47.68982" lon="6.04108">
        <ele>212.64</ele>
        <time>2018-02-23T12:47:50Z</time>
      </trkpt>
      <trkpt lat="47.68985" lon="6.04103">
        <ele>212.69</ele>
        <time>2018-02-23T12:47:51Z</time>
      </trkpt>
      <trkpt lat="47.68987" lon="6.04097">
        <ele>212.73</ele>
        <time>2018-02-23T12:47:52Z</time>
      </trkpt>
      <trkpt lat="47.68993" lon="6.04086">
        <ele>212.76</ele>
        <time>2018-02-23T12:47:54Z</time>
      </trkpt>
      <trkpt lat="47.68995" lon="6.0408">
        <ele>212.76</ele>
        <time>2018-02-23T12:47:55Z</time>
      </trkpt>
      <trkpt lat="47.68998" lon="6.04074">
        <ele>212.76</ele>
        <time>2018-02-23T12:47:56Z</time>
      </trkpt>
      <trkpt lat="47.69002" lon="6.04064">
        <ele>212.82</ele>
        <time>2018-02-23T12:47:58Z</time>
      </trkpt>
      <trkpt lat="47.69006" lon="6.04053">
        <ele>212.87</ele>
        <time>2018-02-23T12:48:00Z</time>
      </trkpt>
      <trkpt lat="47.69011" lon="6.04042">
        <ele>212.87</ele>
        <time>2018-02-23T12:48:02Z</time>
      </trkpt>
      <trkpt lat="47.69015" lon="6.04032">
        <ele>212.87</ele>
        <time>2018-02-23T12:48:04Z</time>
      </trkpt>
      <trkpt lat="47.69018" lon="6.04022">
        <ele>212.82</ele>
        <time>2018-02-23T12:48:06Z</time>
      </trkpt>
      <trkpt lat="47.69021" lon="6.04012">
        <ele>212.78</ele>
        <time>2018-02-23T12:48:08Z</time>
      </trkpt>
      <trkpt lat="47.69025" lon="6.04002">
        <ele>212.69</ele>
        <time>2018-02-23T12:48:10Z</time>
      </trkpt>
      <trkpt lat="47.69029" lon="6.03993">
        <ele>212.66</ele>
        <time>2018-02-23T12:48:12Z</time>
      </trkpt>
      <trkpt lat="47.69033" lon="6.03983">
        <ele>212.59</ele>
        <time>2018-02-23T12:48:14Z</time>
      </trkpt>
      <trkpt lat="47.69038" lon="6.03971">
        <ele>212.59</ele>
        <time>2018-02-23T12:48:16Z</time>
      </trkpt>
      <trkpt lat="47.69042" lon="6.0396">
        <ele>212.69</ele>
        <time>2018-02-23T12:48:18Z</time>
      </trkpt>
      <trkpt lat="47.69046" lon="6.03949">
        <ele>212.82</ele>
        <time>2018-02-23T12:48:20Z</time>
      </trkpt>
      <trkpt lat="47.6905" lon="6.0394">
        <ele>212.94</ele>
        <time>2018-02-23T12:48:22Z</time>
      </trkpt>
      <trkpt lat="47.69054" lon="6.03929">
        <ele>213.06</ele>
        <time>2018-02-23T12:48:24Z</time>
      </trkpt>
      <trkpt lat="47.69058" lon="6.03919">
        <ele>213.2</ele>
        <time>2018-02-23T12:48:26Z</time>
      </trkpt>
      <trkpt lat="47.69062" lon="6.03909">
        <ele>213.33</ele>
        <time>2018-02-23T12:48:28Z</time>
      </trkpt>
      <trkpt lat="47.69066" lon="6.03899">
        <ele>213.4</ele>
        <time>2018-02-23T12:48:30Z</time>
      </trkpt>
      <trkpt lat="47.69071" lon="6.03888">
        <ele>213.42</ele>
        <time>2018-02-23T12:48:32Z</time>
      </trkpt>
      <trkpt lat="47.69073" lon="6.03881">
        <ele>213.43</ele>
        <time>2018-02-23T12:48:33Z</time>
      </trkpt>
      <trkpt lat="47.69076" lon="6.03875">
        <ele>213.42</ele>
        <time>2018-02-23T12:48:34Z</time>
      </trkpt>
      <trkpt lat="47.69079" lon="6.03867">
        <ele>213.4</ele>
        <time>2018-02-23T12:48:35Z</time>
      </trkpt>
      <trkpt lat="47.69081" lon="6.0386">
        <ele>213.37</ele>
        <time>2018-02-23T12:48:36Z</time>
      </trkpt>
      <trkpt lat="47.69084" lon="6.03853">
        <ele>213.34</ele>
        <time>2018-02-23T12:48:37Z</time>
      </trkpt>
      <trkpt lat="47.69086" lon="6.03845">
        <ele>213.28</ele>
        <time>2018-02-23T12:48:38Z</time>
      </trkpt>
      <trkpt lat="47.69089" lon="6.03839">
        <ele>213.23</ele>
        <time>2018-02-23T12:48:39Z</time>
      </trkpt>
      <trkpt lat="47.69091" lon="6.03832">
        <ele>213.17</ele>
        <time>2018-02-23T12:48:40Z</time>
      </trkpt>
      <trkpt lat="47.69095" lon="6.03822">
        <ele>213.12</ele>
        <time>2018-02-23T12:48:42Z</time>
      </trkpt>
      <trkpt lat="47.69099" lon="6.03815">
        <ele>213.11</ele>
        <time>2018-02-23T12:48:44Z</time>
      </trkpt>
      <trkpt lat="47.69102" lon="6.03808">
        <ele>213.09</ele>
        <time>2018-02-23T12:48:47Z</time>
      </trkpt>
      <trkpt lat="47.69104" lon="6.03801">
        <ele>213.1</ele>
        <time>2018-02-23T12:48:51Z</time>
      </trkpt>
      <trkpt lat="47.69104" lon="6.03792">
        <ele>213.13</ele>
        <time>2018-02-23T12:48:58Z</time>
      </trkpt>
      <trkpt lat="47.69099" lon="6.03785">
        <ele>213.22</ele>
        <time>2018-02-23T12:49:01Z</time>
      </trkpt>
      <trkpt lat="47.69094" lon="6.03781">
        <ele>213.28</ele>
        <time>2018-02-23T12:49:02Z</time>
      </trkpt>
      <trkpt lat="47.69089" lon="6.03778">
        <ele>213.29</ele>
        <time>2018-02-23T12:49:03Z</time>
      </trkpt>
      <trkpt lat="47.69084" lon="6.03775">
        <ele>213.3</ele>
        <time>2018-02-23T12:49:04Z</time>
      </trkpt>
      <trkpt lat="47.69078" lon="6.03771">
        <ele>213.28</ele>
        <time>2018-02-23T12:49:05Z</time>
      </trkpt>
      <trkpt lat="47.69072" lon="6.03767">
        <ele>213.26</ele>
        <time>2018-02-23T12:49:06Z</time>
      </trkpt>
      <trkpt lat="47.69067" lon="6.03763">
        <ele>213.22</ele>
        <time>2018-02-23T12:49:07Z</time>
      </trkpt>
      <trkpt lat="47.69061" lon="6.03759">
        <ele>213.17</ele>
        <time>2018-02-23T12:49:08Z</time>
      </trkpt>
      <trkpt lat="47.69055" lon="6.03756">
        <ele>213.12</ele>
        <time>2018-02-23T12:49:09Z</time>
      </trkpt>
      <trkpt lat="47.69049" lon="6.03752">
        <ele>213.08</ele>
        <time>2018-02-23T12:49:10Z</time>
      </trkpt>
      <trkpt lat="47.69043" lon="6.03749">
        <ele>213.05</ele>
        <time>2018-02-23T12:49:11Z</time>
      </trkpt>
      <trkpt lat="47.69038" lon="6.03745">
        <ele>213.02</ele>
        <time>2018-02-23T12:49:12Z</time>
      </trkpt>
      <trkpt lat="47.69033" lon="6.03742">
        <ele>213</ele>
        <time>2018-02-23T12:49:13Z</time>
      </trkpt>
      <trkpt lat="47.69028" lon="6.03738">
        <ele>212.99</ele>
        <time>2018-02-23T12:49:14Z</time>
      </trkpt>
      <trkpt lat="47.69024" lon="6.03734">
        <ele>212.99</ele>
        <time>2018-02-23T12:49:15Z</time>
      </trkpt>
      <trkpt lat="47.6902" lon="6.03731">
        <ele>212.99</ele>
        <time>2018-02-23T12:49:16Z</time>
      </trkpt>
      <trkpt lat="47.69015" lon="6.03728">
        <ele>212.98</ele>
        <time>2018-02-23T12:49:17Z</time>
      </trkpt>
      <trkpt lat="47.69011" lon="6.03725">
        <ele>212.98</ele>
        <time>2018-02-23T12:49:18Z</time>
      </trkpt>
      <trkpt lat="47.69006" lon="6.03721">
        <ele>212.97</ele>
        <time>2018-02-23T12:49:19Z</time>
      </trkpt>
      <trkpt lat="47.69001" lon="6.03717">
        <ele>212.96</ele>
        <time>2018-02-23T12:49:20Z</time>
      </trkpt>
      <trkpt lat="47.68996" lon="6.03714">
        <ele>212.95</ele>
        <time>2018-02-23T12:49:21Z</time>
      </trkpt>
      <trkpt lat="47.68991" lon="6.0371">
        <ele>212.93</ele>
        <time>2018-02-23T12:49:22Z</time>
      </trkpt>
      <trkpt lat="47.68987" lon="6.03706">
        <ele>212.91</ele>
        <time>2018-02-23T12:49:23Z</time>
      </trkpt>
      <trkpt lat="47.68982" lon="6.03701">
        <ele>212.88</ele>
        <time>2018-02-23T12:49:24Z</time>
      </trkpt>
      <trkpt lat="47.68978" lon="6.03698">
        <ele>212.85</ele>
        <time>2018-02-23T12:49:25Z</time>
      </trkpt>
      <trkpt lat="47.68974" lon="6.03694">
        <ele>212.82</ele>
        <time>2018-02-23T12:49:26Z</time>
      </trkpt>
      <trkpt lat="47.68967" lon="6.03688">
        <ele>212.76</ele>
        <time>2018-02-23T12:49:28Z</time>
      </trkpt>
      <trkpt lat="47.6896" lon="6.03683">
        <ele>212.68</ele>
        <time>2018-02-23T12:49:30Z</time>
      </trkpt>
      <trkpt lat="47.68952" lon="6.03678">
        <ele>212.62</ele>
        <time>2018-02-23T12:49:32Z</time>
      </trkpt>
      <trkpt lat="47.68945" lon="6.03674">
        <ele>212.58</ele>
        <time>2018-02-23T12:49:34Z</time>
      </trkpt>
      <trkpt lat="47.68936" lon="6.03671">
        <ele>212.55</ele>
        <time>2018-02-23T12:49:36Z</time>
      </trkpt>
      <trkpt lat="47.68931" lon="6.03668">
        <ele>212.55</ele>
        <time>2018-02-23T12:49:37Z</time>
      </trkpt>
      <trkpt lat="47.68927" lon="6.03666">
        <ele>212.55</ele>
        <time>2018-02-23T12:49:38Z</time>
      </trkpt>
      <trkpt lat="47.68922" lon="6.03664">
        <ele>212.56</ele>
        <time>2018-02-23T12:49:39Z</time>
      </trkpt>
      <trkpt lat="47.68918" lon="6.03663">
        <ele>212.58</ele>
        <time>2018-02-23T12:49:40Z</time>
      </trkpt>
      <trkpt lat="47.68913" lon="6.03661">
        <ele>212.59</ele>
        <time>2018-02-23T12:49:41Z</time>
      </trkpt>
      <trkpt lat="47.68905" lon="6.03657">
        <ele>212.6</ele>
        <time>2018-02-23T12:49:43Z</time>
      </trkpt>
      <trkpt lat="47.689" lon="6.03657">
        <ele>212.59</ele>
        <time>2018-02-23T12:49:44Z</time>
      </trkpt>
      <trkpt lat="47.68891" lon="6.03654">
        <ele>212.58</ele>
        <time>2018-02-23T12:49:46Z</time>
      </trkpt>
      <trkpt lat="47.68886" lon="6.03654">
        <ele>212.58</ele>
        <time>2018-02-23T12:49:47Z</time>
      </trkpt>
      <trkpt lat="47.68878" lon="6.03653">
        <ele>212.59</ele>
        <time>2018-02-23T12:49:49Z</time>
      </trkpt>
      <trkpt lat="47.68869" lon="6.03653">
        <ele>212.61</ele>
        <time>2018-02-23T12:49:51Z</time>
      </trkpt>
      <trkpt lat="47.6886" lon="6.03653">
        <ele>212.63</ele>
        <time>2018-02-23T12:49:53Z</time>
      </trkpt>
      <trkpt lat="47.68851" lon="6.03654">
        <ele>212.65</ele>
        <time>2018-02-23T12:49:55Z</time>
      </trkpt>
      <trkpt lat="47.68846" lon="6.03655">
        <ele>212.66</ele>
        <time>2018-02-23T12:49:56Z</time>
      </trkpt>
      <trkpt lat="47.68842" lon="6.03655">
        <ele>212.67</ele>
        <time>2018-02-23T12:49:57Z</time>
      </trkpt>
      <trkpt lat="47.68833" lon="6.03655">
        <ele>212.69</ele>
        <time>2018-02-23T12:49:59Z</time>
      </trkpt>
      <trkpt lat="47.68828" lon="6.03654">
        <ele>212.71</ele>
        <time>2018-02-23T12:50:00Z</time>
      </trkpt>
      <trkpt lat="47.68823" lon="6.03654">
        <ele>212.72</ele>
        <time>2018-02-23T12:50:01Z</time>
      </trkpt>
      <trkpt lat="47.68818" lon="6.03653">
        <ele>212.72</ele>
        <time>2018-02-23T12:50:02Z</time>
      </trkpt>
      <trkpt lat="47.68813" lon="6.03654">
        <ele>212.73</ele>
        <time>2018-02-23T12:50:03Z</time>
      </trkpt>
      <trkpt lat="47.68809" lon="6.03654">
        <ele>212.74</ele>
        <time>2018-02-23T12:50:04Z</time>
      </trkpt>
      <trkpt lat="47.68804" lon="6.03654">
        <ele>212.74</ele>
        <time>2018-02-23T12:50:05Z</time>
      </trkpt>
      <trkpt lat="47.68799" lon="6.03653">
        <ele>212.75</ele>
        <time>2018-02-23T12:50:06Z</time>
      </trkpt>
      <trkpt lat="47.68794" lon="6.03653">
        <ele>212.76</ele>
        <time>2018-02-23T12:50:07Z</time>
      </trkpt>
      <trkpt lat="47.68789" lon="6.03652">
        <ele>212.76</ele>
        <time>2018-02-23T12:50:08Z</time>
      </trkpt>
      <trkpt lat="47.68785" lon="6.03651">
        <ele>212.77</ele>
        <time>2018-02-23T12:50:09Z</time>
      </trkpt>
      <trkpt lat="47.68779" lon="6.03651">
        <ele>212.77</ele>
        <time>2018-02-23T12:50:10Z</time>
      </trkpt>
      <trkpt lat="47.68774" lon="6.0365">
        <ele>212.76</ele>
        <time>2018-02-23T12:50:11Z</time>
      </trkpt>
      <trkpt lat="47.68769" lon="6.0365">
        <ele>212.74</ele>
        <time>2018-02-23T12:50:12Z</time>
      </trkpt>
      <trkpt lat="47.68764" lon="6.03649">
        <ele>212.72</ele>
        <time>2018-02-23T12:50:13Z</time>
      </trkpt>
      <trkpt lat="47.68759" lon="6.03648">
        <ele>212.68</ele>
        <time>2018-02-23T12:50:14Z</time>
      </trkpt>
      <trkpt lat="47.68754" lon="6.03647">
        <ele>212.63</ele>
        <time>2018-02-23T12:50:15Z</time>
      </trkpt>
      <trkpt lat="47.68749" lon="6.03646">
        <ele>212.58</ele>
        <time>2018-02-23T12:50:16Z</time>
      </trkpt>
      <trkpt lat="47.68744" lon="6.03644">
        <ele>212.52</ele>
        <time>2018-02-23T12:50:17Z</time>
      </trkpt>
      <trkpt lat="47.68739" lon="6.03643">
        <ele>212.45</ele>
        <time>2018-02-23T12:50:18Z</time>
      </trkpt>
      <trkpt lat="47.68735" lon="6.03642">
        <ele>212.39</ele>
        <time>2018-02-23T12:50:19Z</time>
      </trkpt>
      <trkpt lat="47.6873" lon="6.03641">
        <ele>212.34</ele>
        <time>2018-02-23T12:50:20Z</time>
      </trkpt>
      <trkpt lat="47.68725" lon="6.03641">
        <ele>212.29</ele>
        <time>2018-02-23T12:50:21Z</time>
      </trkpt>
      <trkpt lat="47.6872" lon="6.0364">
        <ele>212.26</ele>
        <time>2018-02-23T12:50:22Z</time>
      </trkpt>
      <trkpt lat="47.68716" lon="6.03638">
        <ele>212.23</ele>
        <time>2018-02-23T12:50:23Z</time>
      </trkpt>
      <trkpt lat="47.68711" lon="6.03638">
        <ele>212.2</ele>
        <time>2018-02-23T12:50:24Z</time>
      </trkpt>
      <trkpt lat="47.68707" lon="6.03637">
        <ele>212.18</ele>
        <time>2018-02-23T12:50:25Z</time>
      </trkpt>
      <trkpt lat="47.68702" lon="6.03636">
        <ele>212.16</ele>
        <time>2018-02-23T12:50:26Z</time>
      </trkpt>
      <trkpt lat="47.68697" lon="6.03636">
        <ele>212.15</ele>
        <time>2018-02-23T12:50:27Z</time>
      </trkpt>
      <trkpt lat="47.68693" lon="6.03635">
        <ele>212.13</ele>
        <time>2018-02-23T12:50:28Z</time>
      </trkpt>
      <trkpt lat="47.68688" lon="6.03634">
        <ele>212.12</ele>
        <time>2018-02-23T12:50:29Z</time>
      </trkpt>
      <trkpt lat="47.68678" lon="6.03633">
        <ele>212.12</ele>
        <time>2018-02-23T12:50:31Z</time>
      </trkpt>
      <trkpt lat="47.68673" lon="6.03632">
        <ele>212.12</ele>
        <time>2018-02-23T12:50:32Z</time>
      </trkpt>
      <trkpt lat="47.68668" lon="6.03632">
        <ele>212.12</ele>
        <time>2018-02-23T12:50:33Z</time>
      </trkpt>
      <trkpt lat="47.68664" lon="6.0363">
        <ele>212.12</ele>
        <time>2018-02-23T12:50:34Z</time>
      </trkpt>
      <trkpt lat="47.68659" lon="6.03629">
        <ele>212.12</ele>
        <time>2018-02-23T12:50:35Z</time>
      </trkpt>
      <trkpt lat="47.68651" lon="6.0363">
        <ele>212.11</ele>
        <time>2018-02-23T12:50:37Z</time>
      </trkpt>
      <trkpt lat="47.68646" lon="6.03629">
        <ele>212.11</ele>
        <time>2018-02-23T12:50:38Z</time>
      </trkpt>
      <trkpt lat="47.68642" lon="6.03628">
        <ele>212.11</ele>
        <time>2018-02-23T12:50:39Z</time>
      </trkpt>
      <trkpt lat="47.68637" lon="6.03627">
        <ele>212.12</ele>
        <time>2018-02-23T12:50:40Z</time>
      </trkpt>
      <trkpt lat="47.68628" lon="6.03625">
        <ele>212.11</ele>
        <time>2018-02-23T12:50:42Z</time>
      </trkpt>
      <trkpt lat="47.68621" lon="6.03625">
        <ele>212.09</ele>
        <time>2018-02-23T12:50:44Z</time>
      </trkpt>
      <trkpt lat="47.68614" lon="6.03629">
        <ele>212.08</ele>
        <time>2018-02-23T12:50:46Z</time>
      </trkpt>
      <trkpt lat="47.68607" lon="6.03636">
        <ele>212.08</ele>
        <time>2018-02-23T12:50:48Z</time>
      </trkpt>
      <trkpt lat="47.68601" lon="6.0364">
        <ele>212.09</ele>
        <time>2018-02-23T12:50:50Z</time>
      </trkpt>
      <trkpt lat="47.68595" lon="6.03643">
        <ele>212.09</ele>
        <time>2018-02-23T12:50:52Z</time>
      </trkpt>
      <trkpt lat="47.68588" lon="6.03644">
        <ele>212.11</ele>
        <time>2018-02-23T12:50:54Z</time>
      </trkpt>
      <trkpt lat="47.68579" lon="6.03645">
        <ele>212.16</ele>
        <time>2018-02-23T12:50:56Z</time>
      </trkpt>
      <trkpt lat="47.68574" lon="6.03646">
        <ele>212.18</ele>
        <time>2018-02-23T12:50:57Z</time>
      </trkpt>
      <trkpt lat="47.68565" lon="6.03645">
        <ele>212.22</ele>
        <time>2018-02-23T12:51:00Z</time>
      </trkpt>
      <trkpt lat="47.6856" lon="6.03645">
        <ele>212.24</ele>
        <time>2018-02-23T12:51:01Z</time>
      </trkpt>
      <trkpt lat="47.68555" lon="6.03645">
        <ele>212.26</ele>
        <time>2018-02-23T12:51:02Z</time>
      </trkpt>
      <trkpt lat="47.68551" lon="6.03644">
        <ele>212.28</ele>
        <time>2018-02-23T12:51:03Z</time>
      </trkpt>
      <trkpt lat="47.68542" lon="6.03642">
        <ele>212.3</ele>
        <time>2018-02-23T12:51:05Z</time>
      </trkpt>
      <trkpt lat="47.68533" lon="6.03639">
        <ele>212.3</ele>
        <time>2018-02-23T12:51:07Z</time>
      </trkpt>
      <trkpt lat="47.68525" lon="6.03634">
        <ele>212.29</ele>
        <time>2018-02-23T12:51:09Z</time>
      </trkpt>
      <trkpt lat="47.68521" lon="6.03632">
        <ele>212.28</ele>
        <time>2018-02-23T12:51:10Z</time>
      </trkpt>
      <trkpt lat="47.68517" lon="6.03629">
        <ele>212.28</ele>
        <time>2018-02-23T12:51:11Z</time>
      </trkpt>
      <trkpt lat="47.68512" lon="6.03628">
        <ele>212.27</ele>
        <time>2018-02-23T12:51:12Z</time>
      </trkpt>
      <trkpt lat="47.68507" lon="6.03626">
        <ele>212.27</ele>
        <time>2018-02-23T12:51:13Z</time>
      </trkpt>
      <trkpt lat="47.68499" lon="6.03622">
        <ele>212.26</ele>
        <time>2018-02-23T12:51:15Z</time>
      </trkpt>
      <trkpt lat="47.68492" lon="6.03618">
        <ele>212.24</ele>
        <time>2018-02-23T12:51:17Z</time>
      </trkpt>
      <trkpt lat="47.68484" lon="6.03615">
        <ele>212.23</ele>
        <time>2018-02-23T12:51:19Z</time>
      </trkpt>
      <trkpt lat="47.68475" lon="6.03612">
        <ele>212.22</ele>
        <time>2018-02-23T12:51:21Z</time>
      </trkpt>
      <trkpt lat="47.68467" lon="6.0361">
        <ele>212.21</ele>
        <time>2018-02-23T12:51:23Z</time>
      </trkpt>
      <trkpt lat="47.68462" lon="6.03611">
        <ele>212.2</ele>
        <time>2018-02-23T12:51:24Z</time>
      </trkpt>
      <trkpt lat="47.68457" lon="6.03614">
        <ele>212.19</ele>
        <time>2018-02-23T12:51:25Z</time>
      </trkpt>
      <trkpt lat="47.68453" lon="6.03616">
        <ele>212.18</ele>
        <time>2018-02-23T12:51:26Z</time>
      </trkpt>
      <trkpt lat="47.68448" lon="6.03618">
        <ele>212.16</ele>
        <time>2018-02-23T12:51:27Z</time>
      </trkpt>
      <trkpt lat="47.68444" lon="6.03619">
        <ele>212.14</ele>
        <time>2018-02-23T12:51:28Z</time>
      </trkpt>
      <trkpt lat="47.68439" lon="6.0362">
        <ele>212.11</ele>
        <time>2018-02-23T12:51:29Z</time>
      </trkpt>
      <trkpt lat="47.68435" lon="6.03621">
        <ele>212.09</ele>
        <time>2018-02-23T12:51:30Z</time>
      </trkpt>
      <trkpt lat="47.6843" lon="6.03621">
        <ele>212.06</ele>
        <time>2018-02-23T12:51:31Z</time>
      </trkpt>
      <trkpt lat="47.68425" lon="6.03621">
        <ele>212.03</ele>
        <time>2018-02-23T12:51:32Z</time>
      </trkpt>
      <trkpt lat="47.68417" lon="6.03618">
        <ele>211.97</ele>
        <time>2018-02-23T12:51:34Z</time>
      </trkpt>
      <trkpt lat="47.68413" lon="6.03616">
        <ele>211.94</ele>
        <time>2018-02-23T12:51:35Z</time>
      </trkpt>
      <trkpt lat="47.68408" lon="6.03613">
        <ele>211.9</ele>
        <time>2018-02-23T12:51:36Z</time>
      </trkpt>
      <trkpt lat="47.68404" lon="6.0361">
        <ele>211.87</ele>
        <time>2018-02-23T12:51:37Z</time>
      </trkpt>
      <trkpt lat="47.68399" lon="6.03607">
        <ele>211.84</ele>
        <time>2018-02-23T12:51:38Z</time>
      </trkpt>
      <trkpt lat="47.68394" lon="6.03605">
        <ele>211.8</ele>
        <time>2018-02-23T12:51:39Z</time>
      </trkpt>
      <trkpt lat="47.6839" lon="6.03602">
        <ele>211.77</ele>
        <time>2018-02-23T12:51:40Z</time>
      </trkpt>
      <trkpt lat="47.68385" lon="6.036">
        <ele>211.73</ele>
        <time>2018-02-23T12:51:41Z</time>
      </trkpt>
      <trkpt lat="47.68381" lon="6.03598">
        <ele>211.7</ele>
        <time>2018-02-23T12:51:42Z</time>
      </trkpt>
      <trkpt lat="47.68376" lon="6.03596">
        <ele>211.66</ele>
        <time>2018-02-23T12:51:43Z</time>
      </trkpt>
      <trkpt lat="47.68368" lon="6.03591">
        <ele>211.61</ele>
        <time>2018-02-23T12:51:45Z</time>
      </trkpt>
      <trkpt lat="47.6836" lon="6.03588">
        <ele>211.55</ele>
        <time>2018-02-23T12:51:47Z</time>
      </trkpt>
      <trkpt lat="47.68355" lon="6.03586">
        <ele>211.52</ele>
        <time>2018-02-23T12:51:48Z</time>
      </trkpt>
      <trkpt lat="47.6835" lon="6.03585">
        <ele>211.5</ele>
        <time>2018-02-23T12:51:49Z</time>
      </trkpt>
      <trkpt lat="47.68345" lon="6.03584">
        <ele>211.47</ele>
        <time>2018-02-23T12:51:50Z</time>
      </trkpt>
      <trkpt lat="47.68337" lon="6.03583">
        <ele>211.43</ele>
        <time>2018-02-23T12:51:52Z</time>
      </trkpt>
      <trkpt lat="47.68329" lon="6.03582">
        <ele>211.38</ele>
        <time>2018-02-23T12:51:54Z</time>
      </trkpt>
      <trkpt lat="47.68321" lon="6.03579">
        <ele>211.34</ele>
        <time>2018-02-23T12:51:56Z</time>
      </trkpt>
      <trkpt lat="47.68312" lon="6.03577">
        <ele>211.3</ele>
        <time>2018-02-23T12:51:58Z</time>
      </trkpt>
      <trkpt lat="47.68303" lon="6.03574">
        <ele>211.26</ele>
        <time>2018-02-23T12:52:00Z</time>
      </trkpt>
      <trkpt lat="47.68299" lon="6.03574">
        <ele>211.24</ele>
        <time>2018-02-23T12:52:01Z</time>
      </trkpt>
      <trkpt lat="47.68294" lon="6.03573">
        <ele>211.21</ele>
        <time>2018-02-23T12:52:02Z</time>
      </trkpt>
      <trkpt lat="47.6829" lon="6.03572">
        <ele>211.19</ele>
        <time>2018-02-23T12:52:03Z</time>
      </trkpt>
      <trkpt lat="47.68285" lon="6.03571">
        <ele>211.16</ele>
        <time>2018-02-23T12:52:04Z</time>
      </trkpt>
      <trkpt lat="47.6828" lon="6.03571">
        <ele>211.13</ele>
        <time>2018-02-23T12:52:05Z</time>
      </trkpt>
      <trkpt lat="47.68276" lon="6.0357">
        <ele>211.1</ele>
        <time>2018-02-23T12:52:06Z</time>
      </trkpt>
      <trkpt lat="47.68271" lon="6.0357">
        <ele>211.07</ele>
        <time>2018-02-23T12:52:07Z</time>
      </trkpt>
      <trkpt lat="47.68267" lon="6.03569">
        <ele>211.04</ele>
        <time>2018-02-23T12:52:08Z</time>
      </trkpt>
      <trkpt lat="47.68262" lon="6.03569">
        <ele>211.01</ele>
        <time>2018-02-23T12:52:09Z</time>
      </trkpt>
      <trkpt lat="47.68257" lon="6.03569">
        <ele>210.98</ele>
        <time>2018-02-23T12:52:10Z</time>
      </trkpt>
      <trkpt lat="47.68252" lon="6.03568">
        <ele>210.96</ele>
        <time>2018-02-23T12:52:11Z</time>
      </trkpt>
      <trkpt lat="47.68246" lon="6.03568">
        <ele>210.93</ele>
        <time>2018-02-23T12:52:12Z</time>
      </trkpt>
      <trkpt lat="47.6824" lon="6.03567">
        <ele>210.91</ele>
        <time>2018-02-23T12:52:13Z</time>
      </trkpt>
      <trkpt lat="47.68235" lon="6.03567">
        <ele>210.88</ele>
        <time>2018-02-23T12:52:14Z</time>
      </trkpt>
      <trkpt lat="47.68229" lon="6.03566">
        <ele>210.86</ele>
        <time>2018-02-23T12:52:15Z</time>
      </trkpt>
      <trkpt lat="47.68224" lon="6.03566">
        <ele>210.84</ele>
        <time>2018-02-23T12:52:16Z</time>
      </trkpt>
      <trkpt lat="47.68219" lon="6.03566">
        <ele>210.82</ele>
        <time>2018-02-23T12:52:17Z</time>
      </trkpt>
      <trkpt lat="47.68214" lon="6.03566">
        <ele>210.81</ele>
        <time>2018-02-23T12:52:18Z</time>
      </trkpt>
      <trkpt lat="47.68209" lon="6.03567">
        <ele>210.79</ele>
        <time>2018-02-23T12:52:19Z</time>
      </trkpt>
      <trkpt lat="47.68204" lon="6.03568">
        <ele>210.78</ele>
        <time>2018-02-23T12:52:20Z</time>
      </trkpt>
      <trkpt lat="47.682" lon="6.03569">
        <ele>210.76</ele>
        <time>2018-02-23T12:52:21Z</time>
      </trkpt>
      <trkpt lat="47.68195" lon="6.03569">
        <ele>210.75</ele>
        <time>2018-02-23T12:52:22Z</time>
      </trkpt>
      <trkpt lat="47.6819" lon="6.0357">
        <ele>210.74</ele>
        <time>2018-02-23T12:52:23Z</time>
      </trkpt>
      <trkpt lat="47.68185" lon="6.03571">
        <ele>210.73</ele>
        <time>2018-02-23T12:52:24Z</time>
      </trkpt>
      <trkpt lat="47.68181" lon="6.03571">
        <ele>210.72</ele>
        <time>2018-02-23T12:52:25Z</time>
      </trkpt>
      <trkpt lat="47.68176" lon="6.03572">
        <ele>210.71</ele>
        <time>2018-02-23T12:52:26Z</time>
      </trkpt>
      <trkpt lat="47.68171" lon="6.03573">
        <ele>210.69</ele>
        <time>2018-02-23T12:52:27Z</time>
      </trkpt>
      <trkpt lat="47.68166" lon="6.03574">
        <ele>210.68</ele>
        <time>2018-02-23T12:52:28Z</time>
      </trkpt>
      <trkpt lat="47.68162" lon="6.03575">
        <ele>210.66</ele>
        <time>2018-02-23T12:52:29Z</time>
      </trkpt>
      <trkpt lat="47.68157" lon="6.03576">
        <ele>210.64</ele>
        <time>2018-02-23T12:52:30Z</time>
      </trkpt>
      <trkpt lat="47.68152" lon="6.03578">
        <ele>210.62</ele>
        <time>2018-02-23T12:52:31Z</time>
      </trkpt>
      <trkpt lat="47.68148" lon="6.03579">
        <ele>210.6</ele>
        <time>2018-02-23T12:52:32Z</time>
      </trkpt>
      <trkpt lat="47.68143" lon="6.0358">
        <ele>210.58</ele>
        <time>2018-02-23T12:52:33Z</time>
      </trkpt>
      <trkpt lat="47.68138" lon="6.03581">
        <ele>210.56</ele>
        <time>2018-02-23T12:52:34Z</time>
      </trkpt>
      <trkpt lat="47.68133" lon="6.03582">
        <ele>210.55</ele>
        <time>2018-02-23T12:52:35Z</time>
      </trkpt>
      <trkpt lat="47.68127" lon="6.03583">
        <ele>210.54</ele>
        <time>2018-02-23T12:52:36Z</time>
      </trkpt>
      <trkpt lat="47.68122" lon="6.03583">
        <ele>210.52</ele>
        <time>2018-02-23T12:52:37Z</time>
      </trkpt>
      <trkpt lat="47.68117" lon="6.03583">
        <ele>210.51</ele>
        <time>2018-02-23T12:52:38Z</time>
      </trkpt>
      <trkpt lat="47.68112" lon="6.03583">
        <ele>210.5</ele>
        <time>2018-02-23T12:52:39Z</time>
      </trkpt>
      <trkpt lat="47.68108" lon="6.03582">
        <ele>210.48</ele>
        <time>2018-02-23T12:52:40Z</time>
      </trkpt>
      <trkpt lat="47.68103" lon="6.03581">
        <ele>210.46</ele>
        <time>2018-02-23T12:52:41Z</time>
      </trkpt>
      <trkpt lat="47.68098" lon="6.03581">
        <ele>210.43</ele>
        <time>2018-02-23T12:52:42Z</time>
      </trkpt>
      <trkpt lat="47.68092" lon="6.03579">
        <ele>210.41</ele>
        <time>2018-02-23T12:52:43Z</time>
      </trkpt>
      <trkpt lat="47.68088" lon="6.03578">
        <ele>210.39</ele>
        <time>2018-02-23T12:52:44Z</time>
      </trkpt>
      <trkpt lat="47.68083" lon="6.03576">
        <ele>210.36</ele>
        <time>2018-02-23T12:52:45Z</time>
      </trkpt>
      <trkpt lat="47.68077" lon="6.03575">
        <ele>210.34</ele>
        <time>2018-02-23T12:52:46Z</time>
      </trkpt>
      <trkpt lat="47.68073" lon="6.03574">
        <ele>210.32</ele>
        <time>2018-02-23T12:52:47Z</time>
      </trkpt>
      <trkpt lat="47.68068" lon="6.03573">
        <ele>210.3</ele>
        <time>2018-02-23T12:52:48Z</time>
      </trkpt>
      <trkpt lat="47.68063" lon="6.03573">
        <ele>210.29</ele>
        <time>2018-02-23T12:52:49Z</time>
      </trkpt>
      <trkpt lat="47.68058" lon="6.03572">
        <ele>210.27</ele>
        <time>2018-02-23T12:52:50Z</time>
      </trkpt>
      <trkpt lat="47.68054" lon="6.03571">
        <ele>210.26</ele>
        <time>2018-02-23T12:52:51Z</time>
      </trkpt>
      <trkpt lat="47.68045" lon="6.0357">
        <ele>210.24</ele>
        <time>2018-02-23T12:52:53Z</time>
      </trkpt>
      <trkpt lat="47.6804" lon="6.03569">
        <ele>210.23</ele>
        <time>2018-02-23T12:52:54Z</time>
      </trkpt>
      <trkpt lat="47.68036" lon="6.03567">
        <ele>210.21</ele>
        <time>2018-02-23T12:52:55Z</time>
      </trkpt>
      <trkpt lat="47.68028" lon="6.03561">
        <ele>210.19</ele>
        <time>2018-02-23T12:52:57Z</time>
      </trkpt>
      <trkpt lat="47.68022" lon="6.03554">
        <ele>210.15</ele>
        <time>2018-02-23T12:52:59Z</time>
      </trkpt>
      <trkpt lat="47.68015" lon="6.03548">
        <ele>210.13</ele>
        <time>2018-02-23T12:53:01Z</time>
      </trkpt>
      <trkpt lat="47.6801" lon="6.03541">
        <ele>210.11</ele>
        <time>2018-02-23T12:53:03Z</time>
      </trkpt>
      <trkpt lat="47.68003" lon="6.03536">
        <ele>210.07</ele>
        <time>2018-02-23T12:53:05Z</time>
      </trkpt>
      <trkpt lat="47.67996" lon="6.0353">
        <ele>210.03</ele>
        <time>2018-02-23T12:53:07Z</time>
      </trkpt>
      <trkpt lat="47.6799" lon="6.03523">
        <ele>209.99</ele>
        <time>2018-02-23T12:53:09Z</time>
      </trkpt>
      <trkpt lat="47.67985" lon="6.03516">
        <ele>209.98</ele>
        <time>2018-02-23T12:53:11Z</time>
      </trkpt>
      <trkpt lat="47.67978" lon="6.0351">
        <ele>209.98</ele>
        <time>2018-02-23T12:53:13Z</time>
      </trkpt>
      <trkpt lat="47.67972" lon="6.03504">
        <ele>209.95</ele>
        <time>2018-02-23T12:53:15Z</time>
      </trkpt>
      <trkpt lat="47.67966" lon="6.03498">
        <ele>209.92</ele>
        <time>2018-02-23T12:53:17Z</time>
      </trkpt>
      <trkpt lat="47.6796" lon="6.0349">
        <ele>209.89</ele>
        <time>2018-02-23T12:53:19Z</time>
      </trkpt>
      <trkpt lat="47.67954" lon="6.03483">
        <ele>209.86</ele>
        <time>2018-02-23T12:53:21Z</time>
      </trkpt>
      <trkpt lat="47.67948" lon="6.03477">
        <ele>209.84</ele>
        <time>2018-02-23T12:53:23Z</time>
      </trkpt>
      <trkpt lat="47.67942" lon="6.0347">
        <ele>209.84</ele>
        <time>2018-02-23T12:53:25Z</time>
      </trkpt>
      <trkpt lat="47.67938" lon="6.03462">
        <ele>209.83</ele>
        <time>2018-02-23T12:53:27Z</time>
      </trkpt>
      <trkpt lat="47.67935" lon="6.03453">
        <ele>209.83</ele>
        <time>2018-02-23T12:53:29Z</time>
      </trkpt>
      <trkpt lat="47.67931" lon="6.03443">
        <ele>209.81</ele>
        <time>2018-02-23T12:53:31Z</time>
      </trkpt>
      <trkpt lat="47.67926" lon="6.03435">
        <ele>209.81</ele>
        <time>2018-02-23T12:53:33Z</time>
      </trkpt>
      <trkpt lat="47.67922" lon="6.03428">
        <ele>209.8</ele>
        <time>2018-02-23T12:53:35Z</time>
      </trkpt>
      <trkpt lat="47.67917" lon="6.0342">
        <ele>209.79</ele>
        <time>2018-02-23T12:53:37Z</time>
      </trkpt>
      <trkpt lat="47.67912" lon="6.03411">
        <ele>209.77</ele>
        <time>2018-02-23T12:53:39Z</time>
      </trkpt>
      <trkpt lat="47.67906" lon="6.03403">
        <ele>209.76</ele>
        <time>2018-02-23T12:53:41Z</time>
      </trkpt>
      <trkpt lat="47.679" lon="6.03395">
        <ele>209.74</ele>
        <time>2018-02-23T12:53:43Z</time>
      </trkpt>
      <trkpt lat="47.67895" lon="6.03386">
        <ele>209.73</ele>
        <time>2018-02-23T12:53:45Z</time>
      </trkpt>
      <trkpt lat="47.67889" lon="6.03378">
        <ele>209.71</ele>
        <time>2018-02-23T12:53:47Z</time>
      </trkpt>
      <trkpt lat="47.67884" lon="6.03369">
        <ele>209.69</ele>
        <time>2018-02-23T12:53:49Z</time>
      </trkpt>
      <trkpt lat="47.67878" lon="6.03361">
        <ele>209.68</ele>
        <time>2018-02-23T12:53:51Z</time>
      </trkpt>
      <trkpt lat="47.67873" lon="6.03353">
        <ele>209.67</ele>
        <time>2018-02-23T12:53:53Z</time>
      </trkpt>
      <trkpt lat="47.67867" lon="6.03344">
        <ele>209.65</ele>
        <time>2018-02-23T12:53:55Z</time>
      </trkpt>
      <trkpt lat="47.67861" lon="6.03335">
        <ele>209.64</ele>
        <time>2018-02-23T12:53:57Z</time>
      </trkpt>
      <trkpt lat="47.67857" lon="6.0333">
        <ele>209.64</ele>
        <time>2018-02-23T12:53:58Z</time>
      </trkpt>
      <trkpt lat="47.67854" lon="6.03325">
        <ele>209.63</ele>
        <time>2018-02-23T12:53:59Z</time>
      </trkpt>
      <trkpt lat="47.6785" lon="6.03321">
        <ele>209.62</ele>
        <time>2018-02-23T12:54:00Z</time>
      </trkpt>
      <trkpt lat="47.67844" lon="6.03312">
        <ele>209.61</ele>
        <time>2018-02-23T12:54:02Z</time>
      </trkpt>
      <trkpt lat="47.67838" lon="6.03303">
        <ele>209.6</ele>
        <time>2018-02-23T12:54:04Z</time>
      </trkpt>
      <trkpt lat="47.67832" lon="6.03295">
        <ele>209.58</ele>
        <time>2018-02-23T12:54:06Z</time>
      </trkpt>
      <trkpt lat="47.67826" lon="6.03286">
        <ele>209.57</ele>
        <time>2018-02-23T12:54:08Z</time>
      </trkpt>
      <trkpt lat="47.6782" lon="6.03278">
        <ele>209.56</ele>
        <time>2018-02-23T12:54:10Z</time>
      </trkpt>
      <trkpt lat="47.67814" lon="6.0327">
        <ele>209.56</ele>
        <time>2018-02-23T12:54:12Z</time>
      </trkpt>
      <trkpt lat="47.67808" lon="6.03262">
        <ele>209.55</ele>
        <time>2018-02-23T12:54:14Z</time>
      </trkpt>
      <trkpt lat="47.67802" lon="6.03253">
        <ele>209.54</ele>
        <time>2018-02-23T12:54:16Z</time>
      </trkpt>
      <trkpt lat="47.67796" lon="6.03246">
        <ele>209.54</ele>
        <time>2018-02-23T12:54:18Z</time>
      </trkpt>
      <trkpt lat="47.67791" lon="6.03237">
        <ele>209.53</ele>
        <time>2018-02-23T12:54:20Z</time>
      </trkpt>
      <trkpt lat="47.67784" lon="6.03229">
        <ele>209.52</ele>
        <time>2018-02-23T12:54:22Z</time>
      </trkpt>
      <trkpt lat="47.67778" lon="6.03221">
        <ele>209.51</ele>
        <time>2018-02-23T12:54:24Z</time>
      </trkpt>
      <trkpt lat="47.67772" lon="6.03213">
        <ele>209.51</ele>
        <time>2018-02-23T12:54:26Z</time>
      </trkpt>
      <trkpt lat="47.67766" lon="6.03206">
        <ele>209.5</ele>
        <time>2018-02-23T12:54:28Z</time>
      </trkpt>
      <trkpt lat="47.6776" lon="6.03199">
        <ele>209.49</ele>
        <time>2018-02-23T12:54:30Z</time>
      </trkpt>
      <trkpt lat="47.67754" lon="6.03191">
        <ele>209.49</ele>
        <time>2018-02-23T12:54:32Z</time>
      </trkpt>
      <trkpt lat="47.67748" lon="6.03182">
        <ele>209.48</ele>
        <time>2018-02-23T12:54:34Z</time>
      </trkpt>
      <trkpt lat="47.67742" lon="6.03173">
        <ele>209.47</ele>
        <time>2018-02-23T12:54:36Z</time>
      </trkpt>
      <trkpt lat="47.67736" lon="6.03165">
        <ele>209.46</ele>
        <time>2018-02-23T12:54:38Z</time>
      </trkpt>
      <trkpt lat="47.67731" lon="6.03157">
        <ele>209.45</ele>
        <time>2018-02-23T12:54:40Z</time>
      </trkpt>
      <trkpt lat="47.67724" lon="6.03149">
        <ele>209.44</ele>
        <time>2018-02-23T12:54:42Z</time>
      </trkpt>
      <trkpt lat="47.67718" lon="6.03141">
        <ele>209.42</ele>
        <time>2018-02-23T12:54:44Z</time>
      </trkpt>
      <trkpt lat="47.67712" lon="6.03133">
        <ele>209.41</ele>
        <time>2018-02-23T12:54:46Z</time>
      </trkpt>
      <trkpt lat="47.67706" lon="6.03125">
        <ele>209.4</ele>
        <time>2018-02-23T12:54:48Z</time>
      </trkpt>
      <trkpt lat="47.677" lon="6.03117">
        <ele>209.39</ele>
        <time>2018-02-23T12:54:50Z</time>
      </trkpt>
      <trkpt lat="47.67694" lon="6.03108">
        <ele>209.38</ele>
        <time>2018-02-23T12:54:52Z</time>
      </trkpt>
      <trkpt lat="47.67688" lon="6.03099">
        <ele>209.36</ele>
        <time>2018-02-23T12:54:54Z</time>
      </trkpt>
      <trkpt lat="47.67681" lon="6.03092">
        <ele>209.35</ele>
        <time>2018-02-23T12:54:56Z</time>
      </trkpt>
      <trkpt lat="47.67675" lon="6.03083">
        <ele>209.34</ele>
        <time>2018-02-23T12:54:58Z</time>
      </trkpt>
      <trkpt lat="47.6767" lon="6.03075">
        <ele>209.33</ele>
        <time>2018-02-23T12:55:00Z</time>
      </trkpt>
      <trkpt lat="47.67664" lon="6.03067">
        <ele>209.31</ele>
        <time>2018-02-23T12:55:02Z</time>
      </trkpt>
      <trkpt lat="47.67658" lon="6.03059">
        <ele>209.29</ele>
        <time>2018-02-23T12:55:04Z</time>
      </trkpt>
      <trkpt lat="47.67652" lon="6.03051">
        <ele>209.27</ele>
        <time>2018-02-23T12:55:06Z</time>
      </trkpt>
      <trkpt lat="47.67647" lon="6.03043">
        <ele>209.24</ele>
        <time>2018-02-23T12:55:08Z</time>
      </trkpt>
      <trkpt lat="47.6764" lon="6.03034">
        <ele>209.22</ele>
        <time>2018-02-23T12:55:10Z</time>
      </trkpt>
      <trkpt lat="47.67634" lon="6.03027">
        <ele>209.19</ele>
        <time>2018-02-23T12:55:12Z</time>
      </trkpt>
      <trkpt lat="47.67628" lon="6.03018">
        <ele>209.17</ele>
        <time>2018-02-23T12:55:14Z</time>
      </trkpt>
      <trkpt lat="47.67622" lon="6.0301">
        <ele>209.14</ele>
        <time>2018-02-23T12:55:16Z</time>
      </trkpt>
      <trkpt lat="47.67615" lon="6.03001">
        <ele>209.11</ele>
        <time>2018-02-23T12:55:18Z</time>
      </trkpt>
      <trkpt lat="47.67609" lon="6.02992">
        <ele>209.08</ele>
        <time>2018-02-23T12:55:20Z</time>
      </trkpt>
      <trkpt lat="47.67603" lon="6.02983">
        <ele>209.05</ele>
        <time>2018-02-23T12:55:22Z</time>
      </trkpt>
      <trkpt lat="47.67597" lon="6.02975">
        <ele>209.03</ele>
        <time>2018-02-23T12:55:24Z</time>
      </trkpt>
      <trkpt lat="47.6759" lon="6.02967">
        <ele>209</ele>
        <time>2018-02-23T12:55:26Z</time>
      </trkpt>
      <trkpt lat="47.67584" lon="6.02959">
        <ele>208.98</ele>
        <time>2018-02-23T12:55:28Z</time>
      </trkpt>
      <trkpt lat="47.67577" lon="6.02949">
        <ele>208.94</ele>
        <time>2018-02-23T12:55:30Z</time>
      </trkpt>
      <trkpt lat="47.67574" lon="6.02944">
        <ele>208.92</ele>
        <time>2018-02-23T12:55:31Z</time>
      </trkpt>
      <trkpt lat="47.6757" lon="6.02939">
        <ele>208.9</ele>
        <time>2018-02-23T12:55:32Z</time>
      </trkpt>
      <trkpt lat="47.67566" lon="6.02935">
        <ele>208.88</ele>
        <time>2018-02-23T12:55:33Z</time>
      </trkpt>
      <trkpt lat="47.67563" lon="6.0293">
        <ele>208.86</ele>
        <time>2018-02-23T12:55:34Z</time>
      </trkpt>
      <trkpt lat="47.67559" lon="6.02925">
        <ele>208.84</ele>
        <time>2018-02-23T12:55:35Z</time>
      </trkpt>
      <trkpt lat="47.67556" lon="6.02921">
        <ele>208.82</ele>
        <time>2018-02-23T12:55:36Z</time>
      </trkpt>
      <trkpt lat="47.67551" lon="6.02912">
        <ele>208.78</ele>
        <time>2018-02-23T12:55:38Z</time>
      </trkpt>
      <trkpt lat="47.67545" lon="6.02904">
        <ele>208.73</ele>
        <time>2018-02-23T12:55:40Z</time>
      </trkpt>
      <trkpt lat="47.6754" lon="6.02896">
        <ele>208.7</ele>
        <time>2018-02-23T12:55:42Z</time>
      </trkpt>
      <trkpt lat="47.67535" lon="6.02888">
        <ele>208.64</ele>
        <time>2018-02-23T12:55:44Z</time>
      </trkpt>
      <trkpt lat="47.67529" lon="6.02879">
        <ele>208.59</ele>
        <time>2018-02-23T12:55:46Z</time>
      </trkpt>
      <trkpt lat="47.67523" lon="6.02871">
        <ele>208.55</ele>
        <time>2018-02-23T12:55:48Z</time>
      </trkpt>
      <trkpt lat="47.67516" lon="6.02863">
        <ele>208.51</ele>
        <time>2018-02-23T12:55:50Z</time>
      </trkpt>
      <trkpt lat="47.6751" lon="6.02855">
        <ele>208.48</ele>
        <time>2018-02-23T12:55:52Z</time>
      </trkpt>
      <trkpt lat="47.67503" lon="6.02846">
        <ele>208.45</ele>
        <time>2018-02-23T12:55:54Z</time>
      </trkpt>
      <trkpt lat="47.675" lon="6.02841">
        <ele>208.44</ele>
        <time>2018-02-23T12:55:55Z</time>
      </trkpt>
      <trkpt lat="47.67497" lon="6.02836">
        <ele>208.43</ele>
        <time>2018-02-23T12:55:56Z</time>
      </trkpt>
      <trkpt lat="47.67494" lon="6.02831">
        <ele>208.42</ele>
        <time>2018-02-23T12:55:57Z</time>
      </trkpt>
      <trkpt lat="47.67491" lon="6.02826">
        <ele>208.41</ele>
        <time>2018-02-23T12:55:58Z</time>
      </trkpt>
      <trkpt lat="47.67487" lon="6.02822">
        <ele>208.39</ele>
        <time>2018-02-23T12:55:59Z</time>
      </trkpt>
      <trkpt lat="47.6748" lon="6.02814">
        <ele>208.38</ele>
        <time>2018-02-23T12:56:01Z</time>
      </trkpt>
      <trkpt lat="47.67474" lon="6.02806">
        <ele>208.36</ele>
        <time>2018-02-23T12:56:03Z</time>
      </trkpt>
      <trkpt lat="47.67467" lon="6.02797">
        <ele>208.35</ele>
        <time>2018-02-23T12:56:05Z</time>
      </trkpt>
      <trkpt lat="47.67461" lon="6.02789">
        <ele>208.34</ele>
        <time>2018-02-23T12:56:07Z</time>
      </trkpt>
      <trkpt lat="47.67456" lon="6.0278">
        <ele>208.32</ele>
        <time>2018-02-23T12:56:09Z</time>
      </trkpt>
      <trkpt lat="47.6745" lon="6.02772">
        <ele>208.31</ele>
        <time>2018-02-23T12:56:11Z</time>
      </trkpt>
      <trkpt lat="47.67443" lon="6.02765">
        <ele>208.3</ele>
        <time>2018-02-23T12:56:13Z</time>
      </trkpt>
      <trkpt lat="47.67437" lon="6.02758">
        <ele>208.3</ele>
        <time>2018-02-23T12:56:15Z</time>
      </trkpt>
      <trkpt lat="47.67432" lon="6.0275">
        <ele>208.3</ele>
        <time>2018-02-23T12:56:17Z</time>
      </trkpt>
      <trkpt lat="47.67427" lon="6.02743">
        <ele>208.29</ele>
        <time>2018-02-23T12:56:19Z</time>
      </trkpt>
      <trkpt lat="47.67422" lon="6.02736">
        <ele>208.29</ele>
        <time>2018-02-23T12:56:21Z</time>
      </trkpt>
      <trkpt lat="47.67417" lon="6.02728">
        <ele>208.29</ele>
        <time>2018-02-23T12:56:23Z</time>
      </trkpt>
      <trkpt lat="47.67412" lon="6.02722">
        <ele>208.29</ele>
        <time>2018-02-23T12:56:25Z</time>
      </trkpt>
      <trkpt lat="47.67407" lon="6.02715">
        <ele>208.28</ele>
        <time>2018-02-23T12:56:27Z</time>
      </trkpt>
      <trkpt lat="47.67403" lon="6.02708">
        <ele>208.28</ele>
        <time>2018-02-23T12:56:29Z</time>
      </trkpt>
      <trkpt lat="47.67398" lon="6.02701">
        <ele>208.27</ele>
        <time>2018-02-23T12:56:31Z</time>
      </trkpt>
      <trkpt lat="47.67393" lon="6.02693">
        <ele>208.27</ele>
        <time>2018-02-23T12:56:33Z</time>
      </trkpt>
      <trkpt lat="47.67387" lon="6.02685">
        <ele>208.25</ele>
        <time>2018-02-23T12:56:35Z</time>
      </trkpt>
      <trkpt lat="47.67382" lon="6.02677">
        <ele>208.23</ele>
        <time>2018-02-23T12:56:37Z</time>
      </trkpt>
      <trkpt lat="47.67376" lon="6.0267">
        <ele>208.23</ele>
        <time>2018-02-23T12:56:39Z</time>
      </trkpt>
      <trkpt lat="47.67371" lon="6.02663">
        <ele>208.22</ele>
        <time>2018-02-23T12:56:41Z</time>
      </trkpt>
      <trkpt lat="47.67365" lon="6.02655">
        <ele>208.22</ele>
        <time>2018-02-23T12:56:43Z</time>
      </trkpt>
      <trkpt lat="47.67361" lon="6.02647">
        <ele>208.22</ele>
        <time>2018-02-23T12:56:45Z</time>
      </trkpt>
      <trkpt lat="47.67356" lon="6.02638">
        <ele>208.17</ele>
        <time>2018-02-23T12:56:47Z</time>
      </trkpt>
      <trkpt lat="47.6735" lon="6.02631">
        <ele>208.14</ele>
        <time>2018-02-23T12:56:49Z</time>
      </trkpt>
      <trkpt lat="47.67345" lon="6.02623">
        <ele>208.12</ele>
        <time>2018-02-23T12:56:51Z</time>
      </trkpt>
      <trkpt lat="47.6734" lon="6.02615">
        <ele>208.09</ele>
        <time>2018-02-23T12:56:53Z</time>
      </trkpt>
      <trkpt lat="47.67334" lon="6.02609">
        <ele>208.09</ele>
        <time>2018-02-23T12:56:55Z</time>
      </trkpt>
      <trkpt lat="47.67328" lon="6.02602">
        <ele>208.09</ele>
        <time>2018-02-23T12:56:57Z</time>
      </trkpt>
      <trkpt lat="47.67323" lon="6.02597">
        <ele>208.09</ele>
        <time>2018-02-23T12:56:59Z</time>
      </trkpt>
      <trkpt lat="47.67318" lon="6.0259">
        <ele>208.08</ele>
        <time>2018-02-23T12:57:01Z</time>
      </trkpt>
      <trkpt lat="47.67314" lon="6.02583">
        <ele>208.08</ele>
        <time>2018-02-23T12:57:03Z</time>
      </trkpt>
      <trkpt lat="47.67309" lon="6.02576">
        <ele>208.08</ele>
        <time>2018-02-23T12:57:05Z</time>
      </trkpt>
      <trkpt lat="47.67306" lon="6.02567">
        <ele>208.08</ele>
        <time>2018-02-23T12:57:07Z</time>
      </trkpt>
      <trkpt lat="47.67304" lon="6.02559">
        <ele>208.08</ele>
        <time>2018-02-23T12:57:09Z</time>
      </trkpt>
      <trkpt lat="47.67302" lon="6.0255">
        <ele>208.08</ele>
        <time>2018-02-23T12:57:11Z</time>
      </trkpt>
      <trkpt lat="47.673" lon="6.02541">
        <ele>208.08</ele>
        <time>2018-02-23T12:57:13Z</time>
      </trkpt>
      <trkpt lat="47.67299" lon="6.02532">
        <ele>208.08</ele>
        <time>2018-02-23T12:57:15Z</time>
      </trkpt>
      <trkpt lat="47.67297" lon="6.02522">
        <ele>208.08</ele>
        <time>2018-02-23T12:57:17Z</time>
      </trkpt>
      <trkpt lat="47.67295" lon="6.02512">
        <ele>208.08</ele>
        <time>2018-02-23T12:57:19Z</time>
      </trkpt>
      <trkpt lat="47.67293" lon="6.02502">
        <ele>208.08</ele>
        <time>2018-02-23T12:57:21Z</time>
      </trkpt>
      <trkpt lat="47.67292" lon="6.02492">
        <ele>208.08</ele>
        <time>2018-02-23T12:57:23Z</time>
      </trkpt>
      <trkpt lat="47.6729" lon="6.02482">
        <ele>208.08</ele>
        <time>2018-02-23T12:57:25Z</time>
      </trkpt>
      <trkpt lat="47.67288" lon="6.02471">
        <ele>208.08</ele>
        <time>2018-02-23T12:57:27Z</time>
      </trkpt>
      <trkpt lat="47.67286" lon="6.02461">
        <ele>208.08</ele>
        <time>2018-02-23T12:57:29Z</time>
      </trkpt>
      <trkpt lat="47.67285" lon="6.02452">
        <ele>208.08</ele>
        <time>2018-02-23T12:57:31Z</time>
      </trkpt>
      <trkpt lat="47.67284" lon="6.02443">
        <ele>208.09</ele>
        <time>2018-02-23T12:57:33Z</time>
      </trkpt>
      <trkpt lat="47.67282" lon="6.02434">
        <ele>208.09</ele>
        <time>2018-02-23T12:57:35Z</time>
      </trkpt>
      <trkpt lat="47.67281" lon="6.02426">
        <ele>208.09</ele>
        <time>2018-02-23T12:57:37Z</time>
      </trkpt>
      <trkpt lat="47.6728" lon="6.02418">
        <ele>208.08</ele>
        <time>2018-02-23T12:57:39Z</time>
      </trkpt>
      <trkpt lat="47.67278" lon="6.02409">
        <ele>208.08</ele>
        <time>2018-02-23T12:57:41Z</time>
      </trkpt>
      <trkpt lat="47.67275" lon="6.024">
        <ele>208.08</ele>
        <time>2018-02-23T12:57:43Z</time>
      </trkpt>
      <trkpt lat="47.67272" lon="6.02393">
        <ele>208.07</ele>
        <time>2018-02-23T12:57:45Z</time>
      </trkpt>
      <trkpt lat="47.67268" lon="6.02388">
        <ele>208.06</ele>
        <time>2018-02-23T12:57:47Z</time>
      </trkpt>
      <trkpt lat="47.67263" lon="6.02382">
        <ele>208.05</ele>
        <time>2018-02-23T12:57:49Z</time>
      </trkpt>
      <trkpt lat="47.6726" lon="6.02375">
        <ele>208.04</ele>
        <time>2018-02-23T12:57:51Z</time>
      </trkpt>
      <trkpt lat="47.67257" lon="6.02367">
        <ele>208.03</ele>
        <time>2018-02-23T12:57:53Z</time>
      </trkpt>
      <trkpt lat="47.67252" lon="6.0236">
        <ele>208.02</ele>
        <time>2018-02-23T12:57:55Z</time>
      </trkpt>
      <trkpt lat="47.67249" lon="6.02353">
        <ele>208.01</ele>
        <time>2018-02-23T12:57:57Z</time>
      </trkpt>
      <trkpt lat="47.67246" lon="6.02344">
        <ele>208.01</ele>
        <time>2018-02-23T12:57:59Z</time>
      </trkpt>
      <trkpt lat="47.67243" lon="6.02337">
        <ele>208</ele>
        <time>2018-02-23T12:58:01Z</time>
      </trkpt>
      <trkpt lat="47.67238" lon="6.0233">
        <ele>207.99</ele>
        <time>2018-02-23T12:58:03Z</time>
      </trkpt>
      <trkpt lat="47.67235" lon="6.02322">
        <ele>207.99</ele>
        <time>2018-02-23T12:58:05Z</time>
      </trkpt>
      <trkpt lat="47.67231" lon="6.02315">
        <ele>207.98</ele>
        <time>2018-02-23T12:58:07Z</time>
      </trkpt>
      <trkpt lat="47.67227" lon="6.02307">
        <ele>207.98</ele>
        <time>2018-02-23T12:58:09Z</time>
      </trkpt>
      <trkpt lat="47.67223" lon="6.02299">
        <ele>207.98</ele>
        <time>2018-02-23T12:58:11Z</time>
      </trkpt>
      <trkpt lat="47.6722" lon="6.0229">
        <ele>207.97</ele>
        <time>2018-02-23T12:58:13Z</time>
      </trkpt>
      <trkpt lat="47.67216" lon="6.02282">
        <ele>207.97</ele>
        <time>2018-02-23T12:58:15Z</time>
      </trkpt>
      <trkpt lat="47.67211" lon="6.02274">
        <ele>207.97</ele>
        <time>2018-02-23T12:58:17Z</time>
      </trkpt>
      <trkpt lat="47.67207" lon="6.02265">
        <ele>207.97</ele>
        <time>2018-02-23T12:58:19Z</time>
      </trkpt>
      <trkpt lat="47.67203" lon="6.02256">
        <ele>207.98</ele>
        <time>2018-02-23T12:58:21Z</time>
      </trkpt>
      <trkpt lat="47.672" lon="6.02248">
        <ele>207.98</ele>
        <time>2018-02-23T12:58:23Z</time>
      </trkpt>
      <trkpt lat="47.67196" lon="6.0224">
        <ele>207.98</ele>
        <time>2018-02-23T12:58:25Z</time>
      </trkpt>
      <trkpt lat="47.67192" lon="6.02231">
        <ele>207.98</ele>
        <time>2018-02-23T12:58:27Z</time>
      </trkpt>
      <trkpt lat="47.67188" lon="6.02223">
        <ele>207.99</ele>
        <time>2018-02-23T12:58:29Z</time>
      </trkpt>
      <trkpt lat="47.67184" lon="6.02214">
        <ele>207.99</ele>
        <time>2018-02-23T12:58:31Z</time>
      </trkpt>
      <trkpt lat="47.6718" lon="6.02206">
        <ele>207.99</ele>
        <time>2018-02-23T12:58:33Z</time>
      </trkpt>
      <trkpt lat="47.67175" lon="6.02198">
        <ele>208</ele>
        <time>2018-02-23T12:58:35Z</time>
      </trkpt>
      <trkpt lat="47.67171" lon="6.02189">
        <ele>208</ele>
        <time>2018-02-23T12:58:37Z</time>
      </trkpt>
      <trkpt lat="47.67167" lon="6.0218">
        <ele>208.01</ele>
        <time>2018-02-23T12:58:39Z</time>
      </trkpt>
      <trkpt lat="47.67163" lon="6.02171">
        <ele>208.01</ele>
        <time>2018-02-23T12:58:41Z</time>
      </trkpt>
      <trkpt lat="47.67159" lon="6.02162">
        <ele>208.01</ele>
        <time>2018-02-23T12:58:43Z</time>
      </trkpt>
      <trkpt lat="47.67155" lon="6.02153">
        <ele>208.02</ele>
        <time>2018-02-23T12:58:45Z</time>
      </trkpt>
      <trkpt lat="47.67152" lon="6.02144">
        <ele>208.02</ele>
        <time>2018-02-23T12:58:47Z</time>
      </trkpt>
      <trkpt lat="47.67148" lon="6.02136">
        <ele>208.03</ele>
        <time>2018-02-23T12:58:49Z</time>
      </trkpt>
      <trkpt lat="47.67144" lon="6.02128">
        <ele>208.03</ele>
        <time>2018-02-23T12:58:51Z</time>
      </trkpt>
      <trkpt lat="47.6714" lon="6.0212">
        <ele>208.04</ele>
        <time>2018-02-23T12:58:53Z</time>
      </trkpt>
      <trkpt lat="47.67136" lon="6.02111">
        <ele>208.05</ele>
        <time>2018-02-23T12:58:55Z</time>
      </trkpt>
      <trkpt lat="47.67132" lon="6.02103">
        <ele>208.05</ele>
        <time>2018-02-23T12:58:57Z</time>
      </trkpt>
      <trkpt lat="47.67129" lon="6.02094">
        <ele>208.06</ele>
        <time>2018-02-23T12:58:59Z</time>
      </trkpt>
      <trkpt lat="47.67125" lon="6.02086">
        <ele>208.07</ele>
        <time>2018-02-23T12:59:01Z</time>
      </trkpt>
      <trkpt lat="47.67121" lon="6.02077">
        <ele>208.08</ele>
        <time>2018-02-23T12:59:03Z</time>
      </trkpt>
      <trkpt lat="47.67117" lon="6.02068">
        <ele>208.09</ele>
        <time>2018-02-23T12:59:05Z</time>
      </trkpt>
      <trkpt lat="47.67113" lon="6.02059">
        <ele>208.1</ele>
        <time>2018-02-23T12:59:07Z</time>
      </trkpt>
      <trkpt lat="47.67109" lon="6.02051">
        <ele>208.11</ele>
        <time>2018-02-23T12:59:09Z</time>
      </trkpt>
      <trkpt lat="47.67106" lon="6.02043">
        <ele>208.11</ele>
        <time>2018-02-23T12:59:11Z</time>
      </trkpt>
      <trkpt lat="47.67101" lon="6.02035">
        <ele>208.12</ele>
        <time>2018-02-23T12:59:13Z</time>
      </trkpt>
      <trkpt lat="47.67098" lon="6.02028">
        <ele>208.13</ele>
        <time>2018-02-23T12:59:15Z</time>
      </trkpt>
      <trkpt lat="47.67094" lon="6.0202">
        <ele>208.14</ele>
        <time>2018-02-23T12:59:17Z</time>
      </trkpt>
      <trkpt lat="47.6709" lon="6.02012">
        <ele>208.15</ele>
        <time>2018-02-23T12:59:19Z</time>
      </trkpt>
      <trkpt lat="47.67087" lon="6.02004">
        <ele>208.15</ele>
        <time>2018-02-23T12:59:21Z</time>
      </trkpt>
      <trkpt lat="47.67087" lon="6.01995">
        <ele>208.16</ele>
        <time>2018-02-23T12:59:23Z</time>
      </trkpt>
      <trkpt lat="47.6709" lon="6.01986">
        <ele>208.16</ele>
        <time>2018-02-23T12:59:25Z</time>
      </trkpt>
      <trkpt lat="47.67094" lon="6.01979">
        <ele>208.17</ele>
        <time>2018-02-23T12:59:27Z</time>
      </trkpt>
      <trkpt lat="47.67098" lon="6.01971">
        <ele>208.17</ele>
        <time>2018-02-23T12:59:29Z</time>
      </trkpt>
      <trkpt lat="47.67102" lon="6.01963">
        <ele>208.18</ele>
        <time>2018-02-23T12:59:31Z</time>
      </trkpt>
      <trkpt lat="47.67106" lon="6.01955">
        <ele>208.18</ele>
        <time>2018-02-23T12:59:33Z</time>
      </trkpt>
      <trkpt lat="47.67111" lon="6.01946">
        <ele>208.19</ele>
        <time>2018-02-23T12:59:35Z</time>
      </trkpt>
      <trkpt lat="47.67115" lon="6.01937">
        <ele>208.19</ele>
        <time>2018-02-23T12:59:37Z</time>
      </trkpt>
      <trkpt lat="47.67119" lon="6.01929">
        <ele>208.2</ele>
        <time>2018-02-23T12:59:39Z</time>
      </trkpt>
      <trkpt lat="47.67121" lon="6.01921">
        <ele>208.2</ele>
        <time>2018-02-23T12:59:41Z</time>
      </trkpt>
      <trkpt lat="47.67124" lon="6.01915">
        <ele>208.21</ele>
        <time>2018-02-23T12:59:43Z</time>
      </trkpt>
      <trkpt lat="47.67125" lon="6.01908">
        <ele>208.22</ele>
        <time>2018-02-23T12:59:45Z</time>
      </trkpt>
      <trkpt lat="47.67128" lon="6.01902">
        <ele>208.23</ele>
        <time>2018-02-23T12:59:47Z</time>
      </trkpt>
      <trkpt lat="47.67131" lon="6.01895">
        <ele>208.23</ele>
        <time>2018-02-23T12:59:49Z</time>
      </trkpt>
      <trkpt lat="47.67133" lon="6.01887">
        <ele>208.24</ele>
        <time>2018-02-23T12:59:51Z</time>
      </trkpt>
      <trkpt lat="47.67136" lon="6.01879">
        <ele>208.25</ele>
        <time>2018-02-23T12:59:53Z</time>
      </trkpt>
      <trkpt lat="47.6714" lon="6.01871">
        <ele>208.26</ele>
        <time>2018-02-23T12:59:55Z</time>
      </trkpt>
      <trkpt lat="47.67143" lon="6.01861">
        <ele>208.27</ele>
        <time>2018-02-23T12:59:57Z</time>
      </trkpt>
      <trkpt lat="47.67146" lon="6.01852">
        <ele>208.28</ele>
        <time>2018-02-23T12:59:59Z</time>
      </trkpt>
      <trkpt lat="47.6715" lon="6.01843">
        <ele>208.29</ele>
        <time>2018-02-23T13:00:01Z</time>
      </trkpt>
      <trkpt lat="47.67155" lon="6.01833">
        <ele>208.3</ele>
        <time>2018-02-23T13:00:03Z</time>
      </trkpt>
      <trkpt lat="47.67159" lon="6.01824">
        <ele>208.31</ele>
        <time>2018-02-23T13:00:05Z</time>
      </trkpt>
      <trkpt lat="47.67163" lon="6.01814">
        <ele>208.32</ele>
        <time>2018-02-23T13:00:07Z</time>
      </trkpt>
      <trkpt lat="47.67167" lon="6.01806">
        <ele>208.33</ele>
        <time>2018-02-23T13:00:09Z</time>
      </trkpt>
      <trkpt lat="47.67171" lon="6.01798">
        <ele>208.33</ele>
        <time>2018-02-23T13:00:11Z</time>
      </trkpt>
      <trkpt lat="47.67174" lon="6.01791">
        <ele>208.34</ele>
        <time>2018-02-23T13:00:13Z</time>
      </trkpt>
      <trkpt lat="47.67177" lon="6.01784">
        <ele>208.35</ele>
        <time>2018-02-23T13:00:15Z</time>
      </trkpt>
      <trkpt lat="47.67177" lon="6.01777">
        <ele>208.36</ele>
        <time>2018-02-23T13:00:17Z</time>
      </trkpt>
      <trkpt lat="47.67174" lon="6.0177">
        <ele>208.38</ele>
        <time>2018-02-23T13:00:19Z</time>
      </trkpt>
      <trkpt lat="47.67169" lon="6.01763">
        <ele>208.43</ele>
        <time>2018-02-23T13:00:21Z</time>
      </trkpt>
      <trkpt lat="47.67162" lon="6.01758">
        <ele>208.46</ele>
        <time>2018-02-23T13:00:23Z</time>
      </trkpt>
      <trkpt lat="47.67158" lon="6.01755">
        <ele>208.49</ele>
        <time>2018-02-23T13:00:24Z</time>
      </trkpt>
      <trkpt lat="47.67151" lon="6.01749">
        <ele>208.52</ele>
        <time>2018-02-23T13:00:26Z</time>
      </trkpt>
      <trkpt lat="47.67144" lon="6.01743">
        <ele>208.54</ele>
        <time>2018-02-23T13:00:28Z</time>
      </trkpt>
      <trkpt lat="47.6714" lon="6.01739">
        <ele>208.54</ele>
        <time>2018-02-23T13:00:29Z</time>
      </trkpt>
      <trkpt lat="47.67135" lon="6.01735">
        <ele>208.55</ele>
        <time>2018-02-23T13:00:30Z</time>
      </trkpt>
      <trkpt lat="47.67128" lon="6.01729">
        <ele>208.55</ele>
        <time>2018-02-23T13:00:32Z</time>
      </trkpt>
      <trkpt lat="47.67124" lon="6.01726">
        <ele>208.54</ele>
        <time>2018-02-23T13:00:33Z</time>
      </trkpt>
      <trkpt lat="47.67117" lon="6.01721">
        <ele>208.53</ele>
        <time>2018-02-23T13:00:35Z</time>
      </trkpt>
      <trkpt lat="47.67109" lon="6.01715">
        <ele>208.51</ele>
        <time>2018-02-23T13:00:37Z</time>
      </trkpt>
      <trkpt lat="47.67103" lon="6.01709">
        <ele>208.51</ele>
        <time>2018-02-23T13:00:39Z</time>
      </trkpt>
      <trkpt lat="47.67096" lon="6.01703">
        <ele>208.51</ele>
        <time>2018-02-23T13:00:41Z</time>
      </trkpt>
      <trkpt lat="47.67089" lon="6.01699">
        <ele>208.51</ele>
        <time>2018-02-23T13:00:43Z</time>
      </trkpt>
      <trkpt lat="47.67085" lon="6.01695">
        <ele>208.51</ele>
        <time>2018-02-23T13:00:44Z</time>
      </trkpt>
      <trkpt lat="47.67079" lon="6.0169">
        <ele>208.51</ele>
        <time>2018-02-23T13:00:46Z</time>
      </trkpt>
      <trkpt lat="47.67071" lon="6.01686">
        <ele>208.51</ele>
        <time>2018-02-23T13:00:48Z</time>
      </trkpt>
      <trkpt lat="47.67064" lon="6.01683">
        <ele>208.51</ele>
        <time>2018-02-23T13:00:50Z</time>
      </trkpt>
      <trkpt lat="47.67061" lon="6.01677">
        <ele>208.51</ele>
        <time>2018-02-23T13:00:51Z</time>
      </trkpt>
      <trkpt lat="47.67056" lon="6.01669">
        <ele>208.52</ele>
        <time>2018-02-23T13:00:52Z</time>
      </trkpt>
      <trkpt lat="47.67049" lon="6.0166">
        <ele>208.52</ele>
        <time>2018-02-23T13:00:54Z</time>
      </trkpt>
      <trkpt lat="47.67042" lon="6.01651">
        <ele>208.53</ele>
        <time>2018-02-23T13:00:56Z</time>
      </trkpt>
      <trkpt lat="47.67037" lon="6.01647">
        <ele>208.54</ele>
        <time>2018-02-23T13:00:57Z</time>
      </trkpt>
      <trkpt lat="47.67033" lon="6.01643">
        <ele>208.54</ele>
        <time>2018-02-23T13:00:58Z</time>
      </trkpt>
      <trkpt lat="47.67025" lon="6.01633">
        <ele>208.55</ele>
        <time>2018-02-23T13:01:00Z</time>
      </trkpt>
      <trkpt lat="47.67017" lon="6.01627">
        <ele>208.57</ele>
        <time>2018-02-23T13:01:02Z</time>
      </trkpt>
      <trkpt lat="47.6701" lon="6.01622">
        <ele>208.58</ele>
        <time>2018-02-23T13:01:04Z</time>
      </trkpt>
      <trkpt lat="47.67002" lon="6.01619">
        <ele>208.6</ele>
        <time>2018-02-23T13:01:06Z</time>
      </trkpt>
      <trkpt lat="47.66995" lon="6.01616">
        <ele>208.61</ele>
        <time>2018-02-23T13:01:08Z</time>
      </trkpt>
      <trkpt lat="47.66988" lon="6.01613">
        <ele>208.64</ele>
        <time>2018-02-23T13:01:10Z</time>
      </trkpt>
      <trkpt lat="47.66983" lon="6.01608">
        <ele>208.66</ele>
        <time>2018-02-23T13:01:12Z</time>
      </trkpt>
      <trkpt lat="47.66976" lon="6.01602">
        <ele>208.68</ele>
        <time>2018-02-23T13:01:14Z</time>
      </trkpt>
      <trkpt lat="47.66972" lon="6.01597">
        <ele>208.7</ele>
        <time>2018-02-23T13:01:15Z</time>
      </trkpt>
      <trkpt lat="47.66966" lon="6.01592">
        <ele>208.72</ele>
        <time>2018-02-23T13:01:17Z</time>
      </trkpt>
      <trkpt lat="47.66961" lon="6.01588">
        <ele>208.75</ele>
        <time>2018-02-23T13:01:19Z</time>
      </trkpt>
      <trkpt lat="47.66955" lon="6.01583">
        <ele>208.77</ele>
        <time>2018-02-23T13:01:21Z</time>
      </trkpt>
      <trkpt lat="47.66948" lon="6.01578">
        <ele>208.86</ele>
        <time>2018-02-23T13:01:23Z</time>
      </trkpt>
      <trkpt lat="47.66943" lon="6.01574">
        <ele>208.89</ele>
        <time>2018-02-23T13:01:24Z</time>
      </trkpt>
      <trkpt lat="47.66939" lon="6.01572">
        <ele>208.96</ele>
        <time>2018-02-23T13:01:25Z</time>
      </trkpt>
      <trkpt lat="47.66935" lon="6.01567">
        <ele>208.99</ele>
        <time>2018-02-23T13:01:26Z</time>
      </trkpt>
      <trkpt lat="47.66927" lon="6.01562">
        <ele>209.01</ele>
        <time>2018-02-23T13:01:28Z</time>
      </trkpt>
      <trkpt lat="47.66922" lon="6.01559">
        <ele>209.02</ele>
        <time>2018-02-23T13:01:29Z</time>
      </trkpt>
      <trkpt lat="47.66917" lon="6.01554">
        <ele>209.03</ele>
        <time>2018-02-23T13:01:31Z</time>
      </trkpt>
      <trkpt lat="47.66911" lon="6.0155">
        <ele>209.04</ele>
        <time>2018-02-23T13:01:33Z</time>
      </trkpt>
      <trkpt lat="47.66909" lon="6.01544">
        <ele>209.05</ele>
        <time>2018-02-23T13:01:35Z</time>
      </trkpt>
      <trkpt lat="47.66908" lon="6.01537">
        <ele>209.06</ele>
        <time>2018-02-23T13:01:37Z</time>
      </trkpt>
      <trkpt lat="47.66909" lon="6.01529">
        <ele>209.07</ele>
        <time>2018-02-23T13:01:39Z</time>
      </trkpt>
      <trkpt lat="47.66911" lon="6.0152">
        <ele>209.08</ele>
        <time>2018-02-23T13:01:41Z</time>
      </trkpt>
      <trkpt lat="47.66914" lon="6.01513">
        <ele>209.09</ele>
        <time>2018-02-23T13:01:43Z</time>
      </trkpt>
      <trkpt lat="47.66916" lon="6.01506">
        <ele>209.1</ele>
        <time>2018-02-23T13:01:45Z</time>
      </trkpt>
      <trkpt lat="47.66918" lon="6.01499">
        <ele>209.11</ele>
        <time>2018-02-23T13:01:47Z</time>
      </trkpt>
      <trkpt lat="47.6692" lon="6.01491">
        <ele>209.13</ele>
        <time>2018-02-23T13:01:49Z</time>
      </trkpt>
      <trkpt lat="47.66924" lon="6.01485">
        <ele>209.14</ele>
        <time>2018-02-23T13:01:51Z</time>
      </trkpt>
      <trkpt lat="47.66926" lon="6.01479">
        <ele>209.15</ele>
        <time>2018-02-23T13:01:53Z</time>
      </trkpt>
      <trkpt lat="47.66929" lon="6.01471">
        <ele>209.17</ele>
        <time>2018-02-23T13:01:55Z</time>
      </trkpt>
      <trkpt lat="47.6693" lon="6.01464">
        <ele>209.19</ele>
        <time>2018-02-23T13:01:57Z</time>
      </trkpt>
      <trkpt lat="47.66932" lon="6.01455">
        <ele>209.22</ele>
        <time>2018-02-23T13:02:00Z</time>
      </trkpt>
      <trkpt lat="47.66934" lon="6.01448">
        <ele>209.25</ele>
        <time>2018-02-23T13:02:02Z</time>
      </trkpt>
      <trkpt lat="47.66937" lon="6.01441">
        <ele>209.27</ele>
        <time>2018-02-23T13:02:04Z</time>
      </trkpt>
      <trkpt lat="47.66941" lon="6.01435">
        <ele>209.29</ele>
        <time>2018-02-23T13:02:06Z</time>
      </trkpt>
      <trkpt lat="47.66945" lon="6.01428">
        <ele>209.28</ele>
        <time>2018-02-23T13:02:09Z</time>
      </trkpt>
      <trkpt lat="47.66951" lon="6.0142">
        <ele>209.23</ele>
        <time>2018-02-23T13:02:12Z</time>
      </trkpt>
      <trkpt lat="47.66956" lon="6.01415">
        <ele>209.17</ele>
        <time>2018-02-23T13:02:14Z</time>
      </trkpt>
      <trkpt lat="47.66959" lon="6.01407">
        <ele>209.05</ele>
        <time>2018-02-23T13:02:17Z</time>
      </trkpt>
      <trkpt lat="47.66963" lon="6.01401">
        <ele>208.96</ele>
        <time>2018-02-23T13:02:19Z</time>
      </trkpt>
      <trkpt lat="47.66964" lon="6.01394">
        <ele>208.82</ele>
        <time>2018-02-23T13:02:22Z</time>
      </trkpt>
      <trkpt lat="47.66967" lon="6.01387">
        <ele>208.69</ele>
        <time>2018-02-23T13:02:25Z</time>
      </trkpt>
      <trkpt lat="47.66971" lon="6.0138">
        <ele>208.57</ele>
        <time>2018-02-23T13:02:28Z</time>
      </trkpt>
      <trkpt lat="47.66973" lon="6.01369">
        <ele>208.51</ele>
        <time>2018-02-23T13:02:30Z</time>
      </trkpt>
      <trkpt lat="47.66976" lon="6.0136">
        <ele>208.46</ele>
        <time>2018-02-23T13:02:32Z</time>
      </trkpt>
      <trkpt lat="47.66977" lon="6.01349">
        <ele>208.38</ele>
        <time>2018-02-23T13:02:34Z</time>
      </trkpt>
      <trkpt lat="47.66977" lon="6.01339">
        <ele>208.3</ele>
        <time>2018-02-23T13:02:36Z</time>
      </trkpt>
      <trkpt lat="47.66978" lon="6.0133">
        <ele>208.21</ele>
        <time>2018-02-23T13:02:38Z</time>
      </trkpt>
      <trkpt lat="47.6698" lon="6.0132">
        <ele>208.17</ele>
        <time>2018-02-23T13:02:40Z</time>
      </trkpt>
      <trkpt lat="47.66982" lon="6.01313">
        <ele>208.2</ele>
        <time>2018-02-23T13:02:43Z</time>
      </trkpt>
      <trkpt lat="47.66986" lon="6.01304">
        <ele>208.27</ele>
        <time>2018-02-23T13:02:45Z</time>
      </trkpt>
      <trkpt lat="47.6699" lon="6.01297">
        <ele>208.35</ele>
        <time>2018-02-23T13:02:47Z</time>
      </trkpt>
      <trkpt lat="47.66992" lon="6.0129">
        <ele>208.45</ele>
        <time>2018-02-23T13:02:49Z</time>
      </trkpt>
      <trkpt lat="47.66995" lon="6.01282">
        <ele>208.7</ele>
        <time>2018-02-23T13:02:52Z</time>
      </trkpt>
      <trkpt lat="47.66998" lon="6.01275">
        <ele>208.93</ele>
        <time>2018-02-23T13:02:54Z</time>
      </trkpt>
      <trkpt lat="47.67" lon="6.0127">
        <ele>209.24</ele>
        <time>2018-02-23T13:02:56Z</time>
      </trkpt>
      <trkpt lat="47.67002" lon="6.01264">
        <ele>209.58</ele>
        <time>2018-02-23T13:02:58Z</time>
      </trkpt>
      <trkpt lat="47.67004" lon="6.01258">
        <ele>209.96</ele>
        <time>2018-02-23T13:03:00Z</time>
      </trkpt>
      <trkpt lat="47.67007" lon="6.01253">
        <ele>210.36</ele>
        <time>2018-02-23T13:03:02Z</time>
      </trkpt>
      <trkpt lat="47.67009" lon="6.01243">
        <ele>210.98</ele>
        <time>2018-02-23T13:03:05Z</time>
      </trkpt>
      <trkpt lat="47.67012" lon="6.01236">
        <ele>211.41</ele>
        <time>2018-02-23T13:03:07Z</time>
      </trkpt>
      <trkpt lat="47.67015" lon="6.01228">
        <ele>211.87</ele>
        <time>2018-02-23T13:03:09Z</time>
      </trkpt>
      <trkpt lat="47.67018" lon="6.01221">
        <ele>212.58</ele>
        <time>2018-02-23T13:03:12Z</time>
      </trkpt>
      <trkpt lat="47.67021" lon="6.01215">
        <ele>213.06</ele>
        <time>2018-02-23T13:03:14Z</time>
      </trkpt>
      <trkpt lat="47.67024" lon="6.01207">
        <ele>213.56</ele>
        <time>2018-02-23T13:03:16Z</time>
      </trkpt>
      <trkpt lat="47.67026" lon="6.012">
        <ele>214.09</ele>
        <time>2018-02-23T13:03:18Z</time>
      </trkpt>
      <trkpt lat="47.67028" lon="6.01194">
        <ele>214.63</ele>
        <time>2018-02-23T13:03:20Z</time>
      </trkpt>
      <trkpt lat="47.6703" lon="6.01187">
        <ele>215.45</ele>
        <time>2018-02-23T13:03:23Z</time>
      </trkpt>
      <trkpt lat="47.67032" lon="6.0118">
        <ele>216</ele>
        <time>2018-02-23T13:03:25Z</time>
      </trkpt>
      <trkpt lat="47.67036" lon="6.01175">
        <ele>216.55</ele>
        <time>2018-02-23T13:03:27Z</time>
      </trkpt>
      <trkpt lat="47.67039" lon="6.01169">
        <ele>217.1</ele>
        <time>2018-02-23T13:03:29Z</time>
      </trkpt>
      <trkpt lat="47.67042" lon="6.01162">
        <ele>217.65</ele>
        <time>2018-02-23T13:03:31Z</time>
      </trkpt>
      <trkpt lat="47.67045" lon="6.01153">
        <ele>218.44</ele>
        <time>2018-02-23T13:03:34Z</time>
      </trkpt>
      <trkpt lat="47.67049" lon="6.01144">
        <ele>219.2</ele>
        <time>2018-02-23T13:03:37Z</time>
      </trkpt>
      <trkpt lat="47.67053" lon="6.01137">
        <ele>219.69</ele>
        <time>2018-02-23T13:03:39Z</time>
      </trkpt>
      <trkpt lat="47.67055" lon="6.01129">
        <ele>220.17</ele>
        <time>2018-02-23T13:03:41Z</time>
      </trkpt>
      <trkpt lat="47.6706" lon="6.01118">
        <ele>220.65</ele>
        <time>2018-02-23T13:03:43Z</time>
      </trkpt>
      <trkpt lat="47.67063" lon="6.01109">
        <ele>221.14</ele>
        <time>2018-02-23T13:03:45Z</time>
      </trkpt>
      <trkpt lat="47.67066" lon="6.01101">
        <ele>221.62</ele>
        <time>2018-02-23T13:03:47Z</time>
      </trkpt>
      <trkpt lat="47.67069" lon="6.01094">
        <ele>222.1</ele>
        <time>2018-02-23T13:03:49Z</time>
      </trkpt>
      <trkpt lat="47.67072" lon="6.01087">
        <ele>222.57</ele>
        <time>2018-02-23T13:03:51Z</time>
      </trkpt>
      <trkpt lat="47.67073" lon="6.01078">
        <ele>223.03</ele>
        <time>2018-02-23T13:03:53Z</time>
      </trkpt>
      <trkpt lat="47.67075" lon="6.01071">
        <ele>223.48</ele>
        <time>2018-02-23T13:03:55Z</time>
      </trkpt>
      <trkpt lat="47.67078" lon="6.01063">
        <ele>223.91</ele>
        <time>2018-02-23T13:03:57Z</time>
      </trkpt>
      <trkpt lat="47.67081" lon="6.01054">
        <ele>224.33</ele>
        <time>2018-02-23T13:03:59Z</time>
      </trkpt>
      <trkpt lat="47.67082" lon="6.01047">
        <ele>224.73</ele>
        <time>2018-02-23T13:04:01Z</time>
      </trkpt>
      <trkpt lat="47.67085" lon="6.01038">
        <ele>225.12</ele>
        <time>2018-02-23T13:04:03Z</time>
      </trkpt>
      <trkpt lat="47.67087" lon="6.01032">
        <ele>225.67</ele>
        <time>2018-02-23T13:04:06Z</time>
      </trkpt>
      <trkpt lat="47.67089" lon="6.01025">
        <ele>226.19</ele>
        <time>2018-02-23T13:04:09Z</time>
      </trkpt>
      <trkpt lat="47.67093" lon="6.0102">
        <ele>226.68</ele>
        <time>2018-02-23T13:04:12Z</time>
      </trkpt>
      <trkpt lat="47.67096" lon="6.01016">
        <ele>226.99</ele>
        <time>2018-02-23T13:04:14Z</time>
      </trkpt>
      <trkpt lat="47.671" lon="6.01011">
        <ele>227.29</ele>
        <time>2018-02-23T13:04:16Z</time>
      </trkpt>
      <trkpt lat="47.67104" lon="6.01006">
        <ele>227.59</ele>
        <time>2018-02-23T13:04:18Z</time>
      </trkpt>
      <trkpt lat="47.67107" lon="6.01">
        <ele>228.17</ele>
        <time>2018-02-23T13:04:22Z</time>
      </trkpt>
      <trkpt lat="47.67112" lon="6.00994">
        <ele>228.46</ele>
        <time>2018-02-23T13:04:24Z</time>
      </trkpt>
      <trkpt lat="47.67117" lon="6.00989">
        <ele>228.76</ele>
        <time>2018-02-23T13:04:26Z</time>
      </trkpt>
      <trkpt lat="47.67122" lon="6.00986">
        <ele>229.22</ele>
        <time>2018-02-23T13:04:29Z</time>
      </trkpt>
      <trkpt lat="47.67125" lon="6.00981">
        <ele>229.81</ele>
        <time>2018-02-23T13:04:33Z</time>
      </trkpt>
      <trkpt lat="47.67132" lon="6.00974">
        <ele>230.11</ele>
        <time>2018-02-23T13:04:35Z</time>
      </trkpt>
      <trkpt lat="47.67139" lon="6.00969">
        <ele>230.4</ele>
        <time>2018-02-23T13:04:37Z</time>
      </trkpt>
      <trkpt lat="47.67143" lon="6.00965">
        <ele>230.68</ele>
        <time>2018-02-23T13:04:39Z</time>
      </trkpt>
      <trkpt lat="47.67148" lon="6.00961">
        <ele>230.95</ele>
        <time>2018-02-23T13:04:41Z</time>
      </trkpt>
      <trkpt lat="47.67153" lon="6.00956">
        <ele>231.36</ele>
        <time>2018-02-23T13:04:44Z</time>
      </trkpt>
      <trkpt lat="47.67158" lon="6.00954">
        <ele>231.64</ele>
        <time>2018-02-23T13:04:46Z</time>
      </trkpt>
      <trkpt lat="47.67166" lon="6.00952">
        <ele>232.05</ele>
        <time>2018-02-23T13:04:49Z</time>
      </trkpt>
      <trkpt lat="47.67173" lon="6.00948">
        <ele>232.31</ele>
        <time>2018-02-23T13:04:51Z</time>
      </trkpt>
      <trkpt lat="47.67178" lon="6.00945">
        <ele>232.56</ele>
        <time>2018-02-23T13:04:53Z</time>
      </trkpt>
      <trkpt lat="47.67183" lon="6.00943">
        <ele>232.81</ele>
        <time>2018-02-23T13:04:55Z</time>
      </trkpt>
      <trkpt lat="47.67189" lon="6.00941">
        <ele>233.06</ele>
        <time>2018-02-23T13:04:57Z</time>
      </trkpt>
      <trkpt lat="47.67195" lon="6.00938">
        <ele>233.42</ele>
        <time>2018-02-23T13:05:00Z</time>
      </trkpt>
      <trkpt lat="47.67199" lon="6.00936">
        <ele>233.66</ele>
        <time>2018-02-23T13:05:02Z</time>
      </trkpt>
      <trkpt lat="47.67205" lon="6.00931">
        <ele>234</ele>
        <time>2018-02-23T13:05:05Z</time>
      </trkpt>
      <trkpt lat="47.67209" lon="6.00928">
        <ele>234.43</ele>
        <time>2018-02-23T13:05:09Z</time>
      </trkpt>
      <trkpt lat="47.67215" lon="6.00922">
        <ele>234.96</ele>
        <time>2018-02-23T13:05:14Z</time>
      </trkpt>
      <trkpt lat="47.6722" lon="6.0092">
        <ele>235.26</ele>
        <time>2018-02-23T13:05:17Z</time>
      </trkpt>
      <trkpt lat="47.67226" lon="6.00915">
        <ele>235.57</ele>
        <time>2018-02-23T13:05:20Z</time>
      </trkpt>
      <trkpt lat="47.67231" lon="6.00909">
        <ele>235.77</ele>
        <time>2018-02-23T13:05:22Z</time>
      </trkpt>
      <trkpt lat="47.67236" lon="6.00904">
        <ele>235.96</ele>
        <time>2018-02-23T13:05:24Z</time>
      </trkpt>
      <trkpt lat="47.67244" lon="6.00899">
        <ele>236.15</ele>
        <time>2018-02-23T13:05:26Z</time>
      </trkpt>
      <trkpt lat="47.67248" lon="6.00895">
        <ele>236.35</ele>
        <time>2018-02-23T13:05:28Z</time>
      </trkpt>
      <trkpt lat="47.67251" lon="6.00888">
        <ele>236.62</ele>
        <time>2018-02-23T13:05:31Z</time>
      </trkpt>
      <trkpt lat="47.67256" lon="6.00884">
        <ele>236.96</ele>
        <time>2018-02-23T13:05:35Z</time>
      </trkpt>
      <trkpt lat="47.6726" lon="6.0088">
        <ele>237.12</ele>
        <time>2018-02-23T13:05:37Z</time>
      </trkpt>
      <trkpt lat="47.67266" lon="6.00876">
        <ele>237.44</ele>
        <time>2018-02-23T13:05:41Z</time>
      </trkpt>
      <trkpt lat="47.67272" lon="6.00872">
        <ele>237.66</ele>
        <time>2018-02-23T13:05:44Z</time>
      </trkpt>
      <trkpt lat="47.67278" lon="6.00866">
        <ele>237.88</ele>
        <time>2018-02-23T13:05:47Z</time>
      </trkpt>
      <trkpt lat="47.67283" lon="6.00862">
        <ele>238.03</ele>
        <time>2018-02-23T13:05:49Z</time>
      </trkpt>
      <trkpt lat="47.67287" lon="6.00859">
        <ele>238.18</ele>
        <time>2018-02-23T13:05:51Z</time>
      </trkpt>
      <trkpt lat="47.67292" lon="6.00854">
        <ele>238.38</ele>
        <time>2018-02-23T13:05:54Z</time>
      </trkpt>
      <trkpt lat="47.67297" lon="6.00853">
        <ele>238.52</ele>
        <time>2018-02-23T13:05:56Z</time>
      </trkpt>
      <trkpt lat="47.67302" lon="6.0085">
        <ele>238.71</ele>
        <time>2018-02-23T13:05:59Z</time>
      </trkpt>
      <trkpt lat="47.67307" lon="6.00847">
        <ele>238.91</ele>
        <time>2018-02-23T13:06:02Z</time>
      </trkpt>
      <trkpt lat="47.67312" lon="6.00844">
        <ele>239.04</ele>
        <time>2018-02-23T13:06:04Z</time>
      </trkpt>
      <trkpt lat="47.67316" lon="6.00841">
        <ele>239.16</ele>
        <time>2018-02-23T13:06:06Z</time>
      </trkpt>
      <trkpt lat="47.67322" lon="6.00838">
        <ele>239.41</ele>
        <time>2018-02-23T13:06:10Z</time>
      </trkpt>
      <trkpt lat="47.67327" lon="6.00838">
        <ele>239.58</ele>
        <time>2018-02-23T13:06:13Z</time>
      </trkpt>
      <trkpt lat="47.67333" lon="6.00836">
        <ele>239.82</ele>
        <time>2018-02-23T13:06:17Z</time>
      </trkpt>
      <trkpt lat="47.67338" lon="6.00835">
        <ele>240</ele>
        <time>2018-02-23T13:06:20Z</time>
      </trkpt>
      <trkpt lat="47.67344" lon="6.00833">
        <ele>240.18</ele>
        <time>2018-02-23T13:06:23Z</time>
      </trkpt>
      <trkpt lat="47.67349" lon="6.00832">
        <ele>240.3</ele>
        <time>2018-02-23T13:06:25Z</time>
      </trkpt>
      <trkpt lat="47.67356" lon="6.00832">
        <ele>240.48</ele>
        <time>2018-02-23T13:06:28Z</time>
      </trkpt>
      <trkpt lat="47.67362" lon="6.00833">
        <ele>240.66</ele>
        <time>2018-02-23T13:06:31Z</time>
      </trkpt>
      <trkpt lat="47.67366" lon="6.00833">
        <ele>240.85</ele>
        <time>2018-02-23T13:06:34Z</time>
      </trkpt>
      <trkpt lat="47.67371" lon="6.00833">
        <ele>241.02</ele>
        <time>2018-02-23T13:06:37Z</time>
      </trkpt>
      <trkpt lat="47.67377" lon="6.00832">
        <ele>241.19</ele>
        <time>2018-02-23T13:06:40Z</time>
      </trkpt>
      <trkpt lat="47.67382" lon="6.00832">
        <ele>241.3</ele>
        <time>2018-02-23T13:06:42Z</time>
      </trkpt>
      <trkpt lat="47.67387" lon="6.00832">
        <ele>241.47</ele>
        <time>2018-02-23T13:06:45Z</time>
      </trkpt>
      <trkpt lat="47.67393" lon="6.00831">
        <ele>241.63</ele>
        <time>2018-02-23T13:06:48Z</time>
      </trkpt>
      <trkpt lat="47.67398" lon="6.00831">
        <ele>241.74</ele>
        <time>2018-02-23T13:06:50Z</time>
      </trkpt>
      <trkpt lat="47.67404" lon="6.00831">
        <ele>241.91</ele>
        <time>2018-02-23T13:06:53Z</time>
      </trkpt>
      <trkpt lat="47.67409" lon="6.00832">
        <ele>242.13</ele>
        <time>2018-02-23T13:06:57Z</time>
      </trkpt>
      <trkpt lat="47.67414" lon="6.00831">
        <ele>242.3</ele>
        <time>2018-02-23T13:07:00Z</time>
      </trkpt>
      <trkpt lat="47.67419" lon="6.00832">
        <ele>242.46</ele>
        <time>2018-02-23T13:07:03Z</time>
      </trkpt>
      <trkpt lat="47.67424" lon="6.00831">
        <ele>242.72</ele>
        <time>2018-02-23T13:07:08Z</time>
      </trkpt>
      <trkpt lat="47.67429" lon="6.0083">
        <ele>242.89</ele>
        <time>2018-02-23T13:07:11Z</time>
      </trkpt>
      <trkpt lat="47.67434" lon="6.0083">
        <ele>243.14</ele>
        <time>2018-02-23T13:07:15Z</time>
      </trkpt>
      <trkpt lat="47.6744" lon="6.0083">
        <ele>243.34</ele>
        <time>2018-02-23T13:07:18Z</time>
      </trkpt>
      <trkpt lat="47.67445" lon="6.00833">
        <ele>243.63</ele>
        <time>2018-02-23T13:07:22Z</time>
      </trkpt>
      <trkpt lat="47.67452" lon="6.00835">
        <ele>243.87</ele>
        <time>2018-02-23T13:07:25Z</time>
      </trkpt>
      <trkpt lat="47.67456" lon="6.00838">
        <ele>244.05</ele>
        <time>2018-02-23T13:07:27Z</time>
      </trkpt>
      <trkpt lat="47.67463" lon="6.00838">
        <ele>244.47</ele>
        <time>2018-02-23T13:07:31Z</time>
      </trkpt>
      <trkpt lat="47.67468" lon="6.00836">
        <ele>244.81</ele>
        <time>2018-02-23T13:07:34Z</time>
      </trkpt>
      <trkpt lat="47.67473" lon="6.00835">
        <ele>245.17</ele>
        <time>2018-02-23T13:07:37Z</time>
      </trkpt>
      <trkpt lat="47.67479" lon="6.00836">
        <ele>245.74</ele>
        <time>2018-02-23T13:07:41Z</time>
      </trkpt>
      <trkpt lat="47.67485" lon="6.00837">
        <ele>246.38</ele>
        <time>2018-02-23T13:07:45Z</time>
      </trkpt>
      <trkpt lat="47.67492" lon="6.00839">
        <ele>246.89</ele>
        <time>2018-02-23T13:07:48Z</time>
      </trkpt>
      <trkpt lat="47.67498" lon="6.0084">
        <ele>247.62</ele>
        <time>2018-02-23T13:07:52Z</time>
      </trkpt>
      <trkpt lat="47.67504" lon="6.00841">
        <ele>248.43</ele>
        <time>2018-02-23T13:07:56Z</time>
      </trkpt>
      <trkpt lat="47.67509" lon="6.00841">
        <ele>249.04</ele>
        <time>2018-02-23T13:07:59Z</time>
      </trkpt>
      <trkpt lat="47.67514" lon="6.00842">
        <ele>249.88</ele>
        <time>2018-02-23T13:08:03Z</time>
      </trkpt>
      <trkpt lat="47.6752" lon="6.00843">
        <ele>250.73</ele>
        <time>2018-02-23T13:08:07Z</time>
      </trkpt>
      <trkpt lat="47.67524" lon="6.00845">
        <ele>251.18</ele>
        <time>2018-02-23T13:08:09Z</time>
      </trkpt>
      <trkpt lat="47.67529" lon="6.00847">
        <ele>252.12</ele>
        <time>2018-02-23T13:08:13Z</time>
      </trkpt>
      <trkpt lat="47.67534" lon="6.00848">
        <ele>253.08</ele>
        <time>2018-02-23T13:08:17Z</time>
      </trkpt>
      <trkpt lat="47.67539" lon="6.00847">
        <ele>253.82</ele>
        <time>2018-02-23T13:08:20Z</time>
      </trkpt>
      <trkpt lat="47.67544" lon="6.00848">
        <ele>254.54</ele>
        <time>2018-02-23T13:08:23Z</time>
      </trkpt>
      <trkpt lat="47.67549" lon="6.00847">
        <ele>255.78</ele>
        <time>2018-02-23T13:08:28Z</time>
      </trkpt>
      <trkpt lat="47.67555" lon="6.00846">
        <ele>256.78</ele>
        <time>2018-02-23T13:08:32Z</time>
      </trkpt>
      <trkpt lat="47.67559" lon="6.00846">
        <ele>257.53</ele>
        <time>2018-02-23T13:08:35Z</time>
      </trkpt>
      <trkpt lat="47.67564" lon="6.00844">
        <ele>258.45</ele>
        <time>2018-02-23T13:08:39Z</time>
      </trkpt>
      <trkpt lat="47.67569" lon="6.00846">
        <ele>259.23</ele>
        <time>2018-02-23T13:08:43Z</time>
      </trkpt>
      <trkpt lat="47.67574" lon="6.00846">
        <ele>259.58</ele>
        <time>2018-02-23T13:08:45Z</time>
      </trkpt>
      <trkpt lat="47.6758" lon="6.00847">
        <ele>260.11</ele>
        <time>2018-02-23T13:08:48Z</time>
      </trkpt>
      <trkpt lat="47.67585" lon="6.00848">
        <ele>260.47</ele>
        <time>2018-02-23T13:08:50Z</time>
      </trkpt>
      <trkpt lat="47.67591" lon="6.00847">
        <ele>261</ele>
        <time>2018-02-23T13:08:53Z</time>
      </trkpt>
      <trkpt lat="47.67596" lon="6.00848">
        <ele>261.51</ele>
        <time>2018-02-23T13:08:56Z</time>
      </trkpt>
      <trkpt lat="47.67601" lon="6.00849">
        <ele>262.03</ele>
        <time>2018-02-23T13:08:59Z</time>
      </trkpt>
      <trkpt lat="47.67607" lon="6.0085">
        <ele>262.76</ele>
        <time>2018-02-23T13:09:03Z</time>
      </trkpt>
      <trkpt lat="47.67611" lon="6.0085">
        <ele>263.52</ele>
        <time>2018-02-23T13:09:07Z</time>
      </trkpt>
      <trkpt lat="47.67616" lon="6.0085">
        <ele>264.29</ele>
        <time>2018-02-23T13:09:11Z</time>
      </trkpt>
      <trkpt lat="47.67622" lon="6.0085">
        <ele>265.05</ele>
        <time>2018-02-23T13:09:15Z</time>
      </trkpt>
      <trkpt lat="47.67627" lon="6.0085">
        <ele>265.61</ele>
        <time>2018-02-23T13:09:18Z</time>
      </trkpt>
      <trkpt lat="47.67633" lon="6.00852">
        <ele>265.98</ele>
        <time>2018-02-23T13:09:20Z</time>
      </trkpt>
      <trkpt lat="47.67637" lon="6.00854">
        <ele>266.37</ele>
        <time>2018-02-23T13:09:22Z</time>
      </trkpt>
      <trkpt lat="47.67642" lon="6.00855">
        <ele>266.78</ele>
        <time>2018-02-23T13:09:24Z</time>
      </trkpt>
      <trkpt lat="47.67647" lon="6.00857">
        <ele>267.4</ele>
        <time>2018-02-23T13:09:27Z</time>
      </trkpt>
      <trkpt lat="47.67652" lon="6.00858">
        <ele>267.82</ele>
        <time>2018-02-23T13:09:29Z</time>
      </trkpt>
      <trkpt lat="47.67657" lon="6.0086">
        <ele>268.24</ele>
        <time>2018-02-23T13:09:31Z</time>
      </trkpt>
      <trkpt lat="47.67663" lon="6.00861">
        <ele>269.08</ele>
        <time>2018-02-23T13:09:35Z</time>
      </trkpt>
      <trkpt lat="47.67669" lon="6.00864">
        <ele>269.89</ele>
        <time>2018-02-23T13:09:39Z</time>
      </trkpt>
      <trkpt lat="47.67674" lon="6.00867">
        <ele>270.46</ele>
        <time>2018-02-23T13:09:42Z</time>
      </trkpt>
      <trkpt lat="47.67678" lon="6.0087">
        <ele>271.01</ele>
        <time>2018-02-23T13:09:45Z</time>
      </trkpt>
      <trkpt lat="47.67683" lon="6.00873">
        <ele>271.56</ele>
        <time>2018-02-23T13:09:48Z</time>
      </trkpt>
      <trkpt lat="47.67688" lon="6.00875">
        <ele>272.15</ele>
        <time>2018-02-23T13:09:51Z</time>
      </trkpt>
      <trkpt lat="47.67694" lon="6.00877">
        <ele>272.75</ele>
        <time>2018-02-23T13:09:54Z</time>
      </trkpt>
      <trkpt lat="47.67699" lon="6.00875">
        <ele>273.12</ele>
        <time>2018-02-23T13:09:56Z</time>
      </trkpt>
      <trkpt lat="47.67705" lon="6.00877">
        <ele>273.57</ele>
        <time>2018-02-23T13:09:59Z</time>
      </trkpt>
      <trkpt lat="47.6771" lon="6.00876">
        <ele>273.85</ele>
        <time>2018-02-23T13:10:01Z</time>
      </trkpt>
      <trkpt lat="47.67714" lon="6.00876">
        <ele>274.14</ele>
        <time>2018-02-23T13:10:03Z</time>
      </trkpt>
      <trkpt lat="47.6772" lon="6.00876">
        <ele>274.43</ele>
        <time>2018-02-23T13:10:05Z</time>
      </trkpt>
      <trkpt lat="47.67725" lon="6.00879">
        <ele>274.74</ele>
        <time>2018-02-23T13:10:07Z</time>
      </trkpt>
      <trkpt lat="47.67729" lon="6.00879">
        <ele>275.08</ele>
        <time>2018-02-23T13:10:09Z</time>
      </trkpt>
      <trkpt lat="47.67735" lon="6.00881">
        <ele>275.6</ele>
        <time>2018-02-23T13:10:12Z</time>
      </trkpt>
      <trkpt lat="47.6774" lon="6.00884">
        <ele>275.98</ele>
        <time>2018-02-23T13:10:14Z</time>
      </trkpt>
      <trkpt lat="47.67745" lon="6.00886">
        <ele>276.4</ele>
        <time>2018-02-23T13:10:16Z</time>
      </trkpt>
      <trkpt lat="47.67751" lon="6.00889">
        <ele>277.1</ele>
        <time>2018-02-23T13:10:19Z</time>
      </trkpt>
      <trkpt lat="47.67757" lon="6.00891">
        <ele>278.1</ele>
        <time>2018-02-23T13:10:23Z</time>
      </trkpt>
      <trkpt lat="47.67761" lon="6.00896">
        <ele>278.85</ele>
        <time>2018-02-23T13:10:26Z</time>
      </trkpt>
      <trkpt lat="47.67766" lon="6.00898">
        <ele>279.57</ele>
        <time>2018-02-23T13:10:29Z</time>
      </trkpt>
      <trkpt lat="47.67772" lon="6.00899">
        <ele>280.5</ele>
        <time>2018-02-23T13:10:33Z</time>
      </trkpt>
      <trkpt lat="47.67777" lon="6.00902">
        <ele>281.41</ele>
        <time>2018-02-23T13:10:37Z</time>
      </trkpt>
      <trkpt lat="47.67783" lon="6.00903">
        <ele>282.03</ele>
        <time>2018-02-23T13:10:40Z</time>
      </trkpt>
      <trkpt lat="47.67788" lon="6.00906">
        <ele>282.59</ele>
        <time>2018-02-23T13:10:43Z</time>
      </trkpt>
      <trkpt lat="47.67793" lon="6.0091">
        <ele>283.08</ele>
        <time>2018-02-23T13:10:46Z</time>
      </trkpt>
      <trkpt lat="47.67799" lon="6.00913">
        <ele>283.53</ele>
        <time>2018-02-23T13:10:49Z</time>
      </trkpt>
      <trkpt lat="47.67804" lon="6.00916">
        <ele>283.94</ele>
        <time>2018-02-23T13:10:52Z</time>
      </trkpt>
      <trkpt lat="47.67808" lon="6.00919">
        <ele>284.19</ele>
        <time>2018-02-23T13:10:54Z</time>
      </trkpt>
      <trkpt lat="47.67813" lon="6.00924">
        <ele>284.46</ele>
        <time>2018-02-23T13:10:56Z</time>
      </trkpt>
      <trkpt lat="47.67819" lon="6.00927">
        <ele>284.87</ele>
        <time>2018-02-23T13:10:59Z</time>
      </trkpt>
      <trkpt lat="47.67824" lon="6.00929">
        <ele>285.28</ele>
        <time>2018-02-23T13:11:02Z</time>
      </trkpt>
      <trkpt lat="47.67829" lon="6.00932">
        <ele>285.84</ele>
        <time>2018-02-23T13:11:06Z</time>
      </trkpt>
      <trkpt lat="47.67835" lon="6.00935">
        <ele>286.26</ele>
        <time>2018-02-23T13:11:09Z</time>
      </trkpt>
      <trkpt lat="47.67839" lon="6.00937">
        <ele>286.53</ele>
        <time>2018-02-23T13:11:11Z</time>
      </trkpt>
      <trkpt lat="47.67844" lon="6.00939">
        <ele>286.94</ele>
        <time>2018-02-23T13:11:14Z</time>
      </trkpt>
      <trkpt lat="47.67848" lon="6.00943">
        <ele>287.34</ele>
        <time>2018-02-23T13:11:17Z</time>
      </trkpt>
      <trkpt lat="47.67854" lon="6.00943">
        <ele>287.84</ele>
        <time>2018-02-23T13:11:21Z</time>
      </trkpt>
      <trkpt lat="47.67858" lon="6.00945">
        <ele>288.2</ele>
        <time>2018-02-23T13:11:24Z</time>
      </trkpt>
      <trkpt lat="47.67863" lon="6.00946">
        <ele>288.55</ele>
        <time>2018-02-23T13:11:27Z</time>
      </trkpt>
      <trkpt lat="47.67868" lon="6.00948">
        <ele>288.88</ele>
        <time>2018-02-23T13:11:30Z</time>
      </trkpt>
      <trkpt lat="47.67873" lon="6.00951">
        <ele>289.2</ele>
        <time>2018-02-23T13:11:33Z</time>
      </trkpt>
      <trkpt lat="47.67879" lon="6.00951">
        <ele>289.51</ele>
        <time>2018-02-23T13:11:36Z</time>
      </trkpt>
      <trkpt lat="47.67884" lon="6.00952">
        <ele>289.81</ele>
        <time>2018-02-23T13:11:39Z</time>
      </trkpt>
      <trkpt lat="47.67888" lon="6.00956">
        <ele>290.1</ele>
        <time>2018-02-23T13:11:42Z</time>
      </trkpt>
      <trkpt lat="47.67894" lon="6.0096">
        <ele>290.48</ele>
        <time>2018-02-23T13:11:46Z</time>
      </trkpt>
      <trkpt lat="47.67899" lon="6.00963">
        <ele>290.76</ele>
        <time>2018-02-23T13:11:49Z</time>
      </trkpt>
      <trkpt lat="47.67903" lon="6.00966">
        <ele>291.03</ele>
        <time>2018-02-23T13:11:52Z</time>
      </trkpt>
      <trkpt lat="47.67908" lon="6.00972">
        <ele>291.46</ele>
        <time>2018-02-23T13:11:57Z</time>
      </trkpt>
      <trkpt lat="47.67913" lon="6.00977">
        <ele>291.79</ele>
        <time>2018-02-23T13:12:01Z</time>
      </trkpt>
      <trkpt lat="47.67918" lon="6.00981">
        <ele>292.08</ele>
        <time>2018-02-23T13:12:05Z</time>
      </trkpt>
      <trkpt lat="47.67921" lon="6.00986">
        <ele>292.33</ele>
        <time>2018-02-23T13:12:09Z</time>
      </trkpt>
      <trkpt lat="47.67926" lon="6.0099">
        <ele>292.55</ele>
        <time>2018-02-23T13:12:13Z</time>
      </trkpt>
      <trkpt lat="47.6793" lon="6.00993">
        <ele>292.79</ele>
        <time>2018-02-23T13:12:18Z</time>
      </trkpt>
      <trkpt lat="47.67934" lon="6.00998">
        <ele>292.98</ele>
        <time>2018-02-23T13:12:23Z</time>
      </trkpt>
      <trkpt lat="47.67938" lon="6.01002">
        <ele>293.07</ele>
        <time>2018-02-23T13:12:26Z</time>
      </trkpt>
      <trkpt lat="47.67943" lon="6.01006">
        <ele>293.18</ele>
        <time>2018-02-23T13:12:30Z</time>
      </trkpt>
      <trkpt lat="47.67947" lon="6.01011">
        <ele>293.29</ele>
        <time>2018-02-23T13:12:34Z</time>
      </trkpt>
      <trkpt lat="47.6795" lon="6.01016">
        <ele>293.41</ele>
        <time>2018-02-23T13:12:38Z</time>
      </trkpt>
      <trkpt lat="47.67955" lon="6.01021">
        <ele>293.52</ele>
        <time>2018-02-23T13:12:42Z</time>
      </trkpt>
      <trkpt lat="47.67959" lon="6.01026">
        <ele>293.62</ele>
        <time>2018-02-23T13:12:45Z</time>
      </trkpt>
      <trkpt lat="47.67963" lon="6.01028">
        <ele>293.78</ele>
        <time>2018-02-23T13:12:49Z</time>
      </trkpt>
      <trkpt lat="47.67968" lon="6.01032">
        <ele>293.91</ele>
        <time>2018-02-23T13:12:52Z</time>
      </trkpt>
      <trkpt lat="47.67972" lon="6.01036">
        <ele>294.05</ele>
        <time>2018-02-23T13:12:54Z</time>
      </trkpt>
      <trkpt lat="47.67977" lon="6.01041">
        <ele>294.2</ele>
        <time>2018-02-23T13:12:57Z</time>
      </trkpt>
      <trkpt lat="47.67982" lon="6.01044">
        <ele>294.31</ele>
        <time>2018-02-23T13:12:59Z</time>
      </trkpt>
      <trkpt lat="47.67987" lon="6.01049">
        <ele>294.47</ele>
        <time>2018-02-23T13:13:02Z</time>
      </trkpt>
      <trkpt lat="47.67992" lon="6.01052">
        <ele>294.63</ele>
        <time>2018-02-23T13:13:05Z</time>
      </trkpt>
      <trkpt lat="47.67997" lon="6.01055">
        <ele>294.79</ele>
        <time>2018-02-23T13:13:08Z</time>
      </trkpt>
      <trkpt lat="47.68002" lon="6.01059">
        <ele>295.01</ele>
        <time>2018-02-23T13:13:12Z</time>
      </trkpt>
      <trkpt lat="47.68007" lon="6.01063">
        <ele>295.22</ele>
        <time>2018-02-23T13:13:16Z</time>
      </trkpt>
      <trkpt lat="47.68011" lon="6.01065">
        <ele>295.42</ele>
        <time>2018-02-23T13:13:20Z</time>
      </trkpt>
      <trkpt lat="47.68014" lon="6.0107">
        <ele>295.62</ele>
        <time>2018-02-23T13:13:24Z</time>
      </trkpt>
      <trkpt lat="47.68019" lon="6.01073">
        <ele>295.9</ele>
        <time>2018-02-23T13:13:30Z</time>
      </trkpt>
      <trkpt lat="47.68024" lon="6.01077">
        <ele>296.12</ele>
        <time>2018-02-23T13:13:35Z</time>
      </trkpt>
      <trkpt lat="47.68029" lon="6.0108">
        <ele>296.24</ele>
        <time>2018-02-23T13:13:38Z</time>
      </trkpt>
      <trkpt lat="47.68032" lon="6.01087">
        <ele>296.39</ele>
        <time>2018-02-23T13:13:42Z</time>
      </trkpt>
      <trkpt lat="47.68037" lon="6.01094">
        <ele>296.51</ele>
        <time>2018-02-23T13:13:45Z</time>
      </trkpt>
      <trkpt lat="47.68041" lon="6.01099">
        <ele>296.66</ele>
        <time>2018-02-23T13:13:49Z</time>
      </trkpt>
      <trkpt lat="47.68044" lon="6.01105">
        <ele>296.82</ele>
        <time>2018-02-23T13:13:53Z</time>
      </trkpt>
      <trkpt lat="47.68048" lon="6.0111">
        <ele>297.01</ele>
        <time>2018-02-23T13:13:58Z</time>
      </trkpt>
      <trkpt lat="47.68051" lon="6.01114">
        <ele>297.11</ele>
        <time>2018-02-23T13:14:01Z</time>
      </trkpt>
      <trkpt lat="47.68054" lon="6.01124">
        <ele>297.2</ele>
        <time>2018-02-23T13:14:04Z</time>
      </trkpt>
      <trkpt lat="47.68058" lon="6.01129">
        <ele>297.33</ele>
        <time>2018-02-23T13:14:08Z</time>
      </trkpt>
      <trkpt lat="47.68061" lon="6.01134">
        <ele>297.47</ele>
        <time>2018-02-23T13:14:12Z</time>
      </trkpt>
      <trkpt lat="47.68065" lon="6.0114">
        <ele>297.65</ele>
        <time>2018-02-23T13:14:17Z</time>
      </trkpt>
      <trkpt lat="47.68068" lon="6.01146">
        <ele>297.86</ele>
        <time>2018-02-23T13:14:23Z</time>
      </trkpt>
      <trkpt lat="47.68072" lon="6.01151">
        <ele>298.08</ele>
        <time>2018-02-23T13:14:29Z</time>
      </trkpt>
      <trkpt lat="47.68077" lon="6.01156">
        <ele>298.26</ele>
        <time>2018-02-23T13:14:34Z</time>
      </trkpt>
      <trkpt lat="47.68082" lon="6.0116">
        <ele>298.37</ele>
        <time>2018-02-23T13:14:37Z</time>
      </trkpt>
      <trkpt lat="47.68085" lon="6.01168">
        <ele>298.55</ele>
        <time>2018-02-23T13:14:41Z</time>
      </trkpt>
      <trkpt lat="47.68088" lon="6.01174">
        <ele>298.75</ele>
        <time>2018-02-23T13:14:45Z</time>
      </trkpt>
      <trkpt lat="47.68089" lon="6.0118">
        <ele>298.98</ele>
        <time>2018-02-23T13:14:49Z</time>
      </trkpt>
      <trkpt lat="47.68093" lon="6.01184">
        <ele>299.28</ele>
        <time>2018-02-23T13:14:54Z</time>
      </trkpt>
      <trkpt lat="47.68098" lon="6.01189">
        <ele>299.62</ele>
        <time>2018-02-23T13:15:00Z</time>
      </trkpt>
      <trkpt lat="47.68102" lon="6.01193">
        <ele>299.86</ele>
        <time>2018-02-23T13:15:04Z</time>
      </trkpt>
      <trkpt lat="47.68106" lon="6.012">
        <ele>300.23</ele>
        <time>2018-02-23T13:15:10Z</time>
      </trkpt>
      <trkpt lat="47.68109" lon="6.01204">
        <ele>300.43</ele>
        <time>2018-02-23T13:15:13Z</time>
      </trkpt>
      <trkpt lat="47.68114" lon="6.01208">
        <ele>300.71</ele>
        <time>2018-02-23T13:15:17Z</time>
      </trkpt>
      <trkpt lat="47.68119" lon="6.01211">
        <ele>300.99</ele>
        <time>2018-02-23T13:15:21Z</time>
      </trkpt>
      <trkpt lat="47.68124" lon="6.01216">
        <ele>301.29</ele>
        <time>2018-02-23T13:15:25Z</time>
      </trkpt>
      <trkpt lat="47.68129" lon="6.01219">
        <ele>301.58</ele>
        <time>2018-02-23T13:15:29Z</time>
      </trkpt>
      <trkpt lat="47.68134" lon="6.01222">
        <ele>301.88</ele>
        <time>2018-02-23T13:15:33Z</time>
      </trkpt>
      <trkpt lat="47.68139" lon="6.01225">
        <ele>302.1</ele>
        <time>2018-02-23T13:15:36Z</time>
      </trkpt>
      <trkpt lat="47.68143" lon="6.01225">
        <ele>302.25</ele>
        <time>2018-02-23T13:15:38Z</time>
      </trkpt>
      <trkpt lat="47.68149" lon="6.01226">
        <ele>302.47</ele>
        <time>2018-02-23T13:15:41Z</time>
      </trkpt>
      <trkpt lat="47.68155" lon="6.01228">
        <ele>302.8</ele>
        <time>2018-02-23T13:15:45Z</time>
      </trkpt>
      <trkpt lat="47.68159" lon="6.0123">
        <ele>303.13</ele>
        <time>2018-02-23T13:15:49Z</time>
      </trkpt>
      <trkpt lat="47.68165" lon="6.01232">
        <ele>303.37</ele>
        <time>2018-02-23T13:15:52Z</time>
      </trkpt>
      <trkpt lat="47.6817" lon="6.01234">
        <ele>303.62</ele>
        <time>2018-02-23T13:15:55Z</time>
      </trkpt>
      <trkpt lat="47.68175" lon="6.01236">
        <ele>303.88</ele>
        <time>2018-02-23T13:15:58Z</time>
      </trkpt>
      <trkpt lat="47.6818" lon="6.0124">
        <ele>304.21</ele>
        <time>2018-02-23T13:16:02Z</time>
      </trkpt>
      <trkpt lat="47.68185" lon="6.01241">
        <ele>304.54</ele>
        <time>2018-02-23T13:16:06Z</time>
      </trkpt>
      <trkpt lat="47.68189" lon="6.01244">
        <ele>304.88</ele>
        <time>2018-02-23T13:16:11Z</time>
      </trkpt>
      <trkpt lat="47.68195" lon="6.01242">
        <ele>305.21</ele>
        <time>2018-02-23T13:16:15Z</time>
      </trkpt>
      <trkpt lat="47.68201" lon="6.0124">
        <ele>305.51</ele>
        <time>2018-02-23T13:16:19Z</time>
      </trkpt>
      <trkpt lat="47.68207" lon="6.01242">
        <ele>305.73</ele>
        <time>2018-02-23T13:16:22Z</time>
      </trkpt>
      <trkpt lat="47.68212" lon="6.01242">
        <ele>305.88</ele>
        <time>2018-02-23T13:16:24Z</time>
      </trkpt>
      <trkpt lat="47.68217" lon="6.01241">
        <ele>306.09</ele>
        <time>2018-02-23T13:16:27Z</time>
      </trkpt>
      <trkpt lat="47.68222" lon="6.01239">
        <ele>306.31</ele>
        <time>2018-02-23T13:16:30Z</time>
      </trkpt>
      <trkpt lat="47.68228" lon="6.01238">
        <ele>306.58</ele>
        <time>2018-02-23T13:16:34Z</time>
      </trkpt>
      <trkpt lat="47.68232" lon="6.01237">
        <ele>306.71</ele>
        <time>2018-02-23T13:16:36Z</time>
      </trkpt>
      <trkpt lat="47.68237" lon="6.01236">
        <ele>307.07</ele>
        <time>2018-02-23T13:16:41Z</time>
      </trkpt>
      <trkpt lat="47.68242" lon="6.01237">
        <ele>307.64</ele>
        <time>2018-02-23T13:16:49Z</time>
      </trkpt>
      <trkpt lat="47.68248" lon="6.01236">
        <ele>307.88</ele>
        <time>2018-02-23T13:16:53Z</time>
      </trkpt>
      <trkpt lat="47.68256" lon="6.0123">
        <ele>308.11</ele>
        <time>2018-02-23T13:16:56Z</time>
      </trkpt>
      <trkpt lat="47.68263" lon="6.01224">
        <ele>308.34</ele>
        <time>2018-02-23T13:16:59Z</time>
      </trkpt>
      <trkpt lat="47.68267" lon="6.01221">
        <ele>308.49</ele>
        <time>2018-02-23T13:17:01Z</time>
      </trkpt>
      <trkpt lat="47.68272" lon="6.01221">
        <ele>308.73</ele>
        <time>2018-02-23T13:17:04Z</time>
      </trkpt>
      <trkpt lat="47.68277" lon="6.0122">
        <ele>309.04</ele>
        <time>2018-02-23T13:17:08Z</time>
      </trkpt>
      <trkpt lat="47.6828" lon="6.01214">
        <ele>309.36</ele>
        <time>2018-02-23T13:17:12Z</time>
      </trkpt>
      <trkpt lat="47.68284" lon="6.01209">
        <ele>309.6</ele>
        <time>2018-02-23T13:17:15Z</time>
      </trkpt>
      <trkpt lat="47.68289" lon="6.01206">
        <ele>309.92</ele>
        <time>2018-02-23T13:17:19Z</time>
      </trkpt>
      <trkpt lat="47.68293" lon="6.01209">
        <ele>310.17</ele>
        <time>2018-02-23T13:17:22Z</time>
      </trkpt>
      <trkpt lat="47.68298" lon="6.01208">
        <ele>310.59</ele>
        <time>2018-02-23T13:17:27Z</time>
      </trkpt>
      <trkpt lat="47.68303" lon="6.01208">
        <ele>310.85</ele>
        <time>2018-02-23T13:17:30Z</time>
      </trkpt>
      <trkpt lat="47.68307" lon="6.01208">
        <ele>311.11</ele>
        <time>2018-02-23T13:17:33Z</time>
      </trkpt>
      <trkpt lat="47.68312" lon="6.01207">
        <ele>311.37</ele>
        <time>2018-02-23T13:17:36Z</time>
      </trkpt>
      <trkpt lat="47.68318" lon="6.01204">
        <ele>311.63</ele>
        <time>2018-02-23T13:17:39Z</time>
      </trkpt>
      <trkpt lat="47.68322" lon="6.012">
        <ele>311.9</ele>
        <time>2018-02-23T13:17:42Z</time>
      </trkpt>
      <trkpt lat="47.68327" lon="6.01201">
        <ele>314.64</ele>
        <time>2018-02-23T13:19:33Z</time>
      </trkpt>
      <trkpt lat="47.68332" lon="6.01199">
        <ele>315.02</ele>
        <time>2018-02-23T13:19:35Z</time>
      </trkpt>
      <trkpt lat="47.68339" lon="6.01198">
        <ele>315.56</ele>
        <time>2018-02-23T13:19:38Z</time>
      </trkpt>
      <trkpt lat="47.68345" lon="6.01197">
        <ele>315.9</ele>
        <time>2018-02-23T13:19:40Z</time>
      </trkpt>
      <trkpt lat="47.68351" lon="6.01197">
        <ele>316.23</ele>
        <time>2018-02-23T13:19:42Z</time>
      </trkpt>
      <trkpt lat="47.68356" lon="6.01197">
        <ele>316.54</ele>
        <time>2018-02-23T13:19:44Z</time>
      </trkpt>
      <trkpt lat="47.68361" lon="6.01197">
        <ele>316.84</ele>
        <time>2018-02-23T13:19:46Z</time>
      </trkpt>
      <trkpt lat="47.68366" lon="6.01196">
        <ele>317.13</ele>
        <time>2018-02-23T13:19:48Z</time>
      </trkpt>
      <trkpt lat="47.68371" lon="6.01195">
        <ele>317.41</ele>
        <time>2018-02-23T13:19:50Z</time>
      </trkpt>
      <trkpt lat="47.68376" lon="6.01194">
        <ele>317.81</ele>
        <time>2018-02-23T13:19:53Z</time>
      </trkpt>
      <trkpt lat="47.68382" lon="6.01194">
        <ele>318.06</ele>
        <time>2018-02-23T13:19:55Z</time>
      </trkpt>
      <trkpt lat="47.68389" lon="6.01195">
        <ele>318.43</ele>
        <time>2018-02-23T13:19:58Z</time>
      </trkpt>
      <trkpt lat="47.68395" lon="6.01192">
        <ele>318.67</ele>
        <time>2018-02-23T13:20:00Z</time>
      </trkpt>
      <trkpt lat="47.68401" lon="6.01192">
        <ele>318.91</ele>
        <time>2018-02-23T13:20:02Z</time>
      </trkpt>
      <trkpt lat="47.68407" lon="6.01191">
        <ele>319.13</ele>
        <time>2018-02-23T13:20:04Z</time>
      </trkpt>
      <trkpt lat="47.68413" lon="6.0119">
        <ele>319.36</ele>
        <time>2018-02-23T13:20:06Z</time>
      </trkpt>
      <trkpt lat="47.68418" lon="6.01189">
        <ele>319.57</ele>
        <time>2018-02-23T13:20:08Z</time>
      </trkpt>
      <trkpt lat="47.68425" lon="6.01189">
        <ele>319.89</ele>
        <time>2018-02-23T13:20:11Z</time>
      </trkpt>
      <trkpt lat="47.68433" lon="6.01188">
        <ele>320.19</ele>
        <time>2018-02-23T13:20:14Z</time>
      </trkpt>
      <trkpt lat="47.68439" lon="6.01186">
        <ele>320.38</ele>
        <time>2018-02-23T13:20:16Z</time>
      </trkpt>
      <trkpt lat="47.68444" lon="6.01185">
        <ele>320.56</ele>
        <time>2018-02-23T13:20:18Z</time>
      </trkpt>
      <trkpt lat="47.68452" lon="6.01184">
        <ele>320.82</ele>
        <time>2018-02-23T13:20:21Z</time>
      </trkpt>
      <trkpt lat="47.68456" lon="6.01184">
        <ele>320.99</ele>
        <time>2018-02-23T13:20:23Z</time>
      </trkpt>
      <trkpt lat="47.68462" lon="6.01181">
        <ele>321.23</ele>
        <time>2018-02-23T13:20:26Z</time>
      </trkpt>
      <trkpt lat="47.68468" lon="6.01178">
        <ele>321.39</ele>
        <time>2018-02-23T13:20:28Z</time>
      </trkpt>
      <trkpt lat="47.68474" lon="6.01174">
        <ele>321.55</ele>
        <time>2018-02-23T13:20:30Z</time>
      </trkpt>
      <trkpt lat="47.68479" lon="6.0117">
        <ele>321.7</ele>
        <time>2018-02-23T13:20:32Z</time>
      </trkpt>
      <trkpt lat="47.68485" lon="6.01166">
        <ele>321.85</ele>
        <time>2018-02-23T13:20:34Z</time>
      </trkpt>
      <trkpt lat="47.68489" lon="6.01163">
        <ele>321.99</ele>
        <time>2018-02-23T13:20:36Z</time>
      </trkpt>
      <trkpt lat="47.68495" lon="6.01156">
        <ele>322.13</ele>
        <time>2018-02-23T13:20:38Z</time>
      </trkpt>
      <trkpt lat="47.68499" lon="6.01151">
        <ele>322.19</ele>
        <time>2018-02-23T13:20:39Z</time>
      </trkpt>
      <trkpt lat="47.68502" lon="6.01146">
        <ele>322.26</ele>
        <time>2018-02-23T13:20:40Z</time>
      </trkpt>
      <trkpt lat="47.68507" lon="6.01141">
        <ele>322.32</ele>
        <time>2018-02-23T13:20:41Z</time>
      </trkpt>
      <trkpt lat="47.68511" lon="6.01136">
        <ele>322.39</ele>
        <time>2018-02-23T13:20:42Z</time>
      </trkpt>
      <trkpt lat="47.68517" lon="6.01128">
        <ele>322.51</ele>
        <time>2018-02-23T13:20:44Z</time>
      </trkpt>
      <trkpt lat="47.68522" lon="6.01121">
        <ele>322.63</ele>
        <time>2018-02-23T13:20:46Z</time>
      </trkpt>
      <trkpt lat="47.68528" lon="6.01113">
        <ele>322.75</ele>
        <time>2018-02-23T13:20:48Z</time>
      </trkpt>
      <trkpt lat="47.68532" lon="6.01106">
        <ele>322.8</ele>
        <time>2018-02-23T13:20:49Z</time>
      </trkpt>
      <trkpt lat="47.68537" lon="6.01097">
        <ele>322.91</ele>
        <time>2018-02-23T13:20:51Z</time>
      </trkpt>
      <trkpt lat="47.68542" lon="6.01088">
        <ele>323.45</ele>
        <time>2018-02-23T13:20:53Z</time>
      </trkpt>
      <trkpt lat="47.68548" lon="6.01079">
        <ele>323.57</ele>
        <time>2018-02-23T13:20:55Z</time>
      </trkpt>
      <trkpt lat="47.68555" lon="6.01066">
        <ele>324.17</ele>
        <time>2018-02-23T13:20:57Z</time>
      </trkpt>
      <trkpt lat="47.68558" lon="6.01061">
        <ele>324.28</ele>
        <time>2018-02-23T13:20:58Z</time>
      </trkpt>
      <trkpt lat="47.68563" lon="6.01049">
        <ele>324.68</ele>
        <time>2018-02-23T13:21:00Z</time>
      </trkpt>
      <trkpt lat="47.68566" lon="6.01043">
        <ele>324.75</ele>
        <time>2018-02-23T13:21:01Z</time>
      </trkpt>
      <trkpt lat="47.68569" lon="6.01036">
        <ele>324.78</ele>
        <time>2018-02-23T13:21:02Z</time>
      </trkpt>
      <trkpt lat="47.68579" lon="6.01022">
        <ele>324.81</ele>
        <time>2018-02-23T13:21:04Z</time>
      </trkpt>
      <trkpt lat="47.68584" lon="6.0101">
        <ele>324.83</ele>
        <time>2018-02-23T13:21:05Z</time>
      </trkpt>
      <trkpt lat="47.68589" lon="6.00999">
        <ele>324.86</ele>
        <time>2018-02-23T13:21:07Z</time>
      </trkpt>
      <trkpt lat="47.68594" lon="6.0099">
        <ele>324.88</ele>
        <time>2018-02-23T13:21:09Z</time>
      </trkpt>
      <trkpt lat="47.68595" lon="6.00978">
        <ele>324.91</ele>
        <time>2018-02-23T13:21:11Z</time>
      </trkpt>
      <trkpt lat="47.68595" lon="6.00971">
        <ele>324.93</ele>
        <time>2018-02-23T13:21:12Z</time>
      </trkpt>
      <trkpt lat="47.68595" lon="6.00964">
        <ele>324.94</ele>
        <time>2018-02-23T13:21:13Z</time>
      </trkpt>
      <trkpt lat="47.68594" lon="6.00957">
        <ele>324.97</ele>
        <time>2018-02-23T13:21:15Z</time>
      </trkpt>
      <trkpt lat="47.68595" lon="6.0095">
        <ele>325</ele>
        <time>2018-02-23T13:21:17Z</time>
      </trkpt>
      <trkpt lat="47.68595" lon="6.00943">
        <ele>325.01</ele>
        <time>2018-02-23T13:21:18Z</time>
      </trkpt>
      <trkpt lat="47.68594" lon="6.00934">
        <ele>325.03</ele>
        <time>2018-02-23T13:21:20Z</time>
      </trkpt>
      <trkpt lat="47.68593" lon="6.00927">
        <ele>325.04</ele>
        <time>2018-02-23T13:21:21Z</time>
      </trkpt>
      <trkpt lat="47.68592" lon="6.00917">
        <ele>325.05</ele>
        <time>2018-02-23T13:21:23Z</time>
      </trkpt>
      <trkpt lat="47.68587" lon="6.00908">
        <ele>325.06</ele>
        <time>2018-02-23T13:21:25Z</time>
      </trkpt>
      <trkpt lat="47.68582" lon="6.00899">
        <ele>325.06</ele>
        <time>2018-02-23T13:21:27Z</time>
      </trkpt>
      <trkpt lat="47.68579" lon="6.00893">
        <ele>325.05</ele>
        <time>2018-02-23T13:21:28Z</time>
      </trkpt>
      <trkpt lat="47.68576" lon="6.00887">
        <ele>325.05</ele>
        <time>2018-02-23T13:21:29Z</time>
      </trkpt>
      <trkpt lat="47.68572" lon="6.00881">
        <ele>325.04</ele>
        <time>2018-02-23T13:21:30Z</time>
      </trkpt>
      <trkpt lat="47.68568" lon="6.00876">
        <ele>325.04</ele>
        <time>2018-02-23T13:21:31Z</time>
      </trkpt>
      <trkpt lat="47.68566" lon="6.00868">
        <ele>325.03</ele>
        <time>2018-02-23T13:21:32Z</time>
      </trkpt>
      <trkpt lat="47.68563" lon="6.00862">
        <ele>325.02</ele>
        <time>2018-02-23T13:21:33Z</time>
      </trkpt>
      <trkpt lat="47.68556" lon="6.00853">
        <ele>324.95</ele>
        <time>2018-02-23T13:21:35Z</time>
      </trkpt>
      <trkpt lat="47.68553" lon="6.00847">
        <ele>324.87</ele>
        <time>2018-02-23T13:21:36Z</time>
      </trkpt>
      <trkpt lat="47.68549" lon="6.00839">
        <ele>324.8</ele>
        <time>2018-02-23T13:21:37Z</time>
      </trkpt>
      <trkpt lat="47.68545" lon="6.00832">
        <ele>324.78</ele>
        <time>2018-02-23T13:21:38Z</time>
      </trkpt>
      <trkpt lat="47.68539" lon="6.00823">
        <ele>324.68</ele>
        <time>2018-02-23T13:21:40Z</time>
      </trkpt>
      <trkpt lat="47.68535" lon="6.00817">
        <ele>324.63</ele>
        <time>2018-02-23T13:21:41Z</time>
      </trkpt>
      <trkpt lat="47.68531" lon="6.00811">
        <ele>324.6</ele>
        <time>2018-02-23T13:21:42Z</time>
      </trkpt>
      <trkpt lat="47.68522" lon="6.00802">
        <ele>324.53</ele>
        <time>2018-02-23T13:21:43Z</time>
      </trkpt>
      <trkpt lat="47.68517" lon="6.00796">
        <ele>324.42</ele>
        <time>2018-02-23T13:21:44Z</time>
      </trkpt>
      <trkpt lat="47.68512" lon="6.00792">
        <ele>324.27</ele>
        <time>2018-02-23T13:21:45Z</time>
      </trkpt>
      <trkpt lat="47.68508" lon="6.00787">
        <ele>324.09</ele>
        <time>2018-02-23T13:21:46Z</time>
      </trkpt>
      <trkpt lat="47.68503" lon="6.00781">
        <ele>323.88</ele>
        <time>2018-02-23T13:21:47Z</time>
      </trkpt>
      <trkpt lat="47.685" lon="6.00776">
        <ele>323.64</ele>
        <time>2018-02-23T13:21:48Z</time>
      </trkpt>
      <trkpt lat="47.68496" lon="6.00771">
        <ele>323.38</ele>
        <time>2018-02-23T13:21:49Z</time>
      </trkpt>
      <trkpt lat="47.68491" lon="6.00765">
        <ele>323.12</ele>
        <time>2018-02-23T13:21:50Z</time>
      </trkpt>
      <trkpt lat="47.68487" lon="6.0076">
        <ele>322.85</ele>
        <time>2018-02-23T13:21:51Z</time>
      </trkpt>
      <trkpt lat="47.68483" lon="6.00755">
        <ele>322.59</ele>
        <time>2018-02-23T13:21:52Z</time>
      </trkpt>
      <trkpt lat="47.68479" lon="6.00749">
        <ele>322.35</ele>
        <time>2018-02-23T13:21:53Z</time>
      </trkpt>
      <trkpt lat="47.68476" lon="6.00743">
        <ele>322.12</ele>
        <time>2018-02-23T13:21:54Z</time>
      </trkpt>
      <trkpt lat="47.68472" lon="6.00738">
        <ele>321.91</ele>
        <time>2018-02-23T13:21:55Z</time>
      </trkpt>
      <trkpt lat="47.68469" lon="6.00732">
        <ele>321.73</ele>
        <time>2018-02-23T13:21:56Z</time>
      </trkpt>
      <trkpt lat="47.68466" lon="6.00726">
        <ele>321.55</ele>
        <time>2018-02-23T13:21:57Z</time>
      </trkpt>
      <trkpt lat="47.68462" lon="6.00719">
        <ele>321.38</ele>
        <time>2018-02-23T13:21:58Z</time>
      </trkpt>
      <trkpt lat="47.68458" lon="6.00712">
        <ele>321.21</ele>
        <time>2018-02-23T13:21:59Z</time>
      </trkpt>
      <trkpt lat="47.68454" lon="6.00705">
        <ele>321.04</ele>
        <time>2018-02-23T13:22:00Z</time>
      </trkpt>
      <trkpt lat="47.6845" lon="6.00699">
        <ele>320.87</ele>
        <time>2018-02-23T13:22:01Z</time>
      </trkpt>
      <trkpt lat="47.68447" lon="6.00693">
        <ele>320.69</ele>
        <time>2018-02-23T13:22:02Z</time>
      </trkpt>
      <trkpt lat="47.68444" lon="6.00688">
        <ele>320.5</ele>
        <time>2018-02-23T13:22:03Z</time>
      </trkpt>
      <trkpt lat="47.68441" lon="6.00682">
        <ele>320.31</ele>
        <time>2018-02-23T13:22:04Z</time>
      </trkpt>
      <trkpt lat="47.68438" lon="6.00676">
        <ele>320.11</ele>
        <time>2018-02-23T13:22:05Z</time>
      </trkpt>
      <trkpt lat="47.68435" lon="6.0067">
        <ele>319.91</ele>
        <time>2018-02-23T13:22:06Z</time>
      </trkpt>
      <trkpt lat="47.68432" lon="6.00664">
        <ele>319.83</ele>
        <time>2018-02-23T13:22:07Z</time>
      </trkpt>
      <trkpt lat="47.68429" lon="6.00658">
        <ele>319.79</ele>
        <time>2018-02-23T13:22:08Z</time>
      </trkpt>
      <trkpt lat="47.68426" lon="6.00652">
        <ele>319.76</ele>
        <time>2018-02-23T13:22:09Z</time>
      </trkpt>
      <trkpt lat="47.68424" lon="6.00645">
        <ele>319.53</ele>
        <time>2018-02-23T13:22:10Z</time>
      </trkpt>
      <trkpt lat="47.68421" lon="6.00639">
        <ele>319.24</ele>
        <time>2018-02-23T13:22:11Z</time>
      </trkpt>
      <trkpt lat="47.68418" lon="6.00632">
        <ele>318.96</ele>
        <time>2018-02-23T13:22:12Z</time>
      </trkpt>
      <trkpt lat="47.68415" lon="6.00625">
        <ele>318.69</ele>
        <time>2018-02-23T13:22:13Z</time>
      </trkpt>
      <trkpt lat="47.68413" lon="6.00617">
        <ele>318.43</ele>
        <time>2018-02-23T13:22:14Z</time>
      </trkpt>
      <trkpt lat="47.6841" lon="6.0061">
        <ele>318.17</ele>
        <time>2018-02-23T13:22:15Z</time>
      </trkpt>
      <trkpt lat="47.68408" lon="6.00602">
        <ele>317.93</ele>
        <time>2018-02-23T13:22:16Z</time>
      </trkpt>
      <trkpt lat="47.68406" lon="6.00595">
        <ele>317.83</ele>
        <time>2018-02-23T13:22:17Z</time>
      </trkpt>
      <trkpt lat="47.68403" lon="6.00582">
        <ele>317.52</ele>
        <time>2018-02-23T13:22:19Z</time>
      </trkpt>
      <trkpt lat="47.68402" lon="6.00574">
        <ele>317.42</ele>
        <time>2018-02-23T13:22:20Z</time>
      </trkpt>
      <trkpt lat="47.68401" lon="6.00567">
        <ele>317.36</ele>
        <time>2018-02-23T13:22:21Z</time>
      </trkpt>
      <trkpt lat="47.68399" lon="6.0056">
        <ele>317.32</ele>
        <time>2018-02-23T13:22:22Z</time>
      </trkpt>
      <trkpt lat="47.68398" lon="6.00552">
        <ele>317.06</ele>
        <time>2018-02-23T13:22:23Z</time>
      </trkpt>
      <trkpt lat="47.68397" lon="6.00545">
        <ele>316.97</ele>
        <time>2018-02-23T13:22:24Z</time>
      </trkpt>
      <trkpt lat="47.68395" lon="6.00539">
        <ele>316.7</ele>
        <time>2018-02-23T13:22:25Z</time>
      </trkpt>
      <trkpt lat="47.68394" lon="6.0053">
        <ele>316.42</ele>
        <time>2018-02-23T13:22:26Z</time>
      </trkpt>
      <trkpt lat="47.68393" lon="6.00521">
        <ele>316.13</ele>
        <time>2018-02-23T13:22:27Z</time>
      </trkpt>
      <trkpt lat="47.68392" lon="6.00514">
        <ele>315.87</ele>
        <time>2018-02-23T13:22:28Z</time>
      </trkpt>
      <trkpt lat="47.68391" lon="6.00506">
        <ele>315.63</ele>
        <time>2018-02-23T13:22:29Z</time>
      </trkpt>
      <trkpt lat="47.6839" lon="6.00497">
        <ele>315.41</ele>
        <time>2018-02-23T13:22:30Z</time>
      </trkpt>
      <trkpt lat="47.68389" lon="6.00487">
        <ele>315.23</ele>
        <time>2018-02-23T13:22:31Z</time>
      </trkpt>
      <trkpt lat="47.68388" lon="6.00478">
        <ele>315.05</ele>
        <time>2018-02-23T13:22:32Z</time>
      </trkpt>
      <trkpt lat="47.68388" lon="6.00471">
        <ele>314.99</ele>
        <time>2018-02-23T13:22:33Z</time>
      </trkpt>
      <trkpt lat="47.68387" lon="6.00463">
        <ele>314.96</ele>
        <time>2018-02-23T13:22:34Z</time>
      </trkpt>
      <trkpt lat="47.68385" lon="6.00455">
        <ele>314.78</ele>
        <time>2018-02-23T13:22:35Z</time>
      </trkpt>
      <trkpt lat="47.68382" lon="6.00443">
        <ele>314.58</ele>
        <time>2018-02-23T13:22:36Z</time>
      </trkpt>
      <trkpt lat="47.68377" lon="6.0043">
        <ele>314.38</ele>
        <time>2018-02-23T13:22:37Z</time>
      </trkpt>
      <trkpt lat="47.68371" lon="6.00416">
        <ele>314.19</ele>
        <time>2018-02-23T13:22:38Z</time>
      </trkpt>
      <trkpt lat="47.68364" lon="6.00405">
        <ele>313.98</ele>
        <time>2018-02-23T13:22:39Z</time>
      </trkpt>
      <trkpt lat="47.68357" lon="6.00395">
        <ele>313.75</ele>
        <time>2018-02-23T13:22:40Z</time>
      </trkpt>
      <trkpt lat="47.6835" lon="6.00387">
        <ele>313.52</ele>
        <time>2018-02-23T13:22:41Z</time>
      </trkpt>
      <trkpt lat="47.68344" lon="6.00381">
        <ele>313.3</ele>
        <time>2018-02-23T13:22:42Z</time>
      </trkpt>
      <trkpt lat="47.68338" lon="6.00375">
        <ele>313.09</ele>
        <time>2018-02-23T13:22:43Z</time>
      </trkpt>
      <trkpt lat="47.68331" lon="6.00368">
        <ele>312.89</ele>
        <time>2018-02-23T13:22:44Z</time>
      </trkpt>
      <trkpt lat="47.68325" lon="6.00363">
        <ele>312.69</ele>
        <time>2018-02-23T13:22:45Z</time>
      </trkpt>
      <trkpt lat="47.6832" lon="6.00359">
        <ele>312.62</ele>
        <time>2018-02-23T13:22:46Z</time>
      </trkpt>
      <trkpt lat="47.68315" lon="6.00355">
        <ele>312.59</ele>
        <time>2018-02-23T13:22:47Z</time>
      </trkpt>
      <trkpt lat="47.68307" lon="6.00351">
        <ele>312.54</ele>
        <time>2018-02-23T13:22:48Z</time>
      </trkpt>
      <trkpt lat="47.68297" lon="6.00347">
        <ele>312.52</ele>
        <time>2018-02-23T13:22:49Z</time>
      </trkpt>
      <trkpt lat="47.68289" lon="6.00343">
        <ele>312.51</ele>
        <time>2018-02-23T13:22:50Z</time>
      </trkpt>
      <trkpt lat="47.68282" lon="6.0034">
        <ele>312.51</ele>
        <time>2018-02-23T13:22:51Z</time>
      </trkpt>
      <trkpt lat="47.68276" lon="6.00336">
        <ele>312.51</ele>
        <time>2018-02-23T13:22:52Z</time>
      </trkpt>
      <trkpt lat="47.68268" lon="6.00334">
        <ele>312.53</ele>
        <time>2018-02-23T13:22:54Z</time>
      </trkpt>
      <trkpt lat="47.68262" lon="6.00332">
        <ele>312.55</ele>
        <time>2018-02-23T13:22:55Z</time>
      </trkpt>
      <trkpt lat="47.68256" lon="6.00331">
        <ele>312.56</ele>
        <time>2018-02-23T13:22:56Z</time>
      </trkpt>
      <trkpt lat="47.68251" lon="6.00329">
        <ele>312.58</ele>
        <time>2018-02-23T13:22:57Z</time>
      </trkpt>
      <trkpt lat="47.68244" lon="6.00328">
        <ele>312.6</ele>
        <time>2018-02-23T13:22:59Z</time>
      </trkpt>
      <trkpt lat="47.68239" lon="6.00327">
        <ele>312.6</ele>
        <time>2018-02-23T13:23:00Z</time>
      </trkpt>
      <trkpt lat="47.68232" lon="6.00326">
        <ele>312.6</ele>
        <time>2018-02-23T13:23:02Z</time>
      </trkpt>
      <trkpt lat="47.68225" lon="6.00328">
        <ele>312.59</ele>
        <time>2018-02-23T13:23:04Z</time>
      </trkpt>
      <trkpt lat="47.68218" lon="6.00328">
        <ele>312.57</ele>
        <time>2018-02-23T13:23:06Z</time>
      </trkpt>
      <trkpt lat="47.68211" lon="6.00329">
        <ele>312.54</ele>
        <time>2018-02-23T13:23:08Z</time>
      </trkpt>
      <trkpt lat="47.68204" lon="6.00331">
        <ele>312.5</ele>
        <time>2018-02-23T13:23:10Z</time>
      </trkpt>
      <trkpt lat="47.68198" lon="6.00331">
        <ele>312.43</ele>
        <time>2018-02-23T13:23:12Z</time>
      </trkpt>
      <trkpt lat="47.68192" lon="6.00332">
        <ele>312.34</ele>
        <time>2018-02-23T13:23:14Z</time>
      </trkpt>
      <trkpt lat="47.68183" lon="6.00333">
        <ele>311.35</ele>
        <time>2018-02-23T13:23:16Z</time>
      </trkpt>
      <trkpt lat="47.68178" lon="6.00333">
        <ele>310.77</ele>
        <time>2018-02-23T13:23:17Z</time>
      </trkpt>
      <trkpt lat="47.68171" lon="6.00334">
        <ele>310.18</ele>
        <time>2018-02-23T13:23:18Z</time>
      </trkpt>
      <trkpt lat="47.68165" lon="6.00335">
        <ele>309.61</ele>
        <time>2018-02-23T13:23:19Z</time>
      </trkpt>
      <trkpt lat="47.68159" lon="6.00335">
        <ele>309.07</ele>
        <time>2018-02-23T13:23:20Z</time>
      </trkpt>
      <trkpt lat="47.68153" lon="6.00336">
        <ele>308.56</ele>
        <time>2018-02-23T13:23:21Z</time>
      </trkpt>
      <trkpt lat="47.68147" lon="6.00337">
        <ele>308.11</ele>
        <time>2018-02-23T13:23:22Z</time>
      </trkpt>
      <trkpt lat="47.68142" lon="6.00337">
        <ele>307.71</ele>
        <time>2018-02-23T13:23:23Z</time>
      </trkpt>
      <trkpt lat="47.68133" lon="6.00339">
        <ele>307.21</ele>
        <time>2018-02-23T13:23:25Z</time>
      </trkpt>
      <trkpt lat="47.68127" lon="6.0034">
        <ele>307.09</ele>
        <time>2018-02-23T13:23:27Z</time>
      </trkpt>
      <trkpt lat="47.68121" lon="6.00342">
        <ele>307</ele>
        <time>2018-02-23T13:23:29Z</time>
      </trkpt>
      <trkpt lat="47.68116" lon="6.00343">
        <ele>306.9</ele>
        <time>2018-02-23T13:23:31Z</time>
      </trkpt>
      <trkpt lat="47.68111" lon="6.00344">
        <ele>306.78</ele>
        <time>2018-02-23T13:23:33Z</time>
      </trkpt>
      <trkpt lat="47.68104" lon="6.00345">
        <ele>306.66</ele>
        <time>2018-02-23T13:23:35Z</time>
      </trkpt>
      <trkpt lat="47.68096" lon="6.00345">
        <ele>306.52</ele>
        <time>2018-02-23T13:23:37Z</time>
      </trkpt>
      <trkpt lat="47.68088" lon="6.00345">
        <ele>305.8</ele>
        <time>2018-02-23T13:23:39Z</time>
      </trkpt>
      <trkpt lat="47.68081" lon="6.00343">
        <ele>305.62</ele>
        <time>2018-02-23T13:23:41Z</time>
      </trkpt>
      <trkpt lat="47.68073" lon="6.00339">
        <ele>305.48</ele>
        <time>2018-02-23T13:23:43Z</time>
      </trkpt>
      <trkpt lat="47.68069" lon="6.00336">
        <ele>304.98</ele>
        <time>2018-02-23T13:23:44Z</time>
      </trkpt>
      <trkpt lat="47.68064" lon="6.00333">
        <ele>304.79</ele>
        <time>2018-02-23T13:23:45Z</time>
      </trkpt>
      <trkpt lat="47.68057" lon="6.00327">
        <ele>304.24</ele>
        <time>2018-02-23T13:23:47Z</time>
      </trkpt>
      <trkpt lat="47.68053" lon="6.00323">
        <ele>303.77</ele>
        <time>2018-02-23T13:23:48Z</time>
      </trkpt>
      <trkpt lat="47.68046" lon="6.00316">
        <ele>303.52</ele>
        <time>2018-02-23T13:23:50Z</time>
      </trkpt>
      <trkpt lat="47.68039" lon="6.0031">
        <ele>303.17</ele>
        <time>2018-02-23T13:23:52Z</time>
      </trkpt>
      <trkpt lat="47.68032" lon="6.00303">
        <ele>303.01</ele>
        <time>2018-02-23T13:23:54Z</time>
      </trkpt>
      <trkpt lat="47.68025" lon="6.00295">
        <ele>302.76</ele>
        <time>2018-02-23T13:23:56Z</time>
      </trkpt>
      <trkpt lat="47.6802" lon="6.00288">
        <ele>302.7</ele>
        <time>2018-02-23T13:23:58Z</time>
      </trkpt>
      <trkpt lat="47.68013" lon="6.00282">
        <ele>302.44</ele>
        <time>2018-02-23T13:24:00Z</time>
      </trkpt>
      <trkpt lat="47.68006" lon="6.00274">
        <ele>301.99</ele>
        <time>2018-02-23T13:24:02Z</time>
      </trkpt>
      <trkpt lat="47.67999" lon="6.00266">
        <ele>301.51</ele>
        <time>2018-02-23T13:24:04Z</time>
      </trkpt>
      <trkpt lat="47.67995" lon="6.00261">
        <ele>301.3</ele>
        <time>2018-02-23T13:24:05Z</time>
      </trkpt>
      <trkpt lat="47.67991" lon="6.00257">
        <ele>301.11</ele>
        <time>2018-02-23T13:24:06Z</time>
      </trkpt>
      <trkpt lat="47.67986" lon="6.00253">
        <ele>300.95</ele>
        <time>2018-02-23T13:24:07Z</time>
      </trkpt>
      <trkpt lat="47.67982" lon="6.00249">
        <ele>300.82</ele>
        <time>2018-02-23T13:24:08Z</time>
      </trkpt>
      <trkpt lat="47.67978" lon="6.00244">
        <ele>300.71</ele>
        <time>2018-02-23T13:24:09Z</time>
      </trkpt>
      <trkpt lat="47.67974" lon="6.0024">
        <ele>300.63</ele>
        <time>2018-02-23T13:24:10Z</time>
      </trkpt>
      <trkpt lat="47.6797" lon="6.00235">
        <ele>300.58</ele>
        <time>2018-02-23T13:24:11Z</time>
      </trkpt>
      <trkpt lat="47.67966" lon="6.0023">
        <ele>300.54</ele>
        <time>2018-02-23T13:24:12Z</time>
      </trkpt>
      <trkpt lat="47.67962" lon="6.00225">
        <ele>300.5</ele>
        <time>2018-02-23T13:24:13Z</time>
      </trkpt>
      <trkpt lat="47.67958" lon="6.0022">
        <ele>300.47</ele>
        <time>2018-02-23T13:24:14Z</time>
      </trkpt>
      <trkpt lat="47.67953" lon="6.00213">
        <ele>300.39</ele>
        <time>2018-02-23T13:24:16Z</time>
      </trkpt>
      <trkpt lat="47.67947" lon="6.00203">
        <ele>300.24</ele>
        <time>2018-02-23T13:24:18Z</time>
      </trkpt>
      <trkpt lat="47.67944" lon="6.00196">
        <ele>300.14</ele>
        <time>2018-02-23T13:24:19Z</time>
      </trkpt>
      <trkpt lat="47.67933" lon="6.00182">
        <ele>300</ele>
        <time>2018-02-23T13:24:20Z</time>
      </trkpt>
      <trkpt lat="47.67929" lon="6.00174">
        <ele>299.7</ele>
        <time>2018-02-23T13:24:22Z</time>
      </trkpt>
      <trkpt lat="47.67916" lon="6.00162">
        <ele>299.52</ele>
        <time>2018-02-23T13:24:23Z</time>
      </trkpt>
      <trkpt lat="47.6791" lon="6.00155">
        <ele>299.33</ele>
        <time>2018-02-23T13:24:24Z</time>
      </trkpt>
      <trkpt lat="47.67903" lon="6.00148">
        <ele>299.12</ele>
        <time>2018-02-23T13:24:25Z</time>
      </trkpt>
      <trkpt lat="47.67897" lon="6.00141">
        <ele>298.9</ele>
        <time>2018-02-23T13:24:26Z</time>
      </trkpt>
      <trkpt lat="47.67891" lon="6.00133">
        <ele>298.67</ele>
        <time>2018-02-23T13:24:27Z</time>
      </trkpt>
      <trkpt lat="47.67887" lon="6.00124">
        <ele>298.41</ele>
        <time>2018-02-23T13:24:28Z</time>
      </trkpt>
      <trkpt lat="47.67882" lon="6.00116">
        <ele>298.14</ele>
        <time>2018-02-23T13:24:29Z</time>
      </trkpt>
      <trkpt lat="47.67877" lon="6.00107">
        <ele>297.85</ele>
        <time>2018-02-23T13:24:30Z</time>
      </trkpt>
      <trkpt lat="47.67872" lon="6.00097">
        <ele>297.55</ele>
        <time>2018-02-23T13:24:31Z</time>
      </trkpt>
      <trkpt lat="47.67867" lon="6.00088">
        <ele>297.22</ele>
        <time>2018-02-23T13:24:32Z</time>
      </trkpt>
      <trkpt lat="47.67861" lon="6.00079">
        <ele>296.85</ele>
        <time>2018-02-23T13:24:33Z</time>
      </trkpt>
      <trkpt lat="47.67856" lon="6.00069">
        <ele>296.46</ele>
        <time>2018-02-23T13:24:34Z</time>
      </trkpt>
      <trkpt lat="47.6785" lon="6.0006">
        <ele>296.04</ele>
        <time>2018-02-23T13:24:35Z</time>
      </trkpt>
      <trkpt lat="47.67843" lon="6.00051">
        <ele>295.62</ele>
        <time>2018-02-23T13:24:36Z</time>
      </trkpt>
      <trkpt lat="47.67839" lon="6.00043">
        <ele>295.16</ele>
        <time>2018-02-23T13:24:37Z</time>
      </trkpt>
      <trkpt lat="47.67833" lon="6.0004">
        <ele>294.74</ele>
        <time>2018-02-23T13:24:38Z</time>
      </trkpt>
      <trkpt lat="47.67828" lon="6.00038">
        <ele>294.32</ele>
        <time>2018-02-23T13:24:39Z</time>
      </trkpt>
      <trkpt lat="47.67823" lon="6.00037">
        <ele>293.91</ele>
        <time>2018-02-23T13:24:40Z</time>
      </trkpt>
      <trkpt lat="47.67818" lon="6.00035">
        <ele>293.51</ele>
        <time>2018-02-23T13:24:41Z</time>
      </trkpt>
      <trkpt lat="47.67812" lon="6.00032">
        <ele>293.02</ele>
        <time>2018-02-23T13:24:42Z</time>
      </trkpt>
      <trkpt lat="47.67806" lon="6.00029">
        <ele>292.52</ele>
        <time>2018-02-23T13:24:43Z</time>
      </trkpt>
      <trkpt lat="47.678" lon="6.00025">
        <ele>291.97</ele>
        <time>2018-02-23T13:24:44Z</time>
      </trkpt>
      <trkpt lat="47.67794" lon="6.00021">
        <ele>291.29</ele>
        <time>2018-02-23T13:24:45Z</time>
      </trkpt>
      <trkpt lat="47.67788" lon="6.00016">
        <ele>290.46</ele>
        <time>2018-02-23T13:24:46Z</time>
      </trkpt>
      <trkpt lat="47.6778" lon="6.00012">
        <ele>289.58</ele>
        <time>2018-02-23T13:24:47Z</time>
      </trkpt>
      <trkpt lat="47.67774" lon="6.00008">
        <ele>288.74</ele>
        <time>2018-02-23T13:24:48Z</time>
      </trkpt>
      <trkpt lat="47.67768" lon="6.00001">
        <ele>287.89</ele>
        <time>2018-02-23T13:24:49Z</time>
      </trkpt>
      <trkpt lat="47.67762" lon="5.99993">
        <ele>287.02</ele>
        <time>2018-02-23T13:24:50Z</time>
      </trkpt>
      <trkpt lat="47.67756" lon="5.99986">
        <ele>286.18</ele>
        <time>2018-02-23T13:24:51Z</time>
      </trkpt>
      <trkpt lat="47.67752" lon="5.99977">
        <ele>285.5</ele>
        <time>2018-02-23T13:24:52Z</time>
      </trkpt>
      <trkpt lat="47.67748" lon="5.99969">
        <ele>284.9</ele>
        <time>2018-02-23T13:24:53Z</time>
      </trkpt>
      <trkpt lat="47.67746" lon="5.99962">
        <ele>284.28</ele>
        <time>2018-02-23T13:24:54Z</time>
      </trkpt>
      <trkpt lat="47.67743" lon="5.99953">
        <ele>283.9</ele>
        <time>2018-02-23T13:24:56Z</time>
      </trkpt>
      <trkpt lat="47.67741" lon="5.99942">
        <ele>283.61</ele>
        <time>2018-02-23T13:24:58Z</time>
      </trkpt>
      <trkpt lat="47.6774" lon="5.99935">
        <ele>283.45</ele>
        <time>2018-02-23T13:24:59Z</time>
      </trkpt>
      <trkpt lat="47.67738" lon="5.99929">
        <ele>283.3</ele>
        <time>2018-02-23T13:25:00Z</time>
      </trkpt>
      <trkpt lat="47.67736" lon="5.99917">
        <ele>283.04</ele>
        <time>2018-02-23T13:25:02Z</time>
      </trkpt>
      <trkpt lat="47.67736" lon="5.99905">
        <ele>282.86</ele>
        <time>2018-02-23T13:25:04Z</time>
      </trkpt>
      <trkpt lat="47.67737" lon="5.99893">
        <ele>282.77</ele>
        <time>2018-02-23T13:25:06Z</time>
      </trkpt>
      <trkpt lat="47.67739" lon="5.99884">
        <ele>282.73</ele>
        <time>2018-02-23T13:25:08Z</time>
      </trkpt>
      <trkpt lat="47.6774" lon="5.99876">
        <ele>282.77</ele>
        <time>2018-02-23T13:25:10Z</time>
      </trkpt>
      <trkpt lat="47.67736" lon="5.99866">
        <ele>283.22</ele>
        <time>2018-02-23T13:25:16Z</time>
      </trkpt>
      <trkpt lat="47.67734" lon="5.99855">
        <ele>283.86</ele>
        <time>2018-02-23T13:25:26Z</time>
      </trkpt>
      <trkpt lat="47.67731" lon="5.99842">
        <ele>284.71</ele>
        <time>2018-02-23T13:25:39Z</time>
      </trkpt>
      <trkpt lat="47.67729" lon="5.99831">
        <ele>285.75</ele>
        <time>2018-02-23T13:25:44Z</time>
      </trkpt>
      <trkpt lat="47.67724" lon="5.9982">
        <ele>289.84</ele>
        <time>2018-02-23T13:25:53Z</time>
      </trkpt>
      <trkpt lat="47.67724" lon="5.99813">
        <ele>291.65</ele>
        <time>2018-02-23T13:25:56Z</time>
      </trkpt>
      <trkpt lat="47.67724" lon="5.99806">
        <ele>292.75</ele>
        <time>2018-02-23T13:25:58Z</time>
      </trkpt>
      <trkpt lat="47.67725" lon="5.99797">
        <ele>293.75</ele>
        <time>2018-02-23T13:26:00Z</time>
      </trkpt>
      <trkpt lat="47.67724" lon="5.99789">
        <ele>294.66</ele>
        <time>2018-02-23T13:26:02Z</time>
      </trkpt>
      <trkpt lat="47.67717" lon="5.99782">
        <ele>295.92</ele>
        <time>2018-02-23T13:26:05Z</time>
      </trkpt>
      <trkpt lat="47.67707" lon="5.99779">
        <ele>296.66</ele>
        <time>2018-02-23T13:26:07Z</time>
      </trkpt>
      <trkpt lat="47.677" lon="5.99777">
        <ele>297.01</ele>
        <time>2018-02-23T13:26:08Z</time>
      </trkpt>
      <trkpt lat="47.67693" lon="5.99775">
        <ele>297.33</ele>
        <time>2018-02-23T13:26:09Z</time>
      </trkpt>
      <trkpt lat="47.67685" lon="5.99775">
        <ele>297.92</ele>
        <time>2018-02-23T13:26:11Z</time>
      </trkpt>
      <trkpt lat="47.67678" lon="5.99777">
        <ele>298.43</ele>
        <time>2018-02-23T13:26:13Z</time>
      </trkpt>
      <trkpt lat="47.67671" lon="5.99782">
        <ele>298.89</ele>
        <time>2018-02-23T13:26:15Z</time>
      </trkpt>
      <trkpt lat="47.67664" lon="5.99789">
        <ele>299.28</ele>
        <time>2018-02-23T13:26:17Z</time>
      </trkpt>
      <trkpt lat="47.67661" lon="5.99794">
        <ele>299.45</ele>
        <time>2018-02-23T13:26:18Z</time>
      </trkpt>
      <trkpt lat="47.67657" lon="5.99798">
        <ele>299.61</ele>
        <time>2018-02-23T13:26:19Z</time>
      </trkpt>
      <trkpt lat="47.67652" lon="5.99804">
        <ele>299.89</ele>
        <time>2018-02-23T13:26:21Z</time>
      </trkpt>
      <trkpt lat="47.67647" lon="5.99811">
        <ele>300.13</ele>
        <time>2018-02-23T13:26:23Z</time>
      </trkpt>
      <trkpt lat="47.67641" lon="5.99816">
        <ele>300.35</ele>
        <time>2018-02-23T13:26:25Z</time>
      </trkpt>
      <trkpt lat="47.67635" lon="5.99821">
        <ele>300.54</ele>
        <time>2018-02-23T13:26:27Z</time>
      </trkpt>
      <trkpt lat="47.67627" lon="5.99825">
        <ele>300.72</ele>
        <time>2018-02-23T13:26:29Z</time>
      </trkpt>
      <trkpt lat="47.67619" lon="5.99827">
        <ele>300.85</ele>
        <time>2018-02-23T13:26:31Z</time>
      </trkpt>
      <trkpt lat="47.67612" lon="5.99827">
        <ele>300.96</ele>
        <time>2018-02-23T13:26:33Z</time>
      </trkpt>
      <trkpt lat="47.67605" lon="5.99825">
        <ele>301.04</ele>
        <time>2018-02-23T13:26:35Z</time>
      </trkpt>
      <trkpt lat="47.67598" lon="5.99823">
        <ele>301.12</ele>
        <time>2018-02-23T13:26:38Z</time>
      </trkpt>
      <trkpt lat="47.67592" lon="5.99819">
        <ele>301.14</ele>
        <time>2018-02-23T13:26:40Z</time>
      </trkpt>
      <trkpt lat="47.67587" lon="5.99816">
        <ele>301.15</ele>
        <time>2018-02-23T13:26:42Z</time>
      </trkpt>
      <trkpt lat="47.6758" lon="5.99811">
        <ele>301.15</ele>
        <time>2018-02-23T13:26:44Z</time>
      </trkpt>
      <trkpt lat="47.67573" lon="5.99807">
        <ele>301.14</ele>
        <time>2018-02-23T13:26:46Z</time>
      </trkpt>
      <trkpt lat="47.67569" lon="5.99803">
        <ele>301.12</ele>
        <time>2018-02-23T13:26:47Z</time>
      </trkpt>
      <trkpt lat="47.67565" lon="5.998">
        <ele>301.1</ele>
        <time>2018-02-23T13:26:48Z</time>
      </trkpt>
      <trkpt lat="47.67558" lon="5.99795">
        <ele>301.04</ele>
        <time>2018-02-23T13:26:50Z</time>
      </trkpt>
      <trkpt lat="47.67552" lon="5.99789">
        <ele>300.93</ele>
        <time>2018-02-23T13:26:52Z</time>
      </trkpt>
      <trkpt lat="47.67545" lon="5.99784">
        <ele>300.8</ele>
        <time>2018-02-23T13:26:54Z</time>
      </trkpt>
      <trkpt lat="47.67539" lon="5.99779">
        <ele>300.64</ele>
        <time>2018-02-23T13:26:56Z</time>
      </trkpt>
      <trkpt lat="47.67531" lon="5.99773">
        <ele>300.46</ele>
        <time>2018-02-23T13:26:58Z</time>
      </trkpt>
      <trkpt lat="47.67525" lon="5.99766">
        <ele>300.27</ele>
        <time>2018-02-23T13:27:00Z</time>
      </trkpt>
      <trkpt lat="47.6752" lon="5.99759">
        <ele>300.07</ele>
        <time>2018-02-23T13:27:02Z</time>
      </trkpt>
      <trkpt lat="47.67513" lon="5.99751">
        <ele>299.85</ele>
        <time>2018-02-23T13:27:04Z</time>
      </trkpt>
      <trkpt lat="47.67508" lon="5.99743">
        <ele>299.63</ele>
        <time>2018-02-23T13:27:06Z</time>
      </trkpt>
      <trkpt lat="47.67503" lon="5.99733">
        <ele>299.39</ele>
        <time>2018-02-23T13:27:08Z</time>
      </trkpt>
      <trkpt lat="47.675" lon="5.99727">
        <ele>299.27</ele>
        <time>2018-02-23T13:27:09Z</time>
      </trkpt>
      <trkpt lat="47.67494" lon="5.99718">
        <ele>299.01</ele>
        <time>2018-02-23T13:27:11Z</time>
      </trkpt>
      <trkpt lat="47.6749" lon="5.99711">
        <ele>298.74</ele>
        <time>2018-02-23T13:27:13Z</time>
      </trkpt>
      <trkpt lat="47.67487" lon="5.99703">
        <ele>298.5</ele>
        <time>2018-02-23T13:27:15Z</time>
      </trkpt>
      <trkpt lat="47.67485" lon="5.99695">
        <ele>298.26</ele>
        <time>2018-02-23T13:27:17Z</time>
      </trkpt>
      <trkpt lat="47.67482" lon="5.99687">
        <ele>298.03</ele>
        <time>2018-02-23T13:27:19Z</time>
      </trkpt>
      <trkpt lat="47.6748" lon="5.9968">
        <ele>297.8</ele>
        <time>2018-02-23T13:27:21Z</time>
      </trkpt>
      <trkpt lat="47.6748" lon="5.99672">
        <ele>297.58</ele>
        <time>2018-02-23T13:27:23Z</time>
      </trkpt>
      <trkpt lat="47.67481" lon="5.99664">
        <ele>297.37</ele>
        <time>2018-02-23T13:27:25Z</time>
      </trkpt>
      <trkpt lat="47.6748" lon="5.99655">
        <ele>297.15</ele>
        <time>2018-02-23T13:27:27Z</time>
      </trkpt>
      <trkpt lat="47.67481" lon="5.99645">
        <ele>296.94</ele>
        <time>2018-02-23T13:27:29Z</time>
      </trkpt>
      <trkpt lat="47.67482" lon="5.99638">
        <ele>296.84</ele>
        <time>2018-02-23T13:27:30Z</time>
      </trkpt>
      <trkpt lat="47.6748" lon="5.99615">
        <ele>296.63</ele>
        <time>2018-02-23T13:27:32Z</time>
      </trkpt>
      <trkpt lat="47.6748" lon="5.99607">
        <ele>296.53</ele>
        <time>2018-02-23T13:27:33Z</time>
      </trkpt>
      <trkpt lat="47.67485" lon="5.99602">
        <ele>296.35</ele>
        <time>2018-02-23T13:27:35Z</time>
      </trkpt>
      <trkpt lat="47.67485" lon="5.99587">
        <ele>296.18</ele>
        <time>2018-02-23T13:27:37Z</time>
      </trkpt>
      <trkpt lat="47.67489" lon="5.99578">
        <ele>295.94</ele>
        <time>2018-02-23T13:27:40Z</time>
      </trkpt>
      <trkpt lat="47.67494" lon="5.99569">
        <ele>295.79</ele>
        <time>2018-02-23T13:27:42Z</time>
      </trkpt>
      <trkpt lat="47.67501" lon="5.99556">
        <ele>294.69</ele>
        <time>2018-02-23T13:27:44Z</time>
      </trkpt>
      <trkpt lat="47.67503" lon="5.99549">
        <ele>294.49</ele>
        <time>2018-02-23T13:27:45Z</time>
      </trkpt>
      <trkpt lat="47.67502" lon="5.99541">
        <ele>294.34</ele>
        <time>2018-02-23T13:27:47Z</time>
      </trkpt>
      <trkpt lat="47.67495" lon="5.9954">
        <ele>293.98</ele>
        <time>2018-02-23T13:27:49Z</time>
      </trkpt>
      <trkpt lat="47.67484" lon="5.99544">
        <ele>293.87</ele>
        <time>2018-02-23T13:27:50Z</time>
      </trkpt>
      <trkpt lat="47.67475" lon="5.99547">
        <ele>293.81</ele>
        <time>2018-02-23T13:27:51Z</time>
      </trkpt>
      <trkpt lat="47.6747" lon="5.9955">
        <ele>293.77</ele>
        <time>2018-02-23T13:27:52Z</time>
      </trkpt>
      <trkpt lat="47.67465" lon="5.99553">
        <ele>293.74</ele>
        <time>2018-02-23T13:27:53Z</time>
      </trkpt>
      <trkpt lat="47.6746" lon="5.99553">
        <ele>293.7</ele>
        <time>2018-02-23T13:27:54Z</time>
      </trkpt>
      <trkpt lat="47.67455" lon="5.99557">
        <ele>293.67</ele>
        <time>2018-02-23T13:27:55Z</time>
      </trkpt>
      <trkpt lat="47.67446" lon="5.99554">
        <ele>293.62</ele>
        <time>2018-02-23T13:27:57Z</time>
      </trkpt>
      <trkpt lat="47.67441" lon="5.99554">
        <ele>293.6</ele>
        <time>2018-02-23T13:27:58Z</time>
      </trkpt>
      <trkpt lat="47.67435" lon="5.99553">
        <ele>293.56</ele>
        <time>2018-02-23T13:28:00Z</time>
      </trkpt>
      <trkpt lat="47.67429" lon="5.99554">
        <ele>293.54</ele>
        <time>2018-02-23T13:28:01Z</time>
      </trkpt>
      <trkpt lat="47.67423" lon="5.99553">
        <ele>293.52</ele>
        <time>2018-02-23T13:28:02Z</time>
      </trkpt>
      <trkpt lat="47.67417" lon="5.99553">
        <ele>293.5</ele>
        <time>2018-02-23T13:28:03Z</time>
      </trkpt>
      <trkpt lat="47.67411" lon="5.99554">
        <ele>293.48</ele>
        <time>2018-02-23T13:28:04Z</time>
      </trkpt>
      <trkpt lat="47.67405" lon="5.99556">
        <ele>293.46</ele>
        <time>2018-02-23T13:28:05Z</time>
      </trkpt>
      <trkpt lat="47.67401" lon="5.99558">
        <ele>293.45</ele>
        <time>2018-02-23T13:28:06Z</time>
      </trkpt>
      <trkpt lat="47.67394" lon="5.99561">
        <ele>293.42</ele>
        <time>2018-02-23T13:28:08Z</time>
      </trkpt>
      <trkpt lat="47.67388" lon="5.99562">
        <ele>293.39</ele>
        <time>2018-02-23T13:28:10Z</time>
      </trkpt>
      <trkpt lat="47.6738" lon="5.99564">
        <ele>293.37</ele>
        <time>2018-02-23T13:28:12Z</time>
      </trkpt>
      <trkpt lat="47.67373" lon="5.99565">
        <ele>293.35</ele>
        <time>2018-02-23T13:28:14Z</time>
      </trkpt>
      <trkpt lat="47.67368" lon="5.99567">
        <ele>293.33</ele>
        <time>2018-02-23T13:28:16Z</time>
      </trkpt>
      <trkpt lat="47.67361" lon="5.99568">
        <ele>293.31</ele>
        <time>2018-02-23T13:28:18Z</time>
      </trkpt>
      <trkpt lat="47.67351" lon="5.99571">
        <ele>293.29</ele>
        <time>2018-02-23T13:28:20Z</time>
      </trkpt>
      <trkpt lat="47.67343" lon="5.99573">
        <ele>293.28</ele>
        <time>2018-02-23T13:28:22Z</time>
      </trkpt>
      <trkpt lat="47.67336" lon="5.99575">
        <ele>293.26</ele>
        <time>2018-02-23T13:28:24Z</time>
      </trkpt>
      <trkpt lat="47.67332" lon="5.99578">
        <ele>293.25</ele>
        <time>2018-02-23T13:28:25Z</time>
      </trkpt>
      <trkpt lat="47.67325" lon="5.99582">
        <ele>293.23</ele>
        <time>2018-02-23T13:28:27Z</time>
      </trkpt>
      <trkpt lat="47.67319" lon="5.99586">
        <ele>293.22</ele>
        <time>2018-02-23T13:28:29Z</time>
      </trkpt>
      <trkpt lat="47.67312" lon="5.99591">
        <ele>293.22</ele>
        <time>2018-02-23T13:28:31Z</time>
      </trkpt>
      <trkpt lat="47.67307" lon="5.99594">
        <ele>293.21</ele>
        <time>2018-02-23T13:28:33Z</time>
      </trkpt>
      <trkpt lat="47.67302" lon="5.996">
        <ele>293.21</ele>
        <time>2018-02-23T13:28:35Z</time>
      </trkpt>
      <trkpt lat="47.67297" lon="5.99604">
        <ele>293.21</ele>
        <time>2018-02-23T13:28:37Z</time>
      </trkpt>
      <trkpt lat="47.67292" lon="5.99608">
        <ele>293.2</ele>
        <time>2018-02-23T13:28:39Z</time>
      </trkpt>
      <trkpt lat="47.67286" lon="5.9961">
        <ele>293.2</ele>
        <time>2018-02-23T13:28:41Z</time>
      </trkpt>
      <trkpt lat="47.67281" lon="5.99611">
        <ele>293.2</ele>
        <time>2018-02-23T13:28:42Z</time>
      </trkpt>
      <trkpt lat="47.67274" lon="5.99612">
        <ele>293.19</ele>
        <time>2018-02-23T13:28:44Z</time>
      </trkpt>
      <trkpt lat="47.67268" lon="5.99611">
        <ele>293.19</ele>
        <time>2018-02-23T13:28:46Z</time>
      </trkpt>
      <trkpt lat="47.67261" lon="5.9961">
        <ele>293.19</ele>
        <time>2018-02-23T13:28:48Z</time>
      </trkpt>
      <trkpt lat="47.67256" lon="5.99608">
        <ele>293.18</ele>
        <time>2018-02-23T13:28:50Z</time>
      </trkpt>
      <trkpt lat="47.67252" lon="5.99603">
        <ele>293.17</ele>
        <time>2018-02-23T13:28:52Z</time>
      </trkpt>
      <trkpt lat="47.67247" lon="5.996">
        <ele>293.17</ele>
        <time>2018-02-23T13:28:54Z</time>
      </trkpt>
      <trkpt lat="47.67242" lon="5.99594">
        <ele>293.15</ele>
        <time>2018-02-23T13:28:57Z</time>
      </trkpt>
      <trkpt lat="47.67237" lon="5.99591">
        <ele>293.14</ele>
        <time>2018-02-23T13:28:59Z</time>
      </trkpt>
      <trkpt lat="47.67233" lon="5.99587">
        <ele>293.13</ele>
        <time>2018-02-23T13:29:01Z</time>
      </trkpt>
      <trkpt lat="47.67228" lon="5.99583">
        <ele>293.11</ele>
        <time>2018-02-23T13:29:04Z</time>
      </trkpt>
      <trkpt lat="47.67225" lon="5.99577">
        <ele>293.08</ele>
        <time>2018-02-23T13:29:07Z</time>
      </trkpt>
      <trkpt lat="47.67223" lon="5.99569">
        <ele>293.06</ele>
        <time>2018-02-23T13:29:10Z</time>
      </trkpt>
      <trkpt lat="47.67218" lon="5.99564">
        <ele>293.05</ele>
        <time>2018-02-23T13:29:13Z</time>
      </trkpt>
      <trkpt lat="47.67215" lon="5.99558">
        <ele>293.05</ele>
        <time>2018-02-23T13:29:16Z</time>
      </trkpt>
      <trkpt lat="47.67211" lon="5.9955">
        <ele>293.06</ele>
        <time>2018-02-23T13:29:19Z</time>
      </trkpt>
      <trkpt lat="47.67206" lon="5.99541">
        <ele>293.07</ele>
        <time>2018-02-23T13:29:22Z</time>
      </trkpt>
      <trkpt lat="47.67203" lon="5.99535">
        <ele>293.07</ele>
        <time>2018-02-23T13:29:24Z</time>
      </trkpt>
      <trkpt lat="47.672" lon="5.99529">
        <ele>293.07</ele>
        <time>2018-02-23T13:29:27Z</time>
      </trkpt>
      <trkpt lat="47.67199" lon="5.99521">
        <ele>293.07</ele>
        <time>2018-02-23T13:29:32Z</time>
      </trkpt>
      <trkpt lat="47.67197" lon="5.9951">
        <ele>293.06</ele>
        <time>2018-02-23T13:29:37Z</time>
      </trkpt>
      <trkpt lat="47.67195" lon="5.99503">
        <ele>293.06</ele>
        <time>2018-02-23T13:29:39Z</time>
      </trkpt>
      <trkpt lat="47.67193" lon="5.99494">
        <ele>293.05</ele>
        <time>2018-02-23T13:29:44Z</time>
      </trkpt>
      <trkpt lat="47.6719" lon="5.99487">
        <ele>293.05</ele>
        <time>2018-02-23T13:29:45Z</time>
      </trkpt>
      <trkpt lat="47.67188" lon="5.99481">
        <ele>293.05</ele>
        <time>2018-02-23T13:29:46Z</time>
      </trkpt>
      <trkpt lat="47.67187" lon="5.99473">
        <ele>293.05</ele>
        <time>2018-02-23T13:29:48Z</time>
      </trkpt>
      <trkpt lat="47.67186" lon="5.99466">
        <ele>293.03</ele>
        <time>2018-02-23T13:29:53Z</time>
      </trkpt>
      <trkpt lat="47.67185" lon="5.99459">
        <ele>293.02</ele>
        <time>2018-02-23T13:29:57Z</time>
      </trkpt>
      <trkpt lat="47.67181" lon="5.99455">
        <ele>293.01</ele>
        <time>2018-02-23T13:29:59Z</time>
      </trkpt>
      <trkpt lat="47.67179" lon="5.99448">
        <ele>293.01</ele>
        <time>2018-02-23T13:30:00Z</time>
      </trkpt>
      <trkpt lat="47.67176" lon="5.99438">
        <ele>293</ele>
        <time>2018-02-23T13:30:03Z</time>
      </trkpt>
      <trkpt lat="47.67172" lon="5.99428">
        <ele>292.99</ele>
        <time>2018-02-23T13:30:05Z</time>
      </trkpt>
      <trkpt lat="47.67168" lon="5.99421">
        <ele>292.99</ele>
        <time>2018-02-23T13:30:07Z</time>
      </trkpt>
      <trkpt lat="47.67166" lon="5.99413">
        <ele>292.99</ele>
        <time>2018-02-23T13:30:10Z</time>
      </trkpt>
      <trkpt lat="47.67163" lon="5.99407">
        <ele>292.99</ele>
        <time>2018-02-23T13:30:13Z</time>
      </trkpt>
      <trkpt lat="47.6716" lon="5.99398">
        <ele>292.98</ele>
        <time>2018-02-23T13:30:17Z</time>
      </trkpt>
      <trkpt lat="47.67157" lon="5.99391">
        <ele>292.98</ele>
        <time>2018-02-23T13:30:18Z</time>
      </trkpt>
      <trkpt lat="47.67154" lon="5.99385">
        <ele>292.98</ele>
        <time>2018-02-23T13:30:19Z</time>
      </trkpt>
      <trkpt lat="47.67151" lon="5.99378">
        <ele>292.98</ele>
        <time>2018-02-23T13:30:21Z</time>
      </trkpt>
      <trkpt lat="47.67149" lon="5.99371">
        <ele>292.98</ele>
        <time>2018-02-23T13:30:24Z</time>
      </trkpt>
      <trkpt lat="47.67147" lon="5.99365">
        <ele>292.98</ele>
        <time>2018-02-23T13:30:26Z</time>
      </trkpt>
      <trkpt lat="47.67146" lon="5.99356">
        <ele>292.99</ele>
        <time>2018-02-23T13:30:28Z</time>
      </trkpt>
      <trkpt lat="47.67142" lon="5.99349">
        <ele>293</ele>
        <time>2018-02-23T13:30:30Z</time>
      </trkpt>
      <trkpt lat="47.67139" lon="5.99342">
        <ele>293.01</ele>
        <time>2018-02-23T13:30:32Z</time>
      </trkpt>
      <trkpt lat="47.67135" lon="5.99337">
        <ele>293.02</ele>
        <time>2018-02-23T13:30:34Z</time>
      </trkpt>
      <trkpt lat="47.67131" lon="5.99331">
        <ele>293.02</ele>
        <time>2018-02-23T13:30:36Z</time>
      </trkpt>
      <trkpt lat="47.67128" lon="5.99324">
        <ele>293.03</ele>
        <time>2018-02-23T13:30:38Z</time>
      </trkpt>
      <trkpt lat="47.67125" lon="5.99317">
        <ele>293.05</ele>
        <time>2018-02-23T13:30:41Z</time>
      </trkpt>
      <trkpt lat="47.67124" lon="5.99309">
        <ele>293.06</ele>
        <time>2018-02-23T13:30:43Z</time>
      </trkpt>
      <trkpt lat="47.67123" lon="5.99302">
        <ele>293.06</ele>
        <time>2018-02-23T13:30:45Z</time>
      </trkpt>
      <trkpt lat="47.67121" lon="5.99295">
        <ele>293.07</ele>
        <time>2018-02-23T13:30:47Z</time>
      </trkpt>
      <trkpt lat="47.67118" lon="5.99288">
        <ele>293.07</ele>
        <time>2018-02-23T13:30:48Z</time>
      </trkpt>
      <trkpt lat="47.67115" lon="5.99279">
        <ele>293.08</ele>
        <time>2018-02-23T13:30:50Z</time>
      </trkpt>
      <trkpt lat="47.67112" lon="5.99271">
        <ele>293.08</ele>
        <time>2018-02-23T13:30:52Z</time>
      </trkpt>
      <trkpt lat="47.67108" lon="5.99261">
        <ele>293.08</ele>
        <time>2018-02-23T13:30:54Z</time>
      </trkpt>
      <trkpt lat="47.67102" lon="5.99252">
        <ele>293.08</ele>
        <time>2018-02-23T13:30:56Z</time>
      </trkpt>
      <trkpt lat="47.67095" lon="5.99248">
        <ele>293.09</ele>
        <time>2018-02-23T13:30:58Z</time>
      </trkpt>
      <trkpt lat="47.67086" lon="5.99244">
        <ele>293.08</ele>
        <time>2018-02-23T13:31:00Z</time>
      </trkpt>
      <trkpt lat="47.67079" lon="5.99235">
        <ele>293.08</ele>
        <time>2018-02-23T13:31:02Z</time>
      </trkpt>
      <trkpt lat="47.67073" lon="5.99227">
        <ele>293.08</ele>
        <time>2018-02-23T13:31:04Z</time>
      </trkpt>
      <trkpt lat="47.67068" lon="5.99223">
        <ele>293.08</ele>
        <time>2018-02-23T13:31:06Z</time>
      </trkpt>
      <trkpt lat="47.67063" lon="5.99219">
        <ele>293.08</ele>
        <time>2018-02-23T13:31:08Z</time>
      </trkpt>
      <trkpt lat="47.67059" lon="5.99214">
        <ele>293.07</ele>
        <time>2018-02-23T13:31:10Z</time>
      </trkpt>
      <trkpt lat="47.67054" lon="5.99208">
        <ele>293.07</ele>
        <time>2018-02-23T13:31:13Z</time>
      </trkpt>
      <trkpt lat="47.67049" lon="5.99204">
        <ele>293.07</ele>
        <time>2018-02-23T13:31:15Z</time>
      </trkpt>
      <trkpt lat="47.67044" lon="5.99201">
        <ele>293.07</ele>
        <time>2018-02-23T13:31:17Z</time>
      </trkpt>
      <trkpt lat="47.67039" lon="5.99197">
        <ele>293.07</ele>
        <time>2018-02-23T13:31:19Z</time>
      </trkpt>
      <trkpt lat="47.67034" lon="5.99193">
        <ele>293.06</ele>
        <time>2018-02-23T13:31:22Z</time>
      </trkpt>
      <trkpt lat="47.67029" lon="5.99189">
        <ele>293.05</ele>
        <time>2018-02-23T13:31:25Z</time>
      </trkpt>
      <trkpt lat="47.67023" lon="5.99191">
        <ele>293.04</ele>
        <time>2018-02-23T13:31:28Z</time>
      </trkpt>
      <trkpt lat="47.67017" lon="5.99194">
        <ele>293.03</ele>
        <time>2018-02-23T13:31:30Z</time>
      </trkpt>
      <trkpt lat="47.67012" lon="5.99196">
        <ele>293.02</ele>
        <time>2018-02-23T13:31:32Z</time>
      </trkpt>
      <trkpt lat="47.67006" lon="5.99199">
        <ele>293</ele>
        <time>2018-02-23T13:31:34Z</time>
      </trkpt>
      <trkpt lat="47.67" lon="5.99198">
        <ele>292.99</ele>
        <time>2018-02-23T13:31:36Z</time>
      </trkpt>
      <trkpt lat="47.66995" lon="5.99197">
        <ele>292.97</ele>
        <time>2018-02-23T13:31:38Z</time>
      </trkpt>
      <trkpt lat="47.6699" lon="5.99197">
        <ele>292.95</ele>
        <time>2018-02-23T13:31:41Z</time>
      </trkpt>
      <trkpt lat="47.66984" lon="5.99196">
        <ele>292.93</ele>
        <time>2018-02-23T13:31:44Z</time>
      </trkpt>
      <trkpt lat="47.66978" lon="5.99196">
        <ele>292.91</ele>
        <time>2018-02-23T13:31:46Z</time>
      </trkpt>
      <trkpt lat="47.66972" lon="5.99193">
        <ele>292.9</ele>
        <time>2018-02-23T13:31:48Z</time>
      </trkpt>
      <trkpt lat="47.66966" lon="5.99189">
        <ele>292.89</ele>
        <time>2018-02-23T13:31:50Z</time>
      </trkpt>
      <trkpt lat="47.6696" lon="5.99186">
        <ele>292.88</ele>
        <time>2018-02-23T13:31:52Z</time>
      </trkpt>
      <trkpt lat="47.66955" lon="5.99182">
        <ele>292.86</ele>
        <time>2018-02-23T13:31:54Z</time>
      </trkpt>
      <trkpt lat="47.6695" lon="5.99179">
        <ele>292.85</ele>
        <time>2018-02-23T13:31:56Z</time>
      </trkpt>
      <trkpt lat="47.66944" lon="5.99174">
        <ele>292.83</ele>
        <time>2018-02-23T13:31:59Z</time>
      </trkpt>
      <trkpt lat="47.66939" lon="5.99168">
        <ele>292.82</ele>
        <time>2018-02-23T13:32:01Z</time>
      </trkpt>
      <trkpt lat="47.66934" lon="5.99163">
        <ele>292.8</ele>
        <time>2018-02-23T13:32:03Z</time>
      </trkpt>
      <trkpt lat="47.66931" lon="5.99158">
        <ele>292.79</ele>
        <time>2018-02-23T13:32:05Z</time>
      </trkpt>
      <trkpt lat="47.66928" lon="5.9915">
        <ele>292.77</ele>
        <time>2018-02-23T13:32:08Z</time>
      </trkpt>
      <trkpt lat="47.66926" lon="5.99143">
        <ele>292.75</ele>
        <time>2018-02-23T13:32:11Z</time>
      </trkpt>
      <trkpt lat="47.66924" lon="5.99137">
        <ele>292.73</ele>
        <time>2018-02-23T13:32:14Z</time>
      </trkpt>
      <trkpt lat="47.66923" lon="5.99127">
        <ele>292.7</ele>
        <time>2018-02-23T13:32:18Z</time>
      </trkpt>
      <trkpt lat="47.66923" lon="5.99119">
        <ele>292.69</ele>
        <time>2018-02-23T13:32:20Z</time>
      </trkpt>
      <trkpt lat="47.66921" lon="5.99111">
        <ele>292.68</ele>
        <time>2018-02-23T13:32:22Z</time>
      </trkpt>
      <trkpt lat="47.66917" lon="5.99104">
        <ele>292.66</ele>
        <time>2018-02-23T13:32:25Z</time>
      </trkpt>
      <trkpt lat="47.66913" lon="5.99099">
        <ele>292.64</ele>
        <time>2018-02-23T13:32:27Z</time>
      </trkpt>
      <trkpt lat="47.66911" lon="5.99091">
        <ele>292.62</ele>
        <time>2018-02-23T13:32:29Z</time>
      </trkpt>
      <trkpt lat="47.66906" lon="5.99081">
        <ele>292.6</ele>
        <time>2018-02-23T13:32:31Z</time>
      </trkpt>
      <trkpt lat="47.66903" lon="5.99075">
        <ele>292.6</ele>
        <time>2018-02-23T13:32:32Z</time>
      </trkpt>
      <trkpt lat="47.669" lon="5.99068">
        <ele>292.59</ele>
        <time>2018-02-23T13:32:33Z</time>
      </trkpt>
      <trkpt lat="47.66897" lon="5.99063">
        <ele>292.57</ele>
        <time>2018-02-23T13:32:35Z</time>
      </trkpt>
      <trkpt lat="47.66892" lon="5.9906">
        <ele>292.56</ele>
        <time>2018-02-23T13:32:37Z</time>
      </trkpt>
      <trkpt lat="47.66887" lon="5.99056">
        <ele>292.54</ele>
        <time>2018-02-23T13:32:39Z</time>
      </trkpt>
      <trkpt lat="47.6688" lon="5.99052">
        <ele>292.53</ele>
        <time>2018-02-23T13:32:41Z</time>
      </trkpt>
      <trkpt lat="47.66877" lon="5.99046">
        <ele>292.52</ele>
        <time>2018-02-23T13:32:42Z</time>
      </trkpt>
      <trkpt lat="47.66874" lon="5.99039">
        <ele>292.51</ele>
        <time>2018-02-23T13:32:44Z</time>
      </trkpt>
      <trkpt lat="47.66873" lon="5.9903">
        <ele>292.49</ele>
        <time>2018-02-23T13:32:46Z</time>
      </trkpt>
      <trkpt lat="47.66872" lon="5.99022">
        <ele>292.48</ele>
        <time>2018-02-23T13:32:48Z</time>
      </trkpt>
      <trkpt lat="47.66872" lon="5.99012">
        <ele>292.47</ele>
        <time>2018-02-23T13:32:50Z</time>
      </trkpt>
      <trkpt lat="47.66872" lon="5.99">
        <ele>292.45</ele>
        <time>2018-02-23T13:32:52Z</time>
      </trkpt>
      <trkpt lat="47.66871" lon="5.98992">
        <ele>292.44</ele>
        <time>2018-02-23T13:32:54Z</time>
      </trkpt>
      <trkpt lat="47.6687" lon="5.98984">
        <ele>292.43</ele>
        <time>2018-02-23T13:32:57Z</time>
      </trkpt>
      <trkpt lat="47.66868" lon="5.98977">
        <ele>292.42</ele>
        <time>2018-02-23T13:32:59Z</time>
      </trkpt>
      <trkpt lat="47.66866" lon="5.98969">
        <ele>292.41</ele>
        <time>2018-02-23T13:33:01Z</time>
      </trkpt>
      <trkpt lat="47.66866" lon="5.98959">
        <ele>292.4</ele>
        <time>2018-02-23T13:33:04Z</time>
      </trkpt>
      <trkpt lat="47.66867" lon="5.98948">
        <ele>292.39</ele>
        <time>2018-02-23T13:33:06Z</time>
      </trkpt>
      <trkpt lat="47.66868" lon="5.98937">
        <ele>292.37</ele>
        <time>2018-02-23T13:33:08Z</time>
      </trkpt>
      <trkpt lat="47.66869" lon="5.98929">
        <ele>292.36</ele>
        <time>2018-02-23T13:33:11Z</time>
      </trkpt>
      <trkpt lat="47.6687" lon="5.98919">
        <ele>292.35</ele>
        <time>2018-02-23T13:33:13Z</time>
      </trkpt>
      <trkpt lat="47.66869" lon="5.98911">
        <ele>292.34</ele>
        <time>2018-02-23T13:33:14Z</time>
      </trkpt>
      <trkpt lat="47.66869" lon="5.98904">
        <ele>292.33</ele>
        <time>2018-02-23T13:33:15Z</time>
      </trkpt>
      <trkpt lat="47.66867" lon="5.98894">
        <ele>292.32</ele>
        <time>2018-02-23T13:33:17Z</time>
      </trkpt>
      <trkpt lat="47.66865" lon="5.98887">
        <ele>292.3</ele>
        <time>2018-02-23T13:33:19Z</time>
      </trkpt>
      <trkpt lat="47.66864" lon="5.9888">
        <ele>292.28</ele>
        <time>2018-02-23T13:33:21Z</time>
      </trkpt>
      <trkpt lat="47.66865" lon="5.98873">
        <ele>292.25</ele>
        <time>2018-02-23T13:33:24Z</time>
      </trkpt>
      <trkpt lat="47.66865" lon="5.98865">
        <ele>292.21</ele>
        <time>2018-02-23T13:33:28Z</time>
      </trkpt>
      <trkpt lat="47.66864" lon="5.98858">
        <ele>292.16</ele>
        <time>2018-02-23T13:33:32Z</time>
      </trkpt>
      <trkpt lat="47.66867" lon="5.9885">
        <ele>292.09</ele>
        <time>2018-02-23T13:33:37Z</time>
      </trkpt>
      <trkpt lat="47.66868" lon="5.98842">
        <ele>292.07</ele>
        <time>2018-02-23T13:33:38Z</time>
      </trkpt>
      <trkpt lat="47.66867" lon="5.98834">
        <ele>292.04</ele>
        <time>2018-02-23T13:33:40Z</time>
      </trkpt>
      <trkpt lat="47.66866" lon="5.98828">
        <ele>292</ele>
        <time>2018-02-23T13:33:43Z</time>
      </trkpt>
      <trkpt lat="47.66864" lon="5.9882">
        <ele>291.96</ele>
        <time>2018-02-23T13:33:45Z</time>
      </trkpt>
      <trkpt lat="47.66861" lon="5.98809">
        <ele>291.92</ele>
        <time>2018-02-23T13:33:48Z</time>
      </trkpt>
      <trkpt lat="47.66864" lon="5.98798">
        <ele>291.89</ele>
        <time>2018-02-23T13:33:50Z</time>
      </trkpt>
      <trkpt lat="47.66866" lon="5.98792">
        <ele>291.87</ele>
        <time>2018-02-23T13:33:51Z</time>
      </trkpt>
      <trkpt lat="47.66867" lon="5.98785">
        <ele>291.84</ele>
        <time>2018-02-23T13:33:53Z</time>
      </trkpt>
      <trkpt lat="47.66867" lon="5.98773">
        <ele>291.8</ele>
        <time>2018-02-23T13:33:55Z</time>
      </trkpt>
      <trkpt lat="47.66865" lon="5.98765">
        <ele>291.76</ele>
        <time>2018-02-23T13:33:57Z</time>
      </trkpt>
      <trkpt lat="47.66864" lon="5.98751">
        <ele>291.73</ele>
        <time>2018-02-23T13:33:59Z</time>
      </trkpt>
      <trkpt lat="47.66864" lon="5.98743">
        <ele>291.71</ele>
        <time>2018-02-23T13:34:00Z</time>
      </trkpt>
      <trkpt lat="47.66863" lon="5.98733">
        <ele>291.66</ele>
        <time>2018-02-23T13:34:02Z</time>
      </trkpt>
      <trkpt lat="47.66859" lon="5.98723">
        <ele>291.62</ele>
        <time>2018-02-23T13:34:04Z</time>
      </trkpt>
      <trkpt lat="47.66861" lon="5.98713">
        <ele>291.6</ele>
        <time>2018-02-23T13:34:05Z</time>
      </trkpt>
      <trkpt lat="47.66862" lon="5.98705">
        <ele>291.58</ele>
        <time>2018-02-23T13:34:06Z</time>
      </trkpt>
      <trkpt lat="47.66861" lon="5.98697">
        <ele>291.56</ele>
        <time>2018-02-23T13:34:07Z</time>
      </trkpt>
      <trkpt lat="47.66859" lon="5.9869">
        <ele>291.53</ele>
        <time>2018-02-23T13:34:08Z</time>
      </trkpt>
      <trkpt lat="47.66858" lon="5.98683">
        <ele>291.51</ele>
        <time>2018-02-23T13:34:09Z</time>
      </trkpt>
      <trkpt lat="47.66856" lon="5.98677">
        <ele>291.48</ele>
        <time>2018-02-23T13:34:10Z</time>
      </trkpt>
      <trkpt lat="47.66854" lon="5.98666">
        <ele>291.41</ele>
        <time>2018-02-23T13:34:13Z</time>
      </trkpt>
      <trkpt lat="47.66856" lon="5.98658">
        <ele>291.36</ele>
        <time>2018-02-23T13:34:15Z</time>
      </trkpt>
      <trkpt lat="47.66856" lon="5.98647">
        <ele>291.25</ele>
        <time>2018-02-23T13:34:20Z</time>
      </trkpt>
      <trkpt lat="47.66856" lon="5.98634">
        <ele>291.2</ele>
        <time>2018-02-23T13:34:22Z</time>
      </trkpt>
      <trkpt lat="47.66852" lon="5.98623">
        <ele>291.15</ele>
        <time>2018-02-23T13:34:24Z</time>
      </trkpt>
      <trkpt lat="47.66849" lon="5.98617">
        <ele>291.12</ele>
        <time>2018-02-23T13:34:25Z</time>
      </trkpt>
      <trkpt lat="47.66844" lon="5.98608">
        <ele>291.09</ele>
        <time>2018-02-23T13:34:26Z</time>
      </trkpt>
      <trkpt lat="47.66841" lon="5.98601">
        <ele>291.06</ele>
        <time>2018-02-23T13:34:27Z</time>
      </trkpt>
      <trkpt lat="47.66838" lon="5.98595">
        <ele>291.03</ele>
        <time>2018-02-23T13:34:28Z</time>
      </trkpt>
      <trkpt lat="47.66834" lon="5.9859">
        <ele>290.97</ele>
        <time>2018-02-23T13:34:30Z</time>
      </trkpt>
      <trkpt lat="47.6683" lon="5.98583">
        <ele>290.91</ele>
        <time>2018-02-23T13:34:32Z</time>
      </trkpt>
      <trkpt lat="47.66825" lon="5.9857">
        <ele>290.85</ele>
        <time>2018-02-23T13:34:34Z</time>
      </trkpt>
      <trkpt lat="47.66822" lon="5.98562">
        <ele>290.82</ele>
        <time>2018-02-23T13:34:35Z</time>
      </trkpt>
      <trkpt lat="47.6682" lon="5.98556">
        <ele>290.79</ele>
        <time>2018-02-23T13:34:36Z</time>
      </trkpt>
      <trkpt lat="47.66817" lon="5.98548">
        <ele>290.73</ele>
        <time>2018-02-23T13:34:38Z</time>
      </trkpt>
      <trkpt lat="47.66814" lon="5.98541">
        <ele>290.65</ele>
        <time>2018-02-23T13:34:41Z</time>
      </trkpt>
      <trkpt lat="47.66812" lon="5.98534">
        <ele>290.57</ele>
        <time>2018-02-23T13:34:44Z</time>
      </trkpt>
      <trkpt lat="47.66808" lon="5.98525">
        <ele>290.52</ele>
        <time>2018-02-23T13:34:46Z</time>
      </trkpt>
      <trkpt lat="47.66805" lon="5.98519">
        <ele>290.47</ele>
        <time>2018-02-23T13:34:48Z</time>
      </trkpt>
      <trkpt lat="47.66802" lon="5.98512">
        <ele>290.42</ele>
        <time>2018-02-23T13:34:50Z</time>
      </trkpt>
      <trkpt lat="47.668" lon="5.98507">
        <ele>290.4</ele>
        <time>2018-02-23T13:34:52Z</time>
      </trkpt>
      <trkpt lat="47.66796" lon="5.98498">
        <ele>290.37</ele>
        <time>2018-02-23T13:34:53Z</time>
      </trkpt>
      <trkpt lat="47.66793" lon="5.9849">
        <ele>290.35</ele>
        <time>2018-02-23T13:34:54Z</time>
      </trkpt>
      <trkpt lat="47.66789" lon="5.98482">
        <ele>290.29</ele>
        <time>2018-02-23T13:34:56Z</time>
      </trkpt>
      <trkpt lat="47.66784" lon="5.98475">
        <ele>290.23</ele>
        <time>2018-02-23T13:34:58Z</time>
      </trkpt>
      <trkpt lat="47.66782" lon="5.98468">
        <ele>290.17</ele>
        <time>2018-02-23T13:35:00Z</time>
      </trkpt>
      <trkpt lat="47.66778" lon="5.9846">
        <ele>290.08</ele>
        <time>2018-02-23T13:35:03Z</time>
      </trkpt>
      <trkpt lat="47.66775" lon="5.98453">
        <ele>289.98</ele>
        <time>2018-02-23T13:35:06Z</time>
      </trkpt>
      <trkpt lat="47.66772" lon="5.98447">
        <ele>289.91</ele>
        <time>2018-02-23T13:35:08Z</time>
      </trkpt>
      <trkpt lat="47.6677" lon="5.9844">
        <ele>289.8</ele>
        <time>2018-02-23T13:35:11Z</time>
      </trkpt>
      <trkpt lat="47.66767" lon="5.98433">
        <ele>289.68</ele>
        <time>2018-02-23T13:35:14Z</time>
      </trkpt>
      <trkpt lat="47.66764" lon="5.98425">
        <ele>289.6</ele>
        <time>2018-02-23T13:35:16Z</time>
      </trkpt>
      <trkpt lat="47.66762" lon="5.98418">
        <ele>289.51</ele>
        <time>2018-02-23T13:35:18Z</time>
      </trkpt>
      <trkpt lat="47.6676" lon="5.9841">
        <ele>289.42</ele>
        <time>2018-02-23T13:35:20Z</time>
      </trkpt>
      <trkpt lat="47.66758" lon="5.98402">
        <ele>289.33</ele>
        <time>2018-02-23T13:35:22Z</time>
      </trkpt>
      <trkpt lat="47.66756" lon="5.98394">
        <ele>289.24</ele>
        <time>2018-02-23T13:35:24Z</time>
      </trkpt>
      <trkpt lat="47.66754" lon="5.98388">
        <ele>289.14</ele>
        <time>2018-02-23T13:35:26Z</time>
      </trkpt>
      <trkpt lat="47.66753" lon="5.98379">
        <ele>289.04</ele>
        <time>2018-02-23T13:35:28Z</time>
      </trkpt>
      <trkpt lat="47.66751" lon="5.98367">
        <ele>288.93</ele>
        <time>2018-02-23T13:35:30Z</time>
      </trkpt>
      <trkpt lat="47.66747" lon="5.98356">
        <ele>288.1</ele>
        <time>2018-02-23T13:35:32Z</time>
      </trkpt>
      <trkpt lat="47.66746" lon="5.98347">
        <ele>287.62</ele>
        <time>2018-02-23T13:35:33Z</time>
      </trkpt>
      <trkpt lat="47.66745" lon="5.9834">
        <ele>287.09</ele>
        <time>2018-02-23T13:35:34Z</time>
      </trkpt>
      <trkpt lat="47.66744" lon="5.98333">
        <ele>286.53</ele>
        <time>2018-02-23T13:35:35Z</time>
      </trkpt>
      <trkpt lat="47.66743" lon="5.98323">
        <ele>286.23</ele>
        <time>2018-02-23T13:35:37Z</time>
      </trkpt>
      <trkpt lat="47.66742" lon="5.98312">
        <ele>286.07</ele>
        <time>2018-02-23T13:35:39Z</time>
      </trkpt>
      <trkpt lat="47.6674" lon="5.98299">
        <ele>285.91</ele>
        <time>2018-02-23T13:35:41Z</time>
      </trkpt>
      <trkpt lat="47.66738" lon="5.98292">
        <ele>285.81</ele>
        <time>2018-02-23T13:35:42Z</time>
      </trkpt>
      <trkpt lat="47.66736" lon="5.98284">
        <ele>285.71</ele>
        <time>2018-02-23T13:35:43Z</time>
      </trkpt>
      <trkpt lat="47.66734" lon="5.98277">
        <ele>285.61</ele>
        <time>2018-02-23T13:35:44Z</time>
      </trkpt>
      <trkpt lat="47.66733" lon="5.9827">
        <ele>285.49</ele>
        <time>2018-02-23T13:35:45Z</time>
      </trkpt>
      <trkpt lat="47.66731" lon="5.98262">
        <ele>285.37</ele>
        <time>2018-02-23T13:35:46Z</time>
      </trkpt>
      <trkpt lat="47.66729" lon="5.98252">
        <ele>284.43</ele>
        <time>2018-02-23T13:35:47Z</time>
      </trkpt>
      <trkpt lat="47.66726" lon="5.98239">
        <ele>283.34</ele>
        <time>2018-02-23T13:35:48Z</time>
      </trkpt>
      <trkpt lat="47.66722" lon="5.98224">
        <ele>282.3</ele>
        <time>2018-02-23T13:35:49Z</time>
      </trkpt>
      <trkpt lat="47.66719" lon="5.98209">
        <ele>281.33</ele>
        <time>2018-02-23T13:35:50Z</time>
      </trkpt>
      <trkpt lat="47.66715" lon="5.98193">
        <ele>280.44</ele>
        <time>2018-02-23T13:35:51Z</time>
      </trkpt>
      <trkpt lat="47.66711" lon="5.98177">
        <ele>279.62</ele>
        <time>2018-02-23T13:35:52Z</time>
      </trkpt>
      <trkpt lat="47.66707" lon="5.98162">
        <ele>278.86</ele>
        <time>2018-02-23T13:35:53Z</time>
      </trkpt>
      <trkpt lat="47.66704" lon="5.98149">
        <ele>278.11</ele>
        <time>2018-02-23T13:35:54Z</time>
      </trkpt>
      <trkpt lat="47.66701" lon="5.98136">
        <ele>277.38</ele>
        <time>2018-02-23T13:35:55Z</time>
      </trkpt>
      <trkpt lat="47.66697" lon="5.98124">
        <ele>276.69</ele>
        <time>2018-02-23T13:35:56Z</time>
      </trkpt>
      <trkpt lat="47.66692" lon="5.98111">
        <ele>276.02</ele>
        <time>2018-02-23T13:35:57Z</time>
      </trkpt>
      <trkpt lat="47.66688" lon="5.98098">
        <ele>275.38</ele>
        <time>2018-02-23T13:35:58Z</time>
      </trkpt>
      <trkpt lat="47.66685" lon="5.98084">
        <ele>274.58</ele>
        <time>2018-02-23T13:35:59Z</time>
      </trkpt>
      <trkpt lat="47.66682" lon="5.98069">
        <ele>273.45</ele>
        <time>2018-02-23T13:36:00Z</time>
      </trkpt>
      <trkpt lat="47.6668" lon="5.98053">
        <ele>272.06</ele>
        <time>2018-02-23T13:36:01Z</time>
      </trkpt>
      <trkpt lat="47.66678" lon="5.98039">
        <ele>270.38</ele>
        <time>2018-02-23T13:36:02Z</time>
      </trkpt>
      <trkpt lat="47.66677" lon="5.98024">
        <ele>268.55</ele>
        <time>2018-02-23T13:36:03Z</time>
      </trkpt>
      <trkpt lat="47.66675" lon="5.9801">
        <ele>266.77</ele>
        <time>2018-02-23T13:36:04Z</time>
      </trkpt>
      <trkpt lat="47.66674" lon="5.97996">
        <ele>265.02</ele>
        <time>2018-02-23T13:36:05Z</time>
      </trkpt>
      <trkpt lat="47.66672" lon="5.97981">
        <ele>263.31</ele>
        <time>2018-02-23T13:36:06Z</time>
      </trkpt>
      <trkpt lat="47.6667" lon="5.97965">
        <ele>261.64</ele>
        <time>2018-02-23T13:36:07Z</time>
      </trkpt>
      <trkpt lat="47.66669" lon="5.97952">
        <ele>260.02</ele>
        <time>2018-02-23T13:36:08Z</time>
      </trkpt>
      <trkpt lat="47.66667" lon="5.97938">
        <ele>258.46</ele>
        <time>2018-02-23T13:36:09Z</time>
      </trkpt>
      <trkpt lat="47.66665" lon="5.97922">
        <ele>257.01</ele>
        <time>2018-02-23T13:36:10Z</time>
      </trkpt>
      <trkpt lat="47.66663" lon="5.97907">
        <ele>255.62</ele>
        <time>2018-02-23T13:36:11Z</time>
      </trkpt>
      <trkpt lat="47.66662" lon="5.97892">
        <ele>254.25</ele>
        <time>2018-02-23T13:36:12Z</time>
      </trkpt>
      <trkpt lat="47.6666" lon="5.97877">
        <ele>252.97</ele>
        <time>2018-02-23T13:36:13Z</time>
      </trkpt>
      <trkpt lat="47.66659" lon="5.97863">
        <ele>251.7</ele>
        <time>2018-02-23T13:36:14Z</time>
      </trkpt>
      <trkpt lat="47.66657" lon="5.97849">
        <ele>250.48</ele>
        <time>2018-02-23T13:36:15Z</time>
      </trkpt>
      <trkpt lat="47.66656" lon="5.97835">
        <ele>249.33</ele>
        <time>2018-02-23T13:36:16Z</time>
      </trkpt>
      <trkpt lat="47.66654" lon="5.97822">
        <ele>248.28</ele>
        <time>2018-02-23T13:36:17Z</time>
      </trkpt>
      <trkpt lat="47.66653" lon="5.9781">
        <ele>247.26</ele>
        <time>2018-02-23T13:36:18Z</time>
      </trkpt>
      <trkpt lat="47.66652" lon="5.97798">
        <ele>246.28</ele>
        <time>2018-02-23T13:36:19Z</time>
      </trkpt>
      <trkpt lat="47.66652" lon="5.97787">
        <ele>245.32</ele>
        <time>2018-02-23T13:36:20Z</time>
      </trkpt>
      <trkpt lat="47.66651" lon="5.97776">
        <ele>244.37</ele>
        <time>2018-02-23T13:36:21Z</time>
      </trkpt>
      <trkpt lat="47.6665" lon="5.97766">
        <ele>243.51</ele>
        <time>2018-02-23T13:36:22Z</time>
      </trkpt>
      <trkpt lat="47.66649" lon="5.97757">
        <ele>242.67</ele>
        <time>2018-02-23T13:36:23Z</time>
      </trkpt>
      <trkpt lat="47.66648" lon="5.97748">
        <ele>241.85</ele>
        <time>2018-02-23T13:36:24Z</time>
      </trkpt>
      <trkpt lat="47.66646" lon="5.97739">
        <ele>241.05</ele>
        <time>2018-02-23T13:36:25Z</time>
      </trkpt>
      <trkpt lat="47.66644" lon="5.9773">
        <ele>240.29</ele>
        <time>2018-02-23T13:36:26Z</time>
      </trkpt>
      <trkpt lat="47.66642" lon="5.97722">
        <ele>239.58</ele>
        <time>2018-02-23T13:36:27Z</time>
      </trkpt>
      <trkpt lat="47.6664" lon="5.97713">
        <ele>238.93</ele>
        <time>2018-02-23T13:36:28Z</time>
      </trkpt>
      <trkpt lat="47.66638" lon="5.97704">
        <ele>238.35</ele>
        <time>2018-02-23T13:36:29Z</time>
      </trkpt>
      <trkpt lat="47.66636" lon="5.97696">
        <ele>237.82</ele>
        <time>2018-02-23T13:36:30Z</time>
      </trkpt>
      <trkpt lat="47.66634" lon="5.97687">
        <ele>237.34</ele>
        <time>2018-02-23T13:36:31Z</time>
      </trkpt>
      <trkpt lat="47.66632" lon="5.97679">
        <ele>236.91</ele>
        <time>2018-02-23T13:36:32Z</time>
      </trkpt>
      <trkpt lat="47.6663" lon="5.9767">
        <ele>236.49</ele>
        <time>2018-02-23T13:36:33Z</time>
      </trkpt>
      <trkpt lat="47.66628" lon="5.97661">
        <ele>236.07</ele>
        <time>2018-02-23T13:36:34Z</time>
      </trkpt>
      <trkpt lat="47.66626" lon="5.97652">
        <ele>235.65</ele>
        <time>2018-02-23T13:36:35Z</time>
      </trkpt>
      <trkpt lat="47.66624" lon="5.97644">
        <ele>235.31</ele>
        <time>2018-02-23T13:36:36Z</time>
      </trkpt>
      <trkpt lat="47.66622" lon="5.97635">
        <ele>235</ele>
        <time>2018-02-23T13:36:37Z</time>
      </trkpt>
      <trkpt lat="47.6662" lon="5.97626">
        <ele>234.7</ele>
        <time>2018-02-23T13:36:38Z</time>
      </trkpt>
      <trkpt lat="47.66618" lon="5.97618">
        <ele>234.43</ele>
        <time>2018-02-23T13:36:39Z</time>
      </trkpt>
      <trkpt lat="47.66616" lon="5.9761">
        <ele>234.16</ele>
        <time>2018-02-23T13:36:40Z</time>
      </trkpt>
      <trkpt lat="47.66614" lon="5.97603">
        <ele>233.88</ele>
        <time>2018-02-23T13:36:41Z</time>
      </trkpt>
      <trkpt lat="47.66612" lon="5.97597">
        <ele>233.59</ele>
        <time>2018-02-23T13:36:42Z</time>
      </trkpt>
      <trkpt lat="47.6661" lon="5.97591">
        <ele>233.29</ele>
        <time>2018-02-23T13:36:43Z</time>
      </trkpt>
      <trkpt lat="47.66608" lon="5.97584">
        <ele>232.97</ele>
        <time>2018-02-23T13:36:44Z</time>
      </trkpt>
      <trkpt lat="47.66607" lon="5.97577">
        <ele>232.65</ele>
        <time>2018-02-23T13:36:45Z</time>
      </trkpt>
      <trkpt lat="47.66605" lon="5.97571">
        <ele>232.33</ele>
        <time>2018-02-23T13:36:46Z</time>
      </trkpt>
      <trkpt lat="47.66603" lon="5.97565">
        <ele>232.01</ele>
        <time>2018-02-23T13:36:47Z</time>
      </trkpt>
      <trkpt lat="47.66601" lon="5.97557">
        <ele>231.7</ele>
        <time>2018-02-23T13:36:48Z</time>
      </trkpt>
      <trkpt lat="47.66599" lon="5.9755">
        <ele>231.39</ele>
        <time>2018-02-23T13:36:49Z</time>
      </trkpt>
      <trkpt lat="47.66597" lon="5.97543">
        <ele>231.07</ele>
        <time>2018-02-23T13:36:50Z</time>
      </trkpt>
      <trkpt lat="47.66595" lon="5.97536">
        <ele>230.78</ele>
        <time>2018-02-23T13:36:51Z</time>
      </trkpt>
      <trkpt lat="47.66592" lon="5.97528">
        <ele>230.5</ele>
        <time>2018-02-23T13:36:52Z</time>
      </trkpt>
      <trkpt lat="47.6659" lon="5.9752">
        <ele>230.25</ele>
        <time>2018-02-23T13:36:53Z</time>
      </trkpt>
      <trkpt lat="47.66588" lon="5.97512">
        <ele>230</ele>
        <time>2018-02-23T13:36:54Z</time>
      </trkpt>
      <trkpt lat="47.66586" lon="5.97504">
        <ele>229.77</ele>
        <time>2018-02-23T13:36:55Z</time>
      </trkpt>
      <trkpt lat="47.66584" lon="5.97495">
        <ele>229.54</ele>
        <time>2018-02-23T13:36:56Z</time>
      </trkpt>
      <trkpt lat="47.66582" lon="5.97486">
        <ele>229.3</ele>
        <time>2018-02-23T13:36:57Z</time>
      </trkpt>
      <trkpt lat="47.6658" lon="5.97478">
        <ele>229.06</ele>
        <time>2018-02-23T13:36:58Z</time>
      </trkpt>
      <trkpt lat="47.66578" lon="5.97468">
        <ele>228.81</ele>
        <time>2018-02-23T13:36:59Z</time>
      </trkpt>
      <trkpt lat="47.66576" lon="5.97459">
        <ele>228.54</ele>
        <time>2018-02-23T13:37:00Z</time>
      </trkpt>
      <trkpt lat="47.66574" lon="5.97449">
        <ele>228.26</ele>
        <time>2018-02-23T13:37:01Z</time>
      </trkpt>
      <trkpt lat="47.66571" lon="5.9744">
        <ele>227.96</ele>
        <time>2018-02-23T13:37:02Z</time>
      </trkpt>
      <trkpt lat="47.66569" lon="5.9743">
        <ele>227.64</ele>
        <time>2018-02-23T13:37:03Z</time>
      </trkpt>
      <trkpt lat="47.66566" lon="5.9742">
        <ele>227.29</ele>
        <time>2018-02-23T13:37:04Z</time>
      </trkpt>
      <trkpt lat="47.66564" lon="5.97409">
        <ele>226.93</ele>
        <time>2018-02-23T13:37:05Z</time>
      </trkpt>
      <trkpt lat="47.66561" lon="5.97398">
        <ele>226.56</ele>
        <time>2018-02-23T13:37:06Z</time>
      </trkpt>
      <trkpt lat="47.66558" lon="5.97387">
        <ele>226.16</ele>
        <time>2018-02-23T13:37:07Z</time>
      </trkpt>
      <trkpt lat="47.66556" lon="5.97376">
        <ele>225.79</ele>
        <time>2018-02-23T13:37:08Z</time>
      </trkpt>
      <trkpt lat="47.66552" lon="5.97365">
        <ele>225.5</ele>
        <time>2018-02-23T13:37:09Z</time>
      </trkpt>
      <trkpt lat="47.66549" lon="5.97354">
        <ele>225.2</ele>
        <time>2018-02-23T13:37:10Z</time>
      </trkpt>
      <trkpt lat="47.66546" lon="5.97343">
        <ele>224.94</ele>
        <time>2018-02-23T13:37:11Z</time>
      </trkpt>
      <trkpt lat="47.66542" lon="5.97333">
        <ele>224.66</ele>
        <time>2018-02-23T13:37:12Z</time>
      </trkpt>
      <trkpt lat="47.66539" lon="5.97322">
        <ele>224.37</ele>
        <time>2018-02-23T13:37:13Z</time>
      </trkpt>
      <trkpt lat="47.66536" lon="5.97311">
        <ele>224.07</ele>
        <time>2018-02-23T13:37:14Z</time>
      </trkpt>
      <trkpt lat="47.66534" lon="5.973">
        <ele>223.74</ele>
        <time>2018-02-23T13:37:15Z</time>
      </trkpt>
      <trkpt lat="47.66531" lon="5.9729">
        <ele>223.39</ele>
        <time>2018-02-23T13:37:16Z</time>
      </trkpt>
      <trkpt lat="47.66529" lon="5.97279">
        <ele>223.03</ele>
        <time>2018-02-23T13:37:17Z</time>
      </trkpt>
      <trkpt lat="47.66526" lon="5.97269">
        <ele>222.73</ele>
        <time>2018-02-23T13:37:18Z</time>
      </trkpt>
      <trkpt lat="47.66524" lon="5.9726">
        <ele>222.47</ele>
        <time>2018-02-23T13:37:19Z</time>
      </trkpt>
      <trkpt lat="47.66522" lon="5.97252">
        <ele>222.21</ele>
        <time>2018-02-23T13:37:20Z</time>
      </trkpt>
      <trkpt lat="47.6652" lon="5.97243">
        <ele>221.82</ele>
        <time>2018-02-23T13:37:22Z</time>
      </trkpt>
      <trkpt lat="47.66517" lon="5.97235">
        <ele>221.73</ele>
        <time>2018-02-23T13:37:24Z</time>
      </trkpt>
      <trkpt lat="47.66515" lon="5.97226">
        <ele>221.63</ele>
        <time>2018-02-23T13:37:26Z</time>
      </trkpt>
      <trkpt lat="47.66514" lon="5.97219">
        <ele>221.52</ele>
        <time>2018-02-23T13:37:28Z</time>
      </trkpt>
      <trkpt lat="47.66512" lon="5.97211">
        <ele>221.4</ele>
        <time>2018-02-23T13:37:30Z</time>
      </trkpt>
      <trkpt lat="47.66511" lon="5.97203">
        <ele>221.25</ele>
        <time>2018-02-23T13:37:32Z</time>
      </trkpt>
      <trkpt lat="47.66511" lon="5.97196">
        <ele>221.08</ele>
        <time>2018-02-23T13:37:34Z</time>
      </trkpt>
      <trkpt lat="47.66511" lon="5.97186">
        <ele>220.82</ele>
        <time>2018-02-23T13:37:37Z</time>
      </trkpt>
      <trkpt lat="47.66511" lon="5.97179">
        <ele>220.65</ele>
        <time>2018-02-23T13:37:39Z</time>
      </trkpt>
      <trkpt lat="47.66514" lon="5.97171">
        <ele>220.34</ele>
        <time>2018-02-23T13:37:43Z</time>
      </trkpt>
      <trkpt lat="47.66514" lon="5.97164">
        <ele>220.15</ele>
        <time>2018-02-23T13:37:45Z</time>
      </trkpt>
      <trkpt lat="47.66511" lon="5.97156">
        <ele>219.93</ele>
        <time>2018-02-23T13:37:47Z</time>
      </trkpt>
      <trkpt lat="47.66507" lon="5.97147">
        <ele>219.69</ele>
        <time>2018-02-23T13:37:49Z</time>
      </trkpt>
      <trkpt lat="47.66502" lon="5.97138">
        <ele>219.47</ele>
        <time>2018-02-23T13:37:51Z</time>
      </trkpt>
      <trkpt lat="47.66496" lon="5.97132">
        <ele>219.3</ele>
        <time>2018-02-23T13:37:53Z</time>
      </trkpt>
      <trkpt lat="47.66489" lon="5.97131">
        <ele>219.15</ele>
        <time>2018-02-23T13:37:55Z</time>
      </trkpt>
      <trkpt lat="47.66482" lon="5.97136">
        <ele>219</ele>
        <time>2018-02-23T13:37:57Z</time>
      </trkpt>
      <trkpt lat="47.66477" lon="5.97144">
        <ele>218.84</ele>
        <time>2018-02-23T13:37:59Z</time>
      </trkpt>
      <trkpt lat="47.66474" lon="5.9715">
        <ele>218.66</ele>
        <time>2018-02-23T13:38:01Z</time>
      </trkpt>
      <trkpt lat="47.66469" lon="5.97153">
        <ele>218.48</ele>
        <time>2018-02-23T13:38:03Z</time>
      </trkpt>
      <trkpt lat="47.66463" lon="5.97155">
        <ele>218.22</ele>
        <time>2018-02-23T13:38:06Z</time>
      </trkpt>
      <trkpt lat="47.66456" lon="5.97157">
        <ele>218.08</ele>
        <time>2018-02-23T13:38:08Z</time>
      </trkpt>
      <trkpt lat="47.66449" lon="5.97159">
        <ele>217.95</ele>
        <time>2018-02-23T13:38:10Z</time>
      </trkpt>
      <trkpt lat="47.66443" lon="5.97162">
        <ele>217.84</ele>
        <time>2018-02-23T13:38:12Z</time>
      </trkpt>
      <trkpt lat="47.66435" lon="5.97164">
        <ele>217.74</ele>
        <time>2018-02-23T13:38:14Z</time>
      </trkpt>
      <trkpt lat="47.66429" lon="5.97164">
        <ele>217.65</ele>
        <time>2018-02-23T13:38:16Z</time>
      </trkpt>
      <trkpt lat="47.66423" lon="5.97165">
        <ele>217.56</ele>
        <time>2018-02-23T13:38:18Z</time>
      </trkpt>
      <trkpt lat="47.66414" lon="5.97167">
        <ele>217.21</ele>
        <time>2018-02-23T13:38:20Z</time>
      </trkpt>
      <trkpt lat="47.66407" lon="5.9717">
        <ele>217.15</ele>
        <time>2018-02-23T13:38:22Z</time>
      </trkpt>
      <trkpt lat="47.664" lon="5.97172">
        <ele>217.14</ele>
        <time>2018-02-23T13:38:24Z</time>
      </trkpt>
      <trkpt lat="47.66393" lon="5.97174">
        <ele>217.14</ele>
        <time>2018-02-23T13:38:26Z</time>
      </trkpt>
      <trkpt lat="47.66387" lon="5.97175">
        <ele>217.15</ele>
        <time>2018-02-23T13:38:28Z</time>
      </trkpt>
      <trkpt lat="47.66379" lon="5.97177">
        <ele>217.17</ele>
        <time>2018-02-23T13:38:30Z</time>
      </trkpt>
      <trkpt lat="47.66372" lon="5.97178">
        <ele>217.2</ele>
        <time>2018-02-23T13:38:32Z</time>
      </trkpt>
      <trkpt lat="47.66365" lon="5.97182">
        <ele>217.24</ele>
        <time>2018-02-23T13:38:34Z</time>
      </trkpt>
      <trkpt lat="47.66358" lon="5.97183">
        <ele>217.28</ele>
        <time>2018-02-23T13:38:36Z</time>
      </trkpt>
      <trkpt lat="47.66351" lon="5.97185">
        <ele>217.32</ele>
        <time>2018-02-23T13:38:38Z</time>
      </trkpt>
      <trkpt lat="47.66344" lon="5.97186">
        <ele>217.36</ele>
        <time>2018-02-23T13:38:40Z</time>
      </trkpt>
      <trkpt lat="47.66338" lon="5.97187">
        <ele>217.39</ele>
        <time>2018-02-23T13:38:42Z</time>
      </trkpt>
      <trkpt lat="47.66332" lon="5.9719">
        <ele>217.43</ele>
        <time>2018-02-23T13:38:44Z</time>
      </trkpt>
      <trkpt lat="47.66325" lon="5.97189">
        <ele>217.47</ele>
        <time>2018-02-23T13:38:46Z</time>
      </trkpt>
      <trkpt lat="47.66318" lon="5.97191">
        <ele>217.52</ele>
        <time>2018-02-23T13:38:48Z</time>
      </trkpt>
      <trkpt lat="47.66311" lon="5.97192">
        <ele>217.57</ele>
        <time>2018-02-23T13:38:50Z</time>
      </trkpt>
      <trkpt lat="47.66302" lon="5.97193">
        <ele>217.62</ele>
        <time>2018-02-23T13:38:52Z</time>
      </trkpt>
      <trkpt lat="47.66294" lon="5.97194">
        <ele>217.66</ele>
        <time>2018-02-23T13:38:54Z</time>
      </trkpt>
      <trkpt lat="47.66286" lon="5.97197">
        <ele>217.7</ele>
        <time>2018-02-23T13:38:56Z</time>
      </trkpt>
      <trkpt lat="47.66278" lon="5.97198">
        <ele>217.72</ele>
        <time>2018-02-23T13:38:58Z</time>
      </trkpt>
      <trkpt lat="47.6627" lon="5.972">
        <ele>217.73</ele>
        <time>2018-02-23T13:39:00Z</time>
      </trkpt>
      <trkpt lat="47.66263" lon="5.97202">
        <ele>217.73</ele>
        <time>2018-02-23T13:39:02Z</time>
      </trkpt>
      <trkpt lat="47.66255" lon="5.97203">
        <ele>217.73</ele>
        <time>2018-02-23T13:39:04Z</time>
      </trkpt>
      <trkpt lat="47.66248" lon="5.97205">
        <ele>217.71</ele>
        <time>2018-02-23T13:39:06Z</time>
      </trkpt>
      <trkpt lat="47.66241" lon="5.97207">
        <ele>217.7</ele>
        <time>2018-02-23T13:39:08Z</time>
      </trkpt>
      <trkpt lat="47.66235" lon="5.9721">
        <ele>217.7</ele>
        <time>2018-02-23T13:39:10Z</time>
      </trkpt>
      <trkpt lat="47.66229" lon="5.97213">
        <ele>217.7</ele>
        <time>2018-02-23T13:39:12Z</time>
      </trkpt>
      <trkpt lat="47.66223" lon="5.97217">
        <ele>217.7</ele>
        <time>2018-02-23T13:39:14Z</time>
      </trkpt>
      <trkpt lat="47.66218" lon="5.9722">
        <ele>217.71</ele>
        <time>2018-02-23T13:39:16Z</time>
      </trkpt>
      <trkpt lat="47.66213" lon="5.97222">
        <ele>217.71</ele>
        <time>2018-02-23T13:39:18Z</time>
      </trkpt>
      <trkpt lat="47.66207" lon="5.97224">
        <ele>217.72</ele>
        <time>2018-02-23T13:39:20Z</time>
      </trkpt>
      <trkpt lat="47.66201" lon="5.97226">
        <ele>217.72</ele>
        <time>2018-02-23T13:39:22Z</time>
      </trkpt>
      <trkpt lat="47.66195" lon="5.97228">
        <ele>217.71</ele>
        <time>2018-02-23T13:39:24Z</time>
      </trkpt>
      <trkpt lat="47.66188" lon="5.97231">
        <ele>217.7</ele>
        <time>2018-02-23T13:39:26Z</time>
      </trkpt>
      <trkpt lat="47.66181" lon="5.97234">
        <ele>217.66</ele>
        <time>2018-02-23T13:39:28Z</time>
      </trkpt>
      <trkpt lat="47.66177" lon="5.97236">
        <ele>217.64</ele>
        <time>2018-02-23T13:39:29Z</time>
      </trkpt>
      <trkpt lat="47.6617" lon="5.97238">
        <ele>217.58</ele>
        <time>2018-02-23T13:39:31Z</time>
      </trkpt>
      <trkpt lat="47.66163" lon="5.97241">
        <ele>217.52</ele>
        <time>2018-02-23T13:39:33Z</time>
      </trkpt>
      <trkpt lat="47.66156" lon="5.97244">
        <ele>217.24</ele>
        <time>2018-02-23T13:39:35Z</time>
      </trkpt>
      <trkpt lat="47.66152" lon="5.97246">
        <ele>216.96</ele>
        <time>2018-02-23T13:39:36Z</time>
      </trkpt>
      <trkpt lat="47.66147" lon="5.97247">
        <ele>216.7</ele>
        <time>2018-02-23T13:39:37Z</time>
      </trkpt>
      <trkpt lat="47.66143" lon="5.97249">
        <ele>216.47</ele>
        <time>2018-02-23T13:39:38Z</time>
      </trkpt>
      <trkpt lat="47.66138" lon="5.97251">
        <ele>216.3</ele>
        <time>2018-02-23T13:39:39Z</time>
      </trkpt>
      <trkpt lat="47.66133" lon="5.97253">
        <ele>216.15</ele>
        <time>2018-02-23T13:39:40Z</time>
      </trkpt>
      <trkpt lat="47.66125" lon="5.97256">
        <ele>215.96</ele>
        <time>2018-02-23T13:39:42Z</time>
      </trkpt>
      <trkpt lat="47.66116" lon="5.9726">
        <ele>215.8</ele>
        <time>2018-02-23T13:39:44Z</time>
      </trkpt>
      <trkpt lat="47.66108" lon="5.97263">
        <ele>215.64</ele>
        <time>2018-02-23T13:39:46Z</time>
      </trkpt>
      <trkpt lat="47.661" lon="5.97267">
        <ele>215.47</ele>
        <time>2018-02-23T13:39:48Z</time>
      </trkpt>
      <trkpt lat="47.66092" lon="5.97271">
        <ele>215.27</ele>
        <time>2018-02-23T13:39:50Z</time>
      </trkpt>
      <trkpt lat="47.66084" lon="5.97275">
        <ele>214.93</ele>
        <time>2018-02-23T13:39:52Z</time>
      </trkpt>
      <trkpt lat="47.66076" lon="5.97278">
        <ele>214.83</ele>
        <time>2018-02-23T13:39:54Z</time>
      </trkpt>
      <trkpt lat="47.66069" lon="5.97282">
        <ele>214.78</ele>
        <time>2018-02-23T13:39:56Z</time>
      </trkpt>
      <trkpt lat="47.66061" lon="5.97285">
        <ele>214.74</ele>
        <time>2018-02-23T13:39:58Z</time>
      </trkpt>
      <trkpt lat="47.66054" lon="5.97288">
        <ele>214.69</ele>
        <time>2018-02-23T13:40:00Z</time>
      </trkpt>
      <trkpt lat="47.66047" lon="5.97291">
        <ele>214.64</ele>
        <time>2018-02-23T13:40:02Z</time>
      </trkpt>
      <trkpt lat="47.66039" lon="5.97293">
        <ele>214.41</ele>
        <time>2018-02-23T13:40:04Z</time>
      </trkpt>
      <trkpt lat="47.66031" lon="5.97294">
        <ele>213.98</ele>
        <time>2018-02-23T13:40:06Z</time>
      </trkpt>
      <trkpt lat="47.66023" lon="5.97295">
        <ele>213.76</ele>
        <time>2018-02-23T13:40:08Z</time>
      </trkpt>
      <trkpt lat="47.66016" lon="5.97298">
        <ele>213.57</ele>
        <time>2018-02-23T13:40:10Z</time>
      </trkpt>
      <trkpt lat="47.66009" lon="5.97301">
        <ele>213.53</ele>
        <time>2018-02-23T13:40:12Z</time>
      </trkpt>
      <trkpt lat="47.66004" lon="5.97303">
        <ele>213.51</ele>
        <time>2018-02-23T13:40:14Z</time>
      </trkpt>
      <trkpt lat="47.65999" lon="5.97304">
        <ele>213.49</ele>
        <time>2018-02-23T13:40:16Z</time>
      </trkpt>
      <trkpt lat="47.65992" lon="5.97307">
        <ele>213.45</ele>
        <time>2018-02-23T13:40:19Z</time>
      </trkpt>
      <trkpt lat="47.65986" lon="5.9731">
        <ele>213.42</ele>
        <time>2018-02-23T13:40:21Z</time>
      </trkpt>
      <trkpt lat="47.65979" lon="5.97313">
        <ele>213.39</ele>
        <time>2018-02-23T13:40:23Z</time>
      </trkpt>
      <trkpt lat="47.65973" lon="5.97315">
        <ele>213.36</ele>
        <time>2018-02-23T13:40:25Z</time>
      </trkpt>
      <trkpt lat="47.65966" lon="5.97317">
        <ele>213.31</ele>
        <time>2018-02-23T13:40:27Z</time>
      </trkpt>
      <trkpt lat="47.65959" lon="5.97321">
        <ele>213.27</ele>
        <time>2018-02-23T13:40:29Z</time>
      </trkpt>
      <trkpt lat="47.65953" lon="5.97322">
        <ele>213.23</ele>
        <time>2018-02-23T13:40:31Z</time>
      </trkpt>
      <trkpt lat="47.65945" lon="5.97326">
        <ele>213.18</ele>
        <time>2018-02-23T13:40:33Z</time>
      </trkpt>
      <trkpt lat="47.65938" lon="5.97329">
        <ele>213.13</ele>
        <time>2018-02-23T13:40:35Z</time>
      </trkpt>
      <trkpt lat="47.65931" lon="5.97332">
        <ele>213.08</ele>
        <time>2018-02-23T13:40:37Z</time>
      </trkpt>
      <trkpt lat="47.65926" lon="5.97334">
        <ele>213.06</ele>
        <time>2018-02-23T13:40:38Z</time>
      </trkpt>
      <trkpt lat="47.65921" lon="5.97336">
        <ele>213.04</ele>
        <time>2018-02-23T13:40:39Z</time>
      </trkpt>
      <trkpt lat="47.65914" lon="5.97339">
        <ele>212.99</ele>
        <time>2018-02-23T13:40:41Z</time>
      </trkpt>
      <trkpt lat="47.65907" lon="5.97341">
        <ele>212.95</ele>
        <time>2018-02-23T13:40:43Z</time>
      </trkpt>
      <trkpt lat="47.659" lon="5.97343">
        <ele>212.92</ele>
        <time>2018-02-23T13:40:45Z</time>
      </trkpt>
      <trkpt lat="47.65893" lon="5.97346">
        <ele>212.88</ele>
        <time>2018-02-23T13:40:47Z</time>
      </trkpt>
      <trkpt lat="47.65886" lon="5.97349">
        <ele>212.85</ele>
        <time>2018-02-23T13:40:49Z</time>
      </trkpt>
      <trkpt lat="47.6588" lon="5.97351">
        <ele>212.81</ele>
        <time>2018-02-23T13:40:51Z</time>
      </trkpt>
      <trkpt lat="47.65873" lon="5.97354">
        <ele>212.78</ele>
        <time>2018-02-23T13:40:53Z</time>
      </trkpt>
      <trkpt lat="47.65867" lon="5.97356">
        <ele>212.75</ele>
        <time>2018-02-23T13:40:55Z</time>
      </trkpt>
      <trkpt lat="47.65861" lon="5.97359">
        <ele>212.72</ele>
        <time>2018-02-23T13:40:57Z</time>
      </trkpt>
      <trkpt lat="47.65854" lon="5.97362">
        <ele>212.69</ele>
        <time>2018-02-23T13:40:59Z</time>
      </trkpt>
      <trkpt lat="47.65847" lon="5.97366">
        <ele>212.67</ele>
        <time>2018-02-23T13:41:01Z</time>
      </trkpt>
      <trkpt lat="47.65841" lon="5.97369">
        <ele>212.64</ele>
        <time>2018-02-23T13:41:03Z</time>
      </trkpt>
      <trkpt lat="47.65834" lon="5.97371">
        <ele>212.62</ele>
        <time>2018-02-23T13:41:05Z</time>
      </trkpt>
      <trkpt lat="47.65827" lon="5.97374">
        <ele>212.59</ele>
        <time>2018-02-23T13:41:07Z</time>
      </trkpt>
      <trkpt lat="47.6582" lon="5.97376">
        <ele>212.57</ele>
        <time>2018-02-23T13:41:09Z</time>
      </trkpt>
      <trkpt lat="47.65815" lon="5.97378">
        <ele>212.55</ele>
        <time>2018-02-23T13:41:11Z</time>
      </trkpt>
      <trkpt lat="47.65808" lon="5.97381">
        <ele>212.52</ele>
        <time>2018-02-23T13:41:13Z</time>
      </trkpt>
      <trkpt lat="47.65802" lon="5.97383">
        <ele>212.49</ele>
        <time>2018-02-23T13:41:15Z</time>
      </trkpt>
      <trkpt lat="47.65795" lon="5.97385">
        <ele>212.47</ele>
        <time>2018-02-23T13:41:17Z</time>
      </trkpt>
      <trkpt lat="47.65789" lon="5.97386">
        <ele>212.44</ele>
        <time>2018-02-23T13:41:19Z</time>
      </trkpt>
      <trkpt lat="47.65783" lon="5.97389">
        <ele>212.41</ele>
        <time>2018-02-23T13:41:21Z</time>
      </trkpt>
      <trkpt lat="47.65777" lon="5.97392">
        <ele>212.39</ele>
        <time>2018-02-23T13:41:23Z</time>
      </trkpt>
      <trkpt lat="47.6577" lon="5.97394">
        <ele>212.36</ele>
        <time>2018-02-23T13:41:25Z</time>
      </trkpt>
      <trkpt lat="47.65763" lon="5.97397">
        <ele>212.33</ele>
        <time>2018-02-23T13:41:27Z</time>
      </trkpt>
      <trkpt lat="47.65757" lon="5.974">
        <ele>212.3</ele>
        <time>2018-02-23T13:41:29Z</time>
      </trkpt>
      <trkpt lat="47.65752" lon="5.97402">
        <ele>212.26</ele>
        <time>2018-02-23T13:41:31Z</time>
      </trkpt>
      <trkpt lat="47.65747" lon="5.97405">
        <ele>212.23</ele>
        <time>2018-02-23T13:41:33Z</time>
      </trkpt>
      <trkpt lat="47.65741" lon="5.97408">
        <ele>212.2</ele>
        <time>2018-02-23T13:41:35Z</time>
      </trkpt>
      <trkpt lat="47.65734" lon="5.97411">
        <ele>212.17</ele>
        <time>2018-02-23T13:41:37Z</time>
      </trkpt>
      <trkpt lat="47.65727" lon="5.97414">
        <ele>212.14</ele>
        <time>2018-02-23T13:41:39Z</time>
      </trkpt>
      <trkpt lat="47.6572" lon="5.97417">
        <ele>212.11</ele>
        <time>2018-02-23T13:41:41Z</time>
      </trkpt>
      <trkpt lat="47.65713" lon="5.97421">
        <ele>212.07</ele>
        <time>2018-02-23T13:41:43Z</time>
      </trkpt>
      <trkpt lat="47.65706" lon="5.97424">
        <ele>212.04</ele>
        <time>2018-02-23T13:41:45Z</time>
      </trkpt>
      <trkpt lat="47.65699" lon="5.97426">
        <ele>212.01</ele>
        <time>2018-02-23T13:41:47Z</time>
      </trkpt>
      <trkpt lat="47.65694" lon="5.97428">
        <ele>211.98</ele>
        <time>2018-02-23T13:41:49Z</time>
      </trkpt>
      <trkpt lat="47.65688" lon="5.97431">
        <ele>211.95</ele>
        <time>2018-02-23T13:41:51Z</time>
      </trkpt>
      <trkpt lat="47.65681" lon="5.97432">
        <ele>211.92</ele>
        <time>2018-02-23T13:41:53Z</time>
      </trkpt>
      <trkpt lat="47.65674" lon="5.97435">
        <ele>211.89</ele>
        <time>2018-02-23T13:41:55Z</time>
      </trkpt>
      <trkpt lat="47.65667" lon="5.97437">
        <ele>211.86</ele>
        <time>2018-02-23T13:41:57Z</time>
      </trkpt>
      <trkpt lat="47.6566" lon="5.97439">
        <ele>211.84</ele>
        <time>2018-02-23T13:41:59Z</time>
      </trkpt>
      <trkpt lat="47.65653" lon="5.97442">
        <ele>211.82</ele>
        <time>2018-02-23T13:42:01Z</time>
      </trkpt>
      <trkpt lat="47.65645" lon="5.97445">
        <ele>211.8</ele>
        <time>2018-02-23T13:42:03Z</time>
      </trkpt>
      <trkpt lat="47.65639" lon="5.97447">
        <ele>211.79</ele>
        <time>2018-02-23T13:42:04Z</time>
      </trkpt>
      <trkpt lat="47.65635" lon="5.97449">
        <ele>211.78</ele>
        <time>2018-02-23T13:42:05Z</time>
      </trkpt>
      <trkpt lat="47.6563" lon="5.9745">
        <ele>211.71</ele>
        <time>2018-02-23T13:42:06Z</time>
      </trkpt>
      <trkpt lat="47.65623" lon="5.97456">
        <ele>211.69</ele>
        <time>2018-02-23T13:42:07Z</time>
      </trkpt>
      <trkpt lat="47.65614" lon="5.9746">
        <ele>211.67</ele>
        <time>2018-02-23T13:42:09Z</time>
      </trkpt>
      <trkpt lat="47.65606" lon="5.97462">
        <ele>211.66</ele>
        <time>2018-02-23T13:42:11Z</time>
      </trkpt>
      <trkpt lat="47.65599" lon="5.97464">
        <ele>211.66</ele>
        <time>2018-02-23T13:42:13Z</time>
      </trkpt>
      <trkpt lat="47.65591" lon="5.97467">
        <ele>211.66</ele>
        <time>2018-02-23T13:42:15Z</time>
      </trkpt>
      <trkpt lat="47.65585" lon="5.9747">
        <ele>211.66</ele>
        <time>2018-02-23T13:42:16Z</time>
      </trkpt>
      <trkpt lat="47.65579" lon="5.97475">
        <ele>211.66</ele>
        <time>2018-02-23T13:42:18Z</time>
      </trkpt>
      <trkpt lat="47.65572" lon="5.97478">
        <ele>211.66</ele>
        <time>2018-02-23T13:42:20Z</time>
      </trkpt>
      <trkpt lat="47.65564" lon="5.97482">
        <ele>211.66</ele>
        <time>2018-02-23T13:42:22Z</time>
      </trkpt>
      <trkpt lat="47.65558" lon="5.97484">
        <ele>211.66</ele>
        <time>2018-02-23T13:42:23Z</time>
      </trkpt>
      <trkpt lat="47.65553" lon="5.97486">
        <ele>211.66</ele>
        <time>2018-02-23T13:42:24Z</time>
      </trkpt>
      <trkpt lat="47.65545" lon="5.97489">
        <ele>211.66</ele>
        <time>2018-02-23T13:42:26Z</time>
      </trkpt>
      <trkpt lat="47.65538" lon="5.97491">
        <ele>211.67</ele>
        <time>2018-02-23T13:42:28Z</time>
      </trkpt>
      <trkpt lat="47.65532" lon="5.97493">
        <ele>211.67</ele>
        <time>2018-02-23T13:42:30Z</time>
      </trkpt>
      <trkpt lat="47.65527" lon="5.97495">
        <ele>211.67</ele>
        <time>2018-02-23T13:42:32Z</time>
      </trkpt>
      <trkpt lat="47.65521" lon="5.97498">
        <ele>211.68</ele>
        <time>2018-02-23T13:42:34Z</time>
      </trkpt>
      <trkpt lat="47.65513" lon="5.97502">
        <ele>211.69</ele>
        <time>2018-02-23T13:42:36Z</time>
      </trkpt>
      <trkpt lat="47.65506" lon="5.97505">
        <ele>211.69</ele>
        <time>2018-02-23T13:42:38Z</time>
      </trkpt>
      <trkpt lat="47.65498" lon="5.97508">
        <ele>211.7</ele>
        <time>2018-02-23T13:42:40Z</time>
      </trkpt>
      <trkpt lat="47.65492" lon="5.9751">
        <ele>211.71</ele>
        <time>2018-02-23T13:42:42Z</time>
      </trkpt>
      <trkpt lat="47.65485" lon="5.97513">
        <ele>211.72</ele>
        <time>2018-02-23T13:42:44Z</time>
      </trkpt>
      <trkpt lat="47.65478" lon="5.97516">
        <ele>211.73</ele>
        <time>2018-02-23T13:42:46Z</time>
      </trkpt>
      <trkpt lat="47.65471" lon="5.97517">
        <ele>211.73</ele>
        <time>2018-02-23T13:42:48Z</time>
      </trkpt>
      <trkpt lat="47.65466" lon="5.97519">
        <ele>211.74</ele>
        <time>2018-02-23T13:42:50Z</time>
      </trkpt>
      <trkpt lat="47.65459" lon="5.97521">
        <ele>211.74</ele>
        <time>2018-02-23T13:42:52Z</time>
      </trkpt>
      <trkpt lat="47.65452" lon="5.97524">
        <ele>211.75</ele>
        <time>2018-02-23T13:42:54Z</time>
      </trkpt>
      <trkpt lat="47.65445" lon="5.97526">
        <ele>211.75</ele>
        <time>2018-02-23T13:42:56Z</time>
      </trkpt>
      <trkpt lat="47.65438" lon="5.97529">
        <ele>211.76</ele>
        <time>2018-02-23T13:42:58Z</time>
      </trkpt>
      <trkpt lat="47.65434" lon="5.97531">
        <ele>211.76</ele>
        <time>2018-02-23T13:42:59Z</time>
      </trkpt>
      <trkpt lat="47.65426" lon="5.97535">
        <ele>211.77</ele>
        <time>2018-02-23T13:43:01Z</time>
      </trkpt>
      <trkpt lat="47.65421" lon="5.97538">
        <ele>211.77</ele>
        <time>2018-02-23T13:43:03Z</time>
      </trkpt>
      <trkpt lat="47.65415" lon="5.9754">
        <ele>211.8</ele>
        <time>2018-02-23T13:43:05Z</time>
      </trkpt>
      <trkpt lat="47.65406" lon="5.97542">
        <ele>211.82</ele>
        <time>2018-02-23T13:43:07Z</time>
      </trkpt>
      <trkpt lat="47.65398" lon="5.97546">
        <ele>211.82</ele>
        <time>2018-02-23T13:43:09Z</time>
      </trkpt>
      <trkpt lat="47.65391" lon="5.97548">
        <ele>211.83</ele>
        <time>2018-02-23T13:43:11Z</time>
      </trkpt>
      <trkpt lat="47.65385" lon="5.97551">
        <ele>211.83</ele>
        <time>2018-02-23T13:43:13Z</time>
      </trkpt>
      <trkpt lat="47.65379" lon="5.97556">
        <ele>211.84</ele>
        <time>2018-02-23T13:43:15Z</time>
      </trkpt>
      <trkpt lat="47.65372" lon="5.9756">
        <ele>211.84</ele>
        <time>2018-02-23T13:43:17Z</time>
      </trkpt>
      <trkpt lat="47.65365" lon="5.97564">
        <ele>211.84</ele>
        <time>2018-02-23T13:43:19Z</time>
      </trkpt>
      <trkpt lat="47.65358" lon="5.97567">
        <ele>211.84</ele>
        <time>2018-02-23T13:43:21Z</time>
      </trkpt>
      <trkpt lat="47.6535" lon="5.9757">
        <ele>211.84</ele>
        <time>2018-02-23T13:43:23Z</time>
      </trkpt>
      <trkpt lat="47.65343" lon="5.97572">
        <ele>211.84</ele>
        <time>2018-02-23T13:43:25Z</time>
      </trkpt>
      <trkpt lat="47.65335" lon="5.97575">
        <ele>211.84</ele>
        <time>2018-02-23T13:43:27Z</time>
      </trkpt>
      <trkpt lat="47.65328" lon="5.97579">
        <ele>211.84</ele>
        <time>2018-02-23T13:43:29Z</time>
      </trkpt>
      <trkpt lat="47.6532" lon="5.97582">
        <ele>211.83</ele>
        <time>2018-02-23T13:43:31Z</time>
      </trkpt>
      <trkpt lat="47.65316" lon="5.97584">
        <ele>211.83</ele>
        <time>2018-02-23T13:43:32Z</time>
      </trkpt>
      <trkpt lat="47.65308" lon="5.97586">
        <ele>211.81</ele>
        <time>2018-02-23T13:43:34Z</time>
      </trkpt>
      <trkpt lat="47.653" lon="5.97589">
        <ele>211.81</ele>
        <time>2018-02-23T13:43:36Z</time>
      </trkpt>
      <trkpt lat="47.65293" lon="5.97591">
        <ele>211.81</ele>
        <time>2018-02-23T13:43:38Z</time>
      </trkpt>
      <trkpt lat="47.65286" lon="5.97593">
        <ele>211.81</ele>
        <time>2018-02-23T13:43:40Z</time>
      </trkpt>
      <trkpt lat="47.6528" lon="5.97596">
        <ele>211.8</ele>
        <time>2018-02-23T13:43:42Z</time>
      </trkpt>
      <trkpt lat="47.65275" lon="5.97598">
        <ele>211.8</ele>
        <time>2018-02-23T13:43:44Z</time>
      </trkpt>
      <trkpt lat="47.65269" lon="5.97601">
        <ele>211.79</ele>
        <time>2018-02-23T13:43:46Z</time>
      </trkpt>
      <trkpt lat="47.65263" lon="5.97603">
        <ele>211.79</ele>
        <time>2018-02-23T13:43:48Z</time>
      </trkpt>
      <trkpt lat="47.65257" lon="5.97604">
        <ele>211.78</ele>
        <time>2018-02-23T13:43:50Z</time>
      </trkpt>
      <trkpt lat="47.65251" lon="5.97607">
        <ele>211.78</ele>
        <time>2018-02-23T13:43:52Z</time>
      </trkpt>
      <trkpt lat="47.65245" lon="5.9761">
        <ele>211.78</ele>
        <time>2018-02-23T13:43:54Z</time>
      </trkpt>
      <trkpt lat="47.65239" lon="5.97612">
        <ele>211.78</ele>
        <time>2018-02-23T13:43:56Z</time>
      </trkpt>
      <trkpt lat="47.65232" lon="5.97614">
        <ele>211.77</ele>
        <time>2018-02-23T13:43:58Z</time>
      </trkpt>
      <trkpt lat="47.65226" lon="5.97616">
        <ele>211.77</ele>
        <time>2018-02-23T13:44:00Z</time>
      </trkpt>
      <trkpt lat="47.65221" lon="5.97618">
        <ele>211.78</ele>
        <time>2018-02-23T13:44:02Z</time>
      </trkpt>
      <trkpt lat="47.65214" lon="5.97621">
        <ele>211.78</ele>
        <time>2018-02-23T13:44:04Z</time>
      </trkpt>
      <trkpt lat="47.65208" lon="5.97624">
        <ele>211.78</ele>
        <time>2018-02-23T13:44:06Z</time>
      </trkpt>
      <trkpt lat="47.65202" lon="5.97627">
        <ele>211.78</ele>
        <time>2018-02-23T13:44:08Z</time>
      </trkpt>
      <trkpt lat="47.65195" lon="5.9763">
        <ele>211.79</ele>
        <time>2018-02-23T13:44:10Z</time>
      </trkpt>
      <trkpt lat="47.65188" lon="5.97634">
        <ele>211.79</ele>
        <time>2018-02-23T13:44:12Z</time>
      </trkpt>
      <trkpt lat="47.65183" lon="5.97637">
        <ele>211.79</ele>
        <time>2018-02-23T13:44:14Z</time>
      </trkpt>
      <trkpt lat="47.65177" lon="5.97639">
        <ele>211.8</ele>
        <time>2018-02-23T13:44:16Z</time>
      </trkpt>
      <trkpt lat="47.65172" lon="5.97642">
        <ele>211.8</ele>
        <time>2018-02-23T13:44:18Z</time>
      </trkpt>
      <trkpt lat="47.65167" lon="5.97645">
        <ele>211.81</ele>
        <time>2018-02-23T13:44:20Z</time>
      </trkpt>
      <trkpt lat="47.65161" lon="5.97646">
        <ele>211.81</ele>
        <time>2018-02-23T13:44:22Z</time>
      </trkpt>
      <trkpt lat="47.65157" lon="5.97648">
        <ele>211.81</ele>
        <time>2018-02-23T13:44:24Z</time>
      </trkpt>
      <trkpt lat="47.65152" lon="5.97649">
        <ele>211.82</ele>
        <time>2018-02-23T13:44:26Z</time>
      </trkpt>
      <trkpt lat="47.65147" lon="5.97651">
        <ele>211.82</ele>
        <time>2018-02-23T13:44:28Z</time>
      </trkpt>
      <trkpt lat="47.65141" lon="5.97651">
        <ele>211.83</ele>
        <time>2018-02-23T13:44:30Z</time>
      </trkpt>
      <trkpt lat="47.65134" lon="5.97649">
        <ele>211.83</ele>
        <time>2018-02-23T13:44:32Z</time>
      </trkpt>
      <trkpt lat="47.65127" lon="5.97647">
        <ele>211.84</ele>
        <time>2018-02-23T13:44:34Z</time>
      </trkpt>
      <trkpt lat="47.65122" lon="5.97644">
        <ele>211.85</ele>
        <time>2018-02-23T13:44:36Z</time>
      </trkpt>
      <trkpt lat="47.65116" lon="5.9764">
        <ele>211.85</ele>
        <time>2018-02-23T13:44:38Z</time>
      </trkpt>
      <trkpt lat="47.65111" lon="5.97636">
        <ele>211.86</ele>
        <time>2018-02-23T13:44:40Z</time>
      </trkpt>
      <trkpt lat="47.65106" lon="5.9763">
        <ele>211.87</ele>
        <time>2018-02-23T13:44:42Z</time>
      </trkpt>
      <trkpt lat="47.651" lon="5.97624">
        <ele>211.88</ele>
        <time>2018-02-23T13:44:44Z</time>
      </trkpt>
      <trkpt lat="47.65095" lon="5.97619">
        <ele>211.89</ele>
        <time>2018-02-23T13:44:46Z</time>
      </trkpt>
      <trkpt lat="47.6509" lon="5.97612">
        <ele>211.9</ele>
        <time>2018-02-23T13:44:48Z</time>
      </trkpt>
      <trkpt lat="47.65086" lon="5.97606">
        <ele>211.91</ele>
        <time>2018-02-23T13:44:50Z</time>
      </trkpt>
      <trkpt lat="47.65082" lon="5.976">
        <ele>211.92</ele>
        <time>2018-02-23T13:44:52Z</time>
      </trkpt>
      <trkpt lat="47.65078" lon="5.97594">
        <ele>211.93</ele>
        <time>2018-02-23T13:44:54Z</time>
      </trkpt>
      <trkpt lat="47.65073" lon="5.97586">
        <ele>211.94</ele>
        <time>2018-02-23T13:44:56Z</time>
      </trkpt>
      <trkpt lat="47.65068" lon="5.9758">
        <ele>211.96</ele>
        <time>2018-02-23T13:44:58Z</time>
      </trkpt>
      <trkpt lat="47.65064" lon="5.97574">
        <ele>211.97</ele>
        <time>2018-02-23T13:45:00Z</time>
      </trkpt>
      <trkpt lat="47.65059" lon="5.97568">
        <ele>211.98</ele>
        <time>2018-02-23T13:45:02Z</time>
      </trkpt>
      <trkpt lat="47.65055" lon="5.97562">
        <ele>211.99</ele>
        <time>2018-02-23T13:45:04Z</time>
      </trkpt>
      <trkpt lat="47.65049" lon="5.97556">
        <ele>212.01</ele>
        <time>2018-02-23T13:45:06Z</time>
      </trkpt>
      <trkpt lat="47.65046" lon="5.97551">
        <ele>212.03</ele>
        <time>2018-02-23T13:45:08Z</time>
      </trkpt>
      <trkpt lat="47.6504" lon="5.97544">
        <ele>212.04</ele>
        <time>2018-02-23T13:45:10Z</time>
      </trkpt>
      <trkpt lat="47.65034" lon="5.9754">
        <ele>212.06</ele>
        <time>2018-02-23T13:45:12Z</time>
      </trkpt>
      <trkpt lat="47.65028" lon="5.97534">
        <ele>212.08</ele>
        <time>2018-02-23T13:45:14Z</time>
      </trkpt>
      <trkpt lat="47.65021" lon="5.97529">
        <ele>212.1</ele>
        <time>2018-02-23T13:45:16Z</time>
      </trkpt>
      <trkpt lat="47.65016" lon="5.97526">
        <ele>212.12</ele>
        <time>2018-02-23T13:45:18Z</time>
      </trkpt>
      <trkpt lat="47.6501" lon="5.97523">
        <ele>212.14</ele>
        <time>2018-02-23T13:45:20Z</time>
      </trkpt>
      <trkpt lat="47.65003" lon="5.9752">
        <ele>212.16</ele>
        <time>2018-02-23T13:45:22Z</time>
      </trkpt>
      <trkpt lat="47.64996" lon="5.97518">
        <ele>212.19</ele>
        <time>2018-02-23T13:45:24Z</time>
      </trkpt>
      <trkpt lat="47.64989" lon="5.97515">
        <ele>212.21</ele>
        <time>2018-02-23T13:45:26Z</time>
      </trkpt>
      <trkpt lat="47.64981" lon="5.97514">
        <ele>212.24</ele>
        <time>2018-02-23T13:45:28Z</time>
      </trkpt>
      <trkpt lat="47.64974" lon="5.97513">
        <ele>212.27</ele>
        <time>2018-02-23T13:45:30Z</time>
      </trkpt>
      <trkpt lat="47.64967" lon="5.97513">
        <ele>212.3</ele>
        <time>2018-02-23T13:45:32Z</time>
      </trkpt>
      <trkpt lat="47.64962" lon="5.97515">
        <ele>212.34</ele>
        <time>2018-02-23T13:45:34Z</time>
      </trkpt>
      <trkpt lat="47.64955" lon="5.97516">
        <ele>212.37</ele>
        <time>2018-02-23T13:45:36Z</time>
      </trkpt>
      <trkpt lat="47.64947" lon="5.97518">
        <ele>212.41</ele>
        <time>2018-02-23T13:45:38Z</time>
      </trkpt>
      <trkpt lat="47.6494" lon="5.97519">
        <ele>212.45</ele>
        <time>2018-02-23T13:45:40Z</time>
      </trkpt>
      <trkpt lat="47.64934" lon="5.9752">
        <ele>212.49</ele>
        <time>2018-02-23T13:45:42Z</time>
      </trkpt>
      <trkpt lat="47.64927" lon="5.97523">
        <ele>212.53</ele>
        <time>2018-02-23T13:45:44Z</time>
      </trkpt>
      <trkpt lat="47.64919" lon="5.97525">
        <ele>212.58</ele>
        <time>2018-02-23T13:45:46Z</time>
      </trkpt>
      <trkpt lat="47.64912" lon="5.97526">
        <ele>212.63</ele>
        <time>2018-02-23T13:45:48Z</time>
      </trkpt>
      <trkpt lat="47.64905" lon="5.97527">
        <ele>212.68</ele>
        <time>2018-02-23T13:45:50Z</time>
      </trkpt>
      <trkpt lat="47.64896" lon="5.97529">
        <ele>212.73</ele>
        <time>2018-02-23T13:45:52Z</time>
      </trkpt>
      <trkpt lat="47.64892" lon="5.9753">
        <ele>212.76</ele>
        <time>2018-02-23T13:45:53Z</time>
      </trkpt>
      <trkpt lat="47.64884" lon="5.97532">
        <ele>212.81</ele>
        <time>2018-02-23T13:45:55Z</time>
      </trkpt>
      <trkpt lat="47.64876" lon="5.97534">
        <ele>212.87</ele>
        <time>2018-02-23T13:45:57Z</time>
      </trkpt>
      <trkpt lat="47.64869" lon="5.97536">
        <ele>212.93</ele>
        <time>2018-02-23T13:45:59Z</time>
      </trkpt>
      <trkpt lat="47.64861" lon="5.97539">
        <ele>212.99</ele>
        <time>2018-02-23T13:46:01Z</time>
      </trkpt>
      <trkpt lat="47.64854" lon="5.97542">
        <ele>213.04</ele>
        <time>2018-02-23T13:46:03Z</time>
      </trkpt>
      <trkpt lat="47.64846" lon="5.97542">
        <ele>213.1</ele>
        <time>2018-02-23T13:46:05Z</time>
      </trkpt>
      <trkpt lat="47.64838" lon="5.9754">
        <ele>213.16</ele>
        <time>2018-02-23T13:46:07Z</time>
      </trkpt>
      <trkpt lat="47.6483" lon="5.9754">
        <ele>213.23</ele>
        <time>2018-02-23T13:46:09Z</time>
      </trkpt>
      <trkpt lat="47.64823" lon="5.97541">
        <ele>213.29</ele>
        <time>2018-02-23T13:46:11Z</time>
      </trkpt>
      <trkpt lat="47.64816" lon="5.97541">
        <ele>213.36</ele>
        <time>2018-02-23T13:46:13Z</time>
      </trkpt>
      <trkpt lat="47.64809" lon="5.97542">
        <ele>213.43</ele>
        <time>2018-02-23T13:46:15Z</time>
      </trkpt>
      <trkpt lat="47.64801" lon="5.97544">
        <ele>213.51</ele>
        <time>2018-02-23T13:46:17Z</time>
      </trkpt>
      <trkpt lat="47.64796" lon="5.97545">
        <ele>213.54</ele>
        <time>2018-02-23T13:46:18Z</time>
      </trkpt>
      <trkpt lat="47.64788" lon="5.97549">
        <ele>213.84</ele>
        <time>2018-02-23T13:46:20Z</time>
      </trkpt>
      <trkpt lat="47.6478" lon="5.9755">
        <ele>213.99</ele>
        <time>2018-02-23T13:46:22Z</time>
      </trkpt>
      <trkpt lat="47.64773" lon="5.97552">
        <ele>214.06</ele>
        <time>2018-02-23T13:46:24Z</time>
      </trkpt>
      <trkpt lat="47.64766" lon="5.97555">
        <ele>214.11</ele>
        <time>2018-02-23T13:46:26Z</time>
      </trkpt>
      <trkpt lat="47.64761" lon="5.97556">
        <ele>214.14</ele>
        <time>2018-02-23T13:46:27Z</time>
      </trkpt>
      <trkpt lat="47.64756" lon="5.97557">
        <ele>214.17</ele>
        <time>2018-02-23T13:46:28Z</time>
      </trkpt>
      <trkpt lat="47.64747" lon="5.97558">
        <ele>214.23</ele>
        <time>2018-02-23T13:46:30Z</time>
      </trkpt>
      <trkpt lat="47.6474" lon="5.97561">
        <ele>214.29</ele>
        <time>2018-02-23T13:46:32Z</time>
      </trkpt>
      <trkpt lat="47.64732" lon="5.97562">
        <ele>214.35</ele>
        <time>2018-02-23T13:46:34Z</time>
      </trkpt>
      <trkpt lat="47.64724" lon="5.97564">
        <ele>214.41</ele>
        <time>2018-02-23T13:46:36Z</time>
      </trkpt>
      <trkpt lat="47.64717" lon="5.97566">
        <ele>214.47</ele>
        <time>2018-02-23T13:46:38Z</time>
      </trkpt>
      <trkpt lat="47.6471" lon="5.97568">
        <ele>214.53</ele>
        <time>2018-02-23T13:46:40Z</time>
      </trkpt>
      <trkpt lat="47.64703" lon="5.97572">
        <ele>214.79</ele>
        <time>2018-02-23T13:46:42Z</time>
      </trkpt>
      <trkpt lat="47.64695" lon="5.97576">
        <ele>215.25</ele>
        <time>2018-02-23T13:46:44Z</time>
      </trkpt>
      <trkpt lat="47.64687" lon="5.97581">
        <ele>215.59</ele>
        <time>2018-02-23T13:46:46Z</time>
      </trkpt>
      <trkpt lat="47.6468" lon="5.97587">
        <ele>215.74</ele>
        <time>2018-02-23T13:46:48Z</time>
      </trkpt>
      <trkpt lat="47.64673" lon="5.97593">
        <ele>215.87</ele>
        <time>2018-02-23T13:46:50Z</time>
      </trkpt>
      <trkpt lat="47.64666" lon="5.97598">
        <ele>215.92</ele>
        <time>2018-02-23T13:46:52Z</time>
      </trkpt>
      <trkpt lat="47.6466" lon="5.97604">
        <ele>215.94</ele>
        <time>2018-02-23T13:46:54Z</time>
      </trkpt>
      <trkpt lat="47.64654" lon="5.97611">
        <ele>215.96</ele>
        <time>2018-02-23T13:46:56Z</time>
      </trkpt>
      <trkpt lat="47.64649" lon="5.97617">
        <ele>215.98</ele>
        <time>2018-02-23T13:46:58Z</time>
      </trkpt>
      <trkpt lat="47.64643" lon="5.97624">
        <ele>216</ele>
        <time>2018-02-23T13:47:00Z</time>
      </trkpt>
      <trkpt lat="47.64637" lon="5.97631">
        <ele>216.02</ele>
        <time>2018-02-23T13:47:02Z</time>
      </trkpt>
      <trkpt lat="47.64632" lon="5.97638">
        <ele>216.04</ele>
        <time>2018-02-23T13:47:04Z</time>
      </trkpt>
      <trkpt lat="47.64626" lon="5.97646">
        <ele>216.14</ele>
        <time>2018-02-23T13:47:06Z</time>
      </trkpt>
      <trkpt lat="47.6462" lon="5.97653">
        <ele>216.17</ele>
        <time>2018-02-23T13:47:08Z</time>
      </trkpt>
      <trkpt lat="47.64614" lon="5.97661">
        <ele>216.18</ele>
        <time>2018-02-23T13:47:10Z</time>
      </trkpt>
      <trkpt lat="47.64609" lon="5.97668">
        <ele>216.2</ele>
        <time>2018-02-23T13:47:12Z</time>
      </trkpt>
      <trkpt lat="47.64604" lon="5.97675">
        <ele>216.21</ele>
        <time>2018-02-23T13:47:14Z</time>
      </trkpt>
      <trkpt lat="47.64598" lon="5.97681">
        <ele>216.29</ele>
        <time>2018-02-23T13:47:16Z</time>
      </trkpt>
      <trkpt lat="47.64592" lon="5.97689">
        <ele>216.31</ele>
        <time>2018-02-23T13:47:18Z</time>
      </trkpt>
      <trkpt lat="47.64587" lon="5.97696">
        <ele>216.36</ele>
        <time>2018-02-23T13:47:20Z</time>
      </trkpt>
      <trkpt lat="47.64581" lon="5.97703">
        <ele>216.43</ele>
        <time>2018-02-23T13:47:22Z</time>
      </trkpt>
      <trkpt lat="47.64575" lon="5.97711">
        <ele>216.51</ele>
        <time>2018-02-23T13:47:24Z</time>
      </trkpt>
      <trkpt lat="47.64569" lon="5.97719">
        <ele>216.59</ele>
        <time>2018-02-23T13:47:26Z</time>
      </trkpt>
      <trkpt lat="47.64563" lon="5.97727">
        <ele>216.63</ele>
        <time>2018-02-23T13:47:28Z</time>
      </trkpt>
      <trkpt lat="47.64557" lon="5.97734">
        <ele>216.67</ele>
        <time>2018-02-23T13:47:30Z</time>
      </trkpt>
      <trkpt lat="47.64551" lon="5.97742">
        <ele>216.68</ele>
        <time>2018-02-23T13:47:32Z</time>
      </trkpt>
      <trkpt lat="47.64545" lon="5.97749">
        <ele>216.69</ele>
        <time>2018-02-23T13:47:34Z</time>
      </trkpt>
      <trkpt lat="47.6454" lon="5.97756">
        <ele>216.69</ele>
        <time>2018-02-23T13:47:36Z</time>
      </trkpt>
      <trkpt lat="47.64536" lon="5.97762">
        <ele>216.7</ele>
        <time>2018-02-23T13:47:38Z</time>
      </trkpt>
      <trkpt lat="47.64531" lon="5.97768">
        <ele>216.71</ele>
        <time>2018-02-23T13:47:40Z</time>
      </trkpt>
      <trkpt lat="47.64527" lon="5.97773">
        <ele>216.72</ele>
        <time>2018-02-23T13:47:42Z</time>
      </trkpt>
      <trkpt lat="47.64522" lon="5.97779">
        <ele>216.73</ele>
        <time>2018-02-23T13:47:44Z</time>
      </trkpt>
      <trkpt lat="47.64518" lon="5.97785">
        <ele>216.74</ele>
        <time>2018-02-23T13:47:46Z</time>
      </trkpt>
      <trkpt lat="47.64513" lon="5.97791">
        <ele>216.75</ele>
        <time>2018-02-23T13:47:48Z</time>
      </trkpt>
      <trkpt lat="47.64509" lon="5.97795">
        <ele>216.76</ele>
        <time>2018-02-23T13:47:50Z</time>
      </trkpt>
      <trkpt lat="47.64504" lon="5.97799">
        <ele>216.77</ele>
        <time>2018-02-23T13:47:52Z</time>
      </trkpt>
      <trkpt lat="47.64499" lon="5.97804">
        <ele>216.79</ele>
        <time>2018-02-23T13:47:55Z</time>
      </trkpt>
      <trkpt lat="47.64495" lon="5.97807">
        <ele>216.8</ele>
        <time>2018-02-23T13:47:57Z</time>
      </trkpt>
      <trkpt lat="47.6449" lon="5.97808">
        <ele>216.81</ele>
        <time>2018-02-23T13:47:59Z</time>
      </trkpt>
      <trkpt lat="47.64484" lon="5.97809">
        <ele>216.83</ele>
        <time>2018-02-23T13:48:01Z</time>
      </trkpt>
      <trkpt lat="47.64476" lon="5.97811">
        <ele>216.87</ele>
        <time>2018-02-23T13:48:03Z</time>
      </trkpt>
      <trkpt lat="47.64468" lon="5.97812">
        <ele>216.96</ele>
        <time>2018-02-23T13:48:05Z</time>
      </trkpt>
      <trkpt lat="47.64463" lon="5.97813">
        <ele>217</ele>
        <time>2018-02-23T13:48:06Z</time>
      </trkpt>
      <trkpt lat="47.64458" lon="5.97815">
        <ele>217.03</ele>
        <time>2018-02-23T13:48:07Z</time>
      </trkpt>
      <trkpt lat="47.64453" lon="5.97817">
        <ele>217.05</ele>
        <time>2018-02-23T13:48:08Z</time>
      </trkpt>
      <trkpt lat="47.64447" lon="5.97819">
        <ele>217.07</ele>
        <time>2018-02-23T13:48:09Z</time>
      </trkpt>
      <trkpt lat="47.64442" lon="5.97821">
        <ele>217.09</ele>
        <time>2018-02-23T13:48:10Z</time>
      </trkpt>
      <trkpt lat="47.64437" lon="5.97822">
        <ele>217.1</ele>
        <time>2018-02-23T13:48:11Z</time>
      </trkpt>
      <trkpt lat="47.64429" lon="5.97822">
        <ele>217.11</ele>
        <time>2018-02-23T13:48:13Z</time>
      </trkpt>
      <trkpt lat="47.64421" lon="5.97825">
        <ele>217.11</ele>
        <time>2018-02-23T13:48:15Z</time>
      </trkpt>
      <trkpt lat="47.64416" lon="5.97826">
        <ele>217.12</ele>
        <time>2018-02-23T13:48:16Z</time>
      </trkpt>
      <trkpt lat="47.64411" lon="5.97827">
        <ele>217.13</ele>
        <time>2018-02-23T13:48:17Z</time>
      </trkpt>
      <trkpt lat="47.64406" lon="5.97828">
        <ele>217.13</ele>
        <time>2018-02-23T13:48:18Z</time>
      </trkpt>
      <trkpt lat="47.644" lon="5.97829">
        <ele>217.14</ele>
        <time>2018-02-23T13:48:19Z</time>
      </trkpt>
      <trkpt lat="47.64394" lon="5.97829">
        <ele>217.14</ele>
        <time>2018-02-23T13:48:20Z</time>
      </trkpt>
      <trkpt lat="47.64388" lon="5.97829">
        <ele>217.15</ele>
        <time>2018-02-23T13:48:21Z</time>
      </trkpt>
      <trkpt lat="47.64382" lon="5.9783">
        <ele>217.15</ele>
        <time>2018-02-23T13:48:22Z</time>
      </trkpt>
      <trkpt lat="47.64376" lon="5.97831">
        <ele>217.15</ele>
        <time>2018-02-23T13:48:23Z</time>
      </trkpt>
      <trkpt lat="47.64369" lon="5.97831">
        <ele>217.15</ele>
        <time>2018-02-23T13:48:24Z</time>
      </trkpt>
      <trkpt lat="47.64361" lon="5.97833">
        <ele>217.16</ele>
        <time>2018-02-23T13:48:25Z</time>
      </trkpt>
      <trkpt lat="47.64354" lon="5.97835">
        <ele>217.17</ele>
        <time>2018-02-23T13:48:26Z</time>
      </trkpt>
      <trkpt lat="47.64347" lon="5.97836">
        <ele>217.17</ele>
        <time>2018-02-23T13:48:27Z</time>
      </trkpt>
      <trkpt lat="47.64339" lon="5.97838">
        <ele>217.18</ele>
        <time>2018-02-23T13:48:28Z</time>
      </trkpt>
      <trkpt lat="47.64332" lon="5.97839">
        <ele>217.18</ele>
        <time>2018-02-23T13:48:29Z</time>
      </trkpt>
      <trkpt lat="47.64325" lon="5.97841">
        <ele>217.17</ele>
        <time>2018-02-23T13:48:30Z</time>
      </trkpt>
      <trkpt lat="47.64319" lon="5.97843">
        <ele>217.16</ele>
        <time>2018-02-23T13:48:31Z</time>
      </trkpt>
      <trkpt lat="47.64312" lon="5.97845">
        <ele>217.15</ele>
        <time>2018-02-23T13:48:32Z</time>
      </trkpt>
      <trkpt lat="47.64307" lon="5.97847">
        <ele>217.12</ele>
        <time>2018-02-23T13:48:33Z</time>
      </trkpt>
      <trkpt lat="47.64301" lon="5.9785">
        <ele>217.07</ele>
        <time>2018-02-23T13:48:34Z</time>
      </trkpt>
      <trkpt lat="47.64295" lon="5.97852">
        <ele>217.05</ele>
        <time>2018-02-23T13:48:35Z</time>
      </trkpt>
      <trkpt lat="47.64289" lon="5.97853">
        <ele>217.04</ele>
        <time>2018-02-23T13:48:36Z</time>
      </trkpt>
      <trkpt lat="47.64284" lon="5.97855">
        <ele>217.04</ele>
        <time>2018-02-23T13:48:37Z</time>
      </trkpt>
      <trkpt lat="47.64279" lon="5.97856">
        <ele>217.03</ele>
        <time>2018-02-23T13:48:38Z</time>
      </trkpt>
      <trkpt lat="47.64271" lon="5.97858">
        <ele>217</ele>
        <time>2018-02-23T13:48:40Z</time>
      </trkpt>
      <trkpt lat="47.64264" lon="5.97858">
        <ele>217</ele>
        <time>2018-02-23T13:48:42Z</time>
      </trkpt>
      <trkpt lat="47.64256" lon="5.97857">
        <ele>217.02</ele>
        <time>2018-02-23T13:48:44Z</time>
      </trkpt>
      <trkpt lat="47.64249" lon="5.97856">
        <ele>217.02</ele>
        <time>2018-02-23T13:48:46Z</time>
      </trkpt>
      <trkpt lat="47.64241" lon="5.97854">
        <ele>217.03</ele>
        <time>2018-02-23T13:48:48Z</time>
      </trkpt>
      <trkpt lat="47.64234" lon="5.97852">
        <ele>217.02</ele>
        <time>2018-02-23T13:48:50Z</time>
      </trkpt>
      <trkpt lat="47.64226" lon="5.97851">
        <ele>217.01</ele>
        <time>2018-02-23T13:48:52Z</time>
      </trkpt>
      <trkpt lat="47.64219" lon="5.9785">
        <ele>216.91</ele>
        <time>2018-02-23T13:48:54Z</time>
      </trkpt>
      <trkpt lat="47.64211" lon="5.97849">
        <ele>216.78</ele>
        <time>2018-02-23T13:48:56Z</time>
      </trkpt>
      <trkpt lat="47.64202" lon="5.97848">
        <ele>216.85</ele>
        <time>2018-02-23T13:48:58Z</time>
      </trkpt>
      <trkpt lat="47.64194" lon="5.97847">
        <ele>216.89</ele>
        <time>2018-02-23T13:49:00Z</time>
      </trkpt>
      <trkpt lat="47.64186" lon="5.97847">
        <ele>216.96</ele>
        <time>2018-02-23T13:49:02Z</time>
      </trkpt>
      <trkpt lat="47.64179" lon="5.97848">
        <ele>216.96</ele>
        <time>2018-02-23T13:49:04Z</time>
      </trkpt>
      <trkpt lat="47.64172" lon="5.97847">
        <ele>216.96</ele>
        <time>2018-02-23T13:49:06Z</time>
      </trkpt>
      <trkpt lat="47.64166" lon="5.97845">
        <ele>216.95</ele>
        <time>2018-02-23T13:49:08Z</time>
      </trkpt>
      <trkpt lat="47.64159" lon="5.97844">
        <ele>216.93</ele>
        <time>2018-02-23T13:49:10Z</time>
      </trkpt>
      <trkpt lat="47.64152" lon="5.97841">
        <ele>216.93</ele>
        <time>2018-02-23T13:49:12Z</time>
      </trkpt>
      <trkpt lat="47.64145" lon="5.97839">
        <ele>216.92</ele>
        <time>2018-02-23T13:49:14Z</time>
      </trkpt>
      <trkpt lat="47.6414" lon="5.97837">
        <ele>216.91</ele>
        <time>2018-02-23T13:49:16Z</time>
      </trkpt>
      <trkpt lat="47.64135" lon="5.97836">
        <ele>216.89</ele>
        <time>2018-02-23T13:49:18Z</time>
      </trkpt>
      <trkpt lat="47.6413" lon="5.97832">
        <ele>216.87</ele>
        <time>2018-02-23T13:49:42Z</time>
      </trkpt>
      <trkpt lat="47.64125" lon="5.97835">
        <ele>216.87</ele>
        <time>2018-02-23T13:49:46Z</time>
      </trkpt>
      <trkpt lat="47.6412" lon="5.97837">
        <ele>216.86</ele>
        <time>2018-02-23T13:49:54Z</time>
      </trkpt>
      <trkpt lat="47.64122" lon="5.97843">
        <ele>216.63</ele>
        <time>2018-02-23T13:51:21Z</time>
      </trkpt>
      <trkpt lat="47.64127" lon="5.97847">
        <ele>216.59</ele>
        <time>2018-02-23T13:51:24Z</time>
      </trkpt>
      <trkpt lat="47.64134" lon="5.97848">
        <ele>216.55</ele>
        <time>2018-02-23T13:51:27Z</time>
      </trkpt>
      <trkpt lat="47.6414" lon="5.97849">
        <ele>216.53</ele>
        <time>2018-02-23T13:51:29Z</time>
      </trkpt>
      <trkpt lat="47.64147" lon="5.97851">
        <ele>216.51</ele>
        <time>2018-02-23T13:51:31Z</time>
      </trkpt>
      <trkpt lat="47.64153" lon="5.97853">
        <ele>216.49</ele>
        <time>2018-02-23T13:51:33Z</time>
      </trkpt>
      <trkpt lat="47.64159" lon="5.97855">
        <ele>216.47</ele>
        <time>2018-02-23T13:51:35Z</time>
      </trkpt>
      <trkpt lat="47.64165" lon="5.97856">
        <ele>216.45</ele>
        <time>2018-02-23T13:51:37Z</time>
      </trkpt>
      <trkpt lat="47.64171" lon="5.97856">
        <ele>216.43</ele>
        <time>2018-02-23T13:51:39Z</time>
      </trkpt>
      <trkpt lat="47.64177" lon="5.97857">
        <ele>216.41</ele>
        <time>2018-02-23T13:51:41Z</time>
      </trkpt>
      <trkpt lat="47.64184" lon="5.97857">
        <ele>216.39</ele>
        <time>2018-02-23T13:51:43Z</time>
      </trkpt>
      <trkpt lat="47.64189" lon="5.97858">
        <ele>216.37</ele>
        <time>2018-02-23T13:51:45Z</time>
      </trkpt>
      <trkpt lat="47.64195" lon="5.9786">
        <ele>216.35</ele>
        <time>2018-02-23T13:51:47Z</time>
      </trkpt>
      <trkpt lat="47.642" lon="5.9786">
        <ele>216.33</ele>
        <time>2018-02-23T13:51:49Z</time>
      </trkpt>
      <trkpt lat="47.64205" lon="5.97861">
        <ele>216.31</ele>
        <time>2018-02-23T13:51:51Z</time>
      </trkpt>
      <trkpt lat="47.64211" lon="5.97861">
        <ele>216.29</ele>
        <time>2018-02-23T13:51:53Z</time>
      </trkpt>
      <trkpt lat="47.64217" lon="5.97862">
        <ele>216.26</ele>
        <time>2018-02-23T13:51:55Z</time>
      </trkpt>
      <trkpt lat="47.64224" lon="5.97861">
        <ele>216.22</ele>
        <time>2018-02-23T13:51:57Z</time>
      </trkpt>
      <trkpt lat="47.64232" lon="5.97861">
        <ele>215.84</ele>
        <time>2018-02-23T13:51:59Z</time>
      </trkpt>
      <trkpt lat="47.64241" lon="5.97862">
        <ele>215.46</ele>
        <time>2018-02-23T13:52:01Z</time>
      </trkpt>
      <trkpt lat="47.64246" lon="5.97862">
        <ele>215.3</ele>
        <time>2018-02-23T13:52:02Z</time>
      </trkpt>
      <trkpt lat="47.64251" lon="5.97863">
        <ele>215.16</ele>
        <time>2018-02-23T13:52:03Z</time>
      </trkpt>
      <trkpt lat="47.64256" lon="5.97863">
        <ele>215.04</ele>
        <time>2018-02-23T13:52:04Z</time>
      </trkpt>
      <trkpt lat="47.64261" lon="5.97864">
        <ele>214.94</ele>
        <time>2018-02-23T13:52:05Z</time>
      </trkpt>
      <trkpt lat="47.64266" lon="5.97863">
        <ele>214.85</ele>
        <time>2018-02-23T13:52:06Z</time>
      </trkpt>
      <trkpt lat="47.64272" lon="5.97863">
        <ele>214.77</ele>
        <time>2018-02-23T13:52:07Z</time>
      </trkpt>
      <trkpt lat="47.64277" lon="5.97863">
        <ele>214.75</ele>
        <time>2018-02-23T13:52:08Z</time>
      </trkpt>
      <trkpt lat="47.64285" lon="5.97866">
        <ele>214.72</ele>
        <time>2018-02-23T13:52:10Z</time>
      </trkpt>
      <trkpt lat="47.64287" lon="5.97876">
        <ele>214.7</ele>
        <time>2018-02-23T13:52:12Z</time>
      </trkpt>
      <trkpt lat="47.64286" lon="5.97883">
        <ele>214.67</ele>
        <time>2018-02-23T13:52:14Z</time>
      </trkpt>
      <trkpt lat="47.64285" lon="5.97889">
        <ele>214.65</ele>
        <time>2018-02-23T13:52:16Z</time>
      </trkpt>
      <trkpt lat="47.64286" lon="5.97898">
        <ele>214.62</ele>
        <time>2018-02-23T13:52:18Z</time>
      </trkpt>
      <trkpt lat="47.64286" lon="5.9791">
        <ele>214.59</ele>
        <time>2018-02-23T13:52:20Z</time>
      </trkpt>
      <trkpt lat="47.64285" lon="5.97919">
        <ele>214.57</ele>
        <time>2018-02-23T13:52:22Z</time>
      </trkpt>
      <trkpt lat="47.64285" lon="5.97929">
        <ele>214.54</ele>
        <time>2018-02-23T13:52:24Z</time>
      </trkpt>
      <trkpt lat="47.64286" lon="5.97937">
        <ele>214.5</ele>
        <time>2018-02-23T13:52:26Z</time>
      </trkpt>
      <trkpt lat="47.64286" lon="5.97945">
        <ele>214.46</ele>
        <time>2018-02-23T13:52:28Z</time>
      </trkpt>
      <trkpt lat="47.64286" lon="5.97952">
        <ele>214.42</ele>
        <time>2018-02-23T13:52:30Z</time>
      </trkpt>
      <trkpt lat="47.64286" lon="5.9796">
        <ele>214.38</ele>
        <time>2018-02-23T13:52:32Z</time>
      </trkpt>
      <trkpt lat="47.64286" lon="5.9797">
        <ele>214.34</ele>
        <time>2018-02-23T13:52:34Z</time>
      </trkpt>
      <trkpt lat="47.64287" lon="5.97977">
        <ele>214.3</ele>
        <time>2018-02-23T13:52:36Z</time>
      </trkpt>
      <trkpt lat="47.64288" lon="5.97985">
        <ele>214.25</ele>
        <time>2018-02-23T13:52:38Z</time>
      </trkpt>
      <trkpt lat="47.64288" lon="5.97992">
        <ele>214.2</ele>
        <time>2018-02-23T13:52:40Z</time>
      </trkpt>
      <trkpt lat="47.64289" lon="5.98">
        <ele>214.16</ele>
        <time>2018-02-23T13:52:42Z</time>
      </trkpt>
      <trkpt lat="47.6429" lon="5.98007">
        <ele>214.11</ele>
        <time>2018-02-23T13:52:44Z</time>
      </trkpt>
      <trkpt lat="47.64291" lon="5.98014">
        <ele>214.06</ele>
        <time>2018-02-23T13:52:46Z</time>
      </trkpt>
      <trkpt lat="47.64292" lon="5.98023">
        <ele>214.01</ele>
        <time>2018-02-23T13:52:48Z</time>
      </trkpt>
      <trkpt lat="47.64294" lon="5.9803">
        <ele>213.96</ele>
        <time>2018-02-23T13:52:50Z</time>
      </trkpt>
      <trkpt lat="47.64296" lon="5.98038">
        <ele>213.93</ele>
        <time>2018-02-23T13:52:52Z</time>
      </trkpt>
      <trkpt lat="47.64298" lon="5.98046">
        <ele>213.9</ele>
        <time>2018-02-23T13:52:55Z</time>
      </trkpt>
      <trkpt lat="47.643" lon="5.98055">
        <ele>213.89</ele>
        <time>2018-02-23T13:52:58Z</time>
      </trkpt>
      <trkpt lat="47.64301" lon="5.98062">
        <ele>213.91</ele>
        <time>2018-02-23T13:53:01Z</time>
      </trkpt>
      <trkpt lat="47.64301" lon="5.98053">
        <ele>214.2</ele>
        <time>2018-02-23T13:53:33Z</time>
      </trkpt>
      <trkpt lat="47.64299" lon="5.98046">
        <ele>214.26</ele>
        <time>2018-02-23T13:53:35Z</time>
      </trkpt>
      <trkpt lat="47.64295" lon="5.98039">
        <ele>214.32</ele>
        <time>2018-02-23T13:53:37Z</time>
      </trkpt>
      <trkpt lat="47.64289" lon="5.98041">
        <ele>214.37</ele>
        <time>2018-02-23T13:53:39Z</time>
      </trkpt>
      <trkpt lat="47.64286" lon="5.98048">
        <ele>214.42</ele>
        <time>2018-02-23T13:53:41Z</time>
      </trkpt>
      <trkpt lat="47.64284" lon="5.98055">
        <ele>214.46</ele>
        <time>2018-02-23T13:53:43Z</time>
      </trkpt>
      <trkpt lat="47.6428" lon="5.98065">
        <ele>214.5</ele>
        <time>2018-02-23T13:53:45Z</time>
      </trkpt>
      <trkpt lat="47.64276" lon="5.98072">
        <ele>214.54</ele>
        <time>2018-02-23T13:53:47Z</time>
      </trkpt>
      <trkpt lat="47.64272" lon="5.9808">
        <ele>214.58</ele>
        <time>2018-02-23T13:53:49Z</time>
      </trkpt>
      <trkpt lat="47.64269" lon="5.98087">
        <ele>214.62</ele>
        <time>2018-02-23T13:53:51Z</time>
      </trkpt>
      <trkpt lat="47.64264" lon="5.98091">
        <ele>214.66</ele>
        <time>2018-02-23T13:53:53Z</time>
      </trkpt>
      <trkpt lat="47.64259" lon="5.98095">
        <ele>214.7</ele>
        <time>2018-02-23T13:53:55Z</time>
      </trkpt>
      <trkpt lat="47.64254" lon="5.98099">
        <ele>214.74</ele>
        <time>2018-02-23T13:53:57Z</time>
      </trkpt>
      <trkpt lat="47.64249" lon="5.98101">
        <ele>214.79</ele>
        <time>2018-02-23T13:53:59Z</time>
      </trkpt>
      <trkpt lat="47.64245" lon="5.98104">
        <ele>214.83</ele>
        <time>2018-02-23T13:54:01Z</time>
      </trkpt>
      <trkpt lat="47.6424" lon="5.98105">
        <ele>214.88</ele>
        <time>2018-02-23T13:54:03Z</time>
      </trkpt>
      <trkpt lat="47.64235" lon="5.98108">
        <ele>214.96</ele>
        <time>2018-02-23T13:54:06Z</time>
      </trkpt>
      <trkpt lat="47.64229" lon="5.98111">
        <ele>215.04</ele>
        <time>2018-02-23T13:54:09Z</time>
      </trkpt>
      <trkpt lat="47.64225" lon="5.98113">
        <ele>215.1</ele>
        <time>2018-02-23T13:54:11Z</time>
      </trkpt>
      <trkpt lat="47.6422" lon="5.98115">
        <ele>215.16</ele>
        <time>2018-02-23T13:54:13Z</time>
      </trkpt>
      <trkpt lat="47.64215" lon="5.98117">
        <ele>215.22</ele>
        <time>2018-02-23T13:54:15Z</time>
      </trkpt>
      <trkpt lat="47.6421" lon="5.98119">
        <ele>215.28</ele>
        <time>2018-02-23T13:54:17Z</time>
      </trkpt>
      <trkpt lat="47.64205" lon="5.98123">
        <ele>215.34</ele>
        <time>2018-02-23T13:54:19Z</time>
      </trkpt>
      <trkpt lat="47.64201" lon="5.98125">
        <ele>215.4</ele>
        <time>2018-02-23T13:54:21Z</time>
      </trkpt>
      <trkpt lat="47.64195" lon="5.98129">
        <ele>215.5</ele>
        <time>2018-02-23T13:54:24Z</time>
      </trkpt>
      <trkpt lat="47.6419" lon="5.98134">
        <ele>215.61</ele>
        <time>2018-02-23T13:54:27Z</time>
      </trkpt>
      <trkpt lat="47.64186" lon="5.98139">
        <ele>215.68</ele>
        <time>2018-02-23T13:54:29Z</time>
      </trkpt>
      <trkpt lat="47.64181" lon="5.98145">
        <ele>215.76</ele>
        <time>2018-02-23T13:54:31Z</time>
      </trkpt>
      <trkpt lat="47.64177" lon="5.98149">
        <ele>215.84</ele>
        <time>2018-02-23T13:54:33Z</time>
      </trkpt>
      <trkpt lat="47.64172" lon="5.98155">
        <ele>215.92</ele>
        <time>2018-02-23T13:54:35Z</time>
      </trkpt>
      <trkpt lat="47.64168" lon="5.9816">
        <ele>216</ele>
        <time>2018-02-23T13:54:37Z</time>
      </trkpt>
      <trkpt lat="47.64164" lon="5.98164">
        <ele>216.08</ele>
        <time>2018-02-23T13:54:39Z</time>
      </trkpt>
      <trkpt lat="47.64159" lon="5.98169">
        <ele>216.15</ele>
        <time>2018-02-23T13:54:41Z</time>
      </trkpt>
      <trkpt lat="47.64155" lon="5.98174">
        <ele>216.23</ele>
        <time>2018-02-23T13:54:43Z</time>
      </trkpt>
      <trkpt lat="47.64151" lon="5.98179">
        <ele>216.3</ele>
        <time>2018-02-23T13:54:45Z</time>
      </trkpt>
      <trkpt lat="47.64147" lon="5.98184">
        <ele>216.38</ele>
        <time>2018-02-23T13:54:47Z</time>
      </trkpt>
      <trkpt lat="47.64143" lon="5.98189">
        <ele>216.45</ele>
        <time>2018-02-23T13:54:49Z</time>
      </trkpt>
      <trkpt lat="47.64139" lon="5.98194">
        <ele>216.53</ele>
        <time>2018-02-23T13:54:51Z</time>
      </trkpt>
      <trkpt lat="47.64134" lon="5.98199">
        <ele>216.61</ele>
        <time>2018-02-23T13:54:53Z</time>
      </trkpt>
      <trkpt lat="47.6413" lon="5.98204">
        <ele>216.69</ele>
        <time>2018-02-23T13:54:55Z</time>
      </trkpt>
      <trkpt lat="47.64125" lon="5.98209">
        <ele>216.77</ele>
        <time>2018-02-23T13:54:57Z</time>
      </trkpt>
      <trkpt lat="47.6412" lon="5.98214">
        <ele>216.85</ele>
        <time>2018-02-23T13:54:59Z</time>
      </trkpt>
      <trkpt lat="47.64115" lon="5.98221">
        <ele>216.94</ele>
        <time>2018-02-23T13:55:01Z</time>
      </trkpt>
      <trkpt lat="47.6411" lon="5.98226">
        <ele>217.03</ele>
        <time>2018-02-23T13:55:03Z</time>
      </trkpt>
      <trkpt lat="47.64103" lon="5.98231">
        <ele>217.11</ele>
        <time>2018-02-23T13:55:05Z</time>
      </trkpt>
      <trkpt lat="47.64097" lon="5.98237">
        <ele>217.2</ele>
        <time>2018-02-23T13:55:07Z</time>
      </trkpt>
      <trkpt lat="47.64092" lon="5.98241">
        <ele>217.28</ele>
        <time>2018-02-23T13:55:09Z</time>
      </trkpt>
      <trkpt lat="47.64087" lon="5.98246">
        <ele>217.36</ele>
        <time>2018-02-23T13:55:11Z</time>
      </trkpt>
      <trkpt lat="47.64083" lon="5.98251">
        <ele>217.45</ele>
        <time>2018-02-23T13:55:13Z</time>
      </trkpt>
      <trkpt lat="47.64078" lon="5.98254">
        <ele>217.53</ele>
        <time>2018-02-23T13:55:15Z</time>
      </trkpt>
      <trkpt lat="47.64074" lon="5.98259">
        <ele>217.62</ele>
        <time>2018-02-23T13:55:17Z</time>
      </trkpt>
      <trkpt lat="47.64068" lon="5.98264">
        <ele>217.7</ele>
        <time>2018-02-23T13:55:19Z</time>
      </trkpt>
      <trkpt lat="47.64064" lon="5.98269">
        <ele>217.78</ele>
        <time>2018-02-23T13:55:21Z</time>
      </trkpt>
      <trkpt lat="47.6406" lon="5.98274">
        <ele>217.86</ele>
        <time>2018-02-23T13:55:23Z</time>
      </trkpt>
      <trkpt lat="47.64055" lon="5.98279">
        <ele>217.94</ele>
        <time>2018-02-23T13:55:25Z</time>
      </trkpt>
      <trkpt lat="47.64051" lon="5.98284">
        <ele>218.03</ele>
        <time>2018-02-23T13:55:27Z</time>
      </trkpt>
      <trkpt lat="47.64047" lon="5.98291">
        <ele>218.16</ele>
        <time>2018-02-23T13:55:30Z</time>
      </trkpt>
      <trkpt lat="47.64042" lon="5.98296">
        <ele>218.26</ele>
        <time>2018-02-23T13:55:32Z</time>
      </trkpt>
      <trkpt lat="47.64039" lon="5.98301">
        <ele>218.35</ele>
        <time>2018-02-23T13:55:34Z</time>
      </trkpt>
      <trkpt lat="47.64035" lon="5.98307">
        <ele>218.44</ele>
        <time>2018-02-23T13:55:36Z</time>
      </trkpt>
      <trkpt lat="47.64031" lon="5.98312">
        <ele>218.54</ele>
        <time>2018-02-23T13:55:38Z</time>
      </trkpt>
      <trkpt lat="47.64028" lon="5.98317">
        <ele>218.63</ele>
        <time>2018-02-23T13:55:40Z</time>
      </trkpt>
      <trkpt lat="47.64025" lon="5.98323">
        <ele>218.72</ele>
        <time>2018-02-23T13:55:42Z</time>
      </trkpt>
      <trkpt lat="47.64022" lon="5.98329">
        <ele>218.82</ele>
        <time>2018-02-23T13:55:44Z</time>
      </trkpt>
      <trkpt lat="47.64019" lon="5.98335">
        <ele>218.92</ele>
        <time>2018-02-23T13:55:46Z</time>
      </trkpt>
      <trkpt lat="47.64016" lon="5.98342">
        <ele>219.06</ele>
        <time>2018-02-23T13:55:49Z</time>
      </trkpt>
      <trkpt lat="47.64014" lon="5.98349">
        <ele>219.15</ele>
        <time>2018-02-23T13:55:51Z</time>
      </trkpt>
      <trkpt lat="47.64013" lon="5.98355">
        <ele>219.25</ele>
        <time>2018-02-23T13:55:53Z</time>
      </trkpt>
      <trkpt lat="47.64011" lon="5.98364">
        <ele>219.39</ele>
        <time>2018-02-23T13:55:56Z</time>
      </trkpt>
      <trkpt lat="47.64008" lon="5.98372">
        <ele>219.53</ele>
        <time>2018-02-23T13:55:59Z</time>
      </trkpt>
      <trkpt lat="47.64006" lon="5.98381">
        <ele>219.67</ele>
        <time>2018-02-23T13:56:02Z</time>
      </trkpt>
      <trkpt lat="47.64005" lon="5.98387">
        <ele>219.76</ele>
        <time>2018-02-23T13:56:04Z</time>
      </trkpt>
      <trkpt lat="47.64004" lon="5.98395">
        <ele>219.9</ele>
        <time>2018-02-23T13:56:07Z</time>
      </trkpt>
      <trkpt lat="47.64002" lon="5.98402">
        <ele>220.04</ele>
        <time>2018-02-23T13:56:10Z</time>
      </trkpt>
      <trkpt lat="47.64" lon="5.98409">
        <ele>220.18</ele>
        <time>2018-02-23T13:56:13Z</time>
      </trkpt>
      <trkpt lat="47.63998" lon="5.98417">
        <ele>220.32</ele>
        <time>2018-02-23T13:56:16Z</time>
      </trkpt>
      <trkpt lat="47.63997" lon="5.98423">
        <ele>220.4</ele>
        <time>2018-02-23T13:56:18Z</time>
      </trkpt>
      <trkpt lat="47.63995" lon="5.98432">
        <ele>220.54</ele>
        <time>2018-02-23T13:56:21Z</time>
      </trkpt>
      <trkpt lat="47.63993" lon="5.9844">
        <ele>220.67</ele>
        <time>2018-02-23T13:56:24Z</time>
      </trkpt>
      <trkpt lat="47.63991" lon="5.98448">
        <ele>220.8</ele>
        <time>2018-02-23T13:56:27Z</time>
      </trkpt>
      <trkpt lat="47.63989" lon="5.98456">
        <ele>220.92</ele>
        <time>2018-02-23T13:56:30Z</time>
      </trkpt>
      <trkpt lat="47.63986" lon="5.98462">
        <ele>221.05</ele>
        <time>2018-02-23T13:56:33Z</time>
      </trkpt>
      <trkpt lat="47.63983" lon="5.9847">
        <ele>221.17</ele>
        <time>2018-02-23T13:56:36Z</time>
      </trkpt>
      <trkpt lat="47.6398" lon="5.98477">
        <ele>221.3</ele>
        <time>2018-02-23T13:56:39Z</time>
      </trkpt>
      <trkpt lat="47.63978" lon="5.98482">
        <ele>221.42</ele>
        <time>2018-02-23T13:56:42Z</time>
      </trkpt>
      <trkpt lat="47.63975" lon="5.9849">
        <ele>221.58</ele>
        <time>2018-02-23T13:56:46Z</time>
      </trkpt>
      <trkpt lat="47.63973" lon="5.98498">
        <ele>221.71</ele>
        <time>2018-02-23T13:56:49Z</time>
      </trkpt>
      <trkpt lat="47.63969" lon="5.98506">
        <ele>221.83</ele>
        <time>2018-02-23T13:56:52Z</time>
      </trkpt>
      <trkpt lat="47.63966" lon="5.98512">
        <ele>221.96</ele>
        <time>2018-02-23T13:56:55Z</time>
      </trkpt>
      <trkpt lat="47.63963" lon="5.98518">
        <ele>222.08</ele>
        <time>2018-02-23T13:56:57Z</time>
      </trkpt>
      <trkpt lat="47.6396" lon="5.98524">
        <ele>222.21</ele>
        <time>2018-02-23T13:57:00Z</time>
      </trkpt>
      <trkpt lat="47.63956" lon="5.98529">
        <ele>222.33</ele>
        <time>2018-02-23T13:57:03Z</time>
      </trkpt>
      <trkpt lat="47.63953" lon="5.98535">
        <ele>222.46</ele>
        <time>2018-02-23T13:57:06Z</time>
      </trkpt>
      <trkpt lat="47.6395" lon="5.9854">
        <ele>222.58</ele>
        <time>2018-02-23T13:57:09Z</time>
      </trkpt>
      <trkpt lat="47.63946" lon="5.98545">
        <ele>222.71</ele>
        <time>2018-02-23T13:57:12Z</time>
      </trkpt>
      <trkpt lat="47.63942" lon="5.98549">
        <ele>222.8</ele>
        <time>2018-02-23T13:57:14Z</time>
      </trkpt>
      <trkpt lat="47.63939" lon="5.98554">
        <ele>222.88</ele>
        <time>2018-02-23T13:57:16Z</time>
      </trkpt>
      <trkpt lat="47.63935" lon="5.98559">
        <ele>222.97</ele>
        <time>2018-02-23T13:57:18Z</time>
      </trkpt>
      <trkpt lat="47.63932" lon="5.98566">
        <ele>223.1</ele>
        <time>2018-02-23T13:57:21Z</time>
      </trkpt>
      <trkpt lat="47.63929" lon="5.98573">
        <ele>223.24</ele>
        <time>2018-02-23T13:57:24Z</time>
      </trkpt>
      <trkpt lat="47.63925" lon="5.98578">
        <ele>223.37</ele>
        <time>2018-02-23T13:57:27Z</time>
      </trkpt>
      <trkpt lat="47.63921" lon="5.98584">
        <ele>223.51</ele>
        <time>2018-02-23T13:57:30Z</time>
      </trkpt>
      <trkpt lat="47.63917" lon="5.98591">
        <ele>223.65</ele>
        <time>2018-02-23T13:57:33Z</time>
      </trkpt>
      <trkpt lat="47.63915" lon="5.98598">
        <ele>223.78</ele>
        <time>2018-02-23T13:57:36Z</time>
      </trkpt>
      <trkpt lat="47.63913" lon="5.98606">
        <ele>223.92</ele>
        <time>2018-02-23T13:57:39Z</time>
      </trkpt>
      <trkpt lat="47.63911" lon="5.98613">
        <ele>224.06</ele>
        <time>2018-02-23T13:57:42Z</time>
      </trkpt>
      <trkpt lat="47.63908" lon="5.9862">
        <ele>224.2</ele>
        <time>2018-02-23T13:57:45Z</time>
      </trkpt>
      <trkpt lat="47.63905" lon="5.98626">
        <ele>224.34</ele>
        <time>2018-02-23T13:57:48Z</time>
      </trkpt>
      <trkpt lat="47.63903" lon="5.98634">
        <ele>224.48</ele>
        <time>2018-02-23T13:57:51Z</time>
      </trkpt>
      <trkpt lat="47.63901" lon="5.98641">
        <ele>224.61</ele>
        <time>2018-02-23T13:57:54Z</time>
      </trkpt>
      <trkpt lat="47.63898" lon="5.98648">
        <ele>224.75</ele>
        <time>2018-02-23T13:57:57Z</time>
      </trkpt>
      <trkpt lat="47.63896" lon="5.98656">
        <ele>224.88</ele>
        <time>2018-02-23T13:58:00Z</time>
      </trkpt>
      <trkpt lat="47.63894" lon="5.98663">
        <ele>225.07</ele>
        <time>2018-02-23T13:58:04Z</time>
      </trkpt>
      <trkpt lat="47.63893" lon="5.9867">
        <ele>225.2</ele>
        <time>2018-02-23T13:58:07Z</time>
      </trkpt>
      <trkpt lat="47.63892" lon="5.98677">
        <ele>225.33</ele>
        <time>2018-02-23T13:58:10Z</time>
      </trkpt>
      <trkpt lat="47.63889" lon="5.98684">
        <ele>225.47</ele>
        <time>2018-02-23T13:58:13Z</time>
      </trkpt>
      <trkpt lat="47.63886" lon="5.9869">
        <ele>225.6</ele>
        <time>2018-02-23T13:58:16Z</time>
      </trkpt>
      <trkpt lat="47.63884" lon="5.98696">
        <ele>225.69</ele>
        <time>2018-02-23T13:58:18Z</time>
      </trkpt>
      <trkpt lat="47.63883" lon="5.98704">
        <ele>225.78</ele>
        <time>2018-02-23T13:58:20Z</time>
      </trkpt>
      <trkpt lat="47.6388" lon="5.98711">
        <ele>225.87</ele>
        <time>2018-02-23T13:58:22Z</time>
      </trkpt>
      <trkpt lat="47.63878" lon="5.98717">
        <ele>226.01</ele>
        <time>2018-02-23T13:58:25Z</time>
      </trkpt>
      <trkpt lat="47.63876" lon="5.98724">
        <ele>226.1</ele>
        <time>2018-02-23T13:58:27Z</time>
      </trkpt>
      <trkpt lat="47.63874" lon="5.9873">
        <ele>226.19</ele>
        <time>2018-02-23T13:58:29Z</time>
      </trkpt>
      <trkpt lat="47.63872" lon="5.98739">
        <ele>226.33</ele>
        <time>2018-02-23T13:58:32Z</time>
      </trkpt>
      <trkpt lat="47.63869" lon="5.98748">
        <ele>226.47</ele>
        <time>2018-02-23T13:58:35Z</time>
      </trkpt>
      <trkpt lat="47.63867" lon="5.98757">
        <ele>226.61</ele>
        <time>2018-02-23T13:58:38Z</time>
      </trkpt>
      <trkpt lat="47.63864" lon="5.98763">
        <ele>226.71</ele>
        <time>2018-02-23T13:58:40Z</time>
      </trkpt>
      <trkpt lat="47.63862" lon="5.98771">
        <ele>226.85</ele>
        <time>2018-02-23T13:58:43Z</time>
      </trkpt>
      <trkpt lat="47.6386" lon="5.98779">
        <ele>226.99</ele>
        <time>2018-02-23T13:58:46Z</time>
      </trkpt>
      <trkpt lat="47.63858" lon="5.98785">
        <ele>227.08</ele>
        <time>2018-02-23T13:58:48Z</time>
      </trkpt>
      <trkpt lat="47.63856" lon="5.98794">
        <ele>227.22</ele>
        <time>2018-02-23T13:58:51Z</time>
      </trkpt>
      <trkpt lat="47.63853" lon="5.98802">
        <ele>227.37</ele>
        <time>2018-02-23T13:58:54Z</time>
      </trkpt>
      <trkpt lat="47.63851" lon="5.98808">
        <ele>227.46</ele>
        <time>2018-02-23T13:58:56Z</time>
      </trkpt>
      <trkpt lat="47.6385" lon="5.98817">
        <ele>227.6</ele>
        <time>2018-02-23T13:58:59Z</time>
      </trkpt>
      <trkpt lat="47.63849" lon="5.98826">
        <ele>227.74</ele>
        <time>2018-02-23T13:59:02Z</time>
      </trkpt>
      <trkpt lat="47.63845" lon="5.98835">
        <ele>227.88</ele>
        <time>2018-02-23T13:59:05Z</time>
      </trkpt>
      <trkpt lat="47.63844" lon="5.98843">
        <ele>227.98</ele>
        <time>2018-02-23T13:59:07Z</time>
      </trkpt>
      <trkpt lat="47.63842" lon="5.9885">
        <ele>228.07</ele>
        <time>2018-02-23T13:59:09Z</time>
      </trkpt>
      <trkpt lat="47.6384" lon="5.98859">
        <ele>228.21</ele>
        <time>2018-02-23T13:59:12Z</time>
      </trkpt>
      <trkpt lat="47.63838" lon="5.98866">
        <ele>228.31</ele>
        <time>2018-02-23T13:59:14Z</time>
      </trkpt>
      <trkpt lat="47.63837" lon="5.98875">
        <ele>228.45</ele>
        <time>2018-02-23T13:59:17Z</time>
      </trkpt>
      <trkpt lat="47.63834" lon="5.9888">
        <ele>228.55</ele>
        <time>2018-02-23T13:59:19Z</time>
      </trkpt>
      <trkpt lat="47.63832" lon="5.98887">
        <ele>228.64</ele>
        <time>2018-02-23T13:59:21Z</time>
      </trkpt>
      <trkpt lat="47.6383" lon="5.98894">
        <ele>228.74</ele>
        <time>2018-02-23T13:59:23Z</time>
      </trkpt>
      <trkpt lat="47.63828" lon="5.98902">
        <ele>228.88</ele>
        <time>2018-02-23T13:59:26Z</time>
      </trkpt>
      <trkpt lat="47.63825" lon="5.98911">
        <ele>229.02</ele>
        <time>2018-02-23T13:59:29Z</time>
      </trkpt>
      <trkpt lat="47.63822" lon="5.98918">
        <ele>229.11</ele>
        <time>2018-02-23T13:59:31Z</time>
      </trkpt>
      <trkpt lat="47.6382" lon="5.98926">
        <ele>229.2</ele>
        <time>2018-02-23T13:59:33Z</time>
      </trkpt>
      <trkpt lat="47.63816" lon="5.98934">
        <ele>229.34</ele>
        <time>2018-02-23T13:59:36Z</time>
      </trkpt>
      <trkpt lat="47.63814" lon="5.98941">
        <ele>229.43</ele>
        <time>2018-02-23T13:59:38Z</time>
      </trkpt>
      <trkpt lat="47.63811" lon="5.98948">
        <ele>229.52</ele>
        <time>2018-02-23T13:59:40Z</time>
      </trkpt>
      <trkpt lat="47.63808" lon="5.98955">
        <ele>229.61</ele>
        <time>2018-02-23T13:59:42Z</time>
      </trkpt>
      <trkpt lat="47.63806" lon="5.98961">
        <ele>229.69</ele>
        <time>2018-02-23T13:59:44Z</time>
      </trkpt>
      <trkpt lat="47.63803" lon="5.98968">
        <ele>229.78</ele>
        <time>2018-02-23T13:59:46Z</time>
      </trkpt>
      <trkpt lat="47.63799" lon="5.98977">
        <ele>229.9</ele>
        <time>2018-02-23T13:59:49Z</time>
      </trkpt>
      <trkpt lat="47.63796" lon="5.98984">
        <ele>229.99</ele>
        <time>2018-02-23T13:59:51Z</time>
      </trkpt>
      <trkpt lat="47.63793" lon="5.9899">
        <ele>230.07</ele>
        <time>2018-02-23T13:59:53Z</time>
      </trkpt>
      <trkpt lat="47.6379" lon="5.98997">
        <ele>230.15</ele>
        <time>2018-02-23T13:59:55Z</time>
      </trkpt>
      <trkpt lat="47.63786" lon="5.99006">
        <ele>230.23</ele>
        <time>2018-02-23T13:59:57Z</time>
      </trkpt>
      <trkpt lat="47.63782" lon="5.99015">
        <ele>230.31</ele>
        <time>2018-02-23T13:59:59Z</time>
      </trkpt>
      <trkpt lat="47.63778" lon="5.99024">
        <ele>230.4</ele>
        <time>2018-02-23T14:00:01Z</time>
      </trkpt>
      <trkpt lat="47.63774" lon="5.99032">
        <ele>230.73</ele>
        <time>2018-02-23T14:00:03Z</time>
      </trkpt>
      <trkpt lat="47.63769" lon="5.99042">
        <ele>231.33</ele>
        <time>2018-02-23T14:00:05Z</time>
      </trkpt>
      <trkpt lat="47.63765" lon="5.99052">
        <ele>231.77</ele>
        <time>2018-02-23T14:00:07Z</time>
      </trkpt>
      <trkpt lat="47.63762" lon="5.99057">
        <ele>231.94</ele>
        <time>2018-02-23T14:00:08Z</time>
      </trkpt>
      <trkpt lat="47.63759" lon="5.99064">
        <ele>232.09</ele>
        <time>2018-02-23T14:00:09Z</time>
      </trkpt>
      <trkpt lat="47.63756" lon="5.9907">
        <ele>232.21</ele>
        <time>2018-02-23T14:00:10Z</time>
      </trkpt>
      <trkpt lat="47.63752" lon="5.99076">
        <ele>232.31</ele>
        <time>2018-02-23T14:00:11Z</time>
      </trkpt>
      <trkpt lat="47.63749" lon="5.99081">
        <ele>232.4</ele>
        <time>2018-02-23T14:00:12Z</time>
      </trkpt>
      <trkpt lat="47.63746" lon="5.99087">
        <ele>232.47</ele>
        <time>2018-02-23T14:00:13Z</time>
      </trkpt>
      <trkpt lat="47.63743" lon="5.99093">
        <ele>232.54</ele>
        <time>2018-02-23T14:00:14Z</time>
      </trkpt>
      <trkpt lat="47.6374" lon="5.99098">
        <ele>232.59</ele>
        <time>2018-02-23T14:00:15Z</time>
      </trkpt>
      <trkpt lat="47.63737" lon="5.99103">
        <ele>232.64</ele>
        <time>2018-02-23T14:00:16Z</time>
      </trkpt>
      <trkpt lat="47.63734" lon="5.99109">
        <ele>232.69</ele>
        <time>2018-02-23T14:00:17Z</time>
      </trkpt>
      <trkpt lat="47.6373" lon="5.99114">
        <ele>232.73</ele>
        <time>2018-02-23T14:00:18Z</time>
      </trkpt>
      <trkpt lat="47.63726" lon="5.9912">
        <ele>232.77</ele>
        <time>2018-02-23T14:00:19Z</time>
      </trkpt>
      <trkpt lat="47.63721" lon="5.99126">
        <ele>232.8</ele>
        <time>2018-02-23T14:00:20Z</time>
      </trkpt>
      <trkpt lat="47.63716" lon="5.99131">
        <ele>232.83</ele>
        <time>2018-02-23T14:00:21Z</time>
      </trkpt>
      <trkpt lat="47.63712" lon="5.99137">
        <ele>232.86</ele>
        <time>2018-02-23T14:00:22Z</time>
      </trkpt>
      <trkpt lat="47.63708" lon="5.99143">
        <ele>232.89</ele>
        <time>2018-02-23T14:00:23Z</time>
      </trkpt>
      <trkpt lat="47.63704" lon="5.99149">
        <ele>232.92</ele>
        <time>2018-02-23T14:00:24Z</time>
      </trkpt>
      <trkpt lat="47.637" lon="5.99156">
        <ele>232.94</ele>
        <time>2018-02-23T14:00:25Z</time>
      </trkpt>
      <trkpt lat="47.63697" lon="5.99163">
        <ele>232.97</ele>
        <time>2018-02-23T14:00:26Z</time>
      </trkpt>
      <trkpt lat="47.63692" lon="5.9917">
        <ele>233.01</ele>
        <time>2018-02-23T14:00:27Z</time>
      </trkpt>
      <trkpt lat="47.63687" lon="5.99176">
        <ele>233.04</ele>
        <time>2018-02-23T14:00:28Z</time>
      </trkpt>
      <trkpt lat="47.63683" lon="5.99182">
        <ele>233.07</ele>
        <time>2018-02-23T14:00:29Z</time>
      </trkpt>
      <trkpt lat="47.63678" lon="5.99189">
        <ele>233.1</ele>
        <time>2018-02-23T14:00:30Z</time>
      </trkpt>
      <trkpt lat="47.63674" lon="5.99195">
        <ele>233.12</ele>
        <time>2018-02-23T14:00:31Z</time>
      </trkpt>
      <trkpt lat="47.63669" lon="5.99201">
        <ele>233.15</ele>
        <time>2018-02-23T14:00:32Z</time>
      </trkpt>
      <trkpt lat="47.63665" lon="5.99206">
        <ele>233.17</ele>
        <time>2018-02-23T14:00:33Z</time>
      </trkpt>
      <trkpt lat="47.6366" lon="5.99212">
        <ele>233.2</ele>
        <time>2018-02-23T14:00:34Z</time>
      </trkpt>
      <trkpt lat="47.63656" lon="5.99217">
        <ele>233.22</ele>
        <time>2018-02-23T14:00:35Z</time>
      </trkpt>
      <trkpt lat="47.63653" lon="5.99222">
        <ele>233.26</ele>
        <time>2018-02-23T14:00:36Z</time>
      </trkpt>
      <trkpt lat="47.63649" lon="5.99227">
        <ele>233.29</ele>
        <time>2018-02-23T14:00:37Z</time>
      </trkpt>
      <trkpt lat="47.63645" lon="5.99232">
        <ele>233.32</ele>
        <time>2018-02-23T14:00:38Z</time>
      </trkpt>
      <trkpt lat="47.63642" lon="5.99237">
        <ele>233.35</ele>
        <time>2018-02-23T14:00:39Z</time>
      </trkpt>
      <trkpt lat="47.63638" lon="5.99243">
        <ele>233.39</ele>
        <time>2018-02-23T14:00:40Z</time>
      </trkpt>
      <trkpt lat="47.63635" lon="5.99248">
        <ele>233.42</ele>
        <time>2018-02-23T14:00:41Z</time>
      </trkpt>
      <trkpt lat="47.63632" lon="5.99253">
        <ele>233.46</ele>
        <time>2018-02-23T14:00:42Z</time>
      </trkpt>
      <trkpt lat="47.63629" lon="5.99258">
        <ele>233.5</ele>
        <time>2018-02-23T14:00:43Z</time>
      </trkpt>
      <trkpt lat="47.63625" lon="5.99263">
        <ele>233.55</ele>
        <time>2018-02-23T14:00:44Z</time>
      </trkpt>
      <trkpt lat="47.63622" lon="5.99268">
        <ele>233.59</ele>
        <time>2018-02-23T14:00:45Z</time>
      </trkpt>
      <trkpt lat="47.63617" lon="5.99279">
        <ele>233.68</ele>
        <time>2018-02-23T14:00:47Z</time>
      </trkpt>
      <trkpt lat="47.63614" lon="5.99284">
        <ele>233.71</ele>
        <time>2018-02-23T14:00:48Z</time>
      </trkpt>
      <trkpt lat="47.63609" lon="5.99293">
        <ele>233.79</ele>
        <time>2018-02-23T14:00:50Z</time>
      </trkpt>
      <trkpt lat="47.63603" lon="5.99303">
        <ele>233.87</ele>
        <time>2018-02-23T14:00:52Z</time>
      </trkpt>
      <trkpt lat="47.63599" lon="5.99311">
        <ele>233.9</ele>
        <time>2018-02-23T14:00:54Z</time>
      </trkpt>
      <trkpt lat="47.63594" lon="5.99319">
        <ele>234</ele>
        <time>2018-02-23T14:00:56Z</time>
      </trkpt>
      <trkpt lat="47.63588" lon="5.99328">
        <ele>234.03</ele>
        <time>2018-02-23T14:00:58Z</time>
      </trkpt>
      <trkpt lat="47.63585" lon="5.99333">
        <ele>234.08</ele>
        <time>2018-02-23T14:00:59Z</time>
      </trkpt>
      <trkpt lat="47.63582" lon="5.99339">
        <ele>234.1</ele>
        <time>2018-02-23T14:01:00Z</time>
      </trkpt>
      <trkpt lat="47.63577" lon="5.99347">
        <ele>234.18</ele>
        <time>2018-02-23T14:01:02Z</time>
      </trkpt>
      <trkpt lat="47.63571" lon="5.99355">
        <ele>234.2</ele>
        <time>2018-02-23T14:01:04Z</time>
      </trkpt>
      <trkpt lat="47.63565" lon="5.99361">
        <ele>234.23</ele>
        <time>2018-02-23T14:01:06Z</time>
      </trkpt>
      <trkpt lat="47.63558" lon="5.99366">
        <ele>234.25</ele>
        <time>2018-02-23T14:01:08Z</time>
      </trkpt>
      <trkpt lat="47.63552" lon="5.99371">
        <ele>234.27</ele>
        <time>2018-02-23T14:01:10Z</time>
      </trkpt>
      <trkpt lat="47.63547" lon="5.99376">
        <ele>234.3</ele>
        <time>2018-02-23T14:01:12Z</time>
      </trkpt>
      <trkpt lat="47.63542" lon="5.99379">
        <ele>234.32</ele>
        <time>2018-02-23T14:01:14Z</time>
      </trkpt>
      <trkpt lat="47.63536" lon="5.99383">
        <ele>234.35</ele>
        <time>2018-02-23T14:01:16Z</time>
      </trkpt>
      <trkpt lat="47.63529" lon="5.99386">
        <ele>234.38</ele>
        <time>2018-02-23T14:01:18Z</time>
      </trkpt>
      <trkpt lat="47.63523" lon="5.99389">
        <ele>234.41</ele>
        <time>2018-02-23T14:01:20Z</time>
      </trkpt>
      <trkpt lat="47.63517" lon="5.99393">
        <ele>234.44</ele>
        <time>2018-02-23T14:01:22Z</time>
      </trkpt>
      <trkpt lat="47.6351" lon="5.99397">
        <ele>234.48</ele>
        <time>2018-02-23T14:01:24Z</time>
      </trkpt>
      <trkpt lat="47.63505" lon="5.994">
        <ele>234.52</ele>
        <time>2018-02-23T14:01:26Z</time>
      </trkpt>
      <trkpt lat="47.63499" lon="5.99405">
        <ele>234.56</ele>
        <time>2018-02-23T14:01:28Z</time>
      </trkpt>
      <trkpt lat="47.63493" lon="5.9941">
        <ele>234.61</ele>
        <time>2018-02-23T14:01:30Z</time>
      </trkpt>
      <trkpt lat="47.63486" lon="5.99414">
        <ele>234.66</ele>
        <time>2018-02-23T14:01:32Z</time>
      </trkpt>
      <trkpt lat="47.6348" lon="5.9942">
        <ele>234.72</ele>
        <time>2018-02-23T14:01:34Z</time>
      </trkpt>
      <trkpt lat="47.63475" lon="5.99425">
        <ele>234.78</ele>
        <time>2018-02-23T14:01:36Z</time>
      </trkpt>
      <trkpt lat="47.6347" lon="5.9943">
        <ele>234.85</ele>
        <time>2018-02-23T14:01:38Z</time>
      </trkpt>
      <trkpt lat="47.63465" lon="5.99436">
        <ele>234.93</ele>
        <time>2018-02-23T14:01:40Z</time>
      </trkpt>
      <trkpt lat="47.6346" lon="5.99442">
        <ele>235.01</ele>
        <time>2018-02-23T14:01:42Z</time>
      </trkpt>
      <trkpt lat="47.63453" lon="5.99449">
        <ele>235.11</ele>
        <time>2018-02-23T14:01:44Z</time>
      </trkpt>
      <trkpt lat="47.63447" lon="5.99456">
        <ele>235.23</ele>
        <time>2018-02-23T14:01:46Z</time>
      </trkpt>
      <trkpt lat="47.6344" lon="5.99463">
        <ele>235.94</ele>
        <time>2018-02-23T14:01:48Z</time>
      </trkpt>
      <trkpt lat="47.63434" lon="5.99471">
        <ele>236.12</ele>
        <time>2018-02-23T14:01:50Z</time>
      </trkpt>
      <trkpt lat="47.63428" lon="5.99477">
        <ele>236.27</ele>
        <time>2018-02-23T14:01:52Z</time>
      </trkpt>
      <trkpt lat="47.63425" lon="5.99481">
        <ele>236.35</ele>
        <time>2018-02-23T14:01:53Z</time>
      </trkpt>
      <trkpt lat="47.63419" lon="5.99488">
        <ele>236.51</ele>
        <time>2018-02-23T14:01:55Z</time>
      </trkpt>
      <trkpt lat="47.63412" lon="5.99495">
        <ele>236.67</ele>
        <time>2018-02-23T14:01:57Z</time>
      </trkpt>
      <trkpt lat="47.63406" lon="5.99502">
        <ele>236.83</ele>
        <time>2018-02-23T14:01:59Z</time>
      </trkpt>
      <trkpt lat="47.63399" lon="5.99508">
        <ele>237.98</ele>
        <time>2018-02-23T14:02:01Z</time>
      </trkpt>
      <trkpt lat="47.63394" lon="5.99512">
        <ele>238.51</ele>
        <time>2018-02-23T14:02:02Z</time>
      </trkpt>
      <trkpt lat="47.63389" lon="5.99515">
        <ele>238.95</ele>
        <time>2018-02-23T14:02:03Z</time>
      </trkpt>
      <trkpt lat="47.63385" lon="5.99519">
        <ele>239.31</ele>
        <time>2018-02-23T14:02:04Z</time>
      </trkpt>
      <trkpt lat="47.63378" lon="5.99526">
        <ele>239.7</ele>
        <time>2018-02-23T14:02:06Z</time>
      </trkpt>
      <trkpt lat="47.63372" lon="5.9953">
        <ele>239.89</ele>
        <time>2018-02-23T14:02:08Z</time>
      </trkpt>
      <trkpt lat="47.63367" lon="5.99533">
        <ele>240.02</ele>
        <time>2018-02-23T14:02:09Z</time>
      </trkpt>
      <trkpt lat="47.63362" lon="5.99537">
        <ele>240.07</ele>
        <time>2018-02-23T14:02:10Z</time>
      </trkpt>
      <trkpt lat="47.63354" lon="5.99542">
        <ele>240.12</ele>
        <time>2018-02-23T14:02:12Z</time>
      </trkpt>
      <trkpt lat="47.63349" lon="5.99545">
        <ele>240.15</ele>
        <time>2018-02-23T14:02:13Z</time>
      </trkpt>
      <trkpt lat="47.63344" lon="5.99546">
        <ele>240.17</ele>
        <time>2018-02-23T14:02:14Z</time>
      </trkpt>
      <trkpt lat="47.63337" lon="5.99549">
        <ele>240.17</ele>
        <time>2018-02-23T14:02:15Z</time>
      </trkpt>
      <trkpt lat="47.6333" lon="5.99551">
        <ele>240.17</ele>
        <time>2018-02-23T14:02:16Z</time>
      </trkpt>
      <trkpt lat="47.63324" lon="5.99555">
        <ele>240.16</ele>
        <time>2018-02-23T14:02:17Z</time>
      </trkpt>
      <trkpt lat="47.63318" lon="5.99557">
        <ele>240.12</ele>
        <time>2018-02-23T14:02:18Z</time>
      </trkpt>
      <trkpt lat="47.63312" lon="5.99558">
        <ele>240.08</ele>
        <time>2018-02-23T14:02:19Z</time>
      </trkpt>
      <trkpt lat="47.63306" lon="5.99558">
        <ele>240.03</ele>
        <time>2018-02-23T14:02:20Z</time>
      </trkpt>
      <trkpt lat="47.633" lon="5.99558">
        <ele>239.98</ele>
        <time>2018-02-23T14:02:21Z</time>
      </trkpt>
      <trkpt lat="47.63294" lon="5.99558">
        <ele>239.93</ele>
        <time>2018-02-23T14:02:22Z</time>
      </trkpt>
      <trkpt lat="47.63288" lon="5.99559">
        <ele>239.87</ele>
        <time>2018-02-23T14:02:23Z</time>
      </trkpt>
      <trkpt lat="47.63283" lon="5.9956">
        <ele>239.8</ele>
        <time>2018-02-23T14:02:24Z</time>
      </trkpt>
      <trkpt lat="47.63277" lon="5.9956">
        <ele>239.74</ele>
        <time>2018-02-23T14:02:25Z</time>
      </trkpt>
      <trkpt lat="47.63271" lon="5.9956">
        <ele>239.68</ele>
        <time>2018-02-23T14:02:26Z</time>
      </trkpt>
      <trkpt lat="47.63266" lon="5.99561">
        <ele>239.63</ele>
        <time>2018-02-23T14:02:27Z</time>
      </trkpt>
      <trkpt lat="47.63261" lon="5.99562">
        <ele>239.58</ele>
        <time>2018-02-23T14:02:28Z</time>
      </trkpt>
      <trkpt lat="47.63256" lon="5.99563">
        <ele>239.53</ele>
        <time>2018-02-23T14:02:29Z</time>
      </trkpt>
      <trkpt lat="47.63251" lon="5.99563">
        <ele>239.5</ele>
        <time>2018-02-23T14:02:30Z</time>
      </trkpt>
      <trkpt lat="47.63246" lon="5.99565">
        <ele>239.47</ele>
        <time>2018-02-23T14:02:31Z</time>
      </trkpt>
      <trkpt lat="47.63241" lon="5.99566">
        <ele>239.44</ele>
        <time>2018-02-23T14:02:32Z</time>
      </trkpt>
      <trkpt lat="47.63236" lon="5.99567">
        <ele>239.42</ele>
        <time>2018-02-23T14:02:33Z</time>
      </trkpt>
      <trkpt lat="47.63231" lon="5.99568">
        <ele>239.4</ele>
        <time>2018-02-23T14:02:34Z</time>
      </trkpt>
      <trkpt lat="47.63226" lon="5.9957">
        <ele>239.37</ele>
        <time>2018-02-23T14:02:35Z</time>
      </trkpt>
      <trkpt lat="47.63221" lon="5.99571">
        <ele>239.33</ele>
        <time>2018-02-23T14:02:36Z</time>
      </trkpt>
      <trkpt lat="47.63217" lon="5.99573">
        <ele>239.3</ele>
        <time>2018-02-23T14:02:37Z</time>
      </trkpt>
      <trkpt lat="47.63212" lon="5.99575">
        <ele>239.28</ele>
        <time>2018-02-23T14:02:38Z</time>
      </trkpt>
      <trkpt lat="47.63207" lon="5.99577">
        <ele>239.25</ele>
        <time>2018-02-23T14:02:39Z</time>
      </trkpt>
      <trkpt lat="47.63202" lon="5.99579">
        <ele>239.22</ele>
        <time>2018-02-23T14:02:40Z</time>
      </trkpt>
      <trkpt lat="47.63198" lon="5.99582">
        <ele>239.21</ele>
        <time>2018-02-23T14:02:41Z</time>
      </trkpt>
      <trkpt lat="47.63194" lon="5.99585">
        <ele>239.2</ele>
        <time>2018-02-23T14:02:42Z</time>
      </trkpt>
      <trkpt lat="47.6319" lon="5.9959">
        <ele>239.19</ele>
        <time>2018-02-23T14:02:43Z</time>
      </trkpt>
      <trkpt lat="47.63185" lon="5.99595">
        <ele>239.18</ele>
        <time>2018-02-23T14:02:44Z</time>
      </trkpt>
      <trkpt lat="47.63182" lon="5.996">
        <ele>239.18</ele>
        <time>2018-02-23T14:02:45Z</time>
      </trkpt>
      <trkpt lat="47.63175" lon="5.99608">
        <ele>239.22</ele>
        <time>2018-02-23T14:02:47Z</time>
      </trkpt>
      <trkpt lat="47.63169" lon="5.99616">
        <ele>239.24</ele>
        <time>2018-02-23T14:02:49Z</time>
      </trkpt>
      <trkpt lat="47.63164" lon="5.99624">
        <ele>239.24</ele>
        <time>2018-02-23T14:02:51Z</time>
      </trkpt>
      <trkpt lat="47.6316" lon="5.99631">
        <ele>239.24</ele>
        <time>2018-02-23T14:02:53Z</time>
      </trkpt>
      <trkpt lat="47.63154" lon="5.99641">
        <ele>239.24</ele>
        <time>2018-02-23T14:02:55Z</time>
      </trkpt>
      <trkpt lat="47.63151" lon="5.99647">
        <ele>239.24</ele>
        <time>2018-02-23T14:02:56Z</time>
      </trkpt>
      <trkpt lat="47.63143" lon="5.99654">
        <ele>239.23</ele>
        <time>2018-02-23T14:02:58Z</time>
      </trkpt>
      <trkpt lat="47.63139" lon="5.99657">
        <ele>239.23</ele>
        <time>2018-02-23T14:02:59Z</time>
      </trkpt>
      <trkpt lat="47.63135" lon="5.99662">
        <ele>239.22</ele>
        <time>2018-02-23T14:03:00Z</time>
      </trkpt>
      <trkpt lat="47.63131" lon="5.99665">
        <ele>239.22</ele>
        <time>2018-02-23T14:03:01Z</time>
      </trkpt>
      <trkpt lat="47.63123" lon="5.99671">
        <ele>239.22</ele>
        <time>2018-02-23T14:03:03Z</time>
      </trkpt>
      <trkpt lat="47.63119" lon="5.99674">
        <ele>239.22</ele>
        <time>2018-02-23T14:03:04Z</time>
      </trkpt>
      <trkpt lat="47.63113" lon="5.99679">
        <ele>239.23</ele>
        <time>2018-02-23T14:03:05Z</time>
      </trkpt>
      <trkpt lat="47.63108" lon="5.99683">
        <ele>239.23</ele>
        <time>2018-02-23T14:03:06Z</time>
      </trkpt>
      <trkpt lat="47.63102" lon="5.99686">
        <ele>239.23</ele>
        <time>2018-02-23T14:03:08Z</time>
      </trkpt>
      <trkpt lat="47.63098" lon="5.9969">
        <ele>239.23</ele>
        <time>2018-02-23T14:03:10Z</time>
      </trkpt>
      <trkpt lat="47.63094" lon="5.99694">
        <ele>239.25</ele>
        <time>2018-02-23T14:03:12Z</time>
      </trkpt>
      <trkpt lat="47.63087" lon="5.99698">
        <ele>239.26</ele>
        <time>2018-02-23T14:03:14Z</time>
      </trkpt>
      <trkpt lat="47.63083" lon="5.997">
        <ele>239.27</ele>
        <time>2018-02-23T14:03:15Z</time>
      </trkpt>
      <trkpt lat="47.63078" lon="5.99704">
        <ele>239.28</ele>
        <time>2018-02-23T14:03:16Z</time>
      </trkpt>
      <trkpt lat="47.63072" lon="5.99706">
        <ele>239.31</ele>
        <time>2018-02-23T14:03:18Z</time>
      </trkpt>
      <trkpt lat="47.63066" lon="5.99713">
        <ele>239.34</ele>
        <time>2018-02-23T14:03:20Z</time>
      </trkpt>
      <trkpt lat="47.6306" lon="5.99718">
        <ele>239.37</ele>
        <time>2018-02-23T14:03:22Z</time>
      </trkpt>
      <trkpt lat="47.63054" lon="5.99722">
        <ele>239.41</ele>
        <time>2018-02-23T14:03:24Z</time>
      </trkpt>
      <trkpt lat="47.63049" lon="5.99726">
        <ele>239.44</ele>
        <time>2018-02-23T14:03:26Z</time>
      </trkpt>
      <trkpt lat="47.63043" lon="5.99728">
        <ele>239.48</ele>
        <time>2018-02-23T14:03:29Z</time>
      </trkpt>
      <trkpt lat="47.63038" lon="5.9973">
        <ele>239.52</ele>
        <time>2018-02-23T14:03:31Z</time>
      </trkpt>
      <trkpt lat="47.63032" lon="5.99732">
        <ele>239.55</ele>
        <time>2018-02-23T14:03:33Z</time>
      </trkpt>
      <trkpt lat="47.63026" lon="5.99735">
        <ele>239.58</ele>
        <time>2018-02-23T14:03:35Z</time>
      </trkpt>
      <trkpt lat="47.6302" lon="5.99738">
        <ele>239.6</ele>
        <time>2018-02-23T14:03:36Z</time>
      </trkpt>
      <trkpt lat="47.63015" lon="5.9974">
        <ele>239.61</ele>
        <time>2018-02-23T14:03:37Z</time>
      </trkpt>
      <trkpt lat="47.6301" lon="5.99743">
        <ele>239.63</ele>
        <time>2018-02-23T14:03:38Z</time>
      </trkpt>
      <trkpt lat="47.63005" lon="5.99745">
        <ele>239.64</ele>
        <time>2018-02-23T14:03:39Z</time>
      </trkpt>
      <trkpt lat="47.63001" lon="5.99747">
        <ele>239.66</ele>
        <time>2018-02-23T14:03:40Z</time>
      </trkpt>
      <trkpt lat="47.62996" lon="5.99749">
        <ele>239.67</ele>
        <time>2018-02-23T14:03:41Z</time>
      </trkpt>
      <trkpt lat="47.62991" lon="5.99751">
        <ele>239.69</ele>
        <time>2018-02-23T14:03:42Z</time>
      </trkpt>
      <trkpt lat="47.62986" lon="5.99754">
        <ele>239.7</ele>
        <time>2018-02-23T14:03:43Z</time>
      </trkpt>
      <trkpt lat="47.62981" lon="5.99757">
        <ele>239.72</ele>
        <time>2018-02-23T14:03:44Z</time>
      </trkpt>
      <trkpt lat="47.62977" lon="5.99761">
        <ele>239.73</ele>
        <time>2018-02-23T14:03:45Z</time>
      </trkpt>
      <trkpt lat="47.62972" lon="5.99765">
        <ele>239.75</ele>
        <time>2018-02-23T14:03:46Z</time>
      </trkpt>
      <trkpt lat="47.62968" lon="5.99768">
        <ele>239.76</ele>
        <time>2018-02-23T14:03:47Z</time>
      </trkpt>
      <trkpt lat="47.6296" lon="5.99773">
        <ele>239.87</ele>
        <time>2018-02-23T14:03:49Z</time>
      </trkpt>
      <trkpt lat="47.62954" lon="5.99775">
        <ele>239.98</ele>
        <time>2018-02-23T14:03:50Z</time>
      </trkpt>
      <trkpt lat="47.62948" lon="5.99777">
        <ele>240.02</ele>
        <time>2018-02-23T14:03:51Z</time>
      </trkpt>
      <trkpt lat="47.62943" lon="5.99778">
        <ele>240.04</ele>
        <time>2018-02-23T14:03:52Z</time>
      </trkpt>
      <trkpt lat="47.62934" lon="5.99785">
        <ele>240.11</ele>
        <time>2018-02-23T14:03:54Z</time>
      </trkpt>
      <trkpt lat="47.62928" lon="5.99787">
        <ele>240.14</ele>
        <time>2018-02-23T14:03:55Z</time>
      </trkpt>
      <trkpt lat="47.62924" lon="5.99789">
        <ele>240.19</ele>
        <time>2018-02-23T14:03:56Z</time>
      </trkpt>
      <trkpt lat="47.62918" lon="5.99789">
        <ele>240.22</ele>
        <time>2018-02-23T14:03:57Z</time>
      </trkpt>
      <trkpt lat="47.6291" lon="5.99792">
        <ele>240.23</ele>
        <time>2018-02-23T14:03:59Z</time>
      </trkpt>
      <trkpt lat="47.62902" lon="5.99797">
        <ele>240.25</ele>
        <time>2018-02-23T14:04:01Z</time>
      </trkpt>
      <trkpt lat="47.62897" lon="5.99795">
        <ele>240.29</ele>
        <time>2018-02-23T14:04:02Z</time>
      </trkpt>
      <trkpt lat="47.62889" lon="5.99796">
        <ele>240.34</ele>
        <time>2018-02-23T14:04:03Z</time>
      </trkpt>
      <trkpt lat="47.6288" lon="5.99798">
        <ele>240.38</ele>
        <time>2018-02-23T14:04:04Z</time>
      </trkpt>
      <trkpt lat="47.62874" lon="5.998">
        <ele>240.42</ele>
        <time>2018-02-23T14:04:05Z</time>
      </trkpt>
      <trkpt lat="47.62868" lon="5.99803">
        <ele>240.45</ele>
        <time>2018-02-23T14:04:06Z</time>
      </trkpt>
      <trkpt lat="47.62861" lon="5.99807">
        <ele>240.48</ele>
        <time>2018-02-23T14:04:07Z</time>
      </trkpt>
      <trkpt lat="47.62854" lon="5.9981">
        <ele>240.5</ele>
        <time>2018-02-23T14:04:08Z</time>
      </trkpt>
      <trkpt lat="47.62849" lon="5.99812">
        <ele>240.51</ele>
        <time>2018-02-23T14:04:09Z</time>
      </trkpt>
      <trkpt lat="47.62842" lon="5.99814">
        <ele>240.53</ele>
        <time>2018-02-23T14:04:10Z</time>
      </trkpt>
      <trkpt lat="47.62831" lon="5.99816">
        <ele>240.55</ele>
        <time>2018-02-23T14:04:12Z</time>
      </trkpt>
      <trkpt lat="47.62826" lon="5.99817">
        <ele>240.56</ele>
        <time>2018-02-23T14:04:13Z</time>
      </trkpt>
      <trkpt lat="47.6282" lon="5.99817">
        <ele>240.56</ele>
        <time>2018-02-23T14:04:14Z</time>
      </trkpt>
      <trkpt lat="47.62816" lon="5.99819">
        <ele>240.57</ele>
        <time>2018-02-23T14:04:15Z</time>
      </trkpt>
      <trkpt lat="47.62811" lon="5.9982">
        <ele>240.57</ele>
        <time>2018-02-23T14:04:16Z</time>
      </trkpt>
      <trkpt lat="47.62805" lon="5.99822">
        <ele>240.57</ele>
        <time>2018-02-23T14:04:17Z</time>
      </trkpt>
      <trkpt lat="47.62796" lon="5.99822">
        <ele>240.58</ele>
        <time>2018-02-23T14:04:18Z</time>
      </trkpt>
      <trkpt lat="47.62786" lon="5.99822">
        <ele>240.59</ele>
        <time>2018-02-23T14:04:19Z</time>
      </trkpt>
      <trkpt lat="47.62779" lon="5.99824">
        <ele>240.6</ele>
        <time>2018-02-23T14:04:20Z</time>
      </trkpt>
      <trkpt lat="47.62772" lon="5.99827">
        <ele>240.61</ele>
        <time>2018-02-23T14:04:21Z</time>
      </trkpt>
      <trkpt lat="47.62767" lon="5.99828">
        <ele>240.61</ele>
        <time>2018-02-23T14:04:22Z</time>
      </trkpt>
      <trkpt lat="47.6276" lon="5.99831">
        <ele>240.62</ele>
        <time>2018-02-23T14:04:23Z</time>
      </trkpt>
      <trkpt lat="47.62755" lon="5.99835">
        <ele>240.62</ele>
        <time>2018-02-23T14:04:24Z</time>
      </trkpt>
      <trkpt lat="47.62751" lon="5.9984">
        <ele>240.63</ele>
        <time>2018-02-23T14:04:25Z</time>
      </trkpt>
      <trkpt lat="47.62746" lon="5.99845">
        <ele>240.63</ele>
        <time>2018-02-23T14:04:26Z</time>
      </trkpt>
      <trkpt lat="47.62742" lon="5.9985">
        <ele>240.63</ele>
        <time>2018-02-23T14:04:27Z</time>
      </trkpt>
      <trkpt lat="47.62738" lon="5.99855">
        <ele>240.64</ele>
        <time>2018-02-23T14:04:28Z</time>
      </trkpt>
      <trkpt lat="47.62734" lon="5.99861">
        <ele>240.64</ele>
        <time>2018-02-23T14:04:29Z</time>
      </trkpt>
      <trkpt lat="47.62731" lon="5.99867">
        <ele>240.65</ele>
        <time>2018-02-23T14:04:30Z</time>
      </trkpt>
      <trkpt lat="47.62725" lon="5.99877">
        <ele>240.65</ele>
        <time>2018-02-23T14:04:32Z</time>
      </trkpt>
      <trkpt lat="47.62723" lon="5.99883">
        <ele>240.66</ele>
        <time>2018-02-23T14:04:33Z</time>
      </trkpt>
      <trkpt lat="47.62718" lon="5.99889">
        <ele>240.66</ele>
        <time>2018-02-23T14:04:34Z</time>
      </trkpt>
      <trkpt lat="47.62715" lon="5.99896">
        <ele>240.66</ele>
        <time>2018-02-23T14:04:35Z</time>
      </trkpt>
      <trkpt lat="47.6271" lon="5.99903">
        <ele>240.66</ele>
        <time>2018-02-23T14:04:36Z</time>
      </trkpt>
      <trkpt lat="47.62705" lon="5.99912">
        <ele>240.65</ele>
        <time>2018-02-23T14:04:37Z</time>
      </trkpt>
      <trkpt lat="47.627" lon="5.99919">
        <ele>240.65</ele>
        <time>2018-02-23T14:04:38Z</time>
      </trkpt>
      <trkpt lat="47.62694" lon="5.99927">
        <ele>240.65</ele>
        <time>2018-02-23T14:04:39Z</time>
      </trkpt>
      <trkpt lat="47.6269" lon="5.99933">
        <ele>240.65</ele>
        <time>2018-02-23T14:04:40Z</time>
      </trkpt>
      <trkpt lat="47.62685" lon="5.99941">
        <ele>240.64</ele>
        <time>2018-02-23T14:04:41Z</time>
      </trkpt>
      <trkpt lat="47.62682" lon="5.99946">
        <ele>240.64</ele>
        <time>2018-02-23T14:04:42Z</time>
      </trkpt>
      <trkpt lat="47.62679" lon="5.99951">
        <ele>240.64</ele>
        <time>2018-02-23T14:04:43Z</time>
      </trkpt>
      <trkpt lat="47.62672" lon="5.9996">
        <ele>240.63</ele>
        <time>2018-02-23T14:04:45Z</time>
      </trkpt>
      <trkpt lat="47.62667" lon="5.99969">
        <ele>240.63</ele>
        <time>2018-02-23T14:04:47Z</time>
      </trkpt>
      <trkpt lat="47.62663" lon="5.99979">
        <ele>240.62</ele>
        <time>2018-02-23T14:04:49Z</time>
      </trkpt>
      <trkpt lat="47.62654" lon="5.9999">
        <ele>240.62</ele>
        <time>2018-02-23T14:04:51Z</time>
      </trkpt>
      <trkpt lat="47.62648" lon="5.99995">
        <ele>240.61</ele>
        <time>2018-02-23T14:04:52Z</time>
      </trkpt>
      <trkpt lat="47.62644" lon="5.99999">
        <ele>240.61</ele>
        <time>2018-02-23T14:04:53Z</time>
      </trkpt>
      <trkpt lat="47.6264" lon="6.00003">
        <ele>240.61</ele>
        <time>2018-02-23T14:04:54Z</time>
      </trkpt>
      <trkpt lat="47.62634" lon="6.00008">
        <ele>240.6</ele>
        <time>2018-02-23T14:04:55Z</time>
      </trkpt>
      <trkpt lat="47.62628" lon="6.00012">
        <ele>240.6</ele>
        <time>2018-02-23T14:04:56Z</time>
      </trkpt>
      <trkpt lat="47.62623" lon="6.00016">
        <ele>240.59</ele>
        <time>2018-02-23T14:04:57Z</time>
      </trkpt>
      <trkpt lat="47.62618" lon="6.00019">
        <ele>240.59</ele>
        <time>2018-02-23T14:04:58Z</time>
      </trkpt>
      <trkpt lat="47.62614" lon="6.00021">
        <ele>240.55</ele>
        <time>2018-02-23T14:04:59Z</time>
      </trkpt>
      <trkpt lat="47.62608" lon="6.00024">
        <ele>240.54</ele>
        <time>2018-02-23T14:05:00Z</time>
      </trkpt>
      <trkpt lat="47.62602" lon="6.00028">
        <ele>240.53</ele>
        <time>2018-02-23T14:05:02Z</time>
      </trkpt>
      <trkpt lat="47.62595" lon="6.00032">
        <ele>240.52</ele>
        <time>2018-02-23T14:05:04Z</time>
      </trkpt>
      <trkpt lat="47.62587" lon="6.0004">
        <ele>240.51</ele>
        <time>2018-02-23T14:05:06Z</time>
      </trkpt>
      <trkpt lat="47.62583" lon="6.00043">
        <ele>240.51</ele>
        <time>2018-02-23T14:05:07Z</time>
      </trkpt>
      <trkpt lat="47.62576" lon="6.00049">
        <ele>240.5</ele>
        <time>2018-02-23T14:05:09Z</time>
      </trkpt>
      <trkpt lat="47.62571" lon="6.00052">
        <ele>240.49</ele>
        <time>2018-02-23T14:05:10Z</time>
      </trkpt>
      <trkpt lat="47.62566" lon="6.00055">
        <ele>240.49</ele>
        <time>2018-02-23T14:05:11Z</time>
      </trkpt>
      <trkpt lat="47.6256" lon="6.00061">
        <ele>240.48</ele>
        <time>2018-02-23T14:05:13Z</time>
      </trkpt>
      <trkpt lat="47.62553" lon="6.00063">
        <ele>240.47</ele>
        <time>2018-02-23T14:05:15Z</time>
      </trkpt>
      <trkpt lat="47.62547" lon="6.00068">
        <ele>240.46</ele>
        <time>2018-02-23T14:05:17Z</time>
      </trkpt>
      <trkpt lat="47.6254" lon="6.00072">
        <ele>240.45</ele>
        <time>2018-02-23T14:05:19Z</time>
      </trkpt>
      <trkpt lat="47.62535" lon="6.00076">
        <ele>240.44</ele>
        <time>2018-02-23T14:05:21Z</time>
      </trkpt>
      <trkpt lat="47.62528" lon="6.00081">
        <ele>240.44</ele>
        <time>2018-02-23T14:05:23Z</time>
      </trkpt>
      <trkpt lat="47.62521" lon="6.00087">
        <ele>240.43</ele>
        <time>2018-02-23T14:05:25Z</time>
      </trkpt>
      <trkpt lat="47.62515" lon="6.00091">
        <ele>240.42</ele>
        <time>2018-02-23T14:05:27Z</time>
      </trkpt>
      <trkpt lat="47.62511" lon="6.00094">
        <ele>240.42</ele>
        <time>2018-02-23T14:05:28Z</time>
      </trkpt>
      <trkpt lat="47.62504" lon="6.001">
        <ele>240.41</ele>
        <time>2018-02-23T14:05:30Z</time>
      </trkpt>
      <trkpt lat="47.62497" lon="6.00104">
        <ele>240.39</ele>
        <time>2018-02-23T14:05:32Z</time>
      </trkpt>
      <trkpt lat="47.6249" lon="6.00109">
        <ele>240.37</ele>
        <time>2018-02-23T14:05:34Z</time>
      </trkpt>
      <trkpt lat="47.62485" lon="6.00111">
        <ele>240.37</ele>
        <time>2018-02-23T14:05:35Z</time>
      </trkpt>
      <trkpt lat="47.62479" lon="6.00116">
        <ele>240.37</ele>
        <time>2018-02-23T14:05:37Z</time>
      </trkpt>
      <trkpt lat="47.62471" lon="6.00121">
        <ele>240.36</ele>
        <time>2018-02-23T14:05:39Z</time>
      </trkpt>
      <trkpt lat="47.62465" lon="6.00125">
        <ele>240.36</ele>
        <time>2018-02-23T14:05:41Z</time>
      </trkpt>
      <trkpt lat="47.62459" lon="6.0013">
        <ele>240.36</ele>
        <time>2018-02-23T14:05:43Z</time>
      </trkpt>
      <trkpt lat="47.62453" lon="6.00134">
        <ele>240.36</ele>
        <time>2018-02-23T14:05:45Z</time>
      </trkpt>
      <trkpt lat="47.62448" lon="6.00138">
        <ele>240.36</ele>
        <time>2018-02-23T14:05:47Z</time>
      </trkpt>
      <trkpt lat="47.62444" lon="6.00141">
        <ele>240.37</ele>
        <time>2018-02-23T14:05:49Z</time>
      </trkpt>
      <trkpt lat="47.6244" lon="6.00146">
        <ele>240.37</ele>
        <time>2018-02-23T14:05:51Z</time>
      </trkpt>
      <trkpt lat="47.62435" lon="6.00148">
        <ele>240.38</ele>
        <time>2018-02-23T14:05:53Z</time>
      </trkpt>
      <trkpt lat="47.62431" lon="6.00152">
        <ele>240.38</ele>
        <time>2018-02-23T14:05:55Z</time>
      </trkpt>
      <trkpt lat="47.62426" lon="6.00156">
        <ele>240.39</ele>
        <time>2018-02-23T14:05:57Z</time>
      </trkpt>
      <trkpt lat="47.62421" lon="6.00159">
        <ele>240.4</ele>
        <time>2018-02-23T14:05:59Z</time>
      </trkpt>
      <trkpt lat="47.62416" lon="6.00163">
        <ele>240.41</ele>
        <time>2018-02-23T14:06:01Z</time>
      </trkpt>
      <trkpt lat="47.62412" lon="6.00166">
        <ele>240.42</ele>
        <time>2018-02-23T14:06:03Z</time>
      </trkpt>
      <trkpt lat="47.62405" lon="6.0017">
        <ele>240.43</ele>
        <time>2018-02-23T14:06:05Z</time>
      </trkpt>
      <trkpt lat="47.62399" lon="6.00173">
        <ele>240.44</ele>
        <time>2018-02-23T14:06:07Z</time>
      </trkpt>
      <trkpt lat="47.62393" lon="6.00177">
        <ele>240.45</ele>
        <time>2018-02-23T14:06:10Z</time>
      </trkpt>
      <trkpt lat="47.62388" lon="6.00179">
        <ele>240.46</ele>
        <time>2018-02-23T14:06:13Z</time>
      </trkpt>
      <trkpt lat="47.62384" lon="6.00182">
        <ele>240.47</ele>
        <time>2018-02-23T14:06:15Z</time>
      </trkpt>
      <trkpt lat="47.62379" lon="6.00185">
        <ele>240.48</ele>
        <time>2018-02-23T14:06:17Z</time>
      </trkpt>
      <trkpt lat="47.62375" lon="6.00188">
        <ele>240.5</ele>
        <time>2018-02-23T14:06:19Z</time>
      </trkpt>
      <trkpt lat="47.6237" lon="6.00191">
        <ele>240.51</ele>
        <time>2018-02-23T14:06:21Z</time>
      </trkpt>
      <trkpt lat="47.62366" lon="6.00195">
        <ele>240.52</ele>
        <time>2018-02-23T14:06:23Z</time>
      </trkpt>
      <trkpt lat="47.62362" lon="6.00198">
        <ele>240.53</ele>
        <time>2018-02-23T14:06:25Z</time>
      </trkpt>
      <trkpt lat="47.62357" lon="6.00202">
        <ele>240.55</ele>
        <time>2018-02-23T14:06:27Z</time>
      </trkpt>
      <trkpt lat="47.62352" lon="6.00205">
        <ele>240.56</ele>
        <time>2018-02-23T14:06:29Z</time>
      </trkpt>
      <trkpt lat="47.62346" lon="6.00209">
        <ele>240.58</ele>
        <time>2018-02-23T14:06:31Z</time>
      </trkpt>
      <trkpt lat="47.62341" lon="6.00213">
        <ele>240.59</ele>
        <time>2018-02-23T14:06:33Z</time>
      </trkpt>
      <trkpt lat="47.62336" lon="6.00217">
        <ele>240.61</ele>
        <time>2018-02-23T14:06:35Z</time>
      </trkpt>
      <trkpt lat="47.62328" lon="6.00222">
        <ele>240.62</ele>
        <time>2018-02-23T14:06:37Z</time>
      </trkpt>
      <trkpt lat="47.62322" lon="6.00226">
        <ele>240.64</ele>
        <time>2018-02-23T14:06:39Z</time>
      </trkpt>
      <trkpt lat="47.62315" lon="6.00229">
        <ele>240.66</ele>
        <time>2018-02-23T14:06:41Z</time>
      </trkpt>
      <trkpt lat="47.6231" lon="6.00232">
        <ele>240.67</ele>
        <time>2018-02-23T14:06:43Z</time>
      </trkpt>
      <trkpt lat="47.62304" lon="6.00235">
        <ele>240.69</ele>
        <time>2018-02-23T14:06:45Z</time>
      </trkpt>
      <trkpt lat="47.62298" lon="6.00238">
        <ele>240.71</ele>
        <time>2018-02-23T14:06:47Z</time>
      </trkpt>
      <trkpt lat="47.62292" lon="6.0024">
        <ele>240.73</ele>
        <time>2018-02-23T14:06:49Z</time>
      </trkpt>
      <trkpt lat="47.62287" lon="6.00242">
        <ele>240.75</ele>
        <time>2018-02-23T14:06:51Z</time>
      </trkpt>
      <trkpt lat="47.62282" lon="6.00246">
        <ele>240.78</ele>
        <time>2018-02-23T14:06:53Z</time>
      </trkpt>
      <trkpt lat="47.62277" lon="6.0025">
        <ele>240.8</ele>
        <time>2018-02-23T14:06:55Z</time>
      </trkpt>
      <trkpt lat="47.6227" lon="6.00251">
        <ele>240.82</ele>
        <time>2018-02-23T14:06:57Z</time>
      </trkpt>
      <trkpt lat="47.62264" lon="6.00252">
        <ele>240.85</ele>
        <time>2018-02-23T14:06:59Z</time>
      </trkpt>
      <trkpt lat="47.62258" lon="6.00254">
        <ele>240.88</ele>
        <time>2018-02-23T14:07:01Z</time>
      </trkpt>
      <trkpt lat="47.62252" lon="6.00257">
        <ele>240.92</ele>
        <time>2018-02-23T14:07:04Z</time>
      </trkpt>
      <trkpt lat="47.62245" lon="6.00261">
        <ele>240.95</ele>
        <time>2018-02-23T14:07:06Z</time>
      </trkpt>
      <trkpt lat="47.62239" lon="6.00263">
        <ele>240.98</ele>
        <time>2018-02-23T14:07:08Z</time>
      </trkpt>
      <trkpt lat="47.62232" lon="6.00266">
        <ele>241.01</ele>
        <time>2018-02-23T14:07:10Z</time>
      </trkpt>
      <trkpt lat="47.62227" lon="6.00269">
        <ele>241.04</ele>
        <time>2018-02-23T14:07:12Z</time>
      </trkpt>
      <trkpt lat="47.62221" lon="6.00271">
        <ele>241.08</ele>
        <time>2018-02-23T14:07:15Z</time>
      </trkpt>
      <trkpt lat="47.62214" lon="6.00271">
        <ele>241.11</ele>
        <time>2018-02-23T14:07:17Z</time>
      </trkpt>
      <trkpt lat="47.62207" lon="6.00272">
        <ele>241.13</ele>
        <time>2018-02-23T14:07:19Z</time>
      </trkpt>
      <trkpt lat="47.622" lon="6.00274">
        <ele>241.16</ele>
        <time>2018-02-23T14:07:21Z</time>
      </trkpt>
      <trkpt lat="47.62194" lon="6.00275">
        <ele>241.19</ele>
        <time>2018-02-23T14:07:23Z</time>
      </trkpt>
      <trkpt lat="47.62189" lon="6.00276">
        <ele>241.23</ele>
        <time>2018-02-23T14:07:25Z</time>
      </trkpt>
      <trkpt lat="47.62183" lon="6.00278">
        <ele>241.26</ele>
        <time>2018-02-23T14:07:27Z</time>
      </trkpt>
      <trkpt lat="47.62177" lon="6.0028">
        <ele>241.29</ele>
        <time>2018-02-23T14:07:29Z</time>
      </trkpt>
      <trkpt lat="47.62171" lon="6.00283">
        <ele>241.33</ele>
        <time>2018-02-23T14:07:31Z</time>
      </trkpt>
      <trkpt lat="47.62165" lon="6.00285">
        <ele>241.37</ele>
        <time>2018-02-23T14:07:33Z</time>
      </trkpt>
      <trkpt lat="47.6216" lon="6.00286">
        <ele>241.4</ele>
        <time>2018-02-23T14:07:35Z</time>
      </trkpt>
      <trkpt lat="47.62154" lon="6.00288">
        <ele>241.44</ele>
        <time>2018-02-23T14:07:37Z</time>
      </trkpt>
      <trkpt lat="47.62147" lon="6.0029">
        <ele>241.49</ele>
        <time>2018-02-23T14:07:39Z</time>
      </trkpt>
      <trkpt lat="47.62136" lon="6.00294">
        <ele>241.54</ele>
        <time>2018-02-23T14:07:42Z</time>
      </trkpt>
      <trkpt lat="47.62131" lon="6.00296">
        <ele>241.59</ele>
        <time>2018-02-23T14:07:44Z</time>
      </trkpt>
      <trkpt lat="47.62126" lon="6.00297">
        <ele>241.63</ele>
        <time>2018-02-23T14:07:46Z</time>
      </trkpt>
      <trkpt lat="47.6212" lon="6.00298">
        <ele>241.67</ele>
        <time>2018-02-23T14:07:48Z</time>
      </trkpt>
      <trkpt lat="47.62113" lon="6.00299">
        <ele>241.71</ele>
        <time>2018-02-23T14:07:50Z</time>
      </trkpt>
      <trkpt lat="47.62108" lon="6.003">
        <ele>241.76</ele>
        <time>2018-02-23T14:07:52Z</time>
      </trkpt>
      <trkpt lat="47.62103" lon="6.00303">
        <ele>241.8</ele>
        <time>2018-02-23T14:07:54Z</time>
      </trkpt>
      <trkpt lat="47.62098" lon="6.00305">
        <ele>241.85</ele>
        <time>2018-02-23T14:07:56Z</time>
      </trkpt>
      <trkpt lat="47.62093" lon="6.00306">
        <ele>241.89</ele>
        <time>2018-02-23T14:07:58Z</time>
      </trkpt>
      <trkpt lat="47.62085" lon="6.00309">
        <ele>241.93</ele>
        <time>2018-02-23T14:08:00Z</time>
      </trkpt>
      <trkpt lat="47.62078" lon="6.00312">
        <ele>241.98</ele>
        <time>2018-02-23T14:08:02Z</time>
      </trkpt>
      <trkpt lat="47.62073" lon="6.00312">
        <ele>242</ele>
        <time>2018-02-23T14:08:03Z</time>
      </trkpt>
      <trkpt lat="47.62068" lon="6.00314">
        <ele>242.02</ele>
        <time>2018-02-23T14:08:04Z</time>
      </trkpt>
      <trkpt lat="47.62064" lon="6.00316">
        <ele>242.04</ele>
        <time>2018-02-23T14:08:05Z</time>
      </trkpt>
      <trkpt lat="47.62058" lon="6.00317">
        <ele>242.08</ele>
        <time>2018-02-23T14:08:07Z</time>
      </trkpt>
      <trkpt lat="47.62052" lon="6.00318">
        <ele>242.13</ele>
        <time>2018-02-23T14:08:09Z</time>
      </trkpt>
      <trkpt lat="47.62046" lon="6.00321">
        <ele>242.17</ele>
        <time>2018-02-23T14:08:11Z</time>
      </trkpt>
      <trkpt lat="47.62039" lon="6.00322">
        <ele>242.21</ele>
        <time>2018-02-23T14:08:13Z</time>
      </trkpt>
      <trkpt lat="47.62033" lon="6.00324">
        <ele>242.26</ele>
        <time>2018-02-23T14:08:15Z</time>
      </trkpt>
      <trkpt lat="47.62028" lon="6.00326">
        <ele>242.28</ele>
        <time>2018-02-23T14:08:16Z</time>
      </trkpt>
      <trkpt lat="47.6202" lon="6.00327">
        <ele>242.32</ele>
        <time>2018-02-23T14:08:18Z</time>
      </trkpt>
      <trkpt lat="47.62015" lon="6.00328">
        <ele>242.34</ele>
        <time>2018-02-23T14:08:19Z</time>
      </trkpt>
      <trkpt lat="47.62006" lon="6.0033">
        <ele>242.38</ele>
        <time>2018-02-23T14:08:21Z</time>
      </trkpt>
      <trkpt lat="47.62002" lon="6.00331">
        <ele>242.4</ele>
        <time>2018-02-23T14:08:22Z</time>
      </trkpt>
      <trkpt lat="47.61996" lon="6.00333">
        <ele>242.43</ele>
        <time>2018-02-23T14:08:23Z</time>
      </trkpt>
      <trkpt lat="47.61987" lon="6.00334">
        <ele>242.45</ele>
        <time>2018-02-23T14:08:24Z</time>
      </trkpt>
      <trkpt lat="47.61983" lon="6.00334">
        <ele>242.47</ele>
        <time>2018-02-23T14:08:25Z</time>
      </trkpt>
      <trkpt lat="47.61976" lon="6.00332">
        <ele>242.49</ele>
        <time>2018-02-23T14:08:26Z</time>
      </trkpt>
      <trkpt lat="47.6197" lon="6.00332">
        <ele>242.51</ele>
        <time>2018-02-23T14:08:27Z</time>
      </trkpt>
      <trkpt lat="47.61963" lon="6.00333">
        <ele>242.67</ele>
        <time>2018-02-23T14:08:28Z</time>
      </trkpt>
      <trkpt lat="47.61955" lon="6.00332">
        <ele>242.84</ele>
        <time>2018-02-23T14:08:29Z</time>
      </trkpt>
      <trkpt lat="47.61948" lon="6.00331">
        <ele>243</ele>
        <time>2018-02-23T14:08:30Z</time>
      </trkpt>
      <trkpt lat="47.61941" lon="6.00332">
        <ele>243.05</ele>
        <time>2018-02-23T14:08:31Z</time>
      </trkpt>
      <trkpt lat="47.61933" lon="6.0033">
        <ele>243.09</ele>
        <time>2018-02-23T14:08:33Z</time>
      </trkpt>
      <trkpt lat="47.61929" lon="6.00326">
        <ele>243.12</ele>
        <time>2018-02-23T14:08:35Z</time>
      </trkpt>
      <trkpt lat="47.61925" lon="6.00321">
        <ele>243.15</ele>
        <time>2018-02-23T14:08:38Z</time>
      </trkpt>
      <trkpt lat="47.6192" lon="6.00318">
        <ele>243.22</ele>
        <time>2018-02-23T14:09:13Z</time>
      </trkpt>
      <trkpt lat="47.61916" lon="6.00319">
        <ele>243.62</ele>
        <time>2018-02-23T14:13:06Z</time>
      </trkpt>
      <trkpt lat="47.61912" lon="6.00323">
        <ele>243.91</ele>
        <time>2018-02-23T14:17:02Z</time>
      </trkpt>
      <trkpt lat="47.61908" lon="6.00327">
        <ele>243.9</ele>
        <time>2018-02-23T14:17:08Z</time>
      </trkpt>
      <trkpt lat="47.61907" lon="6.00334">
        <ele>243.89</ele>
        <time>2018-02-23T14:17:12Z</time>
      </trkpt>
      <trkpt lat="47.61907" lon="6.0034">
        <ele>243.83</ele>
        <time>2018-02-23T14:18:20Z</time>
      </trkpt>
      <trkpt lat="47.61902" lon="6.00342">
        <ele>243.79</ele>
        <time>2018-02-23T14:18:32Z</time>
      </trkpt>
      <trkpt lat="47.61896" lon="6.00338">
        <ele>243.77</ele>
        <time>2018-02-23T14:18:35Z</time>
      </trkpt>
      <trkpt lat="47.6189" lon="6.00336">
        <ele>243.77</ele>
        <time>2018-02-23T14:18:37Z</time>
      </trkpt>
      <trkpt lat="47.61884" lon="6.00333">
        <ele>243.76</ele>
        <time>2018-02-23T14:18:39Z</time>
      </trkpt>
      <trkpt lat="47.61879" lon="6.0033">
        <ele>243.75</ele>
        <time>2018-02-23T14:18:41Z</time>
      </trkpt>
      <trkpt lat="47.61873" lon="6.00327">
        <ele>243.75</ele>
        <time>2018-02-23T14:18:43Z</time>
      </trkpt>
      <trkpt lat="47.61867" lon="6.00321">
        <ele>243.74</ele>
        <time>2018-02-23T14:18:45Z</time>
      </trkpt>
      <trkpt lat="47.6186" lon="6.00318">
        <ele>243.71</ele>
        <time>2018-02-23T14:18:47Z</time>
      </trkpt>
      <trkpt lat="47.61852" lon="6.00316">
        <ele>243.63</ele>
        <time>2018-02-23T14:18:49Z</time>
      </trkpt>
      <trkpt lat="47.61844" lon="6.00313">
        <ele>243.55</ele>
        <time>2018-02-23T14:18:51Z</time>
      </trkpt>
      <trkpt lat="47.61836" lon="6.0031">
        <ele>243.47</ele>
        <time>2018-02-23T14:18:53Z</time>
      </trkpt>
      <trkpt lat="47.61831" lon="6.00309">
        <ele>243.44</ele>
        <time>2018-02-23T14:18:54Z</time>
      </trkpt>
      <trkpt lat="47.61826" lon="6.00307">
        <ele>243.41</ele>
        <time>2018-02-23T14:18:55Z</time>
      </trkpt>
      <trkpt lat="47.61821" lon="6.00306">
        <ele>243.38</ele>
        <time>2018-02-23T14:18:56Z</time>
      </trkpt>
      <trkpt lat="47.61812" lon="6.00304">
        <ele>243.34</ele>
        <time>2018-02-23T14:18:58Z</time>
      </trkpt>
      <trkpt lat="47.61804" lon="6.00301">
        <ele>243.28</ele>
        <time>2018-02-23T14:19:01Z</time>
      </trkpt>
      <trkpt lat="47.61795" lon="6.00299">
        <ele>243.23</ele>
        <time>2018-02-23T14:19:03Z</time>
      </trkpt>
      <trkpt lat="47.61791" lon="6.00297">
        <ele>243.2</ele>
        <time>2018-02-23T14:19:04Z</time>
      </trkpt>
      <trkpt lat="47.61782" lon="6.00295">
        <ele>243.16</ele>
        <time>2018-02-23T14:19:06Z</time>
      </trkpt>
      <trkpt lat="47.61774" lon="6.00293">
        <ele>243.11</ele>
        <time>2018-02-23T14:19:08Z</time>
      </trkpt>
      <trkpt lat="47.6177" lon="6.00292">
        <ele>243.08</ele>
        <time>2018-02-23T14:19:09Z</time>
      </trkpt>
      <trkpt lat="47.61765" lon="6.0029">
        <ele>243.04</ele>
        <time>2018-02-23T14:19:10Z</time>
      </trkpt>
      <trkpt lat="47.61756" lon="6.00288">
        <ele>242.99</ele>
        <time>2018-02-23T14:19:12Z</time>
      </trkpt>
      <trkpt lat="47.61748" lon="6.00286">
        <ele>242.95</ele>
        <time>2018-02-23T14:19:14Z</time>
      </trkpt>
      <trkpt lat="47.6174" lon="6.00284">
        <ele>242.9</ele>
        <time>2018-02-23T14:19:16Z</time>
      </trkpt>
      <trkpt lat="47.61731" lon="6.00281">
        <ele>242.85</ele>
        <time>2018-02-23T14:19:18Z</time>
      </trkpt>
      <trkpt lat="47.61723" lon="6.0028">
        <ele>242.81</ele>
        <time>2018-02-23T14:19:20Z</time>
      </trkpt>
      <trkpt lat="47.61715" lon="6.00277">
        <ele>242.74</ele>
        <time>2018-02-23T14:19:22Z</time>
      </trkpt>
      <trkpt lat="47.61707" lon="6.00275">
        <ele>242.66</ele>
        <time>2018-02-23T14:19:24Z</time>
      </trkpt>
      <trkpt lat="47.61699" lon="6.00273">
        <ele>242.59</ele>
        <time>2018-02-23T14:19:26Z</time>
      </trkpt>
      <trkpt lat="47.6169" lon="6.00271">
        <ele>242.54</ele>
        <time>2018-02-23T14:19:28Z</time>
      </trkpt>
      <trkpt lat="47.61682" lon="6.00269">
        <ele>242.51</ele>
        <time>2018-02-23T14:19:30Z</time>
      </trkpt>
      <trkpt lat="47.61674" lon="6.00267">
        <ele>242.45</ele>
        <time>2018-02-23T14:19:32Z</time>
      </trkpt>
      <trkpt lat="47.61665" lon="6.00265">
        <ele>242.37</ele>
        <time>2018-02-23T14:19:34Z</time>
      </trkpt>
      <trkpt lat="47.61656" lon="6.00262">
        <ele>242.28</ele>
        <time>2018-02-23T14:19:36Z</time>
      </trkpt>
      <trkpt lat="47.61648" lon="6.0026">
        <ele>242.19</ele>
        <time>2018-02-23T14:19:38Z</time>
      </trkpt>
      <trkpt lat="47.61643" lon="6.00258">
        <ele>242.14</ele>
        <time>2018-02-23T14:19:39Z</time>
      </trkpt>
      <trkpt lat="47.61638" lon="6.00257">
        <ele>242.09</ele>
        <time>2018-02-23T14:19:40Z</time>
      </trkpt>
      <trkpt lat="47.61634" lon="6.00256">
        <ele>242.04</ele>
        <time>2018-02-23T14:19:41Z</time>
      </trkpt>
      <trkpt lat="47.61629" lon="6.00254">
        <ele>241.98</ele>
        <time>2018-02-23T14:19:42Z</time>
      </trkpt>
      <trkpt lat="47.61624" lon="6.00253">
        <ele>241.91</ele>
        <time>2018-02-23T14:19:43Z</time>
      </trkpt>
      <trkpt lat="47.6162" lon="6.00252">
        <ele>241.84</ele>
        <time>2018-02-23T14:19:44Z</time>
      </trkpt>
      <trkpt lat="47.61615" lon="6.00251">
        <ele>241.77</ele>
        <time>2018-02-23T14:19:45Z</time>
      </trkpt>
      <trkpt lat="47.6161" lon="6.00249">
        <ele>241.7</ele>
        <time>2018-02-23T14:19:46Z</time>
      </trkpt>
      <trkpt lat="47.61605" lon="6.00248">
        <ele>241.63</ele>
        <time>2018-02-23T14:19:47Z</time>
      </trkpt>
      <trkpt lat="47.616" lon="6.00247">
        <ele>241.55</ele>
        <time>2018-02-23T14:19:48Z</time>
      </trkpt>
      <trkpt lat="47.61596" lon="6.00246">
        <ele>241.48</ele>
        <time>2018-02-23T14:19:49Z</time>
      </trkpt>
      <trkpt lat="47.61591" lon="6.00245">
        <ele>241.41</ele>
        <time>2018-02-23T14:19:50Z</time>
      </trkpt>
      <trkpt lat="47.61583" lon="6.00243">
        <ele>241.27</ele>
        <time>2018-02-23T14:19:52Z</time>
      </trkpt>
      <trkpt lat="47.61574" lon="6.0024">
        <ele>241.16</ele>
        <time>2018-02-23T14:19:54Z</time>
      </trkpt>
      <trkpt lat="47.61566" lon="6.00239">
        <ele>241.12</ele>
        <time>2018-02-23T14:19:56Z</time>
      </trkpt>
      <trkpt lat="47.61557" lon="6.00237">
        <ele>241.08</ele>
        <time>2018-02-23T14:19:58Z</time>
      </trkpt>
      <trkpt lat="47.61549" lon="6.00234">
        <ele>241.04</ele>
        <time>2018-02-23T14:20:00Z</time>
      </trkpt>
      <trkpt lat="47.61541" lon="6.00233">
        <ele>241.02</ele>
        <time>2018-02-23T14:20:02Z</time>
      </trkpt>
      <trkpt lat="47.61534" lon="6.0023">
        <ele>241</ele>
        <time>2018-02-23T14:20:04Z</time>
      </trkpt>
      <trkpt lat="47.6153" lon="6.00228">
        <ele>241.05</ele>
        <time>2018-02-23T14:20:22Z</time>
      </trkpt>
      <trkpt lat="47.61524" lon="6.00226">
        <ele>241.09</ele>
        <time>2018-02-23T14:20:25Z</time>
      </trkpt>
      <trkpt lat="47.61518" lon="6.00225">
        <ele>241.11</ele>
        <time>2018-02-23T14:20:27Z</time>
      </trkpt>
      <trkpt lat="47.61509" lon="6.00223">
        <ele>241.24</ele>
        <time>2018-02-23T14:20:29Z</time>
      </trkpt>
      <trkpt lat="47.61504" lon="6.00221">
        <ele>241.27</ele>
        <time>2018-02-23T14:20:30Z</time>
      </trkpt>
      <trkpt lat="47.61499" lon="6.0022">
        <ele>241.29</ele>
        <time>2018-02-23T14:20:31Z</time>
      </trkpt>
      <trkpt lat="47.61493" lon="6.00219">
        <ele>241.31</ele>
        <time>2018-02-23T14:20:32Z</time>
      </trkpt>
      <trkpt lat="47.61488" lon="6.00217">
        <ele>241.3</ele>
        <time>2018-02-23T14:20:33Z</time>
      </trkpt>
      <trkpt lat="47.61482" lon="6.00216">
        <ele>241.29</ele>
        <time>2018-02-23T14:20:34Z</time>
      </trkpt>
      <trkpt lat="47.61477" lon="6.00215">
        <ele>241.26</ele>
        <time>2018-02-23T14:20:35Z</time>
      </trkpt>
      <trkpt lat="47.61472" lon="6.00214">
        <ele>241.22</ele>
        <time>2018-02-23T14:20:36Z</time>
      </trkpt>
      <trkpt lat="47.61467" lon="6.00212">
        <ele>241.18</ele>
        <time>2018-02-23T14:20:37Z</time>
      </trkpt>
      <trkpt lat="47.61462" lon="6.0021">
        <ele>241.15</ele>
        <time>2018-02-23T14:20:38Z</time>
      </trkpt>
      <trkpt lat="47.61457" lon="6.00209">
        <ele>241.14</ele>
        <time>2018-02-23T14:20:39Z</time>
      </trkpt>
      <trkpt lat="47.61452" lon="6.00208">
        <ele>241.13</ele>
        <time>2018-02-23T14:20:40Z</time>
      </trkpt>
      <trkpt lat="47.61447" lon="6.00207">
        <ele>241.13</ele>
        <time>2018-02-23T14:20:41Z</time>
      </trkpt>
      <trkpt lat="47.61442" lon="6.00207">
        <ele>241.12</ele>
        <time>2018-02-23T14:20:42Z</time>
      </trkpt>
      <trkpt lat="47.61437" lon="6.00206">
        <ele>241.1</ele>
        <time>2018-02-23T14:20:43Z</time>
      </trkpt>
      <trkpt lat="47.61431" lon="6.00205">
        <ele>241.06</ele>
        <time>2018-02-23T14:20:44Z</time>
      </trkpt>
      <trkpt lat="47.61425" lon="6.00204">
        <ele>241.02</ele>
        <time>2018-02-23T14:20:45Z</time>
      </trkpt>
      <trkpt lat="47.6142" lon="6.00204">
        <ele>240.98</ele>
        <time>2018-02-23T14:20:46Z</time>
      </trkpt>
      <trkpt lat="47.61415" lon="6.00203">
        <ele>240.94</ele>
        <time>2018-02-23T14:20:47Z</time>
      </trkpt>
      <trkpt lat="47.61409" lon="6.00203">
        <ele>240.88</ele>
        <time>2018-02-23T14:20:48Z</time>
      </trkpt>
      <trkpt lat="47.61403" lon="6.00203">
        <ele>240.81</ele>
        <time>2018-02-23T14:20:49Z</time>
      </trkpt>
      <trkpt lat="47.61399" lon="6.00202">
        <ele>240.74</ele>
        <time>2018-02-23T14:20:50Z</time>
      </trkpt>
      <trkpt lat="47.61394" lon="6.00201">
        <ele>240.66</ele>
        <time>2018-02-23T14:20:51Z</time>
      </trkpt>
      <trkpt lat="47.61387" lon="6.00199">
        <ele>240.62</ele>
        <time>2018-02-23T14:20:53Z</time>
      </trkpt>
      <trkpt lat="47.61381" lon="6.00198">
        <ele>240.61</ele>
        <time>2018-02-23T14:20:55Z</time>
      </trkpt>
      <trkpt lat="47.61374" lon="6.00199">
        <ele>240.58</ele>
        <time>2018-02-23T14:20:57Z</time>
      </trkpt>
      <trkpt lat="47.61369" lon="6.00201">
        <ele>240.55</ele>
        <time>2018-02-23T14:20:59Z</time>
      </trkpt>
      <trkpt lat="47.61364" lon="6.00199">
        <ele>240.26</ele>
        <time>2018-02-23T14:21:13Z</time>
      </trkpt>
      <trkpt lat="47.61357" lon="6.002">
        <ele>240.11</ele>
        <time>2018-02-23T14:21:16Z</time>
      </trkpt>
      <trkpt lat="47.61349" lon="6.00198">
        <ele>239.32</ele>
        <time>2018-02-23T14:21:18Z</time>
      </trkpt>
      <trkpt lat="47.61345" lon="6.00196">
        <ele>238.91</ele>
        <time>2018-02-23T14:21:19Z</time>
      </trkpt>
      <trkpt lat="47.6134" lon="6.00193">
        <ele>238.55</ele>
        <time>2018-02-23T14:21:20Z</time>
      </trkpt>
      <trkpt lat="47.61335" lon="6.00191">
        <ele>238.25</ele>
        <time>2018-02-23T14:21:21Z</time>
      </trkpt>
      <trkpt lat="47.61327" lon="6.00188">
        <ele>237.79</ele>
        <time>2018-02-23T14:21:23Z</time>
      </trkpt>
      <trkpt lat="47.61322" lon="6.00187">
        <ele>237.62</ele>
        <time>2018-02-23T14:21:24Z</time>
      </trkpt>
      <trkpt lat="47.61317" lon="6.00186">
        <ele>237.47</ele>
        <time>2018-02-23T14:21:25Z</time>
      </trkpt>
      <trkpt lat="47.61312" lon="6.00185">
        <ele>237.33</ele>
        <time>2018-02-23T14:21:26Z</time>
      </trkpt>
      <trkpt lat="47.61304" lon="6.00185">
        <ele>237.16</ele>
        <time>2018-02-23T14:21:28Z</time>
      </trkpt>
      <trkpt lat="47.61299" lon="6.00183">
        <ele>237.01</ele>
        <time>2018-02-23T14:21:29Z</time>
      </trkpt>
      <trkpt lat="47.61294" lon="6.00182">
        <ele>236.88</ele>
        <time>2018-02-23T14:21:30Z</time>
      </trkpt>
      <trkpt lat="47.61289" lon="6.0018">
        <ele>236.78</ele>
        <time>2018-02-23T14:21:31Z</time>
      </trkpt>
      <trkpt lat="47.61281" lon="6.00179">
        <ele>236.73</ele>
        <time>2018-02-23T14:21:33Z</time>
      </trkpt>
      <trkpt lat="47.61275" lon="6.00178">
        <ele>236.7</ele>
        <time>2018-02-23T14:21:35Z</time>
      </trkpt>
      <trkpt lat="47.61269" lon="6.00176">
        <ele>236.67</ele>
        <time>2018-02-23T14:21:37Z</time>
      </trkpt>
      <trkpt lat="47.61262" lon="6.00176">
        <ele>236.65</ele>
        <time>2018-02-23T14:21:39Z</time>
      </trkpt>
      <trkpt lat="47.61256" lon="6.00177">
        <ele>236.63</ele>
        <time>2018-02-23T14:21:41Z</time>
      </trkpt>
      <trkpt lat="47.61247" lon="6.00176">
        <ele>236.46</ele>
        <time>2018-02-23T14:21:43Z</time>
      </trkpt>
      <trkpt lat="47.61243" lon="6.00176">
        <ele>236.4</ele>
        <time>2018-02-23T14:21:44Z</time>
      </trkpt>
      <trkpt lat="47.61234" lon="6.00177">
        <ele>236.21</ele>
        <time>2018-02-23T14:21:46Z</time>
      </trkpt>
      <trkpt lat="47.6123" lon="6.00179">
        <ele>236.01</ele>
        <time>2018-02-23T14:21:47Z</time>
      </trkpt>
      <trkpt lat="47.61225" lon="6.0018">
        <ele>235.82</ele>
        <time>2018-02-23T14:21:48Z</time>
      </trkpt>
      <trkpt lat="47.61218" lon="6.00182">
        <ele>235.72</ele>
        <time>2018-02-23T14:21:50Z</time>
      </trkpt>
      <trkpt lat="47.61212" lon="6.00185">
        <ele>235.68</ele>
        <time>2018-02-23T14:21:52Z</time>
      </trkpt>
      <trkpt lat="47.61207" lon="6.00187">
        <ele>235.62</ele>
        <time>2018-02-23T14:21:55Z</time>
      </trkpt>
      <trkpt lat="47.61202" lon="6.00189">
        <ele>235.55</ele>
        <time>2018-02-23T14:21:58Z</time>
      </trkpt>
      <trkpt lat="47.61197" lon="6.00197">
        <ele>235.5</ele>
        <time>2018-02-23T14:22:00Z</time>
      </trkpt>
      <trkpt lat="47.61198" lon="6.00208">
        <ele>235.45</ele>
        <time>2018-02-23T14:22:02Z</time>
      </trkpt>
      <trkpt lat="47.61203" lon="6.00215">
        <ele>235.4</ele>
        <time>2018-02-23T14:22:04Z</time>
      </trkpt>
      <trkpt lat="47.61206" lon="6.00224">
        <ele>235.33</ele>
        <time>2018-02-23T14:22:06Z</time>
      </trkpt>
      <trkpt lat="47.61207" lon="6.00232">
        <ele>235.24</ele>
        <time>2018-02-23T14:22:08Z</time>
      </trkpt>
      <trkpt lat="47.61208" lon="6.0024">
        <ele>235.12</ele>
        <time>2018-02-23T14:22:10Z</time>
      </trkpt>
      <trkpt lat="47.61209" lon="6.00249">
        <ele>234.99</ele>
        <time>2018-02-23T14:22:12Z</time>
      </trkpt>
      <trkpt lat="47.61209" lon="6.00259">
        <ele>234.86</ele>
        <time>2018-02-23T14:22:14Z</time>
      </trkpt>
      <trkpt lat="47.6121" lon="6.00268">
        <ele>234.71</ele>
        <time>2018-02-23T14:22:16Z</time>
      </trkpt>
      <trkpt lat="47.61212" lon="6.00279">
        <ele>234.56</ele>
        <time>2018-02-23T14:22:18Z</time>
      </trkpt>
      <trkpt lat="47.61214" lon="6.00288">
        <ele>234.41</ele>
        <time>2018-02-23T14:22:20Z</time>
      </trkpt>
      <trkpt lat="47.61215" lon="6.00297">
        <ele>234.25</ele>
        <time>2018-02-23T14:22:22Z</time>
      </trkpt>
      <trkpt lat="47.61217" lon="6.00307">
        <ele>234.1</ele>
        <time>2018-02-23T14:22:24Z</time>
      </trkpt>
      <trkpt lat="47.61219" lon="6.00315">
        <ele>233.97</ele>
        <time>2018-02-23T14:22:26Z</time>
      </trkpt>
      <trkpt lat="47.61222" lon="6.00323">
        <ele>233.85</ele>
        <time>2018-02-23T14:22:28Z</time>
      </trkpt>
      <trkpt lat="47.61226" lon="6.0033">
        <ele>233.75</ele>
        <time>2018-02-23T14:22:30Z</time>
      </trkpt>
      <trkpt lat="47.61231" lon="6.00335">
        <ele>233.62</ele>
        <time>2018-02-23T14:22:33Z</time>
      </trkpt>
      <trkpt lat="47.61238" lon="6.0034">
        <ele>233.55</ele>
        <time>2018-02-23T14:22:35Z</time>
      </trkpt>
      <trkpt lat="47.61242" lon="6.00342">
        <ele>233.35</ele>
        <time>2018-02-23T14:22:36Z</time>
      </trkpt>
      <trkpt lat="47.61247" lon="6.00344">
        <ele>233.14</ele>
        <time>2018-02-23T14:22:37Z</time>
      </trkpt>
      <trkpt lat="47.61251" lon="6.00347">
        <ele>233.07</ele>
        <time>2018-02-23T14:22:38Z</time>
      </trkpt>
      <trkpt lat="47.61256" lon="6.00348">
        <ele>233.02</ele>
        <time>2018-02-23T14:22:39Z</time>
      </trkpt>
      <trkpt lat="47.61261" lon="6.0035">
        <ele>233.01</ele>
        <time>2018-02-23T14:22:40Z</time>
      </trkpt>
      <trkpt lat="47.61267" lon="6.00354">
        <ele>233</ele>
        <time>2018-02-23T14:22:42Z</time>
      </trkpt>
      <trkpt lat="47.61273" lon="6.00357">
        <ele>233.02</ele>
        <time>2018-02-23T14:22:44Z</time>
      </trkpt>
      <trkpt lat="47.61277" lon="6.00362">
        <ele>233.05</ele>
        <time>2018-02-23T14:22:46Z</time>
      </trkpt>
      <trkpt lat="47.61281" lon="6.00367">
        <ele>233.1</ele>
        <time>2018-02-23T14:22:48Z</time>
      </trkpt>
      <trkpt lat="47.61286" lon="6.00373">
        <ele>233.18</ele>
        <time>2018-02-23T14:22:51Z</time>
      </trkpt>
      <trkpt lat="47.6129" lon="6.00378">
        <ele>233.22</ele>
        <time>2018-02-23T14:22:53Z</time>
      </trkpt>
      <trkpt lat="47.61294" lon="6.00382">
        <ele>233.27</ele>
        <time>2018-02-23T14:22:55Z</time>
      </trkpt>
      <trkpt lat="47.61297" lon="6.00387">
        <ele>233.3</ele>
        <time>2018-02-23T14:22:57Z</time>
      </trkpt>
      <trkpt lat="47.61304" lon="6.00392">
        <ele>233.34</ele>
        <time>2018-02-23T14:23:00Z</time>
      </trkpt>
      <trkpt lat="47.61308" lon="6.00398">
        <ele>233.36</ele>
        <time>2018-02-23T14:23:02Z</time>
      </trkpt>
      <trkpt lat="47.61312" lon="6.00404">
        <ele>233.38</ele>
        <time>2018-02-23T14:23:04Z</time>
      </trkpt>
      <trkpt lat="47.61315" lon="6.00409">
        <ele>233.41</ele>
        <time>2018-02-23T14:23:06Z</time>
      </trkpt>
      <trkpt lat="47.61319" lon="6.00414">
        <ele>233.44</ele>
        <time>2018-02-23T14:23:08Z</time>
      </trkpt>
      <trkpt lat="47.61323" lon="6.00422">
        <ele>233.5</ele>
        <time>2018-02-23T14:23:11Z</time>
      </trkpt>
      <trkpt lat="47.61327" lon="6.0043">
        <ele>233.56</ele>
        <time>2018-02-23T14:23:14Z</time>
      </trkpt>
      <trkpt lat="47.61332" lon="6.00437">
        <ele>233.62</ele>
        <time>2018-02-23T14:23:17Z</time>
      </trkpt>
      <trkpt lat="47.61336" lon="6.00442">
        <ele>233.67</ele>
        <time>2018-02-23T14:23:19Z</time>
      </trkpt>
      <trkpt lat="47.6134" lon="6.00448">
        <ele>233.74</ele>
        <time>2018-02-23T14:23:21Z</time>
      </trkpt>
      <trkpt lat="47.61344" lon="6.00454">
        <ele>233.84</ele>
        <time>2018-02-23T14:23:23Z</time>
      </trkpt>
      <trkpt lat="47.61349" lon="6.00459">
        <ele>233.95</ele>
        <time>2018-02-23T14:23:25Z</time>
      </trkpt>
      <trkpt lat="47.61352" lon="6.00465">
        <ele>234.07</ele>
        <time>2018-02-23T14:23:27Z</time>
      </trkpt>
      <trkpt lat="47.61355" lon="6.0047">
        <ele>234.19</ele>
        <time>2018-02-23T14:23:29Z</time>
      </trkpt>
      <trkpt lat="47.61358" lon="6.00479">
        <ele>234.31</ele>
        <time>2018-02-23T14:23:31Z</time>
      </trkpt>
      <trkpt lat="47.61362" lon="6.00488">
        <ele>234.44</ele>
        <time>2018-02-23T14:23:33Z</time>
      </trkpt>
      <trkpt lat="47.61365" lon="6.00495">
        <ele>234.58</ele>
        <time>2018-02-23T14:23:35Z</time>
      </trkpt>
      <trkpt lat="47.61368" lon="6.00502">
        <ele>234.72</ele>
        <time>2018-02-23T14:23:37Z</time>
      </trkpt>
      <trkpt lat="47.6137" lon="6.0051">
        <ele>234.85</ele>
        <time>2018-02-23T14:23:39Z</time>
      </trkpt>
      <trkpt lat="47.61372" lon="6.00517">
        <ele>234.99</ele>
        <time>2018-02-23T14:23:41Z</time>
      </trkpt>
      <trkpt lat="47.61373" lon="6.00525">
        <ele>235.12</ele>
        <time>2018-02-23T14:23:43Z</time>
      </trkpt>
      <trkpt lat="47.61375" lon="6.00532">
        <ele>235.25</ele>
        <time>2018-02-23T14:23:45Z</time>
      </trkpt>
      <trkpt lat="47.61377" lon="6.0054">
        <ele>235.39</ele>
        <time>2018-02-23T14:23:47Z</time>
      </trkpt>
      <trkpt lat="47.61378" lon="6.00547">
        <ele>235.52</ele>
        <time>2018-02-23T14:23:49Z</time>
      </trkpt>
      <trkpt lat="47.6138" lon="6.00554">
        <ele>235.65</ele>
        <time>2018-02-23T14:23:51Z</time>
      </trkpt>
      <trkpt lat="47.61382" lon="6.00562">
        <ele>235.77</ele>
        <time>2018-02-23T14:23:53Z</time>
      </trkpt>
      <trkpt lat="47.61384" lon="6.00569">
        <ele>235.88</ele>
        <time>2018-02-23T14:23:55Z</time>
      </trkpt>
      <trkpt lat="47.61386" lon="6.00576">
        <ele>235.99</ele>
        <time>2018-02-23T14:23:57Z</time>
      </trkpt>
      <trkpt lat="47.61389" lon="6.00582">
        <ele>236.09</ele>
        <time>2018-02-23T14:23:59Z</time>
      </trkpt>
      <trkpt lat="47.61391" lon="6.00588">
        <ele>236.19</ele>
        <time>2018-02-23T14:24:01Z</time>
      </trkpt>
      <trkpt lat="47.61394" lon="6.00596">
        <ele>236.29</ele>
        <time>2018-02-23T14:24:03Z</time>
      </trkpt>
      <trkpt lat="47.61396" lon="6.00602">
        <ele>236.4</ele>
        <time>2018-02-23T14:24:05Z</time>
      </trkpt>
      <trkpt lat="47.614" lon="6.00607">
        <ele>236.49</ele>
        <time>2018-02-23T14:24:07Z</time>
      </trkpt>
      <trkpt lat="47.61405" lon="6.00612">
        <ele>236.65</ele>
        <time>2018-02-23T14:24:10Z</time>
      </trkpt>
      <trkpt lat="47.61407" lon="6.00619">
        <ele>236.88</ele>
        <time>2018-02-23T14:24:14Z</time>
      </trkpt>
      <trkpt lat="47.61412" lon="6.00619">
        <ele>237.05</ele>
        <time>2018-02-23T14:24:17Z</time>
      </trkpt>
      <trkpt lat="47.61416" lon="6.00624">
        <ele>237.37</ele>
        <time>2018-02-23T14:24:23Z</time>
      </trkpt>
      <trkpt lat="47.6142" lon="6.00629">
        <ele>237.58</ele>
        <time>2018-02-23T14:24:27Z</time>
      </trkpt>
      <trkpt lat="47.61423" lon="6.00633">
        <ele>237.73</ele>
        <time>2018-02-23T14:24:30Z</time>
      </trkpt>
      <trkpt lat="47.61426" lon="6.00641">
        <ele>237.88</ele>
        <time>2018-02-23T14:24:33Z</time>
      </trkpt>
      <trkpt lat="47.61429" lon="6.00647">
        <ele>237.98</ele>
        <time>2018-02-23T14:24:35Z</time>
      </trkpt>
      <trkpt lat="47.61433" lon="6.00653">
        <ele>238.07</ele>
        <time>2018-02-23T14:24:37Z</time>
      </trkpt>
      <trkpt lat="47.61438" lon="6.00659">
        <ele>238.15</ele>
        <time>2018-02-23T14:24:39Z</time>
      </trkpt>
      <trkpt lat="47.61441" lon="6.00664">
        <ele>238.24</ele>
        <time>2018-02-23T14:24:41Z</time>
      </trkpt>
      <trkpt lat="47.61444" lon="6.00669">
        <ele>238.32</ele>
        <time>2018-02-23T14:24:43Z</time>
      </trkpt>
      <trkpt lat="47.61448" lon="6.00672">
        <ele>238.4</ele>
        <time>2018-02-23T14:24:45Z</time>
      </trkpt>
      <trkpt lat="47.61453" lon="6.00678">
        <ele>238.47</ele>
        <time>2018-02-23T14:24:47Z</time>
      </trkpt>
      <trkpt lat="47.61457" lon="6.00685">
        <ele>238.54</ele>
        <time>2018-02-23T14:24:49Z</time>
      </trkpt>
      <trkpt lat="47.61462" lon="6.00691">
        <ele>238.61</ele>
        <time>2018-02-23T14:24:51Z</time>
      </trkpt>
      <trkpt lat="47.61467" lon="6.00698">
        <ele>238.67</ele>
        <time>2018-02-23T14:24:53Z</time>
      </trkpt>
      <trkpt lat="47.61472" lon="6.00706">
        <ele>238.73</ele>
        <time>2018-02-23T14:24:55Z</time>
      </trkpt>
      <trkpt lat="47.61478" lon="6.00713">
        <ele>238.79</ele>
        <time>2018-02-23T14:24:57Z</time>
      </trkpt>
      <trkpt lat="47.61484" lon="6.00721">
        <ele>239.24</ele>
        <time>2018-02-23T14:24:59Z</time>
      </trkpt>
      <trkpt lat="47.6149" lon="6.00729">
        <ele>239.62</ele>
        <time>2018-02-23T14:25:01Z</time>
      </trkpt>
      <trkpt lat="47.61496" lon="6.00737">
        <ele>239.88</ele>
        <time>2018-02-23T14:25:03Z</time>
      </trkpt>
      <trkpt lat="47.61503" lon="6.00745">
        <ele>240.07</ele>
        <time>2018-02-23T14:25:05Z</time>
      </trkpt>
      <trkpt lat="47.61509" lon="6.00753">
        <ele>240.14</ele>
        <time>2018-02-23T14:25:07Z</time>
      </trkpt>
      <trkpt lat="47.61512" lon="6.00758">
        <ele>240.19</ele>
        <time>2018-02-23T14:25:08Z</time>
      </trkpt>
      <trkpt lat="47.61518" lon="6.00767">
        <ele>240.27</ele>
        <time>2018-02-23T14:25:10Z</time>
      </trkpt>
      <trkpt lat="47.61524" lon="6.00776">
        <ele>240.35</ele>
        <time>2018-02-23T14:25:12Z</time>
      </trkpt>
      <trkpt lat="47.61529" lon="6.00785">
        <ele>240.43</ele>
        <time>2018-02-23T14:25:14Z</time>
      </trkpt>
      <trkpt lat="47.61534" lon="6.00793">
        <ele>240.45</ele>
        <time>2018-02-23T14:25:16Z</time>
      </trkpt>
      <trkpt lat="47.61539" lon="6.00801">
        <ele>240.46</ele>
        <time>2018-02-23T14:25:18Z</time>
      </trkpt>
      <trkpt lat="47.61544" lon="6.0081">
        <ele>240.51</ele>
        <time>2018-02-23T14:25:20Z</time>
      </trkpt>
      <trkpt lat="47.6155" lon="6.00817">
        <ele>240.56</ele>
        <time>2018-02-23T14:25:22Z</time>
      </trkpt>
      <trkpt lat="47.61555" lon="6.00826">
        <ele>240.57</ele>
        <time>2018-02-23T14:25:24Z</time>
      </trkpt>
      <trkpt lat="47.6156" lon="6.00833">
        <ele>240.58</ele>
        <time>2018-02-23T14:25:26Z</time>
      </trkpt>
      <trkpt lat="47.61565" lon="6.0084">
        <ele>240.6</ele>
        <time>2018-02-23T14:25:28Z</time>
      </trkpt>
      <trkpt lat="47.6157" lon="6.00847">
        <ele>240.61</ele>
        <time>2018-02-23T14:25:30Z</time>
      </trkpt>
      <trkpt lat="47.61575" lon="6.00854">
        <ele>240.62</ele>
        <time>2018-02-23T14:25:32Z</time>
      </trkpt>
      <trkpt lat="47.6158" lon="6.00861">
        <ele>240.64</ele>
        <time>2018-02-23T14:25:34Z</time>
      </trkpt>
      <trkpt lat="47.61585" lon="6.00868">
        <ele>240.65</ele>
        <time>2018-02-23T14:25:36Z</time>
      </trkpt>
      <trkpt lat="47.6159" lon="6.00875">
        <ele>240.67</ele>
        <time>2018-02-23T14:25:38Z</time>
      </trkpt>
      <trkpt lat="47.61595" lon="6.00883">
        <ele>240.69</ele>
        <time>2018-02-23T14:25:40Z</time>
      </trkpt>
      <trkpt lat="47.616" lon="6.00889">
        <ele>240.71</ele>
        <time>2018-02-23T14:25:42Z</time>
      </trkpt>
      <trkpt lat="47.61606" lon="6.00898">
        <ele>240.74</ele>
        <time>2018-02-23T14:25:44Z</time>
      </trkpt>
      <trkpt lat="47.61611" lon="6.00905">
        <ele>240.83</ele>
        <time>2018-02-23T14:25:46Z</time>
      </trkpt>
      <trkpt lat="47.61617" lon="6.00912">
        <ele>240.94</ele>
        <time>2018-02-23T14:25:48Z</time>
      </trkpt>
      <trkpt lat="47.61623" lon="6.0092">
        <ele>241.09</ele>
        <time>2018-02-23T14:25:50Z</time>
      </trkpt>
      <trkpt lat="47.61629" lon="6.00928">
        <ele>241.2</ele>
        <time>2018-02-23T14:25:52Z</time>
      </trkpt>
      <trkpt lat="47.61635" lon="6.00937">
        <ele>241.27</ele>
        <time>2018-02-23T14:25:54Z</time>
      </trkpt>
      <trkpt lat="47.61639" lon="6.00943">
        <ele>241.3</ele>
        <time>2018-02-23T14:25:55Z</time>
      </trkpt>
      <trkpt lat="47.61642" lon="6.00949">
        <ele>241.31</ele>
        <time>2018-02-23T14:25:56Z</time>
      </trkpt>
      <trkpt lat="47.61646" lon="6.00955">
        <ele>241.33</ele>
        <time>2018-02-23T14:25:57Z</time>
      </trkpt>
      <trkpt lat="47.6165" lon="6.00961">
        <ele>241.33</ele>
        <time>2018-02-23T14:25:58Z</time>
      </trkpt>
      <trkpt lat="47.61653" lon="6.00967">
        <ele>241.34</ele>
        <time>2018-02-23T14:25:59Z</time>
      </trkpt>
      <trkpt lat="47.61656" lon="6.00973">
        <ele>241.34</ele>
        <time>2018-02-23T14:26:00Z</time>
      </trkpt>
      <trkpt lat="47.61659" lon="6.00979">
        <ele>241.33</ele>
        <time>2018-02-23T14:26:01Z</time>
      </trkpt>
      <trkpt lat="47.61661" lon="6.00984">
        <ele>241.32</ele>
        <time>2018-02-23T14:26:02Z</time>
      </trkpt>
      <trkpt lat="47.61664" lon="6.0099">
        <ele>241.31</ele>
        <time>2018-02-23T14:26:03Z</time>
      </trkpt>
      <trkpt lat="47.61667" lon="6.00996">
        <ele>241.3</ele>
        <time>2018-02-23T14:26:04Z</time>
      </trkpt>
      <trkpt lat="47.61669" lon="6.01003">
        <ele>241.29</ele>
        <time>2018-02-23T14:26:05Z</time>
      </trkpt>
      <trkpt lat="47.61672" lon="6.01009">
        <ele>241.27</ele>
        <time>2018-02-23T14:26:06Z</time>
      </trkpt>
      <trkpt lat="47.61674" lon="6.01015">
        <ele>241.26</ele>
        <time>2018-02-23T14:26:07Z</time>
      </trkpt>
      <trkpt lat="47.61677" lon="6.0102">
        <ele>241.25</ele>
        <time>2018-02-23T14:26:08Z</time>
      </trkpt>
      <trkpt lat="47.61682" lon="6.01031">
        <ele>241.24</ele>
        <time>2018-02-23T14:26:10Z</time>
      </trkpt>
      <trkpt lat="47.61686" lon="6.0104">
        <ele>241.25</ele>
        <time>2018-02-23T14:26:12Z</time>
      </trkpt>
      <trkpt lat="47.61691" lon="6.0105">
        <ele>241.27</ele>
        <time>2018-02-23T14:26:14Z</time>
      </trkpt>
      <trkpt lat="47.61695" lon="6.01059">
        <ele>241.29</ele>
        <time>2018-02-23T14:26:16Z</time>
      </trkpt>
      <trkpt lat="47.61699" lon="6.01068">
        <ele>241.3</ele>
        <time>2018-02-23T14:26:18Z</time>
      </trkpt>
      <trkpt lat="47.61703" lon="6.01077">
        <ele>241.3</ele>
        <time>2018-02-23T14:26:20Z</time>
      </trkpt>
      <trkpt lat="47.61707" lon="6.01086">
        <ele>241.31</ele>
        <time>2018-02-23T14:26:22Z</time>
      </trkpt>
      <trkpt lat="47.61711" lon="6.01094">
        <ele>241.31</ele>
        <time>2018-02-23T14:26:24Z</time>
      </trkpt>
      <trkpt lat="47.61715" lon="6.01102">
        <ele>241.32</ele>
        <time>2018-02-23T14:26:26Z</time>
      </trkpt>
      <trkpt lat="47.61719" lon="6.01111">
        <ele>241.33</ele>
        <time>2018-02-23T14:26:28Z</time>
      </trkpt>
      <trkpt lat="47.61724" lon="6.01119">
        <ele>241.34</ele>
        <time>2018-02-23T14:26:30Z</time>
      </trkpt>
      <trkpt lat="47.61728" lon="6.01128">
        <ele>241.4</ele>
        <time>2018-02-23T14:26:32Z</time>
      </trkpt>
      <trkpt lat="47.61733" lon="6.01137">
        <ele>241.47</ele>
        <time>2018-02-23T14:26:34Z</time>
      </trkpt>
      <trkpt lat="47.61737" lon="6.01146">
        <ele>241.51</ele>
        <time>2018-02-23T14:26:36Z</time>
      </trkpt>
      <trkpt lat="47.61742" lon="6.01154">
        <ele>241.6</ele>
        <time>2018-02-23T14:26:38Z</time>
      </trkpt>
      <trkpt lat="47.61747" lon="6.01164">
        <ele>241.66</ele>
        <time>2018-02-23T14:26:40Z</time>
      </trkpt>
      <trkpt lat="47.61752" lon="6.01174">
        <ele>241.7</ele>
        <time>2018-02-23T14:26:42Z</time>
      </trkpt>
      <trkpt lat="47.61757" lon="6.01184">
        <ele>241.74</ele>
        <time>2018-02-23T14:26:44Z</time>
      </trkpt>
      <trkpt lat="47.61762" lon="6.01193">
        <ele>241.77</ele>
        <time>2018-02-23T14:26:46Z</time>
      </trkpt>
      <trkpt lat="47.61767" lon="6.01202">
        <ele>241.82</ele>
        <time>2018-02-23T14:26:48Z</time>
      </trkpt>
      <trkpt lat="47.61771" lon="6.0121">
        <ele>241.84</ele>
        <time>2018-02-23T14:26:50Z</time>
      </trkpt>
      <trkpt lat="47.61775" lon="6.01218">
        <ele>241.84</ele>
        <time>2018-02-23T14:26:52Z</time>
      </trkpt>
      <trkpt lat="47.61779" lon="6.01226">
        <ele>241.85</ele>
        <time>2018-02-23T14:26:54Z</time>
      </trkpt>
      <trkpt lat="47.61783" lon="6.01235">
        <ele>241.86</ele>
        <time>2018-02-23T14:26:56Z</time>
      </trkpt>
      <trkpt lat="47.61786" lon="6.0124">
        <ele>241.87</ele>
        <time>2018-02-23T14:26:58Z</time>
      </trkpt>
      <trkpt lat="47.6179" lon="6.01247">
        <ele>241.87</ele>
        <time>2018-02-23T14:27:00Z</time>
      </trkpt>
      <trkpt lat="47.61795" lon="6.01254">
        <ele>241.88</ele>
        <time>2018-02-23T14:27:02Z</time>
      </trkpt>
      <trkpt lat="47.61799" lon="6.01263">
        <ele>241.89</ele>
        <time>2018-02-23T14:27:04Z</time>
      </trkpt>
      <trkpt lat="47.61804" lon="6.01272">
        <ele>241.89</ele>
        <time>2018-02-23T14:27:06Z</time>
      </trkpt>
      <trkpt lat="47.61809" lon="6.0128">
        <ele>241.9</ele>
        <time>2018-02-23T14:27:08Z</time>
      </trkpt>
      <trkpt lat="47.61813" lon="6.01288">
        <ele>241.91</ele>
        <time>2018-02-23T14:27:10Z</time>
      </trkpt>
      <trkpt lat="47.61818" lon="6.01296">
        <ele>241.92</ele>
        <time>2018-02-23T14:27:12Z</time>
      </trkpt>
      <trkpt lat="47.61823" lon="6.01305">
        <ele>241.93</ele>
        <time>2018-02-23T14:27:14Z</time>
      </trkpt>
      <trkpt lat="47.61826" lon="6.01313">
        <ele>241.95</ele>
        <time>2018-02-23T14:27:16Z</time>
      </trkpt>
      <trkpt lat="47.6183" lon="6.01322">
        <ele>241.96</ele>
        <time>2018-02-23T14:27:18Z</time>
      </trkpt>
      <trkpt lat="47.61833" lon="6.01331">
        <ele>241.98</ele>
        <time>2018-02-23T14:27:20Z</time>
      </trkpt>
      <trkpt lat="47.61836" lon="6.01339">
        <ele>241.99</ele>
        <time>2018-02-23T14:27:22Z</time>
      </trkpt>
      <trkpt lat="47.61838" lon="6.01349">
        <ele>242.01</ele>
        <time>2018-02-23T14:27:24Z</time>
      </trkpt>
      <trkpt lat="47.61842" lon="6.01358">
        <ele>242.03</ele>
        <time>2018-02-23T14:27:26Z</time>
      </trkpt>
      <trkpt lat="47.61844" lon="6.01368">
        <ele>242.05</ele>
        <time>2018-02-23T14:27:28Z</time>
      </trkpt>
      <trkpt lat="47.61846" lon="6.01377">
        <ele>242.08</ele>
        <time>2018-02-23T14:27:30Z</time>
      </trkpt>
      <trkpt lat="47.61848" lon="6.01386">
        <ele>242.1</ele>
        <time>2018-02-23T14:27:32Z</time>
      </trkpt>
      <trkpt lat="47.61849" lon="6.01395">
        <ele>242.12</ele>
        <time>2018-02-23T14:27:34Z</time>
      </trkpt>
      <trkpt lat="47.61852" lon="6.01405">
        <ele>242.15</ele>
        <time>2018-02-23T14:27:36Z</time>
      </trkpt>
      <trkpt lat="47.61854" lon="6.01415">
        <ele>242.17</ele>
        <time>2018-02-23T14:27:38Z</time>
      </trkpt>
      <trkpt lat="47.61856" lon="6.01423">
        <ele>242.2</ele>
        <time>2018-02-23T14:27:40Z</time>
      </trkpt>
      <trkpt lat="47.61859" lon="6.01431">
        <ele>242.22</ele>
        <time>2018-02-23T14:27:42Z</time>
      </trkpt>
      <trkpt lat="47.61862" lon="6.0144">
        <ele>242.25</ele>
        <time>2018-02-23T14:27:44Z</time>
      </trkpt>
      <trkpt lat="47.61865" lon="6.01449">
        <ele>242.28</ele>
        <time>2018-02-23T14:27:46Z</time>
      </trkpt>
      <trkpt lat="47.6187" lon="6.01459">
        <ele>242.5</ele>
        <time>2018-02-23T14:27:48Z</time>
      </trkpt>
      <trkpt lat="47.61874" lon="6.0147">
        <ele>242.69</ele>
        <time>2018-02-23T14:27:50Z</time>
      </trkpt>
      <trkpt lat="47.6188" lon="6.01481">
        <ele>242.83</ele>
        <time>2018-02-23T14:27:52Z</time>
      </trkpt>
      <trkpt lat="47.61883" lon="6.01486">
        <ele>242.88</ele>
        <time>2018-02-23T14:27:53Z</time>
      </trkpt>
      <trkpt lat="47.61886" lon="6.01492">
        <ele>242.92</ele>
        <time>2018-02-23T14:27:54Z</time>
      </trkpt>
      <trkpt lat="47.61889" lon="6.01498">
        <ele>242.95</ele>
        <time>2018-02-23T14:27:55Z</time>
      </trkpt>
      <trkpt lat="47.61893" lon="6.01504">
        <ele>242.98</ele>
        <time>2018-02-23T14:27:56Z</time>
      </trkpt>
      <trkpt lat="47.61897" lon="6.01508">
        <ele>242.99</ele>
        <time>2018-02-23T14:27:57Z</time>
      </trkpt>
      <trkpt lat="47.619" lon="6.01514">
        <ele>243.01</ele>
        <time>2018-02-23T14:27:58Z</time>
      </trkpt>
      <trkpt lat="47.61904" lon="6.01519">
        <ele>243.01</ele>
        <time>2018-02-23T14:27:59Z</time>
      </trkpt>
      <trkpt lat="47.6191" lon="6.01529">
        <ele>243.02</ele>
        <time>2018-02-23T14:28:01Z</time>
      </trkpt>
      <trkpt lat="47.61914" lon="6.01534">
        <ele>243.03</ele>
        <time>2018-02-23T14:28:02Z</time>
      </trkpt>
      <trkpt lat="47.61917" lon="6.01539">
        <ele>243.03</ele>
        <time>2018-02-23T14:28:03Z</time>
      </trkpt>
      <trkpt lat="47.61921" lon="6.01545">
        <ele>243.03</ele>
        <time>2018-02-23T14:28:04Z</time>
      </trkpt>
      <trkpt lat="47.61924" lon="6.01551">
        <ele>243.03</ele>
        <time>2018-02-23T14:28:05Z</time>
      </trkpt>
      <trkpt lat="47.61927" lon="6.01557">
        <ele>243.03</ele>
        <time>2018-02-23T14:28:06Z</time>
      </trkpt>
      <trkpt lat="47.61929" lon="6.01564">
        <ele>243.04</ele>
        <time>2018-02-23T14:28:07Z</time>
      </trkpt>
      <trkpt lat="47.61932" lon="6.01572">
        <ele>243.04</ele>
        <time>2018-02-23T14:28:08Z</time>
      </trkpt>
      <trkpt lat="47.61935" lon="6.01579">
        <ele>243.04</ele>
        <time>2018-02-23T14:28:09Z</time>
      </trkpt>
      <trkpt lat="47.61937" lon="6.01586">
        <ele>243.03</ele>
        <time>2018-02-23T14:28:10Z</time>
      </trkpt>
      <trkpt lat="47.61938" lon="6.01595">
        <ele>243.03</ele>
        <time>2018-02-23T14:28:11Z</time>
      </trkpt>
      <trkpt lat="47.61939" lon="6.01603">
        <ele>243.02</ele>
        <time>2018-02-23T14:28:12Z</time>
      </trkpt>
      <trkpt lat="47.6194" lon="6.01611">
        <ele>243.02</ele>
        <time>2018-02-23T14:28:13Z</time>
      </trkpt>
      <trkpt lat="47.6194" lon="6.01619">
        <ele>243.01</ele>
        <time>2018-02-23T14:28:14Z</time>
      </trkpt>
      <trkpt lat="47.61941" lon="6.01627">
        <ele>243.01</ele>
        <time>2018-02-23T14:28:15Z</time>
      </trkpt>
      <trkpt lat="47.61942" lon="6.01636">
        <ele>243</ele>
        <time>2018-02-23T14:28:16Z</time>
      </trkpt>
      <trkpt lat="47.61943" lon="6.01644">
        <ele>242.99</ele>
        <time>2018-02-23T14:28:17Z</time>
      </trkpt>
      <trkpt lat="47.61945" lon="6.01653">
        <ele>242.99</ele>
        <time>2018-02-23T14:28:18Z</time>
      </trkpt>
      <trkpt lat="47.61947" lon="6.01661">
        <ele>242.98</ele>
        <time>2018-02-23T14:28:19Z</time>
      </trkpt>
      <trkpt lat="47.61949" lon="6.01669">
        <ele>242.97</ele>
        <time>2018-02-23T14:28:20Z</time>
      </trkpt>
      <trkpt lat="47.61952" lon="6.01676">
        <ele>242.96</ele>
        <time>2018-02-23T14:28:21Z</time>
      </trkpt>
      <trkpt lat="47.61955" lon="6.01683">
        <ele>242.95</ele>
        <time>2018-02-23T14:28:22Z</time>
      </trkpt>
      <trkpt lat="47.61959" lon="6.0169">
        <ele>242.94</ele>
        <time>2018-02-23T14:28:23Z</time>
      </trkpt>
      <trkpt lat="47.61963" lon="6.01697">
        <ele>242.92</ele>
        <time>2018-02-23T14:28:24Z</time>
      </trkpt>
      <trkpt lat="47.61968" lon="6.01703">
        <ele>242.91</ele>
        <time>2018-02-23T14:28:25Z</time>
      </trkpt>
      <trkpt lat="47.61973" lon="6.0171">
        <ele>242.9</ele>
        <time>2018-02-23T14:28:26Z</time>
      </trkpt>
      <trkpt lat="47.61978" lon="6.01717">
        <ele>242.9</ele>
        <time>2018-02-23T14:28:27Z</time>
      </trkpt>
      <trkpt lat="47.61983" lon="6.01724">
        <ele>242.89</ele>
        <time>2018-02-23T14:28:28Z</time>
      </trkpt>
      <trkpt lat="47.61988" lon="6.01731">
        <ele>242.9</ele>
        <time>2018-02-23T14:28:29Z</time>
      </trkpt>
      <trkpt lat="47.61993" lon="6.01737">
        <ele>242.89</ele>
        <time>2018-02-23T14:28:30Z</time>
      </trkpt>
      <trkpt lat="47.61998" lon="6.01743">
        <ele>242.88</ele>
        <time>2018-02-23T14:28:31Z</time>
      </trkpt>
      <trkpt lat="47.62003" lon="6.01749">
        <ele>242.84</ele>
        <time>2018-02-23T14:28:32Z</time>
      </trkpt>
      <trkpt lat="47.62008" lon="6.01755">
        <ele>242.8</ele>
        <time>2018-02-23T14:28:33Z</time>
      </trkpt>
      <trkpt lat="47.62012" lon="6.01762">
        <ele>242.73</ele>
        <time>2018-02-23T14:28:34Z</time>
      </trkpt>
      <trkpt lat="47.62016" lon="6.01768">
        <ele>242.57</ele>
        <time>2018-02-23T14:28:35Z</time>
      </trkpt>
      <trkpt lat="47.6202" lon="6.01774">
        <ele>242.41</ele>
        <time>2018-02-23T14:28:36Z</time>
      </trkpt>
      <trkpt lat="47.62024" lon="6.01779">
        <ele>242.27</ele>
        <time>2018-02-23T14:28:37Z</time>
      </trkpt>
      <trkpt lat="47.62028" lon="6.01784">
        <ele>242.14</ele>
        <time>2018-02-23T14:28:38Z</time>
      </trkpt>
      <trkpt lat="47.62032" lon="6.01788">
        <ele>242.03</ele>
        <time>2018-02-23T14:28:39Z</time>
      </trkpt>
      <trkpt lat="47.62036" lon="6.01793">
        <ele>241.9</ele>
        <time>2018-02-23T14:28:40Z</time>
      </trkpt>
      <trkpt lat="47.62039" lon="6.01798">
        <ele>241.79</ele>
        <time>2018-02-23T14:28:41Z</time>
      </trkpt>
      <trkpt lat="47.62043" lon="6.01802">
        <ele>241.69</ele>
        <time>2018-02-23T14:28:42Z</time>
      </trkpt>
      <trkpt lat="47.62046" lon="6.01807">
        <ele>241.57</ele>
        <time>2018-02-23T14:28:43Z</time>
      </trkpt>
      <trkpt lat="47.62049" lon="6.01812">
        <ele>241.43</ele>
        <time>2018-02-23T14:28:44Z</time>
      </trkpt>
      <trkpt lat="47.62053" lon="6.01818">
        <ele>241.27</ele>
        <time>2018-02-23T14:28:45Z</time>
      </trkpt>
      <trkpt lat="47.62057" lon="6.01823">
        <ele>241.11</ele>
        <time>2018-02-23T14:28:46Z</time>
      </trkpt>
      <trkpt lat="47.62061" lon="6.01829">
        <ele>240.97</ele>
        <time>2018-02-23T14:28:47Z</time>
      </trkpt>
      <trkpt lat="47.62065" lon="6.01833">
        <ele>240.83</ele>
        <time>2018-02-23T14:28:48Z</time>
      </trkpt>
      <trkpt lat="47.6207" lon="6.01838">
        <ele>240.71</ele>
        <time>2018-02-23T14:28:49Z</time>
      </trkpt>
      <trkpt lat="47.62073" lon="6.01842">
        <ele>240.58</ele>
        <time>2018-02-23T14:28:50Z</time>
      </trkpt>
      <trkpt lat="47.62078" lon="6.01848">
        <ele>240.44</ele>
        <time>2018-02-23T14:28:51Z</time>
      </trkpt>
      <trkpt lat="47.62082" lon="6.01854">
        <ele>240.24</ele>
        <time>2018-02-23T14:28:52Z</time>
      </trkpt>
      <trkpt lat="47.62086" lon="6.01859">
        <ele>240.01</ele>
        <time>2018-02-23T14:28:53Z</time>
      </trkpt>
      <trkpt lat="47.6209" lon="6.01865">
        <ele>239.74</ele>
        <time>2018-02-23T14:28:54Z</time>
      </trkpt>
      <trkpt lat="47.62093" lon="6.01871">
        <ele>239.42</ele>
        <time>2018-02-23T14:28:55Z</time>
      </trkpt>
      <trkpt lat="47.62098" lon="6.01877">
        <ele>239.08</ele>
        <time>2018-02-23T14:28:56Z</time>
      </trkpt>
      <trkpt lat="47.62102" lon="6.01883">
        <ele>238.72</ele>
        <time>2018-02-23T14:28:57Z</time>
      </trkpt>
      <trkpt lat="47.62106" lon="6.01889">
        <ele>238.4</ele>
        <time>2018-02-23T14:28:58Z</time>
      </trkpt>
      <trkpt lat="47.62111" lon="6.01895">
        <ele>238.12</ele>
        <time>2018-02-23T14:28:59Z</time>
      </trkpt>
      <trkpt lat="47.62117" lon="6.01901">
        <ele>237.9</ele>
        <time>2018-02-23T14:29:00Z</time>
      </trkpt>
      <trkpt lat="47.62121" lon="6.01906">
        <ele>237.67</ele>
        <time>2018-02-23T14:29:01Z</time>
      </trkpt>
      <trkpt lat="47.62126" lon="6.01911">
        <ele>237.42</ele>
        <time>2018-02-23T14:29:02Z</time>
      </trkpt>
      <trkpt lat="47.6213" lon="6.01915">
        <ele>237.17</ele>
        <time>2018-02-23T14:29:03Z</time>
      </trkpt>
      <trkpt lat="47.62135" lon="6.0192">
        <ele>236.89</ele>
        <time>2018-02-23T14:29:04Z</time>
      </trkpt>
      <trkpt lat="47.62139" lon="6.01926">
        <ele>236.61</ele>
        <time>2018-02-23T14:29:05Z</time>
      </trkpt>
      <trkpt lat="47.62143" lon="6.01931">
        <ele>236.31</ele>
        <time>2018-02-23T14:29:06Z</time>
      </trkpt>
      <trkpt lat="47.62149" lon="6.01936">
        <ele>236</ele>
        <time>2018-02-23T14:29:07Z</time>
      </trkpt>
      <trkpt lat="47.62154" lon="6.0194">
        <ele>235.66</ele>
        <time>2018-02-23T14:29:08Z</time>
      </trkpt>
      <trkpt lat="47.62158" lon="6.01945">
        <ele>235.31</ele>
        <time>2018-02-23T14:29:09Z</time>
      </trkpt>
      <trkpt lat="47.62163" lon="6.0195">
        <ele>234.96</ele>
        <time>2018-02-23T14:29:10Z</time>
      </trkpt>
      <trkpt lat="47.62168" lon="6.01956">
        <ele>234.64</ele>
        <time>2018-02-23T14:29:11Z</time>
      </trkpt>
      <trkpt lat="47.62175" lon="6.01962">
        <ele>234.41</ele>
        <time>2018-02-23T14:29:12Z</time>
      </trkpt>
      <trkpt lat="47.6218" lon="6.01969">
        <ele>234.21</ele>
        <time>2018-02-23T14:29:13Z</time>
      </trkpt>
      <trkpt lat="47.62186" lon="6.01975">
        <ele>234.08</ele>
        <time>2018-02-23T14:29:14Z</time>
      </trkpt>
      <trkpt lat="47.62192" lon="6.01982">
        <ele>234.02</ele>
        <time>2018-02-23T14:29:15Z</time>
      </trkpt>
      <trkpt lat="47.62198" lon="6.01989">
        <ele>233.95</ele>
        <time>2018-02-23T14:29:16Z</time>
      </trkpt>
      <trkpt lat="47.62202" lon="6.01995">
        <ele>233.88</ele>
        <time>2018-02-23T14:29:17Z</time>
      </trkpt>
      <trkpt lat="47.62207" lon="6.02">
        <ele>233.82</ele>
        <time>2018-02-23T14:29:18Z</time>
      </trkpt>
      <trkpt lat="47.62212" lon="6.02006">
        <ele>233.82</ele>
        <time>2018-02-23T14:29:19Z</time>
      </trkpt>
      <trkpt lat="47.62216" lon="6.02011">
        <ele>233.84</ele>
        <time>2018-02-23T14:29:20Z</time>
      </trkpt>
      <trkpt lat="47.62219" lon="6.02016">
        <ele>233.81</ele>
        <time>2018-02-23T14:29:21Z</time>
      </trkpt>
      <trkpt lat="47.62223" lon="6.0202">
        <ele>233.79</ele>
        <time>2018-02-23T14:29:22Z</time>
      </trkpt>
      <trkpt lat="47.62228" lon="6.02025">
        <ele>233.73</ele>
        <time>2018-02-23T14:29:23Z</time>
      </trkpt>
      <trkpt lat="47.62232" lon="6.0203">
        <ele>233.65</ele>
        <time>2018-02-23T14:29:24Z</time>
      </trkpt>
      <trkpt lat="47.62236" lon="6.02035">
        <ele>233.57</ele>
        <time>2018-02-23T14:29:25Z</time>
      </trkpt>
      <trkpt lat="47.62241" lon="6.0204">
        <ele>233.53</ele>
        <time>2018-02-23T14:29:26Z</time>
      </trkpt>
      <trkpt lat="47.62245" lon="6.02044">
        <ele>233.45</ele>
        <time>2018-02-23T14:29:27Z</time>
      </trkpt>
      <trkpt lat="47.62249" lon="6.02049">
        <ele>233.35</ele>
        <time>2018-02-23T14:29:28Z</time>
      </trkpt>
      <trkpt lat="47.62254" lon="6.02053">
        <ele>233.25</ele>
        <time>2018-02-23T14:29:29Z</time>
      </trkpt>
      <trkpt lat="47.62258" lon="6.02057">
        <ele>233.17</ele>
        <time>2018-02-23T14:29:30Z</time>
      </trkpt>
      <trkpt lat="47.62263" lon="6.02061">
        <ele>233.06</ele>
        <time>2018-02-23T14:29:31Z</time>
      </trkpt>
      <trkpt lat="47.62268" lon="6.02065">
        <ele>232.94</ele>
        <time>2018-02-23T14:29:32Z</time>
      </trkpt>
      <trkpt lat="47.62272" lon="6.0207">
        <ele>232.76</ele>
        <time>2018-02-23T14:29:33Z</time>
      </trkpt>
      <trkpt lat="47.62277" lon="6.02074">
        <ele>232.55</ele>
        <time>2018-02-23T14:29:34Z</time>
      </trkpt>
      <trkpt lat="47.62281" lon="6.02078">
        <ele>232.32</ele>
        <time>2018-02-23T14:29:35Z</time>
      </trkpt>
      <trkpt lat="47.62285" lon="6.02083">
        <ele>232.15</ele>
        <time>2018-02-23T14:29:36Z</time>
      </trkpt>
      <trkpt lat="47.62289" lon="6.02086">
        <ele>231.97</ele>
        <time>2018-02-23T14:29:37Z</time>
      </trkpt>
      <trkpt lat="47.62293" lon="6.0209">
        <ele>231.94</ele>
        <time>2018-02-23T14:29:38Z</time>
      </trkpt>
      <trkpt lat="47.62301" lon="6.02096">
        <ele>231.97</ele>
        <time>2018-02-23T14:29:40Z</time>
      </trkpt>
      <trkpt lat="47.62305" lon="6.021">
        <ele>232.04</ele>
        <time>2018-02-23T14:29:41Z</time>
      </trkpt>
      <trkpt lat="47.62312" lon="6.02107">
        <ele>232.07</ele>
        <time>2018-02-23T14:29:43Z</time>
      </trkpt>
      <trkpt lat="47.62319" lon="6.02114">
        <ele>232.26</ele>
        <time>2018-02-23T14:29:45Z</time>
      </trkpt>
      <trkpt lat="47.62326" lon="6.0212">
        <ele>232.43</ele>
        <time>2018-02-23T14:29:47Z</time>
      </trkpt>
      <trkpt lat="47.62333" lon="6.02127">
        <ele>232.69</ele>
        <time>2018-02-23T14:29:49Z</time>
      </trkpt>
      <trkpt lat="47.6234" lon="6.02132">
        <ele>232.87</ele>
        <time>2018-02-23T14:29:51Z</time>
      </trkpt>
      <trkpt lat="47.62345" lon="6.02136">
        <ele>232.94</ele>
        <time>2018-02-23T14:29:52Z</time>
      </trkpt>
      <trkpt lat="47.62352" lon="6.02143">
        <ele>232.98</ele>
        <time>2018-02-23T14:29:54Z</time>
      </trkpt>
      <trkpt lat="47.6236" lon="6.02149">
        <ele>232.83</ele>
        <time>2018-02-23T14:29:56Z</time>
      </trkpt>
      <trkpt lat="47.62367" lon="6.02156">
        <ele>232.66</ele>
        <time>2018-02-23T14:29:58Z</time>
      </trkpt>
      <trkpt lat="47.62373" lon="6.02162">
        <ele>232.63</ele>
        <time>2018-02-23T14:30:00Z</time>
      </trkpt>
      <trkpt lat="47.62379" lon="6.02168">
        <ele>232.61</ele>
        <time>2018-02-23T14:30:02Z</time>
      </trkpt>
      <trkpt lat="47.62385" lon="6.02175">
        <ele>232.48</ele>
        <time>2018-02-23T14:30:04Z</time>
      </trkpt>
      <trkpt lat="47.62391" lon="6.02182">
        <ele>232.3</ele>
        <time>2018-02-23T14:30:06Z</time>
      </trkpt>
      <trkpt lat="47.62397" lon="6.02189">
        <ele>232.26</ele>
        <time>2018-02-23T14:30:08Z</time>
      </trkpt>
      <trkpt lat="47.62403" lon="6.02195">
        <ele>232.24</ele>
        <time>2018-02-23T14:30:10Z</time>
      </trkpt>
      <trkpt lat="47.62409" lon="6.02202">
        <ele>232.23</ele>
        <time>2018-02-23T14:30:12Z</time>
      </trkpt>
      <trkpt lat="47.62414" lon="6.02208">
        <ele>232.21</ele>
        <time>2018-02-23T14:30:14Z</time>
      </trkpt>
      <trkpt lat="47.6242" lon="6.02216">
        <ele>232.14</ele>
        <time>2018-02-23T14:30:16Z</time>
      </trkpt>
      <trkpt lat="47.62426" lon="6.02223">
        <ele>232.14</ele>
        <time>2018-02-23T14:30:18Z</time>
      </trkpt>
      <trkpt lat="47.62432" lon="6.0223">
        <ele>232.14</ele>
        <time>2018-02-23T14:30:20Z</time>
      </trkpt>
      <trkpt lat="47.62437" lon="6.02237">
        <ele>232.09</ele>
        <time>2018-02-23T14:30:22Z</time>
      </trkpt>
      <trkpt lat="47.62443" lon="6.02246">
        <ele>232.01</ele>
        <time>2018-02-23T14:30:24Z</time>
      </trkpt>
      <trkpt lat="47.6245" lon="6.02253">
        <ele>231.95</ele>
        <time>2018-02-23T14:30:26Z</time>
      </trkpt>
      <trkpt lat="47.62456" lon="6.02261">
        <ele>231.87</ele>
        <time>2018-02-23T14:30:28Z</time>
      </trkpt>
      <trkpt lat="47.62462" lon="6.0227">
        <ele>231.84</ele>
        <time>2018-02-23T14:30:30Z</time>
      </trkpt>
      <trkpt lat="47.62468" lon="6.02279">
        <ele>231.76</ele>
        <time>2018-02-23T14:30:32Z</time>
      </trkpt>
      <trkpt lat="47.62473" lon="6.02287">
        <ele>231.68</ele>
        <time>2018-02-23T14:30:34Z</time>
      </trkpt>
      <trkpt lat="47.62479" lon="6.02296">
        <ele>231.65</ele>
        <time>2018-02-23T14:30:36Z</time>
      </trkpt>
      <trkpt lat="47.62483" lon="6.023">
        <ele>231.62</ele>
        <time>2018-02-23T14:30:37Z</time>
      </trkpt>
      <trkpt lat="47.62487" lon="6.02305">
        <ele>231.55</ele>
        <time>2018-02-23T14:30:38Z</time>
      </trkpt>
      <trkpt lat="47.62491" lon="6.02309">
        <ele>231.46</ele>
        <time>2018-02-23T14:30:39Z</time>
      </trkpt>
      <trkpt lat="47.62495" lon="6.02314">
        <ele>231.38</ele>
        <time>2018-02-23T14:30:40Z</time>
      </trkpt>
      <trkpt lat="47.62499" lon="6.02318">
        <ele>231.28</ele>
        <time>2018-02-23T14:30:41Z</time>
      </trkpt>
      <trkpt lat="47.62502" lon="6.02323">
        <ele>231.19</ele>
        <time>2018-02-23T14:30:42Z</time>
      </trkpt>
      <trkpt lat="47.62506" lon="6.02327">
        <ele>231.09</ele>
        <time>2018-02-23T14:30:43Z</time>
      </trkpt>
      <trkpt lat="47.62509" lon="6.02332">
        <ele>230.97</ele>
        <time>2018-02-23T14:30:44Z</time>
      </trkpt>
      <trkpt lat="47.62513" lon="6.02337">
        <ele>230.85</ele>
        <time>2018-02-23T14:30:45Z</time>
      </trkpt>
      <trkpt lat="47.62516" lon="6.02342">
        <ele>230.72</ele>
        <time>2018-02-23T14:30:46Z</time>
      </trkpt>
      <trkpt lat="47.6252" lon="6.02346">
        <ele>230.59</ele>
        <time>2018-02-23T14:30:47Z</time>
      </trkpt>
      <trkpt lat="47.62523" lon="6.02351">
        <ele>230.45</ele>
        <time>2018-02-23T14:30:48Z</time>
      </trkpt>
      <trkpt lat="47.62527" lon="6.02356">
        <ele>230.31</ele>
        <time>2018-02-23T14:30:49Z</time>
      </trkpt>
      <trkpt lat="47.62531" lon="6.0236">
        <ele>230.18</ele>
        <time>2018-02-23T14:30:50Z</time>
      </trkpt>
      <trkpt lat="47.62535" lon="6.02365">
        <ele>230.05</ele>
        <time>2018-02-23T14:30:51Z</time>
      </trkpt>
      <trkpt lat="47.62542" lon="6.02373">
        <ele>229.81</ele>
        <time>2018-02-23T14:30:53Z</time>
      </trkpt>
      <trkpt lat="47.62548" lon="6.02382">
        <ele>229.62</ele>
        <time>2018-02-23T14:30:55Z</time>
      </trkpt>
      <trkpt lat="47.62552" lon="6.02386">
        <ele>229.53</ele>
        <time>2018-02-23T14:30:56Z</time>
      </trkpt>
      <trkpt lat="47.62556" lon="6.0239">
        <ele>229.46</ele>
        <time>2018-02-23T14:30:57Z</time>
      </trkpt>
      <trkpt lat="47.6256" lon="6.02394">
        <ele>229.39</ele>
        <time>2018-02-23T14:30:58Z</time>
      </trkpt>
      <trkpt lat="47.62564" lon="6.02398">
        <ele>229.31</ele>
        <time>2018-02-23T14:30:59Z</time>
      </trkpt>
      <trkpt lat="47.62569" lon="6.02402">
        <ele>229.22</ele>
        <time>2018-02-23T14:31:00Z</time>
      </trkpt>
      <trkpt lat="47.62574" lon="6.02405">
        <ele>229.11</ele>
        <time>2018-02-23T14:31:01Z</time>
      </trkpt>
      <trkpt lat="47.62578" lon="6.02409">
        <ele>228.99</ele>
        <time>2018-02-23T14:31:02Z</time>
      </trkpt>
      <trkpt lat="47.62585" lon="6.02416">
        <ele>228.79</ele>
        <time>2018-02-23T14:31:04Z</time>
      </trkpt>
      <trkpt lat="47.62589" lon="6.0242">
        <ele>228.7</ele>
        <time>2018-02-23T14:31:05Z</time>
      </trkpt>
      <trkpt lat="47.62594" lon="6.02424">
        <ele>228.64</ele>
        <time>2018-02-23T14:31:06Z</time>
      </trkpt>
      <trkpt lat="47.62598" lon="6.02428">
        <ele>228.59</ele>
        <time>2018-02-23T14:31:07Z</time>
      </trkpt>
      <trkpt lat="47.62603" lon="6.02432">
        <ele>228.55</ele>
        <time>2018-02-23T14:31:08Z</time>
      </trkpt>
      <trkpt lat="47.62608" lon="6.02437">
        <ele>228.5</ele>
        <time>2018-02-23T14:31:09Z</time>
      </trkpt>
      <trkpt lat="47.62612" lon="6.02441">
        <ele>228.45</ele>
        <time>2018-02-23T14:31:10Z</time>
      </trkpt>
      <trkpt lat="47.62617" lon="6.02445">
        <ele>228.4</ele>
        <time>2018-02-23T14:31:11Z</time>
      </trkpt>
      <trkpt lat="47.62622" lon="6.02448">
        <ele>228.33</ele>
        <time>2018-02-23T14:31:12Z</time>
      </trkpt>
      <trkpt lat="47.62626" lon="6.02451">
        <ele>228.25</ele>
        <time>2018-02-23T14:31:13Z</time>
      </trkpt>
      <trkpt lat="47.6263" lon="6.02455">
        <ele>228.14</ele>
        <time>2018-02-23T14:31:14Z</time>
      </trkpt>
      <trkpt lat="47.62634" lon="6.02459">
        <ele>228.05</ele>
        <time>2018-02-23T14:31:15Z</time>
      </trkpt>
      <trkpt lat="47.62639" lon="6.02462">
        <ele>227.97</ele>
        <time>2018-02-23T14:31:16Z</time>
      </trkpt>
      <trkpt lat="47.62643" lon="6.02466">
        <ele>227.9</ele>
        <time>2018-02-23T14:31:17Z</time>
      </trkpt>
      <trkpt lat="47.62648" lon="6.02469">
        <ele>227.84</ele>
        <time>2018-02-23T14:31:18Z</time>
      </trkpt>
      <trkpt lat="47.62653" lon="6.02473">
        <ele>227.79</ele>
        <time>2018-02-23T14:31:19Z</time>
      </trkpt>
      <trkpt lat="47.62658" lon="6.02476">
        <ele>227.79</ele>
        <time>2018-02-23T14:31:20Z</time>
      </trkpt>
      <trkpt lat="47.62663" lon="6.02479">
        <ele>227.83</ele>
        <time>2018-02-23T14:31:21Z</time>
      </trkpt>
      <trkpt lat="47.62668" lon="6.02481">
        <ele>227.93</ele>
        <time>2018-02-23T14:31:22Z</time>
      </trkpt>
      <trkpt lat="47.62672" lon="6.02485">
        <ele>228</ele>
        <time>2018-02-23T14:31:23Z</time>
      </trkpt>
      <trkpt lat="47.62677" lon="6.02487">
        <ele>228.06</ele>
        <time>2018-02-23T14:31:24Z</time>
      </trkpt>
      <trkpt lat="47.62682" lon="6.0249">
        <ele>228.08</ele>
        <time>2018-02-23T14:31:25Z</time>
      </trkpt>
      <trkpt lat="47.62687" lon="6.02493">
        <ele>228.07</ele>
        <time>2018-02-23T14:31:26Z</time>
      </trkpt>
      <trkpt lat="47.62692" lon="6.02495">
        <ele>228.07</ele>
        <time>2018-02-23T14:31:27Z</time>
      </trkpt>
      <trkpt lat="47.62696" lon="6.02496">
        <ele>228.07</ele>
        <time>2018-02-23T14:31:28Z</time>
      </trkpt>
      <trkpt lat="47.627" lon="6.02499">
        <ele>228.12</ele>
        <time>2018-02-23T14:31:29Z</time>
      </trkpt>
      <trkpt lat="47.62706" lon="6.02501">
        <ele>228.17</ele>
        <time>2018-02-23T14:31:30Z</time>
      </trkpt>
      <trkpt lat="47.62711" lon="6.02502">
        <ele>228.19</ele>
        <time>2018-02-23T14:31:31Z</time>
      </trkpt>
      <trkpt lat="47.62716" lon="6.02505">
        <ele>228.18</ele>
        <time>2018-02-23T14:31:32Z</time>
      </trkpt>
      <trkpt lat="47.62721" lon="6.02508">
        <ele>228.18</ele>
        <time>2018-02-23T14:31:33Z</time>
      </trkpt>
      <trkpt lat="47.62725" lon="6.02511">
        <ele>228.2</ele>
        <time>2018-02-23T14:31:34Z</time>
      </trkpt>
      <trkpt lat="47.6273" lon="6.02513">
        <ele>228.2</ele>
        <time>2018-02-23T14:31:35Z</time>
      </trkpt>
      <trkpt lat="47.62738" lon="6.02516">
        <ele>228.11</ele>
        <time>2018-02-23T14:31:37Z</time>
      </trkpt>
      <trkpt lat="47.62745" lon="6.02519">
        <ele>227.99</ele>
        <time>2018-02-23T14:31:39Z</time>
      </trkpt>
      <trkpt lat="47.62753" lon="6.02524">
        <ele>227.96</ele>
        <time>2018-02-23T14:31:41Z</time>
      </trkpt>
      <trkpt lat="47.6276" lon="6.02529">
        <ele>227.93</ele>
        <time>2018-02-23T14:31:43Z</time>
      </trkpt>
      <trkpt lat="47.62766" lon="6.02533">
        <ele>227.9</ele>
        <time>2018-02-23T14:31:45Z</time>
      </trkpt>
      <trkpt lat="47.62773" lon="6.02538">
        <ele>227.74</ele>
        <time>2018-02-23T14:31:47Z</time>
      </trkpt>
      <trkpt lat="47.6278" lon="6.02545">
        <ele>227.48</ele>
        <time>2018-02-23T14:31:49Z</time>
      </trkpt>
      <trkpt lat="47.62787" lon="6.02552">
        <ele>227.39</ele>
        <time>2018-02-23T14:31:51Z</time>
      </trkpt>
      <trkpt lat="47.62795" lon="6.02558">
        <ele>227.42</ele>
        <time>2018-02-23T14:31:53Z</time>
      </trkpt>
      <trkpt lat="47.628" lon="6.02564">
        <ele>227.43</ele>
        <time>2018-02-23T14:31:55Z</time>
      </trkpt>
      <trkpt lat="47.62806" lon="6.0257">
        <ele>227.43</ele>
        <time>2018-02-23T14:31:57Z</time>
      </trkpt>
      <trkpt lat="47.6281" lon="6.02576">
        <ele>227.42</ele>
        <time>2018-02-23T14:31:59Z</time>
      </trkpt>
      <trkpt lat="47.62815" lon="6.02581">
        <ele>227.42</ele>
        <time>2018-02-23T14:32:01Z</time>
      </trkpt>
      <trkpt lat="47.62822" lon="6.02587">
        <ele>227.41</ele>
        <time>2018-02-23T14:32:03Z</time>
      </trkpt>
      <trkpt lat="47.62827" lon="6.02593">
        <ele>227.4</ele>
        <time>2018-02-23T14:32:05Z</time>
      </trkpt>
      <trkpt lat="47.62834" lon="6.026">
        <ele>227.31</ele>
        <time>2018-02-23T14:32:07Z</time>
      </trkpt>
      <trkpt lat="47.6284" lon="6.02606">
        <ele>227.29</ele>
        <time>2018-02-23T14:32:09Z</time>
      </trkpt>
      <trkpt lat="47.62846" lon="6.02613">
        <ele>227.26</ele>
        <time>2018-02-23T14:32:11Z</time>
      </trkpt>
      <trkpt lat="47.62852" lon="6.0262">
        <ele>227.24</ele>
        <time>2018-02-23T14:32:13Z</time>
      </trkpt>
      <trkpt lat="47.62856" lon="6.02624">
        <ele>227.22</ele>
        <time>2018-02-23T14:32:14Z</time>
      </trkpt>
      <trkpt lat="47.62861" lon="6.02632">
        <ele>227.11</ele>
        <time>2018-02-23T14:32:16Z</time>
      </trkpt>
      <trkpt lat="47.62867" lon="6.02639">
        <ele>227.06</ele>
        <time>2018-02-23T14:32:18Z</time>
      </trkpt>
      <trkpt lat="47.62871" lon="6.02643">
        <ele>227.05</ele>
        <time>2018-02-23T14:32:19Z</time>
      </trkpt>
      <trkpt lat="47.62877" lon="6.0265">
        <ele>227.03</ele>
        <time>2018-02-23T14:32:21Z</time>
      </trkpt>
      <trkpt lat="47.62882" lon="6.02654">
        <ele>226.96</ele>
        <time>2018-02-23T14:32:22Z</time>
      </trkpt>
      <trkpt lat="47.62887" lon="6.02659">
        <ele>226.85</ele>
        <time>2018-02-23T14:32:23Z</time>
      </trkpt>
      <trkpt lat="47.62892" lon="6.02664">
        <ele>226.8</ele>
        <time>2018-02-23T14:32:24Z</time>
      </trkpt>
      <trkpt lat="47.62899" lon="6.0267">
        <ele>226.75</ele>
        <time>2018-02-23T14:32:26Z</time>
      </trkpt>
      <trkpt lat="47.62905" lon="6.02676">
        <ele>226.7</ele>
        <time>2018-02-23T14:32:28Z</time>
      </trkpt>
      <trkpt lat="47.62915" lon="6.02679">
        <ele>226.43</ele>
        <time>2018-02-23T14:32:30Z</time>
      </trkpt>
      <trkpt lat="47.62922" lon="6.02686">
        <ele>226.22</ele>
        <time>2018-02-23T14:32:32Z</time>
      </trkpt>
      <trkpt lat="47.62926" lon="6.0269">
        <ele>226</ele>
        <time>2018-02-23T14:32:33Z</time>
      </trkpt>
      <trkpt lat="47.62934" lon="6.02697">
        <ele>225.75</ele>
        <time>2018-02-23T14:32:35Z</time>
      </trkpt>
      <trkpt lat="47.62939" lon="6.02705">
        <ele>225.7</ele>
        <time>2018-02-23T14:32:37Z</time>
      </trkpt>
      <trkpt lat="47.62944" lon="6.02713">
        <ele>225.65</ele>
        <time>2018-02-23T14:32:39Z</time>
      </trkpt>
      <trkpt lat="47.62947" lon="6.02724">
        <ele>225.35</ele>
        <time>2018-02-23T14:32:41Z</time>
      </trkpt>
      <trkpt lat="47.62949" lon="6.02731">
        <ele>225.04</ele>
        <time>2018-02-23T14:32:42Z</time>
      </trkpt>
      <trkpt lat="47.62951" lon="6.02739">
        <ele>224.77</ele>
        <time>2018-02-23T14:32:43Z</time>
      </trkpt>
      <trkpt lat="47.62954" lon="6.02747">
        <ele>224.51</ele>
        <time>2018-02-23T14:32:44Z</time>
      </trkpt>
      <trkpt lat="47.62956" lon="6.02755">
        <ele>224.28</ele>
        <time>2018-02-23T14:32:45Z</time>
      </trkpt>
      <trkpt lat="47.62958" lon="6.02764">
        <ele>224.06</ele>
        <time>2018-02-23T14:32:46Z</time>
      </trkpt>
      <trkpt lat="47.6296" lon="6.02772">
        <ele>223.86</ele>
        <time>2018-02-23T14:32:47Z</time>
      </trkpt>
      <trkpt lat="47.62963" lon="6.02778">
        <ele>223.79</ele>
        <time>2018-02-23T14:32:48Z</time>
      </trkpt>
      <trkpt lat="47.62968" lon="6.02785">
        <ele>223.75</ele>
        <time>2018-02-23T14:32:50Z</time>
      </trkpt>
      <trkpt lat="47.62972" lon="6.02789">
        <ele>223.72</ele>
        <time>2018-02-23T14:32:52Z</time>
      </trkpt>
      <trkpt lat="47.62977" lon="6.02795">
        <ele>223.68</ele>
        <time>2018-02-23T14:32:54Z</time>
      </trkpt>
      <trkpt lat="47.62983" lon="6.02802">
        <ele>223.64</ele>
        <time>2018-02-23T14:32:56Z</time>
      </trkpt>
      <trkpt lat="47.62991" lon="6.02809">
        <ele>223.29</ele>
        <time>2018-02-23T14:32:58Z</time>
      </trkpt>
      <trkpt lat="47.62995" lon="6.02814">
        <ele>223.13</ele>
        <time>2018-02-23T14:32:59Z</time>
      </trkpt>
      <trkpt lat="47.62999" lon="6.02817">
        <ele>223.07</ele>
        <time>2018-02-23T14:33:00Z</time>
      </trkpt>
      <trkpt lat="47.63004" lon="6.02823">
        <ele>222.89</ele>
        <time>2018-02-23T14:33:02Z</time>
      </trkpt>
      <trkpt lat="47.63007" lon="6.02828">
        <ele>222.7</ele>
        <time>2018-02-23T14:33:03Z</time>
      </trkpt>
      <trkpt lat="47.63011" lon="6.02833">
        <ele>222.52</ele>
        <time>2018-02-23T14:33:04Z</time>
      </trkpt>
      <trkpt lat="47.63018" lon="6.0284">
        <ele>222.31</ele>
        <time>2018-02-23T14:33:06Z</time>
      </trkpt>
      <trkpt lat="47.63022" lon="6.02844">
        <ele>222.15</ele>
        <time>2018-02-23T14:33:07Z</time>
      </trkpt>
      <trkpt lat="47.63026" lon="6.02848">
        <ele>222.01</ele>
        <time>2018-02-23T14:33:08Z</time>
      </trkpt>
      <trkpt lat="47.63032" lon="6.02857">
        <ele>221.68</ele>
        <time>2018-02-23T14:33:10Z</time>
      </trkpt>
      <trkpt lat="47.63036" lon="6.02863">
        <ele>221.56</ele>
        <time>2018-02-23T14:33:11Z</time>
      </trkpt>
      <trkpt lat="47.6304" lon="6.02867">
        <ele>221.47</ele>
        <time>2018-02-23T14:33:12Z</time>
      </trkpt>
      <trkpt lat="47.63047" lon="6.02873">
        <ele>221.43</ele>
        <time>2018-02-23T14:33:14Z</time>
      </trkpt>
      <trkpt lat="47.63053" lon="6.0288">
        <ele>221.41</ele>
        <time>2018-02-23T14:33:16Z</time>
      </trkpt>
      <trkpt lat="47.63059" lon="6.02887">
        <ele>221.39</ele>
        <time>2018-02-23T14:33:18Z</time>
      </trkpt>
      <trkpt lat="47.63067" lon="6.02894">
        <ele>221.26</ele>
        <time>2018-02-23T14:33:20Z</time>
      </trkpt>
      <trkpt lat="47.63071" lon="6.02897">
        <ele>221.19</ele>
        <time>2018-02-23T14:33:21Z</time>
      </trkpt>
      <trkpt lat="47.63076" lon="6.029">
        <ele>221.09</ele>
        <time>2018-02-23T14:33:22Z</time>
      </trkpt>
      <trkpt lat="47.63084" lon="6.02906">
        <ele>220.93</ele>
        <time>2018-02-23T14:33:24Z</time>
      </trkpt>
      <trkpt lat="47.63091" lon="6.02911">
        <ele>220.8</ele>
        <time>2018-02-23T14:33:26Z</time>
      </trkpt>
      <trkpt lat="47.63098" lon="6.02915">
        <ele>220.77</ele>
        <time>2018-02-23T14:33:28Z</time>
      </trkpt>
      <trkpt lat="47.63102" lon="6.02917">
        <ele>220.75</ele>
        <time>2018-02-23T14:33:30Z</time>
      </trkpt>
      <trkpt lat="47.63107" lon="6.02913">
        <ele>220.74</ele>
        <time>2018-02-23T14:33:32Z</time>
      </trkpt>
      <trkpt lat="47.63111" lon="6.02906">
        <ele>220.73</ele>
        <time>2018-02-23T14:33:34Z</time>
      </trkpt>
      <trkpt lat="47.63114" lon="6.02899">
        <ele>220.71</ele>
        <time>2018-02-23T14:33:36Z</time>
      </trkpt>
      <trkpt lat="47.63116" lon="6.02889">
        <ele>220.69</ele>
        <time>2018-02-23T14:33:38Z</time>
      </trkpt>
      <trkpt lat="47.63118" lon="6.02882">
        <ele>220.67</ele>
        <time>2018-02-23T14:33:40Z</time>
      </trkpt>
      <trkpt lat="47.6312" lon="6.02873">
        <ele>220.64</ele>
        <time>2018-02-23T14:33:42Z</time>
      </trkpt>
      <trkpt lat="47.63123" lon="6.02864">
        <ele>220.61</ele>
        <time>2018-02-23T14:33:44Z</time>
      </trkpt>
      <trkpt lat="47.63125" lon="6.02855">
        <ele>220.57</ele>
        <time>2018-02-23T14:33:46Z</time>
      </trkpt>
      <trkpt lat="47.63128" lon="6.02847">
        <ele>220.54</ele>
        <time>2018-02-23T14:33:48Z</time>
      </trkpt>
      <trkpt lat="47.6313" lon="6.02839">
        <ele>220.51</ele>
        <time>2018-02-23T14:33:50Z</time>
      </trkpt>
      <trkpt lat="47.63131" lon="6.02832">
        <ele>220.48</ele>
        <time>2018-02-23T14:33:52Z</time>
      </trkpt>
      <trkpt lat="47.63132" lon="6.02823">
        <ele>220.45</ele>
        <time>2018-02-23T14:33:54Z</time>
      </trkpt>
      <trkpt lat="47.63134" lon="6.02816">
        <ele>220.42</ele>
        <time>2018-02-23T14:33:56Z</time>
      </trkpt>
      <trkpt lat="47.63136" lon="6.02807">
        <ele>220.36</ele>
        <time>2018-02-23T14:33:59Z</time>
      </trkpt>
      <trkpt lat="47.63139" lon="6.02799">
        <ele>220.31</ele>
        <time>2018-02-23T14:34:01Z</time>
      </trkpt>
      <trkpt lat="47.63142" lon="6.02791">
        <ele>220.27</ele>
        <time>2018-02-23T14:34:03Z</time>
      </trkpt>
      <trkpt lat="47.63147" lon="6.02785">
        <ele>220.23</ele>
        <time>2018-02-23T14:34:05Z</time>
      </trkpt>
      <trkpt lat="47.63152" lon="6.02779">
        <ele>220.2</ele>
        <time>2018-02-23T14:34:07Z</time>
      </trkpt>
      <trkpt lat="47.63158" lon="6.02775">
        <ele>220.17</ele>
        <time>2018-02-23T14:34:09Z</time>
      </trkpt>
      <trkpt lat="47.63163" lon="6.02773">
        <ele>220.14</ele>
        <time>2018-02-23T14:34:11Z</time>
      </trkpt>
      <trkpt lat="47.63169" lon="6.02772">
        <ele>220.11</ele>
        <time>2018-02-23T14:34:13Z</time>
      </trkpt>
      <trkpt lat="47.63175" lon="6.0277">
        <ele>220.08</ele>
        <time>2018-02-23T14:34:15Z</time>
      </trkpt>
      <trkpt lat="47.6318" lon="6.02768">
        <ele>220.05</ele>
        <time>2018-02-23T14:34:17Z</time>
      </trkpt>
      <trkpt lat="47.63187" lon="6.02766">
        <ele>220.03</ele>
        <time>2018-02-23T14:34:19Z</time>
      </trkpt>
      <trkpt lat="47.63194" lon="6.02764">
        <ele>220</ele>
        <time>2018-02-23T14:34:21Z</time>
      </trkpt>
      <trkpt lat="47.632" lon="6.02762">
        <ele>219.98</ele>
        <time>2018-02-23T14:34:23Z</time>
      </trkpt>
      <trkpt lat="47.63207" lon="6.0276">
        <ele>219.95</ele>
        <time>2018-02-23T14:34:25Z</time>
      </trkpt>
      <trkpt lat="47.63214" lon="6.02757">
        <ele>219.93</ele>
        <time>2018-02-23T14:34:27Z</time>
      </trkpt>
      <trkpt lat="47.63221" lon="6.02755">
        <ele>219.9</ele>
        <time>2018-02-23T14:34:29Z</time>
      </trkpt>
      <trkpt lat="47.63227" lon="6.02754">
        <ele>219.89</ele>
        <time>2018-02-23T14:34:31Z</time>
      </trkpt>
      <trkpt lat="47.63232" lon="6.02752">
        <ele>219.87</ele>
        <time>2018-02-23T14:34:33Z</time>
      </trkpt>
      <trkpt lat="47.63237" lon="6.02751">
        <ele>219.86</ele>
        <time>2018-02-23T14:34:35Z</time>
      </trkpt>
      <trkpt lat="47.63242" lon="6.0275">
        <ele>219.85</ele>
        <time>2018-02-23T14:34:37Z</time>
      </trkpt>
      <trkpt lat="47.63248" lon="6.02748">
        <ele>219.84</ele>
        <time>2018-02-23T14:34:39Z</time>
      </trkpt>
      <trkpt lat="47.63253" lon="6.02747">
        <ele>219.83</ele>
        <time>2018-02-23T14:34:41Z</time>
      </trkpt>
      <trkpt lat="47.63259" lon="6.02745">
        <ele>219.82</ele>
        <time>2018-02-23T14:34:43Z</time>
      </trkpt>
      <trkpt lat="47.63264" lon="6.02743">
        <ele>219.82</ele>
        <time>2018-02-23T14:34:45Z</time>
      </trkpt>
      <trkpt lat="47.6327" lon="6.0274">
        <ele>219.81</ele>
        <time>2018-02-23T14:34:47Z</time>
      </trkpt>
      <trkpt lat="47.63275" lon="6.02738">
        <ele>219.81</ele>
        <time>2018-02-23T14:34:49Z</time>
      </trkpt>
      <trkpt lat="47.63282" lon="6.02738">
        <ele>219.8</ele>
        <time>2018-02-23T14:34:52Z</time>
      </trkpt>
      <trkpt lat="47.63286" lon="6.02736">
        <ele>219.8</ele>
        <time>2018-02-23T14:34:54Z</time>
      </trkpt>
      <trkpt lat="47.63291" lon="6.02735">
        <ele>219.8</ele>
        <time>2018-02-23T14:34:57Z</time>
      </trkpt>
      <trkpt lat="47.63296" lon="6.02735">
        <ele>219.8</ele>
        <time>2018-02-23T14:34:59Z</time>
      </trkpt>
      <trkpt lat="47.63301" lon="6.02732">
        <ele>219.81</ele>
        <time>2018-02-23T14:35:02Z</time>
      </trkpt>
      <trkpt lat="47.63306" lon="6.02732">
        <ele>219.83</ele>
        <time>2018-02-23T14:35:05Z</time>
      </trkpt>
      <trkpt lat="47.63311" lon="6.02732">
        <ele>219.85</ele>
        <time>2018-02-23T14:35:07Z</time>
      </trkpt>
      <trkpt lat="47.63316" lon="6.02733">
        <ele>219.88</ele>
        <time>2018-02-23T14:35:10Z</time>
      </trkpt>
      <trkpt lat="47.63321" lon="6.02735">
        <ele>219.92</ele>
        <time>2018-02-23T14:35:13Z</time>
      </trkpt>
      <trkpt lat="47.63326" lon="6.02736">
        <ele>219.95</ele>
        <time>2018-02-23T14:35:16Z</time>
      </trkpt>
      <trkpt lat="47.63332" lon="6.02739">
        <ele>220.01</ele>
        <time>2018-02-23T14:35:20Z</time>
      </trkpt>
      <trkpt lat="47.63337" lon="6.0274">
        <ele>220.05</ele>
        <time>2018-02-23T14:35:23Z</time>
      </trkpt>
      <trkpt lat="47.63341" lon="6.0274">
        <ele>220.09</ele>
        <time>2018-02-23T14:35:25Z</time>
      </trkpt>
      <trkpt lat="47.63347" lon="6.02741">
        <ele>220.12</ele>
        <time>2018-02-23T14:35:27Z</time>
      </trkpt>
      <trkpt lat="47.63352" lon="6.02743">
        <ele>220.17</ele>
        <time>2018-02-23T14:35:30Z</time>
      </trkpt>
      <trkpt lat="47.63358" lon="6.02745">
        <ele>220.22</ele>
        <time>2018-02-23T14:35:33Z</time>
      </trkpt>
      <trkpt lat="47.63364" lon="6.02745">
        <ele>220.29</ele>
        <time>2018-02-23T14:35:36Z</time>
      </trkpt>
      <trkpt lat="47.63369" lon="6.02743">
        <ele>220.33</ele>
        <time>2018-02-23T14:35:38Z</time>
      </trkpt>
      <trkpt lat="47.63373" lon="6.02739">
        <ele>220.38</ele>
        <time>2018-02-23T14:35:40Z</time>
      </trkpt>
      <trkpt lat="47.63378" lon="6.02734">
        <ele>220.43</ele>
        <time>2018-02-23T14:35:42Z</time>
      </trkpt>
      <trkpt lat="47.63382" lon="6.02728">
        <ele>220.49</ele>
        <time>2018-02-23T14:35:44Z</time>
      </trkpt>
      <trkpt lat="47.63386" lon="6.0272">
        <ele>220.55</ele>
        <time>2018-02-23T14:35:46Z</time>
      </trkpt>
      <trkpt lat="47.6339" lon="6.02713">
        <ele>220.61</ele>
        <time>2018-02-23T14:35:48Z</time>
      </trkpt>
      <trkpt lat="47.63393" lon="6.02706">
        <ele>220.71</ele>
        <time>2018-02-23T14:35:51Z</time>
      </trkpt>
      <trkpt lat="47.63397" lon="6.02701">
        <ele>220.78</ele>
        <time>2018-02-23T14:35:53Z</time>
      </trkpt>
      <trkpt lat="47.634" lon="6.02694">
        <ele>220.9</ele>
        <time>2018-02-23T14:35:56Z</time>
      </trkpt>
      <trkpt lat="47.63403" lon="6.02689">
        <ele>220.98</ele>
        <time>2018-02-23T14:35:58Z</time>
      </trkpt>
      <trkpt lat="47.63407" lon="6.02681">
        <ele>221.1</ele>
        <time>2018-02-23T14:36:01Z</time>
      </trkpt>
      <trkpt lat="47.6341" lon="6.02674">
        <ele>221.19</ele>
        <time>2018-02-23T14:36:03Z</time>
      </trkpt>
      <trkpt lat="47.63414" lon="6.02666">
        <ele>221.34</ele>
        <time>2018-02-23T14:36:06Z</time>
      </trkpt>
      <trkpt lat="47.63418" lon="6.02659">
        <ele>221.49</ele>
        <time>2018-02-23T14:36:09Z</time>
      </trkpt>
      <trkpt lat="47.63422" lon="6.02652">
        <ele>221.64</ele>
        <time>2018-02-23T14:36:12Z</time>
      </trkpt>
      <trkpt lat="47.63425" lon="6.02645">
        <ele>221.8</ele>
        <time>2018-02-23T14:36:15Z</time>
      </trkpt>
      <trkpt lat="47.63429" lon="6.0264">
        <ele>222.02</ele>
        <time>2018-02-23T14:36:19Z</time>
      </trkpt>
      <trkpt lat="47.63434" lon="6.02643">
        <ele>222.38</ele>
        <time>2018-02-23T14:36:53Z</time>
      </trkpt>
      <trkpt lat="47.63438" lon="6.02639">
        <ele>224.03</ele>
        <time>2018-02-23T14:37:20Z</time>
      </trkpt>
      <trkpt lat="47.63441" lon="6.0263">
        <ele>224.73</ele>
        <time>2018-02-23T14:37:23Z</time>
      </trkpt>
      <trkpt lat="47.63445" lon="6.02623">
        <ele>225.17</ele>
        <time>2018-02-23T14:37:25Z</time>
      </trkpt>
      <trkpt lat="47.63448" lon="6.02617">
        <ele>225.59</ele>
        <time>2018-02-23T14:37:27Z</time>
      </trkpt>
      <trkpt lat="47.63453" lon="6.02609">
        <ele>226.01</ele>
        <time>2018-02-23T14:37:29Z</time>
      </trkpt>
      <trkpt lat="47.63458" lon="6.02602">
        <ele>226.41</ele>
        <time>2018-02-23T14:37:31Z</time>
      </trkpt>
      <trkpt lat="47.63463" lon="6.02594">
        <ele>226.79</ele>
        <time>2018-02-23T14:37:33Z</time>
      </trkpt>
      <trkpt lat="47.63468" lon="6.02586">
        <ele>228.68</ele>
        <time>2018-02-23T14:37:35Z</time>
      </trkpt>
      <trkpt lat="47.63475" lon="6.02576">
        <ele>229.11</ele>
        <time>2018-02-23T14:37:37Z</time>
      </trkpt>
      <trkpt lat="47.63479" lon="6.02568">
        <ele>229.41</ele>
        <time>2018-02-23T14:37:39Z</time>
      </trkpt>
      <trkpt lat="47.63485" lon="6.0256">
        <ele>229.69</ele>
        <time>2018-02-23T14:37:41Z</time>
      </trkpt>
      <trkpt lat="47.63491" lon="6.02552">
        <ele>230.8</ele>
        <time>2018-02-23T14:37:43Z</time>
      </trkpt>
      <trkpt lat="47.63495" lon="6.02548">
        <ele>231.17</ele>
        <time>2018-02-23T14:37:44Z</time>
      </trkpt>
      <trkpt lat="47.63501" lon="6.02543">
        <ele>231.48</ele>
        <time>2018-02-23T14:37:46Z</time>
      </trkpt>
      <trkpt lat="47.63507" lon="6.02537">
        <ele>231.7</ele>
        <time>2018-02-23T14:37:48Z</time>
      </trkpt>
      <trkpt lat="47.63514" lon="6.02532">
        <ele>231.9</ele>
        <time>2018-02-23T14:37:50Z</time>
      </trkpt>
      <trkpt lat="47.63519" lon="6.02527">
        <ele>232.09</ele>
        <time>2018-02-23T14:37:52Z</time>
      </trkpt>
      <trkpt lat="47.63525" lon="6.02523">
        <ele>232.37</ele>
        <time>2018-02-23T14:37:55Z</time>
      </trkpt>
      <trkpt lat="47.63528" lon="6.02519">
        <ele>232.55</ele>
        <time>2018-02-23T14:37:57Z</time>
      </trkpt>
      <trkpt lat="47.63532" lon="6.02514">
        <ele>232.74</ele>
        <time>2018-02-23T14:37:59Z</time>
      </trkpt>
      <trkpt lat="47.63535" lon="6.0251">
        <ele>232.91</ele>
        <time>2018-02-23T14:38:01Z</time>
      </trkpt>
      <trkpt lat="47.6354" lon="6.02506">
        <ele>233.09</ele>
        <time>2018-02-23T14:38:03Z</time>
      </trkpt>
      <trkpt lat="47.63545" lon="6.025">
        <ele>233.26</ele>
        <time>2018-02-23T14:38:05Z</time>
      </trkpt>
      <trkpt lat="47.63551" lon="6.02493">
        <ele>233.42</ele>
        <time>2018-02-23T14:38:07Z</time>
      </trkpt>
      <trkpt lat="47.63556" lon="6.02489">
        <ele>233.57</ele>
        <time>2018-02-23T14:38:09Z</time>
      </trkpt>
      <trkpt lat="47.63562" lon="6.02483">
        <ele>233.73</ele>
        <time>2018-02-23T14:38:11Z</time>
      </trkpt>
      <trkpt lat="47.63568" lon="6.02478">
        <ele>233.94</ele>
        <time>2018-02-23T14:38:14Z</time>
      </trkpt>
      <trkpt lat="47.63574" lon="6.02474">
        <ele>234.07</ele>
        <time>2018-02-23T14:38:16Z</time>
      </trkpt>
      <trkpt lat="47.63582" lon="6.02472">
        <ele>234.19</ele>
        <time>2018-02-23T14:38:18Z</time>
      </trkpt>
      <trkpt lat="47.63589" lon="6.02469">
        <ele>234.29</ele>
        <time>2018-02-23T14:38:20Z</time>
      </trkpt>
      <trkpt lat="47.63595" lon="6.02468">
        <ele>234.39</ele>
        <time>2018-02-23T14:38:22Z</time>
      </trkpt>
      <trkpt lat="47.636" lon="6.02467">
        <ele>234.48</ele>
        <time>2018-02-23T14:38:24Z</time>
      </trkpt>
      <trkpt lat="47.63606" lon="6.02467">
        <ele>234.57</ele>
        <time>2018-02-23T14:38:26Z</time>
      </trkpt>
      <trkpt lat="47.63612" lon="6.02467">
        <ele>234.69</ele>
        <time>2018-02-23T14:38:29Z</time>
      </trkpt>
      <trkpt lat="47.63619" lon="6.02466">
        <ele>234.81</ele>
        <time>2018-02-23T14:38:32Z</time>
      </trkpt>
      <trkpt lat="47.63625" lon="6.02466">
        <ele>234.92</ele>
        <time>2018-02-23T14:38:35Z</time>
      </trkpt>
      <trkpt lat="47.6363" lon="6.02466">
        <ele>234.98</ele>
        <time>2018-02-23T14:38:37Z</time>
      </trkpt>
      <trkpt lat="47.63636" lon="6.02466">
        <ele>235.03</ele>
        <time>2018-02-23T14:38:39Z</time>
      </trkpt>
      <trkpt lat="47.63642" lon="6.02467">
        <ele>235.07</ele>
        <time>2018-02-23T14:38:41Z</time>
      </trkpt>
      <trkpt lat="47.63648" lon="6.02466">
        <ele>235.11</ele>
        <time>2018-02-23T14:38:43Z</time>
      </trkpt>
      <trkpt lat="47.63654" lon="6.02465">
        <ele>235.14</ele>
        <time>2018-02-23T14:38:45Z</time>
      </trkpt>
      <trkpt lat="47.6366" lon="6.02465">
        <ele>235.17</ele>
        <time>2018-02-23T14:38:47Z</time>
      </trkpt>
      <trkpt lat="47.63667" lon="6.02464">
        <ele>235.19</ele>
        <time>2018-02-23T14:38:49Z</time>
      </trkpt>
      <trkpt lat="47.63673" lon="6.02463">
        <ele>235.22</ele>
        <time>2018-02-23T14:38:51Z</time>
      </trkpt>
      <trkpt lat="47.6368" lon="6.02465">
        <ele>235.24</ele>
        <time>2018-02-23T14:38:53Z</time>
      </trkpt>
      <trkpt lat="47.63686" lon="6.02466">
        <ele>235.26</ele>
        <time>2018-02-23T14:38:55Z</time>
      </trkpt>
      <trkpt lat="47.63691" lon="6.02468">
        <ele>235.28</ele>
        <time>2018-02-23T14:38:57Z</time>
      </trkpt>
      <trkpt lat="47.63698" lon="6.02469">
        <ele>235.29</ele>
        <time>2018-02-23T14:38:59Z</time>
      </trkpt>
      <trkpt lat="47.63704" lon="6.0247">
        <ele>235.31</ele>
        <time>2018-02-23T14:39:01Z</time>
      </trkpt>
      <trkpt lat="47.6371" lon="6.0247">
        <ele>235.33</ele>
        <time>2018-02-23T14:39:03Z</time>
      </trkpt>
      <trkpt lat="47.63716" lon="6.02469">
        <ele>235.35</ele>
        <time>2018-02-23T14:39:05Z</time>
      </trkpt>
      <trkpt lat="47.63722" lon="6.02469">
        <ele>235.36</ele>
        <time>2018-02-23T14:39:07Z</time>
      </trkpt>
      <trkpt lat="47.63728" lon="6.02467">
        <ele>235.38</ele>
        <time>2018-02-23T14:39:09Z</time>
      </trkpt>
      <trkpt lat="47.63733" lon="6.02467">
        <ele>235.4</ele>
        <time>2018-02-23T14:39:11Z</time>
      </trkpt>
      <trkpt lat="47.63738" lon="6.02466">
        <ele>235.41</ele>
        <time>2018-02-23T14:39:13Z</time>
      </trkpt>
      <trkpt lat="47.63743" lon="6.02465">
        <ele>235.43</ele>
        <time>2018-02-23T14:39:15Z</time>
      </trkpt>
      <trkpt lat="47.63748" lon="6.02464">
        <ele>235.46</ele>
        <time>2018-02-23T14:39:18Z</time>
      </trkpt>
      <trkpt lat="47.63753" lon="6.02462">
        <ele>235.5</ele>
        <time>2018-02-23T14:39:22Z</time>
      </trkpt>
      <trkpt lat="47.63758" lon="6.02459">
        <ele>235.54</ele>
        <time>2018-02-23T14:39:26Z</time>
      </trkpt>
      <trkpt lat="47.63764" lon="6.02457">
        <ele>235.58</ele>
        <time>2018-02-23T14:39:29Z</time>
      </trkpt>
      <trkpt lat="47.63767" lon="6.02452">
        <ele>235.61</ele>
        <time>2018-02-23T14:39:39Z</time>
      </trkpt>
      <trkpt lat="47.63773" lon="6.02449">
        <ele>235.62</ele>
        <time>2018-02-23T14:39:45Z</time>
      </trkpt>
      <trkpt lat="47.63779" lon="6.02447">
        <ele>235.62</ele>
        <time>2018-02-23T14:39:48Z</time>
      </trkpt>
      <trkpt lat="47.63785" lon="6.02446">
        <ele>235.63</ele>
        <time>2018-02-23T14:39:52Z</time>
      </trkpt>
      <trkpt lat="47.63789" lon="6.02444">
        <ele>235.63</ele>
        <time>2018-02-23T14:39:55Z</time>
      </trkpt>
      <trkpt lat="47.63794" lon="6.02442">
        <ele>235.64</ele>
        <time>2018-02-23T14:39:57Z</time>
      </trkpt>
      <trkpt lat="47.638" lon="6.02441">
        <ele>235.65</ele>
        <time>2018-02-23T14:40:00Z</time>
      </trkpt>
      <trkpt lat="47.63805" lon="6.02438">
        <ele>235.66</ele>
        <time>2018-02-23T14:40:02Z</time>
      </trkpt>
      <trkpt lat="47.6381" lon="6.02436">
        <ele>235.67</ele>
        <time>2018-02-23T14:40:04Z</time>
      </trkpt>
      <trkpt lat="47.63816" lon="6.02434">
        <ele>235.67</ele>
        <time>2018-02-23T14:40:06Z</time>
      </trkpt>
      <trkpt lat="47.63823" lon="6.02432">
        <ele>235.67</ele>
        <time>2018-02-23T14:40:08Z</time>
      </trkpt>
      <trkpt lat="47.63829" lon="6.02431">
        <ele>235.67</ele>
        <time>2018-02-23T14:40:10Z</time>
      </trkpt>
      <trkpt lat="47.63834" lon="6.02431">
        <ele>235.67</ele>
        <time>2018-02-23T14:40:12Z</time>
      </trkpt>
      <trkpt lat="47.63841" lon="6.0243">
        <ele>235.66</ele>
        <time>2018-02-23T14:40:14Z</time>
      </trkpt>
      <trkpt lat="47.63845" lon="6.02427">
        <ele>235.66</ele>
        <time>2018-02-23T14:40:16Z</time>
      </trkpt>
      <trkpt lat="47.6385" lon="6.02428">
        <ele>235.65</ele>
        <time>2018-02-23T14:40:18Z</time>
      </trkpt>
      <trkpt lat="47.63856" lon="6.02427">
        <ele>235.64</ele>
        <time>2018-02-23T14:40:20Z</time>
      </trkpt>
      <trkpt lat="47.63861" lon="6.02428">
        <ele>235.63</ele>
        <time>2018-02-23T14:40:22Z</time>
      </trkpt>
      <trkpt lat="47.63868" lon="6.02428">
        <ele>235.62</ele>
        <time>2018-02-23T14:40:24Z</time>
      </trkpt>
      <trkpt lat="47.63875" lon="6.02429">
        <ele>235.61</ele>
        <time>2018-02-23T14:40:26Z</time>
      </trkpt>
      <trkpt lat="47.6388" lon="6.02427">
        <ele>235.6</ele>
        <time>2018-02-23T14:40:28Z</time>
      </trkpt>
      <trkpt lat="47.63886" lon="6.02428">
        <ele>235.59</ele>
        <time>2018-02-23T14:40:30Z</time>
      </trkpt>
      <trkpt lat="47.63891" lon="6.02428">
        <ele>235.58</ele>
        <time>2018-02-23T14:40:32Z</time>
      </trkpt>
      <trkpt lat="47.63897" lon="6.02427">
        <ele>235.57</ele>
        <time>2018-02-23T14:40:35Z</time>
      </trkpt>
      <trkpt lat="47.63902" lon="6.02427">
        <ele>235.56</ele>
        <time>2018-02-23T14:40:37Z</time>
      </trkpt>
      <trkpt lat="47.63907" lon="6.02425">
        <ele>235.55</ele>
        <time>2018-02-23T14:40:39Z</time>
      </trkpt>
      <trkpt lat="47.63913" lon="6.02427">
        <ele>235.54</ele>
        <time>2018-02-23T14:40:41Z</time>
      </trkpt>
      <trkpt lat="47.63917" lon="6.02429">
        <ele>235.54</ele>
        <time>2018-02-23T14:40:42Z</time>
      </trkpt>
      <trkpt lat="47.63923" lon="6.02431">
        <ele>235.53</ele>
        <time>2018-02-23T14:40:44Z</time>
      </trkpt>
      <trkpt lat="47.6393" lon="6.02434">
        <ele>235.52</ele>
        <time>2018-02-23T14:40:46Z</time>
      </trkpt>
      <trkpt lat="47.63935" lon="6.02435">
        <ele>235.52</ele>
        <time>2018-02-23T14:40:48Z</time>
      </trkpt>
      <trkpt lat="47.6394" lon="6.02438">
        <ele>235.51</ele>
        <time>2018-02-23T14:40:51Z</time>
      </trkpt>
      <trkpt lat="47.63945" lon="6.02439">
        <ele>235.51</ele>
        <time>2018-02-23T14:40:54Z</time>
      </trkpt>
      <trkpt lat="47.6395" lon="6.02441">
        <ele>235.51</ele>
        <time>2018-02-23T14:40:56Z</time>
      </trkpt>
      <trkpt lat="47.63956" lon="6.02441">
        <ele>235.52</ele>
        <time>2018-02-23T14:40:59Z</time>
      </trkpt>
      <trkpt lat="47.63961" lon="6.02442">
        <ele>235.53</ele>
        <time>2018-02-23T14:41:02Z</time>
      </trkpt>
      <trkpt lat="47.63968" lon="6.02441">
        <ele>235.54</ele>
        <time>2018-02-23T14:41:05Z</time>
      </trkpt>
      <trkpt lat="47.63974" lon="6.02443">
        <ele>235.54</ele>
        <time>2018-02-23T14:41:07Z</time>
      </trkpt>
      <trkpt lat="47.63979" lon="6.02444">
        <ele>235.55</ele>
        <time>2018-02-23T14:41:09Z</time>
      </trkpt>
      <trkpt lat="47.63986" lon="6.02441">
        <ele>235.55</ele>
        <time>2018-02-23T14:41:11Z</time>
      </trkpt>
      <trkpt lat="47.63993" lon="6.02442">
        <ele>235.56</ele>
        <time>2018-02-23T14:41:14Z</time>
      </trkpt>
      <trkpt lat="47.63998" lon="6.02446">
        <ele>235.58</ele>
        <time>2018-02-23T14:41:17Z</time>
      </trkpt>
      <trkpt lat="47.64002" lon="6.02447">
        <ele>235.59</ele>
        <time>2018-02-23T14:41:19Z</time>
      </trkpt>
      <trkpt lat="47.64008" lon="6.02447">
        <ele>235.6</ele>
        <time>2018-02-23T14:41:21Z</time>
      </trkpt>
      <trkpt lat="47.64014" lon="6.02447">
        <ele>235.61</ele>
        <time>2018-02-23T14:41:24Z</time>
      </trkpt>
      <trkpt lat="47.64021" lon="6.02447">
        <ele>235.63</ele>
        <time>2018-02-23T14:41:27Z</time>
      </trkpt>
      <trkpt lat="47.64026" lon="6.02446">
        <ele>235.64</ele>
        <time>2018-02-23T14:41:29Z</time>
      </trkpt>
      <trkpt lat="47.64033" lon="6.02444">
        <ele>235.66</ele>
        <time>2018-02-23T14:41:32Z</time>
      </trkpt>
      <trkpt lat="47.64038" lon="6.02443">
        <ele>235.67</ele>
        <time>2018-02-23T14:41:34Z</time>
      </trkpt>
      <trkpt lat="47.64043" lon="6.02443">
        <ele>235.68</ele>
        <time>2018-02-23T14:41:36Z</time>
      </trkpt>
      <trkpt lat="47.64048" lon="6.02442">
        <ele>235.69</ele>
        <time>2018-02-23T14:41:38Z</time>
      </trkpt>
      <trkpt lat="47.64054" lon="6.02441">
        <ele>235.7</ele>
        <time>2018-02-23T14:41:40Z</time>
      </trkpt>
      <trkpt lat="47.64061" lon="6.02441">
        <ele>235.72</ele>
        <time>2018-02-23T14:41:43Z</time>
      </trkpt>
      <trkpt lat="47.64068" lon="6.0244">
        <ele>235.73</ele>
        <time>2018-02-23T14:41:46Z</time>
      </trkpt>
      <trkpt lat="47.64074" lon="6.02439">
        <ele>235.74</ele>
        <time>2018-02-23T14:41:48Z</time>
      </trkpt>
      <trkpt lat="47.64078" lon="6.02439">
        <ele>235.75</ele>
        <time>2018-02-23T14:41:50Z</time>
      </trkpt>
      <trkpt lat="47.64085" lon="6.0244">
        <ele>235.76</ele>
        <time>2018-02-23T14:41:53Z</time>
      </trkpt>
      <trkpt lat="47.64091" lon="6.02439">
        <ele>235.77</ele>
        <time>2018-02-23T14:41:55Z</time>
      </trkpt>
      <trkpt lat="47.64095" lon="6.02439">
        <ele>235.78</ele>
        <time>2018-02-23T14:41:57Z</time>
      </trkpt>
      <trkpt lat="47.641" lon="6.02438">
        <ele>235.79</ele>
        <time>2018-02-23T14:41:59Z</time>
      </trkpt>
      <trkpt lat="47.64105" lon="6.02438">
        <ele>235.8</ele>
        <time>2018-02-23T14:42:01Z</time>
      </trkpt>
      <trkpt lat="47.64111" lon="6.02438">
        <ele>235.81</ele>
        <time>2018-02-23T14:42:04Z</time>
      </trkpt>
      <trkpt lat="47.64116" lon="6.02438">
        <ele>235.83</ele>
        <time>2018-02-23T14:42:07Z</time>
      </trkpt>
      <trkpt lat="47.64122" lon="6.02438">
        <ele>235.84</ele>
        <time>2018-02-23T14:42:10Z</time>
      </trkpt>
      <trkpt lat="47.64127" lon="6.02437">
        <ele>235.85</ele>
        <time>2018-02-23T14:42:13Z</time>
      </trkpt>
      <trkpt lat="47.64134" lon="6.02436">
        <ele>235.87</ele>
        <time>2018-02-23T14:42:16Z</time>
      </trkpt>
      <trkpt lat="47.64139" lon="6.02435">
        <ele>235.88</ele>
        <time>2018-02-23T14:42:19Z</time>
      </trkpt>
      <trkpt lat="47.64144" lon="6.02434">
        <ele>235.89</ele>
        <time>2018-02-23T14:42:21Z</time>
      </trkpt>
      <trkpt lat="47.64148" lon="6.02431">
        <ele>235.91</ele>
        <time>2018-02-23T14:42:23Z</time>
      </trkpt>
      <trkpt lat="47.64154" lon="6.02427">
        <ele>235.93</ele>
        <time>2018-02-23T14:42:26Z</time>
      </trkpt>
      <trkpt lat="47.64159" lon="6.02424">
        <ele>235.95</ele>
        <time>2018-02-23T14:42:29Z</time>
      </trkpt>
      <trkpt lat="47.64165" lon="6.0242">
        <ele>235.98</ele>
        <time>2018-02-23T14:42:32Z</time>
      </trkpt>
      <trkpt lat="47.64171" lon="6.02417">
        <ele>236</ele>
        <time>2018-02-23T14:42:35Z</time>
      </trkpt>
      <trkpt lat="47.64175" lon="6.02413">
        <ele>236.02</ele>
        <time>2018-02-23T14:42:38Z</time>
      </trkpt>
      <trkpt lat="47.6418" lon="6.02411">
        <ele>236.03</ele>
        <time>2018-02-23T14:42:41Z</time>
      </trkpt>
      <trkpt lat="47.64186" lon="6.02409">
        <ele>236.03</ele>
        <time>2018-02-23T14:42:44Z</time>
      </trkpt>
      <trkpt lat="47.64192" lon="6.02407">
        <ele>236.03</ele>
        <time>2018-02-23T14:42:47Z</time>
      </trkpt>
      <trkpt lat="47.64198" lon="6.02406">
        <ele>236.03</ele>
        <time>2018-02-23T14:42:49Z</time>
      </trkpt>
      <trkpt lat="47.64204" lon="6.02405">
        <ele>236.02</ele>
        <time>2018-02-23T14:42:52Z</time>
      </trkpt>
      <trkpt lat="47.6421" lon="6.02403">
        <ele>236.02</ele>
        <time>2018-02-23T14:42:55Z</time>
      </trkpt>
      <trkpt lat="47.64214" lon="6.02404">
        <ele>236.03</ele>
        <time>2018-02-23T14:42:59Z</time>
      </trkpt>
      <trkpt lat="47.64218" lon="6.0241">
        <ele>236.05</ele>
        <time>2018-02-23T14:43:04Z</time>
      </trkpt>
      <trkpt lat="47.64222" lon="6.02412">
        <ele>236.05</ele>
        <time>2018-02-23T14:43:07Z</time>
      </trkpt>
      <trkpt lat="47.64227" lon="6.02416">
        <ele>236.05</ele>
        <time>2018-02-23T14:43:11Z</time>
      </trkpt>
      <trkpt lat="47.64231" lon="6.02419">
        <ele>236.05</ele>
        <time>2018-02-23T14:43:15Z</time>
      </trkpt>
      <trkpt lat="47.64236" lon="6.02422">
        <ele>236.05</ele>
        <time>2018-02-23T14:43:18Z</time>
      </trkpt>
      <trkpt lat="47.6424" lon="6.02425">
        <ele>236.04</ele>
        <time>2018-02-23T14:43:21Z</time>
      </trkpt>
      <trkpt lat="47.64244" lon="6.02428">
        <ele>236.03</ele>
        <time>2018-02-23T14:43:25Z</time>
      </trkpt>
      <trkpt lat="47.64248" lon="6.02433">
        <ele>236.01</ele>
        <time>2018-02-23T14:43:30Z</time>
      </trkpt>
      <trkpt lat="47.64252" lon="6.02436">
        <ele>235.99</ele>
        <time>2018-02-23T14:43:33Z</time>
      </trkpt>
      <trkpt lat="47.64258" lon="6.02442">
        <ele>235.97</ele>
        <time>2018-02-23T14:43:36Z</time>
      </trkpt>
      <trkpt lat="47.64262" lon="6.02447">
        <ele>235.95</ele>
        <time>2018-02-23T14:43:39Z</time>
      </trkpt>
      <trkpt lat="47.64266" lon="6.02452">
        <ele>235.94</ele>
        <time>2018-02-23T14:43:43Z</time>
      </trkpt>
      <trkpt lat="47.64271" lon="6.02456">
        <ele>235.91</ele>
        <time>2018-02-23T14:43:51Z</time>
      </trkpt>
      <trkpt lat="47.64275" lon="6.0246">
        <ele>235.9</ele>
        <time>2018-02-23T14:43:54Z</time>
      </trkpt>
      <trkpt lat="47.6428" lon="6.02463">
        <ele>235.88</ele>
        <time>2018-02-23T14:43:57Z</time>
      </trkpt>
      <trkpt lat="47.64286" lon="6.02463">
        <ele>235.87</ele>
        <time>2018-02-23T14:44:00Z</time>
      </trkpt>
      <trkpt lat="47.64291" lon="6.02463">
        <ele>235.85</ele>
        <time>2018-02-23T14:44:03Z</time>
      </trkpt>
      <trkpt lat="47.64296" lon="6.02463">
        <ele>235.84</ele>
        <time>2018-02-23T14:44:06Z</time>
      </trkpt>
      <trkpt lat="47.64302" lon="6.02461">
        <ele>235.82</ele>
        <time>2018-02-23T14:44:10Z</time>
      </trkpt>
      <trkpt lat="47.64307" lon="6.0246">
        <ele>235.79</ele>
        <time>2018-02-23T14:44:15Z</time>
      </trkpt>
      <trkpt lat="47.64312" lon="6.02459">
        <ele>235.78</ele>
        <time>2018-02-23T14:44:18Z</time>
      </trkpt>
      <trkpt lat="47.64319" lon="6.0246">
        <ele>235.76</ele>
        <time>2018-02-23T14:44:20Z</time>
      </trkpt>
      <trkpt lat="47.64326" lon="6.0246">
        <ele>235.75</ele>
        <time>2018-02-23T14:44:22Z</time>
      </trkpt>
      <trkpt lat="47.64332" lon="6.02461">
        <ele>235.74</ele>
        <time>2018-02-23T14:44:25Z</time>
      </trkpt>
      <trkpt lat="47.64339" lon="6.02463">
        <ele>235.72</ele>
        <time>2018-02-23T14:44:28Z</time>
      </trkpt>
      <trkpt lat="47.64344" lon="6.02464">
        <ele>235.71</ele>
        <time>2018-02-23T14:44:30Z</time>
      </trkpt>
      <trkpt lat="47.6435" lon="6.02466">
        <ele>235.69</ele>
        <time>2018-02-23T14:44:32Z</time>
      </trkpt>
      <trkpt lat="47.64355" lon="6.02467">
        <ele>235.68</ele>
        <time>2018-02-23T14:44:34Z</time>
      </trkpt>
      <trkpt lat="47.6436" lon="6.02469">
        <ele>235.67</ele>
        <time>2018-02-23T14:44:36Z</time>
      </trkpt>
      <trkpt lat="47.64365" lon="6.0247">
        <ele>235.66</ele>
        <time>2018-02-23T14:44:38Z</time>
      </trkpt>
      <trkpt lat="47.6437" lon="6.02472">
        <ele>235.64</ele>
        <time>2018-02-23T14:44:40Z</time>
      </trkpt>
      <trkpt lat="47.64376" lon="6.02475">
        <ele>235.62</ele>
        <time>2018-02-23T14:44:43Z</time>
      </trkpt>
      <trkpt lat="47.6438" lon="6.02476">
        <ele>235.61</ele>
        <time>2018-02-23T14:44:45Z</time>
      </trkpt>
      <trkpt lat="47.64387" lon="6.02479">
        <ele>235.59</ele>
        <time>2018-02-23T14:44:47Z</time>
      </trkpt>
      <trkpt lat="47.64391" lon="6.0248">
        <ele>235.58</ele>
        <time>2018-02-23T14:44:49Z</time>
      </trkpt>
      <trkpt lat="47.64397" lon="6.02482">
        <ele>235.56</ele>
        <time>2018-02-23T14:44:51Z</time>
      </trkpt>
      <trkpt lat="47.64404" lon="6.02484">
        <ele>235.54</ele>
        <time>2018-02-23T14:44:53Z</time>
      </trkpt>
      <trkpt lat="47.6441" lon="6.02486">
        <ele>235.52</ele>
        <time>2018-02-23T14:44:55Z</time>
      </trkpt>
      <trkpt lat="47.64416" lon="6.0249">
        <ele>235.5</ele>
        <time>2018-02-23T14:44:57Z</time>
      </trkpt>
      <trkpt lat="47.6442" lon="6.02494">
        <ele>235.48</ele>
        <time>2018-02-23T14:44:59Z</time>
      </trkpt>
      <trkpt lat="47.64426" lon="6.02499">
        <ele>235.45</ele>
        <time>2018-02-23T14:45:01Z</time>
      </trkpt>
      <trkpt lat="47.64432" lon="6.02503">
        <ele>235.32</ele>
        <time>2018-02-23T14:45:03Z</time>
      </trkpt>
      <trkpt lat="47.64437" lon="6.02503">
        <ele>235.28</ele>
        <time>2018-02-23T14:45:04Z</time>
      </trkpt>
      <trkpt lat="47.64443" lon="6.02505">
        <ele>235.22</ele>
        <time>2018-02-23T14:45:06Z</time>
      </trkpt>
      <trkpt lat="47.64449" lon="6.02508">
        <ele>235.17</ele>
        <time>2018-02-23T14:45:08Z</time>
      </trkpt>
      <trkpt lat="47.64456" lon="6.02512">
        <ele>235.11</ele>
        <time>2018-02-23T14:45:10Z</time>
      </trkpt>
      <trkpt lat="47.64461" lon="6.02515">
        <ele>235.05</ele>
        <time>2018-02-23T14:45:12Z</time>
      </trkpt>
      <trkpt lat="47.64466" lon="6.02517">
        <ele>234.98</ele>
        <time>2018-02-23T14:45:14Z</time>
      </trkpt>
      <trkpt lat="47.6447" lon="6.0252">
        <ele>234.91</ele>
        <time>2018-02-23T14:45:16Z</time>
      </trkpt>
      <trkpt lat="47.64475" lon="6.02524">
        <ele>234.8</ele>
        <time>2018-02-23T14:45:19Z</time>
      </trkpt>
      <trkpt lat="47.64479" lon="6.02527">
        <ele>234.73</ele>
        <time>2018-02-23T14:45:21Z</time>
      </trkpt>
      <trkpt lat="47.64485" lon="6.0253">
        <ele>234.65</ele>
        <time>2018-02-23T14:45:23Z</time>
      </trkpt>
      <trkpt lat="47.64489" lon="6.02532">
        <ele>234.58</ele>
        <time>2018-02-23T14:45:25Z</time>
      </trkpt>
      <trkpt lat="47.64494" lon="6.02534">
        <ele>234.51</ele>
        <time>2018-02-23T14:45:27Z</time>
      </trkpt>
      <trkpt lat="47.64499" lon="6.02537">
        <ele>234.37</ele>
        <time>2018-02-23T14:45:31Z</time>
      </trkpt>
      <trkpt lat="47.64503" lon="6.0254">
        <ele>234.24</ele>
        <time>2018-02-23T14:45:58Z</time>
      </trkpt>
      <trkpt lat="47.64507" lon="6.02545">
        <ele>233.9</ele>
        <time>2018-02-23T14:47:40Z</time>
      </trkpt>
      <trkpt lat="47.64512" lon="6.02549">
        <ele>233.84</ele>
        <time>2018-02-23T14:47:43Z</time>
      </trkpt>
      <trkpt lat="47.64517" lon="6.02556">
        <ele>233.79</ele>
        <time>2018-02-23T14:47:46Z</time>
      </trkpt>
      <trkpt lat="47.64522" lon="6.02561">
        <ele>233.73</ele>
        <time>2018-02-23T14:47:49Z</time>
      </trkpt>
      <trkpt lat="47.64528" lon="6.02566">
        <ele>233.68</ele>
        <time>2018-02-23T14:47:52Z</time>
      </trkpt>
      <trkpt lat="47.64533" lon="6.02569">
        <ele>233.63</ele>
        <time>2018-02-23T14:47:55Z</time>
      </trkpt>
      <trkpt lat="47.64539" lon="6.02571">
        <ele>233.58</ele>
        <time>2018-02-23T14:47:58Z</time>
      </trkpt>
      <trkpt lat="47.64544" lon="6.02571">
        <ele>233.53</ele>
        <time>2018-02-23T14:48:01Z</time>
      </trkpt>
      <trkpt lat="47.64549" lon="6.02571">
        <ele>233.5</ele>
        <time>2018-02-23T14:48:03Z</time>
      </trkpt>
      <trkpt lat="47.64555" lon="6.02568">
        <ele>233.45</ele>
        <time>2018-02-23T14:48:06Z</time>
      </trkpt>
      <trkpt lat="47.6456" lon="6.02567">
        <ele>233.4</ele>
        <time>2018-02-23T14:48:09Z</time>
      </trkpt>
      <trkpt lat="47.64564" lon="6.02566">
        <ele>233.36</ele>
        <time>2018-02-23T14:48:11Z</time>
      </trkpt>
      <trkpt lat="47.64569" lon="6.02565">
        <ele>233.32</ele>
        <time>2018-02-23T14:48:13Z</time>
      </trkpt>
      <trkpt lat="47.64574" lon="6.02566">
        <ele>233.28</ele>
        <time>2018-02-23T14:48:15Z</time>
      </trkpt>
      <trkpt lat="47.6458" lon="6.02566">
        <ele>233.22</ele>
        <time>2018-02-23T14:48:18Z</time>
      </trkpt>
      <trkpt lat="47.64586" lon="6.02563">
        <ele>233.17</ele>
        <time>2018-02-23T14:48:20Z</time>
      </trkpt>
      <trkpt lat="47.6459" lon="6.02556">
        <ele>233.13</ele>
        <time>2018-02-23T14:48:22Z</time>
      </trkpt>
      <trkpt lat="47.64594" lon="6.02551">
        <ele>233.08</ele>
        <time>2018-02-23T14:48:24Z</time>
      </trkpt>
      <trkpt lat="47.64597" lon="6.02545">
        <ele>233.04</ele>
        <time>2018-02-23T14:48:26Z</time>
      </trkpt>
      <trkpt lat="47.64601" lon="6.02541">
        <ele>232.99</ele>
        <time>2018-02-23T14:48:28Z</time>
      </trkpt>
      <trkpt lat="47.64604" lon="6.02535">
        <ele>232.95</ele>
        <time>2018-02-23T14:48:30Z</time>
      </trkpt>
      <trkpt lat="47.64608" lon="6.02529">
        <ele>232.9</ele>
        <time>2018-02-23T14:48:32Z</time>
      </trkpt>
      <trkpt lat="47.64611" lon="6.02524">
        <ele>232.85</ele>
        <time>2018-02-23T14:48:34Z</time>
      </trkpt>
      <trkpt lat="47.64616" lon="6.02518">
        <ele>232.78</ele>
        <time>2018-02-23T14:48:37Z</time>
      </trkpt>
      <trkpt lat="47.64619" lon="6.02512">
        <ele>232.72</ele>
        <time>2018-02-23T14:48:40Z</time>
      </trkpt>
      <trkpt lat="47.64623" lon="6.02507">
        <ele>232.67</ele>
        <time>2018-02-23T14:48:42Z</time>
      </trkpt>
      <trkpt lat="47.64627" lon="6.02503">
        <ele>232.63</ele>
        <time>2018-02-23T14:48:44Z</time>
      </trkpt>
      <trkpt lat="47.64631" lon="6.02496">
        <ele>232.58</ele>
        <time>2018-02-23T14:48:46Z</time>
      </trkpt>
      <trkpt lat="47.64636" lon="6.02488">
        <ele>232.52</ele>
        <time>2018-02-23T14:48:49Z</time>
      </trkpt>
      <trkpt lat="47.64641" lon="6.02481">
        <ele>232.47</ele>
        <time>2018-02-23T14:48:51Z</time>
      </trkpt>
      <trkpt lat="47.64645" lon="6.02477">
        <ele>232.42</ele>
        <time>2018-02-23T14:48:53Z</time>
      </trkpt>
      <trkpt lat="47.6465" lon="6.02471">
        <ele>232.38</ele>
        <time>2018-02-23T14:48:55Z</time>
      </trkpt>
      <trkpt lat="47.64655" lon="6.02465">
        <ele>232.3</ele>
        <time>2018-02-23T14:48:58Z</time>
      </trkpt>
      <trkpt lat="47.64659" lon="6.0246">
        <ele>232.25</ele>
        <time>2018-02-23T14:49:00Z</time>
      </trkpt>
      <trkpt lat="47.64662" lon="6.02455">
        <ele>232.2</ele>
        <time>2018-02-23T14:49:02Z</time>
      </trkpt>
      <trkpt lat="47.64666" lon="6.0245">
        <ele>232.15</ele>
        <time>2018-02-23T14:49:04Z</time>
      </trkpt>
      <trkpt lat="47.6467" lon="6.02446">
        <ele>232.1</ele>
        <time>2018-02-23T14:49:06Z</time>
      </trkpt>
      <trkpt lat="47.64674" lon="6.02441">
        <ele>232.05</ele>
        <time>2018-02-23T14:49:08Z</time>
      </trkpt>
      <trkpt lat="47.64678" lon="6.02436">
        <ele>232.01</ele>
        <time>2018-02-23T14:49:10Z</time>
      </trkpt>
      <trkpt lat="47.64683" lon="6.02432">
        <ele>231.96</ele>
        <time>2018-02-23T14:49:12Z</time>
      </trkpt>
      <trkpt lat="47.64689" lon="6.0243">
        <ele>231.91</ele>
        <time>2018-02-23T14:49:14Z</time>
      </trkpt>
      <trkpt lat="47.64697" lon="6.02429">
        <ele>231.53</ele>
        <time>2018-02-23T14:49:16Z</time>
      </trkpt>
      <trkpt lat="47.64703" lon="6.02427">
        <ele>231.33</ele>
        <time>2018-02-23T14:49:17Z</time>
      </trkpt>
      <trkpt lat="47.64712" lon="6.02425">
        <ele>230.98</ele>
        <time>2018-02-23T14:49:19Z</time>
      </trkpt>
      <trkpt lat="47.64722" lon="6.02423">
        <ele>230.69</ele>
        <time>2018-02-23T14:49:21Z</time>
      </trkpt>
      <trkpt lat="47.64726" lon="6.02422">
        <ele>230.56</ele>
        <time>2018-02-23T14:49:22Z</time>
      </trkpt>
      <trkpt lat="47.64731" lon="6.02421">
        <ele>230.44</ele>
        <time>2018-02-23T14:49:23Z</time>
      </trkpt>
      <trkpt lat="47.64736" lon="6.02421">
        <ele>230.33</ele>
        <time>2018-02-23T14:49:24Z</time>
      </trkpt>
      <trkpt lat="47.6474" lon="6.0242">
        <ele>230.22</ele>
        <time>2018-02-23T14:49:25Z</time>
      </trkpt>
      <trkpt lat="47.64749" lon="6.02419">
        <ele>230.02</ele>
        <time>2018-02-23T14:49:27Z</time>
      </trkpt>
      <trkpt lat="47.64755" lon="6.02419">
        <ele>229.93</ele>
        <time>2018-02-23T14:49:28Z</time>
      </trkpt>
      <trkpt lat="47.6476" lon="6.02419">
        <ele>229.83</ele>
        <time>2018-02-23T14:49:29Z</time>
      </trkpt>
      <trkpt lat="47.64766" lon="6.0242">
        <ele>229.74</ele>
        <time>2018-02-23T14:49:30Z</time>
      </trkpt>
      <trkpt lat="47.64772" lon="6.0242">
        <ele>229.65</ele>
        <time>2018-02-23T14:49:31Z</time>
      </trkpt>
      <trkpt lat="47.64778" lon="6.0242">
        <ele>229.56</ele>
        <time>2018-02-23T14:49:32Z</time>
      </trkpt>
      <trkpt lat="47.64784" lon="6.02421">
        <ele>229.47</ele>
        <time>2018-02-23T14:49:33Z</time>
      </trkpt>
      <trkpt lat="47.64791" lon="6.02422">
        <ele>229.38</ele>
        <time>2018-02-23T14:49:34Z</time>
      </trkpt>
      <trkpt lat="47.64798" lon="6.02424">
        <ele>229.29</ele>
        <time>2018-02-23T14:49:35Z</time>
      </trkpt>
      <trkpt lat="47.64806" lon="6.02425">
        <ele>229.19</ele>
        <time>2018-02-23T14:49:36Z</time>
      </trkpt>
      <trkpt lat="47.64813" lon="6.02427">
        <ele>229.09</ele>
        <time>2018-02-23T14:49:37Z</time>
      </trkpt>
      <trkpt lat="47.64821" lon="6.02427">
        <ele>228.99</ele>
        <time>2018-02-23T14:49:38Z</time>
      </trkpt>
      <trkpt lat="47.64827" lon="6.02429">
        <ele>228.88</ele>
        <time>2018-02-23T14:49:39Z</time>
      </trkpt>
      <trkpt lat="47.64833" lon="6.02429">
        <ele>228.77</ele>
        <time>2018-02-23T14:49:40Z</time>
      </trkpt>
      <trkpt lat="47.6484" lon="6.02428">
        <ele>228.66</ele>
        <time>2018-02-23T14:49:41Z</time>
      </trkpt>
      <trkpt lat="47.64846" lon="6.02427">
        <ele>228.53</ele>
        <time>2018-02-23T14:49:42Z</time>
      </trkpt>
      <trkpt lat="47.64852" lon="6.02426">
        <ele>228.38</ele>
        <time>2018-02-23T14:49:43Z</time>
      </trkpt>
      <trkpt lat="47.64859" lon="6.02424">
        <ele>228.22</ele>
        <time>2018-02-23T14:49:44Z</time>
      </trkpt>
      <trkpt lat="47.64865" lon="6.02422">
        <ele>228.03</ele>
        <time>2018-02-23T14:49:45Z</time>
      </trkpt>
      <trkpt lat="47.64871" lon="6.02421">
        <ele>227.8</ele>
        <time>2018-02-23T14:49:46Z</time>
      </trkpt>
      <trkpt lat="47.64877" lon="6.02421">
        <ele>227.56</ele>
        <time>2018-02-23T14:49:47Z</time>
      </trkpt>
      <trkpt lat="47.64883" lon="6.02421">
        <ele>227.24</ele>
        <time>2018-02-23T14:49:48Z</time>
      </trkpt>
      <trkpt lat="47.64889" lon="6.02422">
        <ele>226.98</ele>
        <time>2018-02-23T14:49:49Z</time>
      </trkpt>
      <trkpt lat="47.64894" lon="6.02421">
        <ele>226.75</ele>
        <time>2018-02-23T14:49:50Z</time>
      </trkpt>
      <trkpt lat="47.64899" lon="6.02421">
        <ele>226.55</ele>
        <time>2018-02-23T14:49:51Z</time>
      </trkpt>
      <trkpt lat="47.64903" lon="6.0242">
        <ele>226.36</ele>
        <time>2018-02-23T14:49:52Z</time>
      </trkpt>
      <trkpt lat="47.64912" lon="6.02418">
        <ele>226.02</ele>
        <time>2018-02-23T14:49:54Z</time>
      </trkpt>
      <trkpt lat="47.64921" lon="6.02416">
        <ele>225.92</ele>
        <time>2018-02-23T14:49:56Z</time>
      </trkpt>
      <trkpt lat="47.64928" lon="6.02416">
        <ele>225.82</ele>
        <time>2018-02-23T14:49:58Z</time>
      </trkpt>
      <trkpt lat="47.64932" lon="6.02419">
        <ele>225.31</ele>
        <time>2018-02-23T14:50:04Z</time>
      </trkpt>
      <trkpt lat="47.64938" lon="6.02424">
        <ele>224.98</ele>
        <time>2018-02-23T14:50:20Z</time>
      </trkpt>
      <trkpt lat="47.64943" lon="6.02426">
        <ele>225.2</ele>
        <time>2018-02-23T14:50:44Z</time>
      </trkpt>
      <trkpt lat="47.64943" lon="6.02434">
        <ele>225.22</ele>
        <time>2018-02-23T14:50:48Z</time>
      </trkpt>
      <trkpt lat="47.64943" lon="6.02443">
        <ele>225.19</ele>
        <time>2018-02-23T14:50:50Z</time>
      </trkpt>
      <trkpt lat="47.64943" lon="6.02452">
        <ele>225.13</ele>
        <time>2018-02-23T14:50:52Z</time>
      </trkpt>
      <trkpt lat="47.64944" lon="6.02461">
        <ele>225.05</ele>
        <time>2018-02-23T14:50:54Z</time>
      </trkpt>
      <trkpt lat="47.64946" lon="6.02472">
        <ele>224.96</ele>
        <time>2018-02-23T14:50:56Z</time>
      </trkpt>
      <trkpt lat="47.64948" lon="6.02482">
        <ele>224.86</ele>
        <time>2018-02-23T14:50:58Z</time>
      </trkpt>
      <trkpt lat="47.64949" lon="6.02492">
        <ele>224.73</ele>
        <time>2018-02-23T14:51:00Z</time>
      </trkpt>
      <trkpt lat="47.64953" lon="6.02502">
        <ele>224.05</ele>
        <time>2018-02-23T14:51:02Z</time>
      </trkpt>
      <trkpt lat="47.64954" lon="6.02514">
        <ele>222.68</ele>
        <time>2018-02-23T14:51:04Z</time>
      </trkpt>
      <trkpt lat="47.64956" lon="6.02527">
        <ele>221.51</ele>
        <time>2018-02-23T14:51:06Z</time>
      </trkpt>
      <trkpt lat="47.64957" lon="6.02535">
        <ele>221.02</ele>
        <time>2018-02-23T14:51:07Z</time>
      </trkpt>
      <trkpt lat="47.64958" lon="6.02544">
        <ele>220.57</ele>
        <time>2018-02-23T14:51:08Z</time>
      </trkpt>
      <trkpt lat="47.64959" lon="6.0255">
        <ele>220.2</ele>
        <time>2018-02-23T14:51:09Z</time>
      </trkpt>
      <trkpt lat="47.6496" lon="6.02562">
        <ele>219.74</ele>
        <time>2018-02-23T14:51:11Z</time>
      </trkpt>
      <trkpt lat="47.64961" lon="6.02574">
        <ele>219.63</ele>
        <time>2018-02-23T14:51:13Z</time>
      </trkpt>
      <trkpt lat="47.64963" lon="6.02585">
        <ele>219.54</ele>
        <time>2018-02-23T14:51:15Z</time>
      </trkpt>
      <trkpt lat="47.64964" lon="6.02596">
        <ele>218.7</ele>
        <time>2018-02-23T14:51:17Z</time>
      </trkpt>
      <trkpt lat="47.64965" lon="6.02608">
        <ele>217.84</ele>
        <time>2018-02-23T14:51:19Z</time>
      </trkpt>
      <trkpt lat="47.64966" lon="6.0262">
        <ele>217.07</ele>
        <time>2018-02-23T14:51:21Z</time>
      </trkpt>
      <trkpt lat="47.64967" lon="6.02628">
        <ele>216.71</ele>
        <time>2018-02-23T14:51:22Z</time>
      </trkpt>
      <trkpt lat="47.64968" lon="6.0264">
        <ele>216.02</ele>
        <time>2018-02-23T14:51:24Z</time>
      </trkpt>
      <trkpt lat="47.6497" lon="6.02652">
        <ele>215.41</ele>
        <time>2018-02-23T14:51:26Z</time>
      </trkpt>
      <trkpt lat="47.64972" lon="6.02664">
        <ele>214.88</ele>
        <time>2018-02-23T14:51:28Z</time>
      </trkpt>
      <trkpt lat="47.64974" lon="6.02676">
        <ele>214.56</ele>
        <time>2018-02-23T14:51:30Z</time>
      </trkpt>
      <trkpt lat="47.64974" lon="6.02683">
        <ele>214.4</ele>
        <time>2018-02-23T14:51:31Z</time>
      </trkpt>
      <trkpt lat="47.64976" lon="6.02694">
        <ele>214.09</ele>
        <time>2018-02-23T14:51:33Z</time>
      </trkpt>
      <trkpt lat="47.64977" lon="6.02701">
        <ele>213.93</ele>
        <time>2018-02-23T14:51:34Z</time>
      </trkpt>
      <trkpt lat="47.64978" lon="6.02712">
        <ele>213.72</ele>
        <time>2018-02-23T14:51:36Z</time>
      </trkpt>
      <trkpt lat="47.6498" lon="6.02723">
        <ele>213.67</ele>
        <time>2018-02-23T14:51:38Z</time>
      </trkpt>
      <trkpt lat="47.64981" lon="6.02733">
        <ele>213.61</ele>
        <time>2018-02-23T14:51:40Z</time>
      </trkpt>
      <trkpt lat="47.64982" lon="6.02744">
        <ele>213.29</ele>
        <time>2018-02-23T14:51:42Z</time>
      </trkpt>
      <trkpt lat="47.64983" lon="6.02755">
        <ele>213.2</ele>
        <time>2018-02-23T14:51:44Z</time>
      </trkpt>
      <trkpt lat="47.64984" lon="6.02764">
        <ele>212.89</ele>
        <time>2018-02-23T14:51:46Z</time>
      </trkpt>
      <trkpt lat="47.64986" lon="6.02775">
        <ele>212.48</ele>
        <time>2018-02-23T14:51:48Z</time>
      </trkpt>
      <trkpt lat="47.64988" lon="6.02785">
        <ele>212.39</ele>
        <time>2018-02-23T14:51:50Z</time>
      </trkpt>
      <trkpt lat="47.64989" lon="6.02796">
        <ele>212.08</ele>
        <time>2018-02-23T14:51:52Z</time>
      </trkpt>
      <trkpt lat="47.6499" lon="6.02807">
        <ele>211.92</ele>
        <time>2018-02-23T14:51:54Z</time>
      </trkpt>
      <trkpt lat="47.64991" lon="6.02818">
        <ele>211.84</ele>
        <time>2018-02-23T14:51:56Z</time>
      </trkpt>
      <trkpt lat="47.64992" lon="6.02829">
        <ele>211.45</ele>
        <time>2018-02-23T14:51:58Z</time>
      </trkpt>
      <trkpt lat="47.64994" lon="6.02842">
        <ele>210.69</ele>
        <time>2018-02-23T14:52:00Z</time>
      </trkpt>
      <trkpt lat="47.64995" lon="6.02853">
        <ele>210.49</ele>
        <time>2018-02-23T14:52:02Z</time>
      </trkpt>
      <trkpt lat="47.64996" lon="6.02864">
        <ele>209.89</ele>
        <time>2018-02-23T14:52:04Z</time>
      </trkpt>
      <trkpt lat="47.64998" lon="6.02876">
        <ele>209.5</ele>
        <time>2018-02-23T14:52:06Z</time>
      </trkpt>
      <trkpt lat="47.65" lon="6.02886">
        <ele>209.24</ele>
        <time>2018-02-23T14:52:08Z</time>
      </trkpt>
      <trkpt lat="47.65003" lon="6.02898">
        <ele>208.8</ele>
        <time>2018-02-23T14:52:10Z</time>
      </trkpt>
      <trkpt lat="47.65005" lon="6.02909">
        <ele>208.56</ele>
        <time>2018-02-23T14:52:12Z</time>
      </trkpt>
      <trkpt lat="47.65007" lon="6.02921">
        <ele>208.5</ele>
        <time>2018-02-23T14:52:14Z</time>
      </trkpt>
      <trkpt lat="47.6501" lon="6.0293">
        <ele>208.47</ele>
        <time>2018-02-23T14:52:16Z</time>
      </trkpt>
      <trkpt lat="47.65013" lon="6.02941">
        <ele>208.43</ele>
        <time>2018-02-23T14:52:18Z</time>
      </trkpt>
      <trkpt lat="47.65017" lon="6.0295">
        <ele>208.09</ele>
        <time>2018-02-23T14:52:20Z</time>
      </trkpt>
      <trkpt lat="47.65021" lon="6.02959">
        <ele>207.79</ele>
        <time>2018-02-23T14:52:22Z</time>
      </trkpt>
      <trkpt lat="47.65027" lon="6.02968">
        <ele>207.59</ele>
        <time>2018-02-23T14:52:24Z</time>
      </trkpt>
      <trkpt lat="47.65031" lon="6.02977">
        <ele>207.52</ele>
        <time>2018-02-23T14:52:26Z</time>
      </trkpt>
      <trkpt lat="47.65037" lon="6.02986">
        <ele>207.5</ele>
        <time>2018-02-23T14:52:28Z</time>
      </trkpt>
      <trkpt lat="47.65042" lon="6.02994">
        <ele>207.48</ele>
        <time>2018-02-23T14:52:30Z</time>
      </trkpt>
      <trkpt lat="47.65047" lon="6.03001">
        <ele>207.47</ele>
        <time>2018-02-23T14:52:32Z</time>
      </trkpt>
      <trkpt lat="47.65053" lon="6.0301">
        <ele>207.34</ele>
        <time>2018-02-23T14:52:34Z</time>
      </trkpt>
      <trkpt lat="47.65059" lon="6.03019">
        <ele>207.3</ele>
        <time>2018-02-23T14:52:36Z</time>
      </trkpt>
      <trkpt lat="47.65064" lon="6.03028">
        <ele>207.29</ele>
        <time>2018-02-23T14:52:38Z</time>
      </trkpt>
      <trkpt lat="47.65067" lon="6.03035">
        <ele>207.29</ele>
        <time>2018-02-23T14:52:40Z</time>
      </trkpt>
      <trkpt lat="47.6507" lon="6.03042">
        <ele>207.29</ele>
        <time>2018-02-23T14:52:42Z</time>
      </trkpt>
      <trkpt lat="47.65072" lon="6.03048">
        <ele>207.3</ele>
        <time>2018-02-23T14:52:44Z</time>
      </trkpt>
      <trkpt lat="47.65077" lon="6.03054">
        <ele>207.33</ele>
        <time>2018-02-23T14:52:46Z</time>
      </trkpt>
      <trkpt lat="47.65084" lon="6.03059">
        <ele>207.37</ele>
        <time>2018-02-23T14:52:48Z</time>
      </trkpt>
      <trkpt lat="47.65091" lon="6.03062">
        <ele>207.52</ele>
        <time>2018-02-23T14:52:50Z</time>
      </trkpt>
      <trkpt lat="47.65099" lon="6.03064">
        <ele>207.77</ele>
        <time>2018-02-23T14:52:52Z</time>
      </trkpt>
      <trkpt lat="47.65106" lon="6.03065">
        <ele>208.01</ele>
        <time>2018-02-23T14:52:54Z</time>
      </trkpt>
      <trkpt lat="47.65113" lon="6.03066">
        <ele>208.07</ele>
        <time>2018-02-23T14:52:56Z</time>
      </trkpt>
      <trkpt lat="47.6512" lon="6.03065">
        <ele>208.18</ele>
        <time>2018-02-23T14:52:58Z</time>
      </trkpt>
      <trkpt lat="47.65128" lon="6.03063">
        <ele>208.25</ele>
        <time>2018-02-23T14:53:00Z</time>
      </trkpt>
      <trkpt lat="47.65136" lon="6.0306">
        <ele>208.33</ele>
        <time>2018-02-23T14:53:02Z</time>
      </trkpt>
      <trkpt lat="47.6514" lon="6.03057">
        <ele>208.4</ele>
        <time>2018-02-23T14:53:03Z</time>
      </trkpt>
      <trkpt lat="47.65144" lon="6.03055">
        <ele>208.46</ele>
        <time>2018-02-23T14:53:04Z</time>
      </trkpt>
      <trkpt lat="47.65149" lon="6.03052">
        <ele>208.51</ele>
        <time>2018-02-23T14:53:05Z</time>
      </trkpt>
      <trkpt lat="47.65156" lon="6.03046">
        <ele>208.56</ele>
        <time>2018-02-23T14:53:07Z</time>
      </trkpt>
      <trkpt lat="47.6516" lon="6.03042">
        <ele>208.56</ele>
        <time>2018-02-23T14:53:08Z</time>
      </trkpt>
      <trkpt lat="47.65164" lon="6.03039">
        <ele>208.6</ele>
        <time>2018-02-23T14:53:09Z</time>
      </trkpt>
      <trkpt lat="47.65168" lon="6.03035">
        <ele>208.66</ele>
        <time>2018-02-23T14:53:10Z</time>
      </trkpt>
      <trkpt lat="47.65175" lon="6.0303">
        <ele>208.77</ele>
        <time>2018-02-23T14:53:12Z</time>
      </trkpt>
      <trkpt lat="47.65183" lon="6.03025">
        <ele>208.86</ele>
        <time>2018-02-23T14:53:14Z</time>
      </trkpt>
      <trkpt lat="47.6519" lon="6.03021">
        <ele>208.94</ele>
        <time>2018-02-23T14:53:16Z</time>
      </trkpt>
      <trkpt lat="47.65198" lon="6.03018">
        <ele>209.04</ele>
        <time>2018-02-23T14:53:18Z</time>
      </trkpt>
      <trkpt lat="47.65206" lon="6.03016">
        <ele>209.19</ele>
        <time>2018-02-23T14:53:20Z</time>
      </trkpt>
      <trkpt lat="47.65214" lon="6.03015">
        <ele>209.27</ele>
        <time>2018-02-23T14:53:22Z</time>
      </trkpt>
      <trkpt lat="47.65222" lon="6.03013">
        <ele>209.38</ele>
        <time>2018-02-23T14:53:24Z</time>
      </trkpt>
      <trkpt lat="47.65229" lon="6.03012">
        <ele>209.52</ele>
        <time>2018-02-23T14:53:26Z</time>
      </trkpt>
      <trkpt lat="47.65236" lon="6.03011">
        <ele>209.59</ele>
        <time>2018-02-23T14:53:28Z</time>
      </trkpt>
      <trkpt lat="47.65244" lon="6.03011">
        <ele>209.66</ele>
        <time>2018-02-23T14:53:30Z</time>
      </trkpt>
      <trkpt lat="47.65251" lon="6.0301">
        <ele>209.68</ele>
        <time>2018-02-23T14:53:32Z</time>
      </trkpt>
      <trkpt lat="47.65259" lon="6.03009">
        <ele>209.78</ele>
        <time>2018-02-23T14:53:34Z</time>
      </trkpt>
      <trkpt lat="47.65267" lon="6.03008">
        <ele>209.96</ele>
        <time>2018-02-23T14:53:36Z</time>
      </trkpt>
      <trkpt lat="47.65276" lon="6.03006">
        <ele>210.08</ele>
        <time>2018-02-23T14:53:38Z</time>
      </trkpt>
      <trkpt lat="47.65281" lon="6.03005">
        <ele>210.14</ele>
        <time>2018-02-23T14:53:39Z</time>
      </trkpt>
      <trkpt lat="47.65286" lon="6.03004">
        <ele>210.19</ele>
        <time>2018-02-23T14:53:40Z</time>
      </trkpt>
      <trkpt lat="47.65291" lon="6.03003">
        <ele>210.22</ele>
        <time>2018-02-23T14:53:41Z</time>
      </trkpt>
      <trkpt lat="47.65296" lon="6.03001">
        <ele>210.28</ele>
        <time>2018-02-23T14:53:42Z</time>
      </trkpt>
      <trkpt lat="47.65301" lon="6.03">
        <ele>210.34</ele>
        <time>2018-02-23T14:53:43Z</time>
      </trkpt>
      <trkpt lat="47.65306" lon="6.02998">
        <ele>210.39</ele>
        <time>2018-02-23T14:53:44Z</time>
      </trkpt>
      <trkpt lat="47.65311" lon="6.02996">
        <ele>210.44</ele>
        <time>2018-02-23T14:53:45Z</time>
      </trkpt>
      <trkpt lat="47.65316" lon="6.02994">
        <ele>210.5</ele>
        <time>2018-02-23T14:53:46Z</time>
      </trkpt>
      <trkpt lat="47.6532" lon="6.02992">
        <ele>210.55</ele>
        <time>2018-02-23T14:53:47Z</time>
      </trkpt>
      <trkpt lat="47.65325" lon="6.0299">
        <ele>210.61</ele>
        <time>2018-02-23T14:53:48Z</time>
      </trkpt>
      <trkpt lat="47.6533" lon="6.02987">
        <ele>210.66</ele>
        <time>2018-02-23T14:53:49Z</time>
      </trkpt>
      <trkpt lat="47.65338" lon="6.02984">
        <ele>210.76</ele>
        <time>2018-02-23T14:53:51Z</time>
      </trkpt>
      <trkpt lat="47.65347" lon="6.0298">
        <ele>210.83</ele>
        <time>2018-02-23T14:53:53Z</time>
      </trkpt>
      <trkpt lat="47.65351" lon="6.02978">
        <ele>210.85</ele>
        <time>2018-02-23T14:53:54Z</time>
      </trkpt>
      <trkpt lat="47.65359" lon="6.02973">
        <ele>210.89</ele>
        <time>2018-02-23T14:53:56Z</time>
      </trkpt>
      <trkpt lat="47.65364" lon="6.02971">
        <ele>210.91</ele>
        <time>2018-02-23T14:53:57Z</time>
      </trkpt>
      <trkpt lat="47.65369" lon="6.02969">
        <ele>210.92</ele>
        <time>2018-02-23T14:53:58Z</time>
      </trkpt>
      <trkpt lat="47.65373" lon="6.02966">
        <ele>210.93</ele>
        <time>2018-02-23T14:53:59Z</time>
      </trkpt>
      <trkpt lat="47.65378" lon="6.02964">
        <ele>210.93</ele>
        <time>2018-02-23T14:54:00Z</time>
      </trkpt>
      <trkpt lat="47.65383" lon="6.02961">
        <ele>210.94</ele>
        <time>2018-02-23T14:54:01Z</time>
      </trkpt>
      <trkpt lat="47.65388" lon="6.02959">
        <ele>210.94</ele>
        <time>2018-02-23T14:54:02Z</time>
      </trkpt>
      <trkpt lat="47.65393" lon="6.02956">
        <ele>210.94</ele>
        <time>2018-02-23T14:54:03Z</time>
      </trkpt>
      <trkpt lat="47.65398" lon="6.02953">
        <ele>210.95</ele>
        <time>2018-02-23T14:54:04Z</time>
      </trkpt>
      <trkpt lat="47.65402" lon="6.02951">
        <ele>210.94</ele>
        <time>2018-02-23T14:54:05Z</time>
      </trkpt>
      <trkpt lat="47.65407" lon="6.02948">
        <ele>210.93</ele>
        <time>2018-02-23T14:54:06Z</time>
      </trkpt>
      <trkpt lat="47.65413" lon="6.02946">
        <ele>210.93</ele>
        <time>2018-02-23T14:54:07Z</time>
      </trkpt>
      <trkpt lat="47.65417" lon="6.02944">
        <ele>210.92</ele>
        <time>2018-02-23T14:54:08Z</time>
      </trkpt>
      <trkpt lat="47.65422" lon="6.02941">
        <ele>210.92</ele>
        <time>2018-02-23T14:54:09Z</time>
      </trkpt>
      <trkpt lat="47.65427" lon="6.02939">
        <ele>210.92</ele>
        <time>2018-02-23T14:54:10Z</time>
      </trkpt>
      <trkpt lat="47.65432" lon="6.02936">
        <ele>210.92</ele>
        <time>2018-02-23T14:54:11Z</time>
      </trkpt>
      <trkpt lat="47.65437" lon="6.02934">
        <ele>210.92</ele>
        <time>2018-02-23T14:54:12Z</time>
      </trkpt>
      <trkpt lat="47.65442" lon="6.02931">
        <ele>210.9</ele>
        <time>2018-02-23T14:54:13Z</time>
      </trkpt>
      <trkpt lat="47.65447" lon="6.02929">
        <ele>210.89</ele>
        <time>2018-02-23T14:54:14Z</time>
      </trkpt>
      <trkpt lat="47.65452" lon="6.02928">
        <ele>210.91</ele>
        <time>2018-02-23T14:54:15Z</time>
      </trkpt>
      <trkpt lat="47.65457" lon="6.02925">
        <ele>210.92</ele>
        <time>2018-02-23T14:54:16Z</time>
      </trkpt>
      <trkpt lat="47.65462" lon="6.02923">
        <ele>210.95</ele>
        <time>2018-02-23T14:54:17Z</time>
      </trkpt>
      <trkpt lat="47.65467" lon="6.02921">
        <ele>210.98</ele>
        <time>2018-02-23T14:54:18Z</time>
      </trkpt>
      <trkpt lat="47.65472" lon="6.02918">
        <ele>211.01</ele>
        <time>2018-02-23T14:54:19Z</time>
      </trkpt>
      <trkpt lat="47.65477" lon="6.02916">
        <ele>211.05</ele>
        <time>2018-02-23T14:54:20Z</time>
      </trkpt>
      <trkpt lat="47.65482" lon="6.02914">
        <ele>211.1</ele>
        <time>2018-02-23T14:54:21Z</time>
      </trkpt>
      <trkpt lat="47.65487" lon="6.02912">
        <ele>211.14</ele>
        <time>2018-02-23T14:54:22Z</time>
      </trkpt>
      <trkpt lat="47.65492" lon="6.0291">
        <ele>211.2</ele>
        <time>2018-02-23T14:54:23Z</time>
      </trkpt>
      <trkpt lat="47.65497" lon="6.02908">
        <ele>211.25</ele>
        <time>2018-02-23T14:54:24Z</time>
      </trkpt>
      <trkpt lat="47.65501" lon="6.02906">
        <ele>211.29</ele>
        <time>2018-02-23T14:54:25Z</time>
      </trkpt>
      <trkpt lat="47.65507" lon="6.02904">
        <ele>211.32</ele>
        <time>2018-02-23T14:54:26Z</time>
      </trkpt>
      <trkpt lat="47.65512" lon="6.02903">
        <ele>211.33</ele>
        <time>2018-02-23T14:54:27Z</time>
      </trkpt>
      <trkpt lat="47.65517" lon="6.02901">
        <ele>211.34</ele>
        <time>2018-02-23T14:54:28Z</time>
      </trkpt>
      <trkpt lat="47.65522" lon="6.02899">
        <ele>211.34</ele>
        <time>2018-02-23T14:54:29Z</time>
      </trkpt>
      <trkpt lat="47.65527" lon="6.02897">
        <ele>211.33</ele>
        <time>2018-02-23T14:54:30Z</time>
      </trkpt>
      <trkpt lat="47.65532" lon="6.02896">
        <ele>211.32</ele>
        <time>2018-02-23T14:54:31Z</time>
      </trkpt>
      <trkpt lat="47.65537" lon="6.02894">
        <ele>211.3</ele>
        <time>2018-02-23T14:54:32Z</time>
      </trkpt>
      <trkpt lat="47.65542" lon="6.02893">
        <ele>211.27</ele>
        <time>2018-02-23T14:54:33Z</time>
      </trkpt>
      <trkpt lat="47.65547" lon="6.02891">
        <ele>211.24</ele>
        <time>2018-02-23T14:54:34Z</time>
      </trkpt>
      <trkpt lat="47.65552" lon="6.0289">
        <ele>211.22</ele>
        <time>2018-02-23T14:54:35Z</time>
      </trkpt>
      <trkpt lat="47.65558" lon="6.02889">
        <ele>211.2</ele>
        <time>2018-02-23T14:54:36Z</time>
      </trkpt>
      <trkpt lat="47.65563" lon="6.02887">
        <ele>211.18</ele>
        <time>2018-02-23T14:54:37Z</time>
      </trkpt>
      <trkpt lat="47.65568" lon="6.02886">
        <ele>211.17</ele>
        <time>2018-02-23T14:54:38Z</time>
      </trkpt>
      <trkpt lat="47.65573" lon="6.02885">
        <ele>211.16</ele>
        <time>2018-02-23T14:54:39Z</time>
      </trkpt>
      <trkpt lat="47.65578" lon="6.02883">
        <ele>211.15</ele>
        <time>2018-02-23T14:54:40Z</time>
      </trkpt>
      <trkpt lat="47.65583" lon="6.02882">
        <ele>211.14</ele>
        <time>2018-02-23T14:54:41Z</time>
      </trkpt>
      <trkpt lat="47.65589" lon="6.02881">
        <ele>211.13</ele>
        <time>2018-02-23T14:54:42Z</time>
      </trkpt>
      <trkpt lat="47.65594" lon="6.0288">
        <ele>211.12</ele>
        <time>2018-02-23T14:54:43Z</time>
      </trkpt>
      <trkpt lat="47.65599" lon="6.02878">
        <ele>211.11</ele>
        <time>2018-02-23T14:54:44Z</time>
      </trkpt>
      <trkpt lat="47.65604" lon="6.02877">
        <ele>211.09</ele>
        <time>2018-02-23T14:54:45Z</time>
      </trkpt>
      <trkpt lat="47.65609" lon="6.02875">
        <ele>211.08</ele>
        <time>2018-02-23T14:54:46Z</time>
      </trkpt>
      <trkpt lat="47.65613" lon="6.02874">
        <ele>211.08</ele>
        <time>2018-02-23T14:54:47Z</time>
      </trkpt>
      <trkpt lat="47.65618" lon="6.02872">
        <ele>211.07</ele>
        <time>2018-02-23T14:54:48Z</time>
      </trkpt>
      <trkpt lat="47.65623" lon="6.02871">
        <ele>211.06</ele>
        <time>2018-02-23T14:54:49Z</time>
      </trkpt>
      <trkpt lat="47.65628" lon="6.0287">
        <ele>211.04</ele>
        <time>2018-02-23T14:54:50Z</time>
      </trkpt>
      <trkpt lat="47.65634" lon="6.02868">
        <ele>211.04</ele>
        <time>2018-02-23T14:54:51Z</time>
      </trkpt>
      <trkpt lat="47.65639" lon="6.02867">
        <ele>211.04</ele>
        <time>2018-02-23T14:54:52Z</time>
      </trkpt>
      <trkpt lat="47.65644" lon="6.02865">
        <ele>211.04</ele>
        <time>2018-02-23T14:54:53Z</time>
      </trkpt>
      <trkpt lat="47.65649" lon="6.02864">
        <ele>211.04</ele>
        <time>2018-02-23T14:54:54Z</time>
      </trkpt>
      <trkpt lat="47.65654" lon="6.02862">
        <ele>211.03</ele>
        <time>2018-02-23T14:54:55Z</time>
      </trkpt>
      <trkpt lat="47.6566" lon="6.02861">
        <ele>211.03</ele>
        <time>2018-02-23T14:54:56Z</time>
      </trkpt>
      <trkpt lat="47.65665" lon="6.02859">
        <ele>211.03</ele>
        <time>2018-02-23T14:54:57Z</time>
      </trkpt>
      <trkpt lat="47.6567" lon="6.02857">
        <ele>211.02</ele>
        <time>2018-02-23T14:54:58Z</time>
      </trkpt>
      <trkpt lat="47.65675" lon="6.02855">
        <ele>211.01</ele>
        <time>2018-02-23T14:54:59Z</time>
      </trkpt>
      <trkpt lat="47.6568" lon="6.02854">
        <ele>211.01</ele>
        <time>2018-02-23T14:55:00Z</time>
      </trkpt>
      <trkpt lat="47.65685" lon="6.02852">
        <ele>211</ele>
        <time>2018-02-23T14:55:01Z</time>
      </trkpt>
      <trkpt lat="47.65689" lon="6.0285">
        <ele>211</ele>
        <time>2018-02-23T14:55:02Z</time>
      </trkpt>
      <trkpt lat="47.65695" lon="6.02849">
        <ele>210.99</ele>
        <time>2018-02-23T14:55:03Z</time>
      </trkpt>
      <trkpt lat="47.65699" lon="6.02847">
        <ele>210.98</ele>
        <time>2018-02-23T14:55:04Z</time>
      </trkpt>
      <trkpt lat="47.65704" lon="6.02844">
        <ele>210.98</ele>
        <time>2018-02-23T14:55:05Z</time>
      </trkpt>
      <trkpt lat="47.65709" lon="6.02841">
        <ele>210.97</ele>
        <time>2018-02-23T14:55:06Z</time>
      </trkpt>
      <trkpt lat="47.65714" lon="6.02839">
        <ele>210.97</ele>
        <time>2018-02-23T14:55:07Z</time>
      </trkpt>
      <trkpt lat="47.65719" lon="6.02837">
        <ele>210.96</ele>
        <time>2018-02-23T14:55:08Z</time>
      </trkpt>
      <trkpt lat="47.65724" lon="6.02835">
        <ele>210.95</ele>
        <time>2018-02-23T14:55:09Z</time>
      </trkpt>
      <trkpt lat="47.6573" lon="6.02833">
        <ele>210.94</ele>
        <time>2018-02-23T14:55:10Z</time>
      </trkpt>
      <trkpt lat="47.65735" lon="6.02831">
        <ele>210.93</ele>
        <time>2018-02-23T14:55:11Z</time>
      </trkpt>
      <trkpt lat="47.65741" lon="6.02828">
        <ele>210.92</ele>
        <time>2018-02-23T14:55:12Z</time>
      </trkpt>
      <trkpt lat="47.65747" lon="6.02825">
        <ele>210.91</ele>
        <time>2018-02-23T14:55:13Z</time>
      </trkpt>
      <trkpt lat="47.65752" lon="6.02823">
        <ele>210.9</ele>
        <time>2018-02-23T14:55:14Z</time>
      </trkpt>
      <trkpt lat="47.65758" lon="6.02821">
        <ele>210.89</ele>
        <time>2018-02-23T14:55:15Z</time>
      </trkpt>
      <trkpt lat="47.65763" lon="6.02818">
        <ele>210.88</ele>
        <time>2018-02-23T14:55:16Z</time>
      </trkpt>
      <trkpt lat="47.65768" lon="6.02816">
        <ele>210.87</ele>
        <time>2018-02-23T14:55:17Z</time>
      </trkpt>
      <trkpt lat="47.65773" lon="6.02813">
        <ele>210.87</ele>
        <time>2018-02-23T14:55:18Z</time>
      </trkpt>
      <trkpt lat="47.65779" lon="6.0281">
        <ele>210.86</ele>
        <time>2018-02-23T14:55:19Z</time>
      </trkpt>
      <trkpt lat="47.65784" lon="6.02808">
        <ele>210.86</ele>
        <time>2018-02-23T14:55:20Z</time>
      </trkpt>
      <trkpt lat="47.65789" lon="6.02805">
        <ele>210.85</ele>
        <time>2018-02-23T14:55:21Z</time>
      </trkpt>
      <trkpt lat="47.65794" lon="6.02803">
        <ele>210.84</ele>
        <time>2018-02-23T14:55:22Z</time>
      </trkpt>
      <trkpt lat="47.658" lon="6.028">
        <ele>210.84</ele>
        <time>2018-02-23T14:55:23Z</time>
      </trkpt>
      <trkpt lat="47.65805" lon="6.02798">
        <ele>210.83</ele>
        <time>2018-02-23T14:55:24Z</time>
      </trkpt>
      <trkpt lat="47.6581" lon="6.02796">
        <ele>210.82</ele>
        <time>2018-02-23T14:55:25Z</time>
      </trkpt>
      <trkpt lat="47.65815" lon="6.02793">
        <ele>210.8</ele>
        <time>2018-02-23T14:55:26Z</time>
      </trkpt>
      <trkpt lat="47.65821" lon="6.02791">
        <ele>210.79</ele>
        <time>2018-02-23T14:55:27Z</time>
      </trkpt>
      <trkpt lat="47.65826" lon="6.02788">
        <ele>210.77</ele>
        <time>2018-02-23T14:55:28Z</time>
      </trkpt>
      <trkpt lat="47.65831" lon="6.02785">
        <ele>210.76</ele>
        <time>2018-02-23T14:55:29Z</time>
      </trkpt>
      <trkpt lat="47.65836" lon="6.02783">
        <ele>210.74</ele>
        <time>2018-02-23T14:55:30Z</time>
      </trkpt>
      <trkpt lat="47.65842" lon="6.0278">
        <ele>210.72</ele>
        <time>2018-02-23T14:55:31Z</time>
      </trkpt>
      <trkpt lat="47.65847" lon="6.02777">
        <ele>210.7</ele>
        <time>2018-02-23T14:55:32Z</time>
      </trkpt>
      <trkpt lat="47.65852" lon="6.02775">
        <ele>210.68</ele>
        <time>2018-02-23T14:55:33Z</time>
      </trkpt>
      <trkpt lat="47.65857" lon="6.02772">
        <ele>210.66</ele>
        <time>2018-02-23T14:55:34Z</time>
      </trkpt>
      <trkpt lat="47.65862" lon="6.02768">
        <ele>210.65</ele>
        <time>2018-02-23T14:55:35Z</time>
      </trkpt>
      <trkpt lat="47.65867" lon="6.02765">
        <ele>210.63</ele>
        <time>2018-02-23T14:55:36Z</time>
      </trkpt>
      <trkpt lat="47.65872" lon="6.02762">
        <ele>210.62</ele>
        <time>2018-02-23T14:55:37Z</time>
      </trkpt>
      <trkpt lat="47.65877" lon="6.02758">
        <ele>210.61</ele>
        <time>2018-02-23T14:55:38Z</time>
      </trkpt>
      <trkpt lat="47.65881" lon="6.02755">
        <ele>210.6</ele>
        <time>2018-02-23T14:55:39Z</time>
      </trkpt>
      <trkpt lat="47.65886" lon="6.02752">
        <ele>210.59</ele>
        <time>2018-02-23T14:55:40Z</time>
      </trkpt>
      <trkpt lat="47.65891" lon="6.02748">
        <ele>210.59</ele>
        <time>2018-02-23T14:55:41Z</time>
      </trkpt>
      <trkpt lat="47.65896" lon="6.02744">
        <ele>210.6</ele>
        <time>2018-02-23T14:55:42Z</time>
      </trkpt>
      <trkpt lat="47.659" lon="6.0274">
        <ele>210.6</ele>
        <time>2018-02-23T14:55:43Z</time>
      </trkpt>
      <trkpt lat="47.65905" lon="6.02736">
        <ele>210.61</ele>
        <time>2018-02-23T14:55:44Z</time>
      </trkpt>
      <trkpt lat="47.65909" lon="6.02733">
        <ele>210.62</ele>
        <time>2018-02-23T14:55:45Z</time>
      </trkpt>
      <trkpt lat="47.65913" lon="6.02729">
        <ele>210.63</ele>
        <time>2018-02-23T14:55:46Z</time>
      </trkpt>
      <trkpt lat="47.65918" lon="6.02726">
        <ele>210.64</ele>
        <time>2018-02-23T14:55:47Z</time>
      </trkpt>
      <trkpt lat="47.65924" lon="6.02722">
        <ele>210.66</ele>
        <time>2018-02-23T14:55:48Z</time>
      </trkpt>
      <trkpt lat="47.65928" lon="6.02718">
        <ele>210.67</ele>
        <time>2018-02-23T14:55:49Z</time>
      </trkpt>
      <trkpt lat="47.65933" lon="6.02714">
        <ele>210.68</ele>
        <time>2018-02-23T14:55:50Z</time>
      </trkpt>
      <trkpt lat="47.65938" lon="6.0271">
        <ele>210.68</ele>
        <time>2018-02-23T14:55:51Z</time>
      </trkpt>
      <trkpt lat="47.65943" lon="6.02706">
        <ele>210.68</ele>
        <time>2018-02-23T14:55:52Z</time>
      </trkpt>
      <trkpt lat="47.65949" lon="6.02702">
        <ele>210.69</ele>
        <time>2018-02-23T14:55:53Z</time>
      </trkpt>
      <trkpt lat="47.65955" lon="6.02698">
        <ele>210.69</ele>
        <time>2018-02-23T14:55:54Z</time>
      </trkpt>
      <trkpt lat="47.6596" lon="6.02694">
        <ele>210.69</ele>
        <time>2018-02-23T14:55:55Z</time>
      </trkpt>
      <trkpt lat="47.65965" lon="6.02691">
        <ele>210.69</ele>
        <time>2018-02-23T14:55:56Z</time>
      </trkpt>
      <trkpt lat="47.65969" lon="6.02688">
        <ele>210.69</ele>
        <time>2018-02-23T14:55:57Z</time>
      </trkpt>
      <trkpt lat="47.65974" lon="6.02685">
        <ele>210.7</ele>
        <time>2018-02-23T14:55:58Z</time>
      </trkpt>
      <trkpt lat="47.65978" lon="6.02682">
        <ele>210.7</ele>
        <time>2018-02-23T14:55:59Z</time>
      </trkpt>
      <trkpt lat="47.65983" lon="6.02679">
        <ele>210.7</ele>
        <time>2018-02-23T14:56:00Z</time>
      </trkpt>
      <trkpt lat="47.65987" lon="6.02675">
        <ele>210.7</ele>
        <time>2018-02-23T14:56:01Z</time>
      </trkpt>
      <trkpt lat="47.65991" lon="6.02672">
        <ele>210.7</ele>
        <time>2018-02-23T14:56:02Z</time>
      </trkpt>
      <trkpt lat="47.65995" lon="6.02669">
        <ele>210.7</ele>
        <time>2018-02-23T14:56:03Z</time>
      </trkpt>
      <trkpt lat="47.65999" lon="6.02666">
        <ele>210.71</ele>
        <time>2018-02-23T14:56:04Z</time>
      </trkpt>
      <trkpt lat="47.66007" lon="6.0266">
        <ele>210.71</ele>
        <time>2018-02-23T14:56:06Z</time>
      </trkpt>
      <trkpt lat="47.66011" lon="6.02657">
        <ele>210.71</ele>
        <time>2018-02-23T14:56:07Z</time>
      </trkpt>
      <trkpt lat="47.66016" lon="6.02653">
        <ele>210.7</ele>
        <time>2018-02-23T14:56:08Z</time>
      </trkpt>
      <trkpt lat="47.66022" lon="6.0265">
        <ele>210.69</ele>
        <time>2018-02-23T14:56:09Z</time>
      </trkpt>
      <trkpt lat="47.66027" lon="6.02647">
        <ele>210.69</ele>
        <time>2018-02-23T14:56:10Z</time>
      </trkpt>
      <trkpt lat="47.66032" lon="6.02644">
        <ele>210.67</ele>
        <time>2018-02-23T14:56:11Z</time>
      </trkpt>
      <trkpt lat="47.66037" lon="6.02641">
        <ele>210.67</ele>
        <time>2018-02-23T14:56:12Z</time>
      </trkpt>
      <trkpt lat="47.66042" lon="6.02638">
        <ele>210.66</ele>
        <time>2018-02-23T14:56:13Z</time>
      </trkpt>
      <trkpt lat="47.66047" lon="6.02635">
        <ele>210.65</ele>
        <time>2018-02-23T14:56:14Z</time>
      </trkpt>
      <trkpt lat="47.66052" lon="6.02632">
        <ele>210.65</ele>
        <time>2018-02-23T14:56:15Z</time>
      </trkpt>
      <trkpt lat="47.66057" lon="6.0263">
        <ele>210.64</ele>
        <time>2018-02-23T14:56:16Z</time>
      </trkpt>
      <trkpt lat="47.66063" lon="6.02629">
        <ele>210.64</ele>
        <time>2018-02-23T14:56:17Z</time>
      </trkpt>
      <trkpt lat="47.66068" lon="6.02627">
        <ele>210.63</ele>
        <time>2018-02-23T14:56:18Z</time>
      </trkpt>
      <trkpt lat="47.66074" lon="6.02627">
        <ele>210.63</ele>
        <time>2018-02-23T14:56:19Z</time>
      </trkpt>
      <trkpt lat="47.6608" lon="6.02627">
        <ele>210.62</ele>
        <time>2018-02-23T14:56:20Z</time>
      </trkpt>
      <trkpt lat="47.66085" lon="6.02627">
        <ele>210.62</ele>
        <time>2018-02-23T14:56:21Z</time>
      </trkpt>
      <trkpt lat="47.66091" lon="6.02626">
        <ele>210.61</ele>
        <time>2018-02-23T14:56:22Z</time>
      </trkpt>
      <trkpt lat="47.66096" lon="6.02627">
        <ele>210.6</ele>
        <time>2018-02-23T14:56:23Z</time>
      </trkpt>
      <trkpt lat="47.66102" lon="6.02629">
        <ele>210.59</ele>
        <time>2018-02-23T14:56:24Z</time>
      </trkpt>
      <trkpt lat="47.66107" lon="6.0263">
        <ele>210.59</ele>
        <time>2018-02-23T14:56:25Z</time>
      </trkpt>
      <trkpt lat="47.66112" lon="6.02632">
        <ele>210.59</ele>
        <time>2018-02-23T14:56:26Z</time>
      </trkpt>
      <trkpt lat="47.66117" lon="6.02635">
        <ele>210.58</ele>
        <time>2018-02-23T14:56:27Z</time>
      </trkpt>
      <trkpt lat="47.66122" lon="6.02638">
        <ele>210.58</ele>
        <time>2018-02-23T14:56:28Z</time>
      </trkpt>
      <trkpt lat="47.66127" lon="6.02641">
        <ele>210.57</ele>
        <time>2018-02-23T14:56:29Z</time>
      </trkpt>
      <trkpt lat="47.66132" lon="6.02643">
        <ele>210.56</ele>
        <time>2018-02-23T14:56:30Z</time>
      </trkpt>
      <trkpt lat="47.66136" lon="6.02646">
        <ele>210.56</ele>
        <time>2018-02-23T14:56:31Z</time>
      </trkpt>
      <trkpt lat="47.66141" lon="6.02648">
        <ele>210.56</ele>
        <time>2018-02-23T14:56:32Z</time>
      </trkpt>
      <trkpt lat="47.66145" lon="6.02651">
        <ele>210.56</ele>
        <time>2018-02-23T14:56:33Z</time>
      </trkpt>
      <trkpt lat="47.66153" lon="6.02655">
        <ele>210.57</ele>
        <time>2018-02-23T14:56:35Z</time>
      </trkpt>
      <trkpt lat="47.6616" lon="6.0266">
        <ele>210.58</ele>
        <time>2018-02-23T14:56:37Z</time>
      </trkpt>
      <trkpt lat="47.66168" lon="6.02664">
        <ele>210.59</ele>
        <time>2018-02-23T14:56:39Z</time>
      </trkpt>
      <trkpt lat="47.66176" lon="6.02667">
        <ele>210.61</ele>
        <time>2018-02-23T14:56:41Z</time>
      </trkpt>
      <trkpt lat="47.66183" lon="6.0267">
        <ele>210.62</ele>
        <time>2018-02-23T14:56:43Z</time>
      </trkpt>
      <trkpt lat="47.6619" lon="6.02674">
        <ele>210.63</ele>
        <time>2018-02-23T14:56:45Z</time>
      </trkpt>
      <trkpt lat="47.66193" lon="6.02681">
        <ele>210.64</ele>
        <time>2018-02-23T14:56:47Z</time>
      </trkpt>
      <trkpt lat="47.66194" lon="6.02689">
        <ele>210.65</ele>
        <time>2018-02-23T14:56:49Z</time>
      </trkpt>
      <trkpt lat="47.66195" lon="6.02698">
        <ele>210.66</ele>
        <time>2018-02-23T14:56:51Z</time>
      </trkpt>
      <trkpt lat="47.66196" lon="6.02707">
        <ele>210.66</ele>
        <time>2018-02-23T14:56:53Z</time>
      </trkpt>
      <trkpt lat="47.66195" lon="6.02716">
        <ele>210.67</ele>
        <time>2018-02-23T14:56:55Z</time>
      </trkpt>
      <trkpt lat="47.66197" lon="6.02724">
        <ele>210.68</ele>
        <time>2018-02-23T14:56:57Z</time>
      </trkpt>
      <trkpt lat="47.66197" lon="6.02734">
        <ele>210.68</ele>
        <time>2018-02-23T14:56:59Z</time>
      </trkpt>
      <trkpt lat="47.66197" lon="6.02741">
        <ele>210.68</ele>
        <time>2018-02-23T14:57:01Z</time>
      </trkpt>
      <trkpt lat="47.66198" lon="6.02749">
        <ele>210.69</ele>
        <time>2018-02-23T14:57:03Z</time>
      </trkpt>
      <trkpt lat="47.66199" lon="6.02759">
        <ele>210.69</ele>
        <time>2018-02-23T14:57:05Z</time>
      </trkpt>
      <trkpt lat="47.662" lon="6.02771">
        <ele>210.7</ele>
        <time>2018-02-23T14:57:07Z</time>
      </trkpt>
      <trkpt lat="47.662" lon="6.02778">
        <ele>210.7</ele>
        <time>2018-02-23T14:57:08Z</time>
      </trkpt>
      <trkpt lat="47.66203" lon="6.02789">
        <ele>210.72</ele>
        <time>2018-02-23T14:57:10Z</time>
      </trkpt>
      <trkpt lat="47.66205" lon="6.02797">
        <ele>210.73</ele>
        <time>2018-02-23T14:57:12Z</time>
      </trkpt>
      <trkpt lat="47.66208" lon="6.02804">
        <ele>210.75</ele>
        <time>2018-02-23T14:57:14Z</time>
      </trkpt>
      <trkpt lat="47.66211" lon="6.02813">
        <ele>210.78</ele>
        <time>2018-02-23T14:57:16Z</time>
      </trkpt>
      <trkpt lat="47.66215" lon="6.0282">
        <ele>210.8</ele>
        <time>2018-02-23T14:57:18Z</time>
      </trkpt>
      <trkpt lat="47.66218" lon="6.02828">
        <ele>210.83</ele>
        <time>2018-02-23T14:57:20Z</time>
      </trkpt>
      <trkpt lat="47.66222" lon="6.02835">
        <ele>210.86</ele>
        <time>2018-02-23T14:57:22Z</time>
      </trkpt>
      <trkpt lat="47.66226" lon="6.02841">
        <ele>210.88</ele>
        <time>2018-02-23T14:57:24Z</time>
      </trkpt>
      <trkpt lat="47.66231" lon="6.02846">
        <ele>210.92</ele>
        <time>2018-02-23T14:57:26Z</time>
      </trkpt>
      <trkpt lat="47.66236" lon="6.02852">
        <ele>210.95</ele>
        <time>2018-02-23T14:57:28Z</time>
      </trkpt>
      <trkpt lat="47.6624" lon="6.02859">
        <ele>210.98</ele>
        <time>2018-02-23T14:57:30Z</time>
      </trkpt>
      <trkpt lat="47.66246" lon="6.02866">
        <ele>211.15</ele>
        <time>2018-02-23T14:57:32Z</time>
      </trkpt>
      <trkpt lat="47.66252" lon="6.02873">
        <ele>211.24</ele>
        <time>2018-02-23T14:57:34Z</time>
      </trkpt>
      <trkpt lat="47.66257" lon="6.02879">
        <ele>211.28</ele>
        <time>2018-02-23T14:57:36Z</time>
      </trkpt>
      <trkpt lat="47.66261" lon="6.02885">
        <ele>211.32</ele>
        <time>2018-02-23T14:57:38Z</time>
      </trkpt>
      <trkpt lat="47.66267" lon="6.02893">
        <ele>211.36</ele>
        <time>2018-02-23T14:57:40Z</time>
      </trkpt>
      <trkpt lat="47.66273" lon="6.02899">
        <ele>211.4</ele>
        <time>2018-02-23T14:57:42Z</time>
      </trkpt>
      <trkpt lat="47.66278" lon="6.02906">
        <ele>211.44</ele>
        <time>2018-02-23T14:57:44Z</time>
      </trkpt>
      <trkpt lat="47.66283" lon="6.02913">
        <ele>211.49</ele>
        <time>2018-02-23T14:57:46Z</time>
      </trkpt>
      <trkpt lat="47.66288" lon="6.02921">
        <ele>211.54</ele>
        <time>2018-02-23T14:57:48Z</time>
      </trkpt>
      <trkpt lat="47.66293" lon="6.02928">
        <ele>211.59</ele>
        <time>2018-02-23T14:57:50Z</time>
      </trkpt>
      <trkpt lat="47.66298" lon="6.02935">
        <ele>211.64</ele>
        <time>2018-02-23T14:57:52Z</time>
      </trkpt>
      <trkpt lat="47.66303" lon="6.02943">
        <ele>211.69</ele>
        <time>2018-02-23T14:57:54Z</time>
      </trkpt>
      <trkpt lat="47.66308" lon="6.02951">
        <ele>211.75</ele>
        <time>2018-02-23T14:57:56Z</time>
      </trkpt>
      <trkpt lat="47.66314" lon="6.02958">
        <ele>211.8</ele>
        <time>2018-02-23T14:57:58Z</time>
      </trkpt>
      <trkpt lat="47.66319" lon="6.02965">
        <ele>211.86</ele>
        <time>2018-02-23T14:58:00Z</time>
      </trkpt>
      <trkpt lat="47.66324" lon="6.02972">
        <ele>211.92</ele>
        <time>2018-02-23T14:58:02Z</time>
      </trkpt>
      <trkpt lat="47.66329" lon="6.02979">
        <ele>211.98</ele>
        <time>2018-02-23T14:58:04Z</time>
      </trkpt>
      <trkpt lat="47.66335" lon="6.02985">
        <ele>212.24</ele>
        <time>2018-02-23T14:58:06Z</time>
      </trkpt>
      <trkpt lat="47.66341" lon="6.0299">
        <ele>212.37</ele>
        <time>2018-02-23T14:58:08Z</time>
      </trkpt>
      <trkpt lat="47.66347" lon="6.02995">
        <ele>212.43</ele>
        <time>2018-02-23T14:58:10Z</time>
      </trkpt>
      <trkpt lat="47.66352" lon="6.03002">
        <ele>212.48</ele>
        <time>2018-02-23T14:58:12Z</time>
      </trkpt>
      <trkpt lat="47.66358" lon="6.03011">
        <ele>212.72</ele>
        <time>2018-02-23T14:58:14Z</time>
      </trkpt>
      <trkpt lat="47.66363" lon="6.03019">
        <ele>212.9</ele>
        <time>2018-02-23T14:58:16Z</time>
      </trkpt>
      <trkpt lat="47.66367" lon="6.03023">
        <ele>213.06</ele>
        <time>2018-02-23T14:58:17Z</time>
      </trkpt>
      <trkpt lat="47.66371" lon="6.03027">
        <ele>213.2</ele>
        <time>2018-02-23T14:58:18Z</time>
      </trkpt>
      <trkpt lat="47.66377" lon="6.03035">
        <ele>213.42</ele>
        <time>2018-02-23T14:58:20Z</time>
      </trkpt>
      <trkpt lat="47.66381" lon="6.03038">
        <ele>213.5</ele>
        <time>2018-02-23T14:58:21Z</time>
      </trkpt>
      <trkpt lat="47.66389" lon="6.03045">
        <ele>213.63</ele>
        <time>2018-02-23T14:58:23Z</time>
      </trkpt>
      <trkpt lat="47.66394" lon="6.03047">
        <ele>213.68</ele>
        <time>2018-02-23T14:58:24Z</time>
      </trkpt>
      <trkpt lat="47.66398" lon="6.03049">
        <ele>213.73</ele>
        <time>2018-02-23T14:58:25Z</time>
      </trkpt>
      <trkpt lat="47.66406" lon="6.03057">
        <ele>213.81</ele>
        <time>2018-02-23T14:58:27Z</time>
      </trkpt>
      <trkpt lat="47.66412" lon="6.0306">
        <ele>213.85</ele>
        <time>2018-02-23T14:58:28Z</time>
      </trkpt>
      <trkpt lat="47.66418" lon="6.03064">
        <ele>213.88</ele>
        <time>2018-02-23T14:58:29Z</time>
      </trkpt>
      <trkpt lat="47.66425" lon="6.03068">
        <ele>213.91</ele>
        <time>2018-02-23T14:58:30Z</time>
      </trkpt>
      <trkpt lat="47.66432" lon="6.03071">
        <ele>213.93</ele>
        <time>2018-02-23T14:58:31Z</time>
      </trkpt>
      <trkpt lat="47.66441" lon="6.03074">
        <ele>213.94</ele>
        <time>2018-02-23T14:58:32Z</time>
      </trkpt>
      <trkpt lat="47.6645" lon="6.03076">
        <ele>213.95</ele>
        <time>2018-02-23T14:58:33Z</time>
      </trkpt>
      <trkpt lat="47.66456" lon="6.03079">
        <ele>213.95</ele>
        <time>2018-02-23T14:58:34Z</time>
      </trkpt>
      <trkpt lat="47.66463" lon="6.0308">
        <ele>213.94</ele>
        <time>2018-02-23T14:58:35Z</time>
      </trkpt>
      <trkpt lat="47.6647" lon="6.03082">
        <ele>213.94</ele>
        <time>2018-02-23T14:58:36Z</time>
      </trkpt>
      <trkpt lat="47.66478" lon="6.03083">
        <ele>213.93</ele>
        <time>2018-02-23T14:58:37Z</time>
      </trkpt>
      <trkpt lat="47.66484" lon="6.03084">
        <ele>213.93</ele>
        <time>2018-02-23T14:58:38Z</time>
      </trkpt>
      <trkpt lat="47.66489" lon="6.03085">
        <ele>213.93</ele>
        <time>2018-02-23T14:58:39Z</time>
      </trkpt>
      <trkpt lat="47.66495" lon="6.03086">
        <ele>213.92</ele>
        <time>2018-02-23T14:58:40Z</time>
      </trkpt>
      <trkpt lat="47.66501" lon="6.03086">
        <ele>213.92</ele>
        <time>2018-02-23T14:58:41Z</time>
      </trkpt>
      <trkpt lat="47.66507" lon="6.03086">
        <ele>213.9</ele>
        <time>2018-02-23T14:58:42Z</time>
      </trkpt>
      <trkpt lat="47.66514" lon="6.03087">
        <ele>213.89</ele>
        <time>2018-02-23T14:58:43Z</time>
      </trkpt>
      <trkpt lat="47.6652" lon="6.03087">
        <ele>213.88</ele>
        <time>2018-02-23T14:58:44Z</time>
      </trkpt>
      <trkpt lat="47.66526" lon="6.03088">
        <ele>213.87</ele>
        <time>2018-02-23T14:58:45Z</time>
      </trkpt>
      <trkpt lat="47.66531" lon="6.03088">
        <ele>213.85</ele>
        <time>2018-02-23T14:58:46Z</time>
      </trkpt>
      <trkpt lat="47.66536" lon="6.03089">
        <ele>213.84</ele>
        <time>2018-02-23T14:58:47Z</time>
      </trkpt>
      <trkpt lat="47.66541" lon="6.03089">
        <ele>213.83</ele>
        <time>2018-02-23T14:58:48Z</time>
      </trkpt>
      <trkpt lat="47.66547" lon="6.0309">
        <ele>213.82</ele>
        <time>2018-02-23T14:58:49Z</time>
      </trkpt>
      <trkpt lat="47.66552" lon="6.0309">
        <ele>213.82</ele>
        <time>2018-02-23T14:58:50Z</time>
      </trkpt>
      <trkpt lat="47.66557" lon="6.03091">
        <ele>213.82</ele>
        <time>2018-02-23T14:58:51Z</time>
      </trkpt>
      <trkpt lat="47.66563" lon="6.03091">
        <ele>213.82</ele>
        <time>2018-02-23T14:58:52Z</time>
      </trkpt>
      <trkpt lat="47.66569" lon="6.03092">
        <ele>213.82</ele>
        <time>2018-02-23T14:58:53Z</time>
      </trkpt>
      <trkpt lat="47.66574" lon="6.03092">
        <ele>213.81</ele>
        <time>2018-02-23T14:58:54Z</time>
      </trkpt>
      <trkpt lat="47.6658" lon="6.03092">
        <ele>213.81</ele>
        <time>2018-02-23T14:58:55Z</time>
      </trkpt>
      <trkpt lat="47.66586" lon="6.03092">
        <ele>213.81</ele>
        <time>2018-02-23T14:58:56Z</time>
      </trkpt>
      <trkpt lat="47.66591" lon="6.03092">
        <ele>213.81</ele>
        <time>2018-02-23T14:58:57Z</time>
      </trkpt>
      <trkpt lat="47.66596" lon="6.03093">
        <ele>213.81</ele>
        <time>2018-02-23T14:58:58Z</time>
      </trkpt>
      <trkpt lat="47.66601" lon="6.03093">
        <ele>213.81</ele>
        <time>2018-02-23T14:58:59Z</time>
      </trkpt>
      <trkpt lat="47.66606" lon="6.03093">
        <ele>213.82</ele>
        <time>2018-02-23T14:59:00Z</time>
      </trkpt>
      <trkpt lat="47.66611" lon="6.03093">
        <ele>213.82</ele>
        <time>2018-02-23T14:59:01Z</time>
      </trkpt>
      <trkpt lat="47.66616" lon="6.03092">
        <ele>213.83</ele>
        <time>2018-02-23T14:59:02Z</time>
      </trkpt>
      <trkpt lat="47.66621" lon="6.03092">
        <ele>213.84</ele>
        <time>2018-02-23T14:59:03Z</time>
      </trkpt>
      <trkpt lat="47.66626" lon="6.03092">
        <ele>213.86</ele>
        <time>2018-02-23T14:59:04Z</time>
      </trkpt>
      <trkpt lat="47.66631" lon="6.03092">
        <ele>213.87</ele>
        <time>2018-02-23T14:59:05Z</time>
      </trkpt>
      <trkpt lat="47.66636" lon="6.03091">
        <ele>213.88</ele>
        <time>2018-02-23T14:59:06Z</time>
      </trkpt>
      <trkpt lat="47.66645" lon="6.03091">
        <ele>213.91</ele>
        <time>2018-02-23T14:59:08Z</time>
      </trkpt>
      <trkpt lat="47.6665" lon="6.0309">
        <ele>213.92</ele>
        <time>2018-02-23T14:59:09Z</time>
      </trkpt>
      <trkpt lat="47.66655" lon="6.0309">
        <ele>213.94</ele>
        <time>2018-02-23T14:59:10Z</time>
      </trkpt>
      <trkpt lat="47.66659" lon="6.03089">
        <ele>213.95</ele>
        <time>2018-02-23T14:59:11Z</time>
      </trkpt>
      <trkpt lat="47.66668" lon="6.03089">
        <ele>213.98</ele>
        <time>2018-02-23T14:59:13Z</time>
      </trkpt>
      <trkpt lat="47.66676" lon="6.03091">
        <ele>214</ele>
        <time>2018-02-23T14:59:15Z</time>
      </trkpt>
      <trkpt lat="47.66685" lon="6.03095">
        <ele>214.03</ele>
        <time>2018-02-23T14:59:17Z</time>
      </trkpt>
      <trkpt lat="47.66693" lon="6.031">
        <ele>214.05</ele>
        <time>2018-02-23T14:59:19Z</time>
      </trkpt>
      <trkpt lat="47.66701" lon="6.03106">
        <ele>214.08</ele>
        <time>2018-02-23T14:59:21Z</time>
      </trkpt>
      <trkpt lat="47.66709" lon="6.03111">
        <ele>214.12</ele>
        <time>2018-02-23T14:59:23Z</time>
      </trkpt>
      <trkpt lat="47.66715" lon="6.03116">
        <ele>214.16</ele>
        <time>2018-02-23T14:59:25Z</time>
      </trkpt>
      <trkpt lat="47.66722" lon="6.03122">
        <ele>214.19</ele>
        <time>2018-02-23T14:59:27Z</time>
      </trkpt>
      <trkpt lat="47.66728" lon="6.03126">
        <ele>214.2</ele>
        <time>2018-02-23T14:59:29Z</time>
      </trkpt>
      <trkpt lat="47.66734" lon="6.03131">
        <ele>214.21</ele>
        <time>2018-02-23T14:59:31Z</time>
      </trkpt>
      <trkpt lat="47.6674" lon="6.03134">
        <ele>214.22</ele>
        <time>2018-02-23T14:59:33Z</time>
      </trkpt>
      <trkpt lat="47.66746" lon="6.03137">
        <ele>214.23</ele>
        <time>2018-02-23T14:59:35Z</time>
      </trkpt>
      <trkpt lat="47.66753" lon="6.0314">
        <ele>214.24</ele>
        <time>2018-02-23T14:59:37Z</time>
      </trkpt>
      <trkpt lat="47.66758" lon="6.03143">
        <ele>214.26</ele>
        <time>2018-02-23T14:59:39Z</time>
      </trkpt>
      <trkpt lat="47.66765" lon="6.03145">
        <ele>214.27</ele>
        <time>2018-02-23T14:59:41Z</time>
      </trkpt>
      <trkpt lat="47.66771" lon="6.03146">
        <ele>214.29</ele>
        <time>2018-02-23T14:59:43Z</time>
      </trkpt>
      <trkpt lat="47.66776" lon="6.03147">
        <ele>214.32</ele>
        <time>2018-02-23T14:59:45Z</time>
      </trkpt>
      <trkpt lat="47.66782" lon="6.03149">
        <ele>214.36</ele>
        <time>2018-02-23T14:59:48Z</time>
      </trkpt>
      <trkpt lat="47.66787" lon="6.0315">
        <ele>214.39</ele>
        <time>2018-02-23T14:59:50Z</time>
      </trkpt>
      <trkpt lat="47.66792" lon="6.03151">
        <ele>214.43</ele>
        <time>2018-02-23T14:59:52Z</time>
      </trkpt>
      <trkpt lat="47.66799" lon="6.03153">
        <ele>214.49</ele>
        <time>2018-02-23T14:59:55Z</time>
      </trkpt>
      <trkpt lat="47.66804" lon="6.03154">
        <ele>214.54</ele>
        <time>2018-02-23T14:59:57Z</time>
      </trkpt>
      <trkpt lat="47.66809" lon="6.03155">
        <ele>214.59</ele>
        <time>2018-02-23T14:59:59Z</time>
      </trkpt>
      <trkpt lat="47.66815" lon="6.03156">
        <ele>214.65</ele>
        <time>2018-02-23T15:00:01Z</time>
      </trkpt>
      <trkpt lat="47.6682" lon="6.03156">
        <ele>214.71</ele>
        <time>2018-02-23T15:00:03Z</time>
      </trkpt>
      <trkpt lat="47.66827" lon="6.03155">
        <ele>214.81</ele>
        <time>2018-02-23T15:00:06Z</time>
      </trkpt>
      <trkpt lat="47.66832" lon="6.03156">
        <ele>214.88</ele>
        <time>2018-02-23T15:00:08Z</time>
      </trkpt>
      <trkpt lat="47.66837" lon="6.03156">
        <ele>214.95</ele>
        <time>2018-02-23T15:00:10Z</time>
      </trkpt>
      <trkpt lat="47.66842" lon="6.03157">
        <ele>215.03</ele>
        <time>2018-02-23T15:00:12Z</time>
      </trkpt>
      <trkpt lat="47.66848" lon="6.03158">
        <ele>215.11</ele>
        <time>2018-02-23T15:00:14Z</time>
      </trkpt>
      <trkpt lat="47.66853" lon="6.03159">
        <ele>215.19</ele>
        <time>2018-02-23T15:00:16Z</time>
      </trkpt>
      <trkpt lat="47.66859" lon="6.03161">
        <ele>215.3</ele>
        <time>2018-02-23T15:00:19Z</time>
      </trkpt>
      <trkpt lat="47.66864" lon="6.03163">
        <ele>215.42</ele>
        <time>2018-02-23T15:00:22Z</time>
      </trkpt>
      <trkpt lat="47.66871" lon="6.03167">
        <ele>215.54</ele>
        <time>2018-02-23T15:00:25Z</time>
      </trkpt>
      <trkpt lat="47.66877" lon="6.03168">
        <ele>215.61</ele>
        <time>2018-02-23T15:00:27Z</time>
      </trkpt>
      <trkpt lat="47.66884" lon="6.03171">
        <ele>215.69</ele>
        <time>2018-02-23T15:00:29Z</time>
      </trkpt>
      <trkpt lat="47.66889" lon="6.03173">
        <ele>215.78</ele>
        <time>2018-02-23T15:00:31Z</time>
      </trkpt>
      <trkpt lat="47.66893" lon="6.03176">
        <ele>215.86</ele>
        <time>2018-02-23T15:00:33Z</time>
      </trkpt>
      <trkpt lat="47.66897" lon="6.0318">
        <ele>215.94</ele>
        <time>2018-02-23T15:00:35Z</time>
      </trkpt>
      <trkpt lat="47.66901" lon="6.03184">
        <ele>216.02</ele>
        <time>2018-02-23T15:00:37Z</time>
      </trkpt>
      <trkpt lat="47.66906" lon="6.03187">
        <ele>216.1</ele>
        <time>2018-02-23T15:00:39Z</time>
      </trkpt>
      <trkpt lat="47.6691" lon="6.03191">
        <ele>216.17</ele>
        <time>2018-02-23T15:00:41Z</time>
      </trkpt>
      <trkpt lat="47.66917" lon="6.03196">
        <ele>216.25</ele>
        <time>2018-02-23T15:00:43Z</time>
      </trkpt>
      <trkpt lat="47.66922" lon="6.032">
        <ele>216.32</ele>
        <time>2018-02-23T15:00:45Z</time>
      </trkpt>
      <trkpt lat="47.66928" lon="6.03206">
        <ele>216.39</ele>
        <time>2018-02-23T15:00:47Z</time>
      </trkpt>
      <trkpt lat="47.66934" lon="6.03212">
        <ele>216.46</ele>
        <time>2018-02-23T15:00:49Z</time>
      </trkpt>
      <trkpt lat="47.6694" lon="6.03217">
        <ele>216.54</ele>
        <time>2018-02-23T15:00:51Z</time>
      </trkpt>
      <trkpt lat="47.66945" lon="6.03224">
        <ele>216.61</ele>
        <time>2018-02-23T15:00:53Z</time>
      </trkpt>
      <trkpt lat="47.6695" lon="6.0323">
        <ele>216.68</ele>
        <time>2018-02-23T15:00:55Z</time>
      </trkpt>
      <trkpt lat="47.66954" lon="6.03236">
        <ele>216.75</ele>
        <time>2018-02-23T15:00:57Z</time>
      </trkpt>
      <trkpt lat="47.66958" lon="6.03242">
        <ele>216.82</ele>
        <time>2018-02-23T15:00:59Z</time>
      </trkpt>
      <trkpt lat="47.66963" lon="6.03249">
        <ele>216.88</ele>
        <time>2018-02-23T15:01:01Z</time>
      </trkpt>
      <trkpt lat="47.66968" lon="6.03255">
        <ele>216.95</ele>
        <time>2018-02-23T15:01:03Z</time>
      </trkpt>
      <trkpt lat="47.66973" lon="6.0326">
        <ele>217.02</ele>
        <time>2018-02-23T15:01:05Z</time>
      </trkpt>
      <trkpt lat="47.66978" lon="6.03266">
        <ele>217.09</ele>
        <time>2018-02-23T15:01:07Z</time>
      </trkpt>
      <trkpt lat="47.66984" lon="6.03271">
        <ele>217.15</ele>
        <time>2018-02-23T15:01:09Z</time>
      </trkpt>
      <trkpt lat="47.6699" lon="6.03275">
        <ele>217.22</ele>
        <time>2018-02-23T15:01:11Z</time>
      </trkpt>
      <trkpt lat="47.66996" lon="6.03279">
        <ele>217.28</ele>
        <time>2018-02-23T15:01:13Z</time>
      </trkpt>
      <trkpt lat="47.67" lon="6.03286">
        <ele>217.35</ele>
        <time>2018-02-23T15:01:15Z</time>
      </trkpt>
      <trkpt lat="47.67005" lon="6.03293">
        <ele>217.41</ele>
        <time>2018-02-23T15:01:17Z</time>
      </trkpt>
      <trkpt lat="47.67009" lon="6.033">
        <ele>217.48</ele>
        <time>2018-02-23T15:01:19Z</time>
      </trkpt>
      <trkpt lat="47.67012" lon="6.03306">
        <ele>217.54</ele>
        <time>2018-02-23T15:01:21Z</time>
      </trkpt>
      <trkpt lat="47.67018" lon="6.03313">
        <ele>217.6</ele>
        <time>2018-02-23T15:01:23Z</time>
      </trkpt>
      <trkpt lat="47.67024" lon="6.0332">
        <ele>217.66</ele>
        <time>2018-02-23T15:01:25Z</time>
      </trkpt>
      <trkpt lat="47.67029" lon="6.03329">
        <ele>217.71</ele>
        <time>2018-02-23T15:01:27Z</time>
      </trkpt>
      <trkpt lat="47.67034" lon="6.03336">
        <ele>217.96</ele>
        <time>2018-02-23T15:01:29Z</time>
      </trkpt>
      <trkpt lat="47.67041" lon="6.03345">
        <ele>218.28</ele>
        <time>2018-02-23T15:01:31Z</time>
      </trkpt>
      <trkpt lat="47.67045" lon="6.03353">
        <ele>218.35</ele>
        <time>2018-02-23T15:01:33Z</time>
      </trkpt>
      <trkpt lat="47.67051" lon="6.03359">
        <ele>218.4</ele>
        <time>2018-02-23T15:01:35Z</time>
      </trkpt>
      <trkpt lat="47.67056" lon="6.03366">
        <ele>218.45</ele>
        <time>2018-02-23T15:01:37Z</time>
      </trkpt>
      <trkpt lat="47.67059" lon="6.03372">
        <ele>218.5</ele>
        <time>2018-02-23T15:01:39Z</time>
      </trkpt>
      <trkpt lat="47.67063" lon="6.03378">
        <ele>218.56</ele>
        <time>2018-02-23T15:01:41Z</time>
      </trkpt>
      <trkpt lat="47.67066" lon="6.03386">
        <ele>218.62</ele>
        <time>2018-02-23T15:01:43Z</time>
      </trkpt>
      <trkpt lat="47.67072" lon="6.03394">
        <ele>218.68</ele>
        <time>2018-02-23T15:01:45Z</time>
      </trkpt>
      <trkpt lat="47.67076" lon="6.03401">
        <ele>218.75</ele>
        <time>2018-02-23T15:01:47Z</time>
      </trkpt>
      <trkpt lat="47.6708" lon="6.0341">
        <ele>218.82</ele>
        <time>2018-02-23T15:01:49Z</time>
      </trkpt>
      <trkpt lat="47.67084" lon="6.03416">
        <ele>218.88</ele>
        <time>2018-02-23T15:01:51Z</time>
      </trkpt>
      <trkpt lat="47.67089" lon="6.03422">
        <ele>218.92</ele>
        <time>2018-02-23T15:01:53Z</time>
      </trkpt>
      <trkpt lat="47.67094" lon="6.03428">
        <ele>218.99</ele>
        <time>2018-02-23T15:01:55Z</time>
      </trkpt>
      <trkpt lat="47.67098" lon="6.03436">
        <ele>219.08</ele>
        <time>2018-02-23T15:01:57Z</time>
      </trkpt>
      <trkpt lat="47.67103" lon="6.03441">
        <ele>219.12</ele>
        <time>2018-02-23T15:01:58Z</time>
      </trkpt>
      <trkpt lat="47.67107" lon="6.03449">
        <ele>219.21</ele>
        <time>2018-02-23T15:02:00Z</time>
      </trkpt>
      <trkpt lat="47.67112" lon="6.03458">
        <ele>219.31</ele>
        <time>2018-02-23T15:02:02Z</time>
      </trkpt>
      <trkpt lat="47.67117" lon="6.03464">
        <ele>219.43</ele>
        <time>2018-02-23T15:02:04Z</time>
      </trkpt>
      <trkpt lat="47.6712" lon="6.03472">
        <ele>219.55</ele>
        <time>2018-02-23T15:02:06Z</time>
      </trkpt>
      <trkpt lat="47.67125" lon="6.03481">
        <ele>219.66</ele>
        <time>2018-02-23T15:02:08Z</time>
      </trkpt>
      <trkpt lat="47.67129" lon="6.03489">
        <ele>219.79</ele>
        <time>2018-02-23T15:02:10Z</time>
      </trkpt>
      <trkpt lat="47.67135" lon="6.03495">
        <ele>219.94</ele>
        <time>2018-02-23T15:02:12Z</time>
      </trkpt>
      <trkpt lat="47.6714" lon="6.03504">
        <ele>220.19</ele>
        <time>2018-02-23T15:02:15Z</time>
      </trkpt>
      <trkpt lat="47.67147" lon="6.0351">
        <ele>220.39</ele>
        <time>2018-02-23T15:02:17Z</time>
      </trkpt>
      <trkpt lat="47.67151" lon="6.03516">
        <ele>220.62</ele>
        <time>2018-02-23T15:02:19Z</time>
      </trkpt>
      <trkpt lat="47.67155" lon="6.03524">
        <ele>220.87</ele>
        <time>2018-02-23T15:02:21Z</time>
      </trkpt>
      <trkpt lat="47.67158" lon="6.0353">
        <ele>221.15</ele>
        <time>2018-02-23T15:02:23Z</time>
      </trkpt>
      <trkpt lat="47.67163" lon="6.03537">
        <ele>221.45</ele>
        <time>2018-02-23T15:02:25Z</time>
      </trkpt>
      <trkpt lat="47.67167" lon="6.03545">
        <ele>221.75</ele>
        <time>2018-02-23T15:02:27Z</time>
      </trkpt>
      <trkpt lat="47.67171" lon="6.03553">
        <ele>222.06</ele>
        <time>2018-02-23T15:02:29Z</time>
      </trkpt>
      <trkpt lat="47.67173" lon="6.03561">
        <ele>222.37</ele>
        <time>2018-02-23T15:02:31Z</time>
      </trkpt>
      <trkpt lat="47.67178" lon="6.03568">
        <ele>222.68</ele>
        <time>2018-02-23T15:02:33Z</time>
      </trkpt>
      <trkpt lat="47.67182" lon="6.03576">
        <ele>223</ele>
        <time>2018-02-23T15:02:35Z</time>
      </trkpt>
      <trkpt lat="47.67185" lon="6.03585">
        <ele>223.31</ele>
        <time>2018-02-23T15:02:37Z</time>
      </trkpt>
      <trkpt lat="47.6719" lon="6.03597">
        <ele>225.55</ele>
        <time>2018-02-23T15:02:39Z</time>
      </trkpt>
      <trkpt lat="47.67193" lon="6.03603">
        <ele>226.6</ele>
        <time>2018-02-23T15:02:40Z</time>
      </trkpt>
      <trkpt lat="47.67196" lon="6.03609">
        <ele>227.46</ele>
        <time>2018-02-23T15:02:41Z</time>
      </trkpt>
      <trkpt lat="47.67199" lon="6.03615">
        <ele>228.16</ele>
        <time>2018-02-23T15:02:42Z</time>
      </trkpt>
      <trkpt lat="47.67202" lon="6.03622">
        <ele>228.71</ele>
        <time>2018-02-23T15:02:43Z</time>
      </trkpt>
      <trkpt lat="47.67206" lon="6.0363">
        <ele>229.17</ele>
        <time>2018-02-23T15:02:44Z</time>
      </trkpt>
      <trkpt lat="47.67208" lon="6.03637">
        <ele>229.56</ele>
        <time>2018-02-23T15:02:45Z</time>
      </trkpt>
      <trkpt lat="47.67212" lon="6.03644">
        <ele>229.9</ele>
        <time>2018-02-23T15:02:46Z</time>
      </trkpt>
      <trkpt lat="47.67215" lon="6.03652">
        <ele>230.18</ele>
        <time>2018-02-23T15:02:47Z</time>
      </trkpt>
      <trkpt lat="47.67218" lon="6.03659">
        <ele>230.43</ele>
        <time>2018-02-23T15:02:48Z</time>
      </trkpt>
      <trkpt lat="47.67221" lon="6.03667">
        <ele>230.66</ele>
        <time>2018-02-23T15:02:49Z</time>
      </trkpt>
      <trkpt lat="47.67224" lon="6.03674">
        <ele>230.86</ele>
        <time>2018-02-23T15:02:50Z</time>
      </trkpt>
      <trkpt lat="47.67227" lon="6.03683">
        <ele>231.02</ele>
        <time>2018-02-23T15:02:51Z</time>
      </trkpt>
      <trkpt lat="47.67232" lon="6.03691">
        <ele>231.17</ele>
        <time>2018-02-23T15:02:52Z</time>
      </trkpt>
      <trkpt lat="47.67237" lon="6.03699">
        <ele>231.26</ele>
        <time>2018-02-23T15:02:53Z</time>
      </trkpt>
      <trkpt lat="47.67244" lon="6.03709">
        <ele>231.23</ele>
        <time>2018-02-23T15:02:54Z</time>
      </trkpt>
      <trkpt lat="47.67249" lon="6.0372">
        <ele>231.16</ele>
        <time>2018-02-23T15:02:55Z</time>
      </trkpt>
      <trkpt lat="47.67255" lon="6.0373">
        <ele>231.13</ele>
        <time>2018-02-23T15:02:56Z</time>
      </trkpt>
      <trkpt lat="47.6726" lon="6.03739">
        <ele>231.12</ele>
        <time>2018-02-23T15:02:57Z</time>
      </trkpt>
      <trkpt lat="47.67264" lon="6.03748">
        <ele>231.1</ele>
        <time>2018-02-23T15:02:58Z</time>
      </trkpt>
      <trkpt lat="47.6727" lon="6.03756">
        <ele>231.08</ele>
        <time>2018-02-23T15:02:59Z</time>
      </trkpt>
      <trkpt lat="47.67275" lon="6.03765">
        <ele>231.07</ele>
        <time>2018-02-23T15:03:00Z</time>
      </trkpt>
      <trkpt lat="47.6728" lon="6.03773">
        <ele>231.04</ele>
        <time>2018-02-23T15:03:01Z</time>
      </trkpt>
      <trkpt lat="47.67286" lon="6.03782">
        <ele>231.01</ele>
        <time>2018-02-23T15:03:02Z</time>
      </trkpt>
      <trkpt lat="47.67291" lon="6.0379">
        <ele>230.99</ele>
        <time>2018-02-23T15:03:03Z</time>
      </trkpt>
      <trkpt lat="47.67295" lon="6.038">
        <ele>230.96</ele>
        <time>2018-02-23T15:03:04Z</time>
      </trkpt>
      <trkpt lat="47.673" lon="6.0381">
        <ele>230.92</ele>
        <time>2018-02-23T15:03:05Z</time>
      </trkpt>
      <trkpt lat="47.67305" lon="6.03819">
        <ele>230.84</ele>
        <time>2018-02-23T15:03:06Z</time>
      </trkpt>
      <trkpt lat="47.6731" lon="6.03829">
        <ele>230.74</ele>
        <time>2018-02-23T15:03:07Z</time>
      </trkpt>
      <trkpt lat="47.67315" lon="6.03838">
        <ele>230.62</ele>
        <time>2018-02-23T15:03:08Z</time>
      </trkpt>
      <trkpt lat="47.67321" lon="6.03847">
        <ele>230.47</ele>
        <time>2018-02-23T15:03:09Z</time>
      </trkpt>
      <trkpt lat="47.67325" lon="6.03858">
        <ele>230.34</ele>
        <time>2018-02-23T15:03:10Z</time>
      </trkpt>
      <trkpt lat="47.6733" lon="6.03868">
        <ele>230.23</ele>
        <time>2018-02-23T15:03:11Z</time>
      </trkpt>
      <trkpt lat="47.67336" lon="6.03877">
        <ele>230.12</ele>
        <time>2018-02-23T15:03:12Z</time>
      </trkpt>
      <trkpt lat="47.67342" lon="6.03886">
        <ele>230.02</ele>
        <time>2018-02-23T15:03:13Z</time>
      </trkpt>
      <trkpt lat="47.67349" lon="6.03894">
        <ele>229.92</ele>
        <time>2018-02-23T15:03:14Z</time>
      </trkpt>
      <trkpt lat="47.67355" lon="6.03902">
        <ele>229.82</ele>
        <time>2018-02-23T15:03:15Z</time>
      </trkpt>
      <trkpt lat="47.67362" lon="6.03908">
        <ele>229.74</ele>
        <time>2018-02-23T15:03:16Z</time>
      </trkpt>
      <trkpt lat="47.67368" lon="6.03914">
        <ele>229.66</ele>
        <time>2018-02-23T15:03:17Z</time>
      </trkpt>
      <trkpt lat="47.67374" lon="6.0392">
        <ele>229.6</ele>
        <time>2018-02-23T15:03:18Z</time>
      </trkpt>
      <trkpt lat="47.6738" lon="6.03925">
        <ele>229.53</ele>
        <time>2018-02-23T15:03:19Z</time>
      </trkpt>
      <trkpt lat="47.67385" lon="6.03931">
        <ele>229.48</ele>
        <time>2018-02-23T15:03:20Z</time>
      </trkpt>
      <trkpt lat="47.6739" lon="6.03937">
        <ele>229.41</ele>
        <time>2018-02-23T15:03:21Z</time>
      </trkpt>
      <trkpt lat="47.67396" lon="6.03943">
        <ele>229.32</ele>
        <time>2018-02-23T15:03:22Z</time>
      </trkpt>
      <trkpt lat="47.674" lon="6.03949">
        <ele>229.23</ele>
        <time>2018-02-23T15:03:23Z</time>
      </trkpt>
      <trkpt lat="47.67404" lon="6.03955">
        <ele>229.14</ele>
        <time>2018-02-23T15:03:24Z</time>
      </trkpt>
      <trkpt lat="47.67408" lon="6.03961">
        <ele>229.04</ele>
        <time>2018-02-23T15:03:25Z</time>
      </trkpt>
      <trkpt lat="47.67413" lon="6.03967">
        <ele>228.98</ele>
        <time>2018-02-23T15:03:27Z</time>
      </trkpt>
      <trkpt lat="47.67416" lon="6.03973">
        <ele>228.91</ele>
        <time>2018-02-23T15:03:28Z</time>
      </trkpt>
      <trkpt lat="47.6742" lon="6.03978">
        <ele>228.85</ele>
        <time>2018-02-23T15:03:29Z</time>
      </trkpt>
      <trkpt lat="47.67424" lon="6.03984">
        <ele>228.79</ele>
        <time>2018-02-23T15:03:30Z</time>
      </trkpt>
      <trkpt lat="47.67427" lon="6.0399">
        <ele>228.75</ele>
        <time>2018-02-23T15:03:31Z</time>
      </trkpt>
      <trkpt lat="47.67431" lon="6.03995">
        <ele>228.72</ele>
        <time>2018-02-23T15:03:32Z</time>
      </trkpt>
      <trkpt lat="47.67435" lon="6.04001">
        <ele>228.7</ele>
        <time>2018-02-23T15:03:33Z</time>
      </trkpt>
      <trkpt lat="47.67439" lon="6.04007">
        <ele>228.68</ele>
        <time>2018-02-23T15:03:34Z</time>
      </trkpt>
      <trkpt lat="47.67443" lon="6.04013">
        <ele>228.67</ele>
        <time>2018-02-23T15:03:35Z</time>
      </trkpt>
      <trkpt lat="47.67446" lon="6.04019">
        <ele>228.66</ele>
        <time>2018-02-23T15:03:36Z</time>
      </trkpt>
      <trkpt lat="47.67448" lon="6.04026">
        <ele>228.64</ele>
        <time>2018-02-23T15:03:37Z</time>
      </trkpt>
      <trkpt lat="47.6745" lon="6.04032">
        <ele>228.6</ele>
        <time>2018-02-23T15:03:38Z</time>
      </trkpt>
      <trkpt lat="47.67455" lon="6.04039">
        <ele>228.56</ele>
        <time>2018-02-23T15:03:39Z</time>
      </trkpt>
      <trkpt lat="47.67458" lon="6.04046">
        <ele>228.51</ele>
        <time>2018-02-23T15:03:40Z</time>
      </trkpt>
      <trkpt lat="47.67463" lon="6.04051">
        <ele>228.45</ele>
        <time>2018-02-23T15:03:41Z</time>
      </trkpt>
      <trkpt lat="47.67467" lon="6.04057">
        <ele>228.38</ele>
        <time>2018-02-23T15:03:42Z</time>
      </trkpt>
      <trkpt lat="47.67471" lon="6.04064">
        <ele>228.31</ele>
        <time>2018-02-23T15:03:43Z</time>
      </trkpt>
      <trkpt lat="47.67475" lon="6.04071">
        <ele>228.26</ele>
        <time>2018-02-23T15:03:44Z</time>
      </trkpt>
      <trkpt lat="47.6748" lon="6.04078">
        <ele>228.22</ele>
        <time>2018-02-23T15:03:45Z</time>
      </trkpt>
      <trkpt lat="47.67484" lon="6.04086">
        <ele>228.17</ele>
        <time>2018-02-23T15:03:46Z</time>
      </trkpt>
      <trkpt lat="47.67489" lon="6.04093">
        <ele>228.12</ele>
        <time>2018-02-23T15:03:47Z</time>
      </trkpt>
      <trkpt lat="47.67494" lon="6.04101">
        <ele>228.05</ele>
        <time>2018-02-23T15:03:48Z</time>
      </trkpt>
      <trkpt lat="47.67498" lon="6.04109">
        <ele>227.95</ele>
        <time>2018-02-23T15:03:49Z</time>
      </trkpt>
      <trkpt lat="47.67502" lon="6.04117">
        <ele>227.86</ele>
        <time>2018-02-23T15:03:50Z</time>
      </trkpt>
      <trkpt lat="47.67506" lon="6.04124">
        <ele>227.75</ele>
        <time>2018-02-23T15:03:51Z</time>
      </trkpt>
      <trkpt lat="47.67511" lon="6.04129">
        <ele>227.66</ele>
        <time>2018-02-23T15:03:52Z</time>
      </trkpt>
      <trkpt lat="47.67516" lon="6.04135">
        <ele>227.6</ele>
        <time>2018-02-23T15:03:53Z</time>
      </trkpt>
      <trkpt lat="47.6752" lon="6.04141">
        <ele>227.52</ele>
        <time>2018-02-23T15:03:54Z</time>
      </trkpt>
      <trkpt lat="47.67524" lon="6.04146">
        <ele>227.43</ele>
        <time>2018-02-23T15:03:55Z</time>
      </trkpt>
      <trkpt lat="47.67528" lon="6.04152">
        <ele>227.33</ele>
        <time>2018-02-23T15:03:56Z</time>
      </trkpt>
      <trkpt lat="47.67532" lon="6.04158">
        <ele>227.24</ele>
        <time>2018-02-23T15:03:57Z</time>
      </trkpt>
      <trkpt lat="47.67536" lon="6.04163">
        <ele>227.12</ele>
        <time>2018-02-23T15:03:58Z</time>
      </trkpt>
      <trkpt lat="47.67541" lon="6.04169">
        <ele>227.01</ele>
        <time>2018-02-23T15:03:59Z</time>
      </trkpt>
      <trkpt lat="47.67544" lon="6.04175">
        <ele>226.94</ele>
        <time>2018-02-23T15:04:00Z</time>
      </trkpt>
      <trkpt lat="47.67549" lon="6.0418">
        <ele>226.9</ele>
        <time>2018-02-23T15:04:01Z</time>
      </trkpt>
      <trkpt lat="47.67554" lon="6.04185">
        <ele>226.87</ele>
        <time>2018-02-23T15:04:02Z</time>
      </trkpt>
      <trkpt lat="47.67559" lon="6.0419">
        <ele>226.86</ele>
        <time>2018-02-23T15:04:03Z</time>
      </trkpt>
      <trkpt lat="47.67563" lon="6.04195">
        <ele>226.83</ele>
        <time>2018-02-23T15:04:04Z</time>
      </trkpt>
      <trkpt lat="47.67568" lon="6.042">
        <ele>226.86</ele>
        <time>2018-02-23T15:04:05Z</time>
      </trkpt>
      <trkpt lat="47.67572" lon="6.04205">
        <ele>226.85</ele>
        <time>2018-02-23T15:04:06Z</time>
      </trkpt>
      <trkpt lat="47.67576" lon="6.0421">
        <ele>226.82</ele>
        <time>2018-02-23T15:04:07Z</time>
      </trkpt>
      <trkpt lat="47.67581" lon="6.04216">
        <ele>226.86</ele>
        <time>2018-02-23T15:04:08Z</time>
      </trkpt>
      <trkpt lat="47.67585" lon="6.04221">
        <ele>226.92</ele>
        <time>2018-02-23T15:04:09Z</time>
      </trkpt>
      <trkpt lat="47.67589" lon="6.04226">
        <ele>227</ele>
        <time>2018-02-23T15:04:10Z</time>
      </trkpt>
      <trkpt lat="47.67593" lon="6.04231">
        <ele>227.11</ele>
        <time>2018-02-23T15:04:11Z</time>
      </trkpt>
      <trkpt lat="47.67597" lon="6.04235">
        <ele>227.24</ele>
        <time>2018-02-23T15:04:12Z</time>
      </trkpt>
      <trkpt lat="47.67601" lon="6.0424">
        <ele>227.33</ele>
        <time>2018-02-23T15:04:13Z</time>
      </trkpt>
      <trkpt lat="47.67605" lon="6.04244">
        <ele>227.34</ele>
        <time>2018-02-23T15:04:14Z</time>
      </trkpt>
      <trkpt lat="47.67611" lon="6.04254">
        <ele>227.18</ele>
        <time>2018-02-23T15:04:16Z</time>
      </trkpt>
      <trkpt lat="47.67614" lon="6.04259">
        <ele>227.16</ele>
        <time>2018-02-23T15:04:17Z</time>
      </trkpt>
      <trkpt lat="47.67618" lon="6.04265">
        <ele>227.17</ele>
        <time>2018-02-23T15:04:18Z</time>
      </trkpt>
      <trkpt lat="47.67622" lon="6.04271">
        <ele>227.19</ele>
        <time>2018-02-23T15:04:19Z</time>
      </trkpt>
      <trkpt lat="47.67626" lon="6.04276">
        <ele>227.23</ele>
        <time>2018-02-23T15:04:20Z</time>
      </trkpt>
      <trkpt lat="47.67629" lon="6.04281">
        <ele>227.32</ele>
        <time>2018-02-23T15:04:21Z</time>
      </trkpt>
      <trkpt lat="47.67633" lon="6.04287">
        <ele>227.46</ele>
        <time>2018-02-23T15:04:22Z</time>
      </trkpt>
      <trkpt lat="47.67637" lon="6.04293">
        <ele>227.66</ele>
        <time>2018-02-23T15:04:23Z</time>
      </trkpt>
      <trkpt lat="47.6764" lon="6.04298">
        <ele>227.81</ele>
        <time>2018-02-23T15:04:24Z</time>
      </trkpt>
      <trkpt lat="47.67646" lon="6.04307">
        <ele>227.87</ele>
        <time>2018-02-23T15:04:26Z</time>
      </trkpt>
      <trkpt lat="47.67653" lon="6.04315">
        <ele>227.87</ele>
        <time>2018-02-23T15:04:28Z</time>
      </trkpt>
      <trkpt lat="47.67657" lon="6.04319">
        <ele>227.78</ele>
        <time>2018-02-23T15:04:29Z</time>
      </trkpt>
      <trkpt lat="47.67663" lon="6.04324">
        <ele>227.66</ele>
        <time>2018-02-23T15:04:30Z</time>
      </trkpt>
      <trkpt lat="47.67668" lon="6.04328">
        <ele>227.51</ele>
        <time>2018-02-23T15:04:31Z</time>
      </trkpt>
      <trkpt lat="47.67673" lon="6.04332">
        <ele>227.35</ele>
        <time>2018-02-23T15:04:32Z</time>
      </trkpt>
      <trkpt lat="47.67678" lon="6.04336">
        <ele>227.19</ele>
        <time>2018-02-23T15:04:33Z</time>
      </trkpt>
      <trkpt lat="47.67683" lon="6.0434">
        <ele>227.04</ele>
        <time>2018-02-23T15:04:34Z</time>
      </trkpt>
      <trkpt lat="47.67688" lon="6.04344">
        <ele>226.88</ele>
        <time>2018-02-23T15:04:35Z</time>
      </trkpt>
      <trkpt lat="47.67694" lon="6.04348">
        <ele>226.69</ele>
        <time>2018-02-23T15:04:36Z</time>
      </trkpt>
      <trkpt lat="47.67699" lon="6.04352">
        <ele>226.48</ele>
        <time>2018-02-23T15:04:37Z</time>
      </trkpt>
      <trkpt lat="47.67704" lon="6.04355">
        <ele>226.27</ele>
        <time>2018-02-23T15:04:38Z</time>
      </trkpt>
      <trkpt lat="47.6771" lon="6.04359">
        <ele>226.07</ele>
        <time>2018-02-23T15:04:39Z</time>
      </trkpt>
      <trkpt lat="47.67715" lon="6.04363">
        <ele>225.86</ele>
        <time>2018-02-23T15:04:40Z</time>
      </trkpt>
      <trkpt lat="47.6772" lon="6.04366">
        <ele>225.67</ele>
        <time>2018-02-23T15:04:41Z</time>
      </trkpt>
      <trkpt lat="47.67724" lon="6.0437">
        <ele>225.24</ele>
        <time>2018-02-23T15:04:42Z</time>
      </trkpt>
      <trkpt lat="47.67729" lon="6.04373">
        <ele>224.84</ele>
        <time>2018-02-23T15:04:43Z</time>
      </trkpt>
      <trkpt lat="47.67735" lon="6.04376">
        <ele>224.52</ele>
        <time>2018-02-23T15:04:44Z</time>
      </trkpt>
      <trkpt lat="47.6774" lon="6.0438">
        <ele>224.3</ele>
        <time>2018-02-23T15:04:45Z</time>
      </trkpt>
      <trkpt lat="47.67745" lon="6.04382">
        <ele>224.22</ele>
        <time>2018-02-23T15:04:46Z</time>
      </trkpt>
      <trkpt lat="47.6775" lon="6.04386">
        <ele>224.21</ele>
        <time>2018-02-23T15:04:47Z</time>
      </trkpt>
      <trkpt lat="47.67756" lon="6.04388">
        <ele>224.23</ele>
        <time>2018-02-23T15:04:48Z</time>
      </trkpt>
      <trkpt lat="47.67761" lon="6.04391">
        <ele>224.24</ele>
        <time>2018-02-23T15:04:49Z</time>
      </trkpt>
      <trkpt lat="47.67766" lon="6.04393">
        <ele>224.2</ele>
        <time>2018-02-23T15:04:50Z</time>
      </trkpt>
      <trkpt lat="47.67771" lon="6.04395">
        <ele>224.13</ele>
        <time>2018-02-23T15:04:51Z</time>
      </trkpt>
      <trkpt lat="47.67777" lon="6.04398">
        <ele>224.07</ele>
        <time>2018-02-23T15:04:52Z</time>
      </trkpt>
      <trkpt lat="47.67781" lon="6.044">
        <ele>224.05</ele>
        <time>2018-02-23T15:04:53Z</time>
      </trkpt>
      <trkpt lat="47.6779" lon="6.04404">
        <ele>224.1</ele>
        <time>2018-02-23T15:04:55Z</time>
      </trkpt>
      <trkpt lat="47.67795" lon="6.04405">
        <ele>224.13</ele>
        <time>2018-02-23T15:04:56Z</time>
      </trkpt>
      <trkpt lat="47.67801" lon="6.04405">
        <ele>224.17</ele>
        <time>2018-02-23T15:04:57Z</time>
      </trkpt>
      <trkpt lat="47.67806" lon="6.04406">
        <ele>224.21</ele>
        <time>2018-02-23T15:04:58Z</time>
      </trkpt>
      <trkpt lat="47.67813" lon="6.04409">
        <ele>224.25</ele>
        <time>2018-02-23T15:04:59Z</time>
      </trkpt>
      <trkpt lat="47.6782" lon="6.04411">
        <ele>224.3</ele>
        <time>2018-02-23T15:05:00Z</time>
      </trkpt>
      <trkpt lat="47.67825" lon="6.04413">
        <ele>224.33</ele>
        <time>2018-02-23T15:05:01Z</time>
      </trkpt>
      <trkpt lat="47.67831" lon="6.04415">
        <ele>224.31</ele>
        <time>2018-02-23T15:05:02Z</time>
      </trkpt>
      <trkpt lat="47.67837" lon="6.04417">
        <ele>224.28</ele>
        <time>2018-02-23T15:05:03Z</time>
      </trkpt>
      <trkpt lat="47.67844" lon="6.04418">
        <ele>224.23</ele>
        <time>2018-02-23T15:05:04Z</time>
      </trkpt>
      <trkpt lat="47.67849" lon="6.04419">
        <ele>224.16</ele>
        <time>2018-02-23T15:05:05Z</time>
      </trkpt>
      <trkpt lat="47.67855" lon="6.04419">
        <ele>224.1</ele>
        <time>2018-02-23T15:05:06Z</time>
      </trkpt>
      <trkpt lat="47.6786" lon="6.0442">
        <ele>223.95</ele>
        <time>2018-02-23T15:05:07Z</time>
      </trkpt>
      <trkpt lat="47.67866" lon="6.04421">
        <ele>223.73</ele>
        <time>2018-02-23T15:05:08Z</time>
      </trkpt>
      <trkpt lat="47.67871" lon="6.04421">
        <ele>223.48</ele>
        <time>2018-02-23T15:05:09Z</time>
      </trkpt>
      <trkpt lat="47.67876" lon="6.04422">
        <ele>223.19</ele>
        <time>2018-02-23T15:05:10Z</time>
      </trkpt>
      <trkpt lat="47.67882" lon="6.04423">
        <ele>222.89</ele>
        <time>2018-02-23T15:05:11Z</time>
      </trkpt>
      <trkpt lat="47.67888" lon="6.04423">
        <ele>222.62</ele>
        <time>2018-02-23T15:05:12Z</time>
      </trkpt>
      <trkpt lat="47.67893" lon="6.04423">
        <ele>222.33</ele>
        <time>2018-02-23T15:05:13Z</time>
      </trkpt>
      <trkpt lat="47.67899" lon="6.04424">
        <ele>222.03</ele>
        <time>2018-02-23T15:05:14Z</time>
      </trkpt>
      <trkpt lat="47.67906" lon="6.04424">
        <ele>221.74</ele>
        <time>2018-02-23T15:05:15Z</time>
      </trkpt>
      <trkpt lat="47.67912" lon="6.04425">
        <ele>221.47</ele>
        <time>2018-02-23T15:05:16Z</time>
      </trkpt>
      <trkpt lat="47.67919" lon="6.04426">
        <ele>221.27</ele>
        <time>2018-02-23T15:05:17Z</time>
      </trkpt>
      <trkpt lat="47.67926" lon="6.04426">
        <ele>221.12</ele>
        <time>2018-02-23T15:05:18Z</time>
      </trkpt>
      <trkpt lat="47.67932" lon="6.04427">
        <ele>221.05</ele>
        <time>2018-02-23T15:05:19Z</time>
      </trkpt>
      <trkpt lat="47.67939" lon="6.04427">
        <ele>220.99</ele>
        <time>2018-02-23T15:05:20Z</time>
      </trkpt>
      <trkpt lat="47.67944" lon="6.04428">
        <ele>220.92</ele>
        <time>2018-02-23T15:05:21Z</time>
      </trkpt>
      <trkpt lat="47.6795" lon="6.04428">
        <ele>220.89</ele>
        <time>2018-02-23T15:05:22Z</time>
      </trkpt>
      <trkpt lat="47.67955" lon="6.04429">
        <ele>220.84</ele>
        <time>2018-02-23T15:05:23Z</time>
      </trkpt>
      <trkpt lat="47.67961" lon="6.04429">
        <ele>220.78</ele>
        <time>2018-02-23T15:05:24Z</time>
      </trkpt>
      <trkpt lat="47.67966" lon="6.04428">
        <ele>220.69</ele>
        <time>2018-02-23T15:05:25Z</time>
      </trkpt>
      <trkpt lat="47.67971" lon="6.04428">
        <ele>220.58</ele>
        <time>2018-02-23T15:05:26Z</time>
      </trkpt>
      <trkpt lat="47.67977" lon="6.04428">
        <ele>220.45</ele>
        <time>2018-02-23T15:05:27Z</time>
      </trkpt>
      <trkpt lat="47.67982" lon="6.04428">
        <ele>220.31</ele>
        <time>2018-02-23T15:05:28Z</time>
      </trkpt>
      <trkpt lat="47.67988" lon="6.04427">
        <ele>220.22</ele>
        <time>2018-02-23T15:05:29Z</time>
      </trkpt>
      <trkpt lat="47.67993" lon="6.04426">
        <ele>220.14</ele>
        <time>2018-02-23T15:05:30Z</time>
      </trkpt>
      <trkpt lat="47.67999" lon="6.04425">
        <ele>220.06</ele>
        <time>2018-02-23T15:05:31Z</time>
      </trkpt>
      <trkpt lat="47.68006" lon="6.04424">
        <ele>219.95</ele>
        <time>2018-02-23T15:05:32Z</time>
      </trkpt>
      <trkpt lat="47.6801" lon="6.04424">
        <ele>219.85</ele>
        <time>2018-02-23T15:05:33Z</time>
      </trkpt>
      <trkpt lat="47.68015" lon="6.04423">
        <ele>219.73</ele>
        <time>2018-02-23T15:05:34Z</time>
      </trkpt>
      <trkpt lat="47.6802" lon="6.04421">
        <ele>219.61</ele>
        <time>2018-02-23T15:05:35Z</time>
      </trkpt>
      <trkpt lat="47.68024" lon="6.04419">
        <ele>219.49</ele>
        <time>2018-02-23T15:05:36Z</time>
      </trkpt>
      <trkpt lat="47.68029" lon="6.04418">
        <ele>219.4</ele>
        <time>2018-02-23T15:05:37Z</time>
      </trkpt>
      <trkpt lat="47.68034" lon="6.04416">
        <ele>219.35</ele>
        <time>2018-02-23T15:05:38Z</time>
      </trkpt>
      <trkpt lat="47.68039" lon="6.04414">
        <ele>219.3</ele>
        <time>2018-02-23T15:05:39Z</time>
      </trkpt>
      <trkpt lat="47.68043" lon="6.04412">
        <ele>219.27</ele>
        <time>2018-02-23T15:05:40Z</time>
      </trkpt>
      <trkpt lat="47.6805" lon="6.04407">
        <ele>219.16</ele>
        <time>2018-02-23T15:05:42Z</time>
      </trkpt>
      <trkpt lat="47.68057" lon="6.04403">
        <ele>219.05</ele>
        <time>2018-02-23T15:05:44Z</time>
      </trkpt>
      <trkpt lat="47.68064" lon="6.04399">
        <ele>219.02</ele>
        <time>2018-02-23T15:05:46Z</time>
      </trkpt>
      <trkpt lat="47.68069" lon="6.04396">
        <ele>218.99</ele>
        <time>2018-02-23T15:05:48Z</time>
      </trkpt>
      <trkpt lat="47.68077" lon="6.04397">
        <ele>218.69</ele>
        <time>2018-02-23T15:05:50Z</time>
      </trkpt>
      <trkpt lat="47.68082" lon="6.04399">
        <ele>218.52</ele>
        <time>2018-02-23T15:05:51Z</time>
      </trkpt>
      <trkpt lat="47.68087" lon="6.04399">
        <ele>218.36</ele>
        <time>2018-02-23T15:05:52Z</time>
      </trkpt>
      <trkpt lat="47.68093" lon="6.04398">
        <ele>218.21</ele>
        <time>2018-02-23T15:05:53Z</time>
      </trkpt>
      <trkpt lat="47.68098" lon="6.04396">
        <ele>218.09</ele>
        <time>2018-02-23T15:05:54Z</time>
      </trkpt>
      <trkpt lat="47.68104" lon="6.04394">
        <ele>217.97</ele>
        <time>2018-02-23T15:05:55Z</time>
      </trkpt>
      <trkpt lat="47.6811" lon="6.04392">
        <ele>217.86</ele>
        <time>2018-02-23T15:05:56Z</time>
      </trkpt>
      <trkpt lat="47.68116" lon="6.0439">
        <ele>217.75</ele>
        <time>2018-02-23T15:05:57Z</time>
      </trkpt>
      <trkpt lat="47.68121" lon="6.04387">
        <ele>217.65</ele>
        <time>2018-02-23T15:05:58Z</time>
      </trkpt>
      <trkpt lat="47.68127" lon="6.04385">
        <ele>217.55</ele>
        <time>2018-02-23T15:05:59Z</time>
      </trkpt>
      <trkpt lat="47.68132" lon="6.04383">
        <ele>217.47</ele>
        <time>2018-02-23T15:06:00Z</time>
      </trkpt>
      <trkpt lat="47.68139" lon="6.0438">
        <ele>217.38</ele>
        <time>2018-02-23T15:06:01Z</time>
      </trkpt>
      <trkpt lat="47.68144" lon="6.04378">
        <ele>217.28</ele>
        <time>2018-02-23T15:06:02Z</time>
      </trkpt>
      <trkpt lat="47.6815" lon="6.04376">
        <ele>217.19</ele>
        <time>2018-02-23T15:06:03Z</time>
      </trkpt>
      <trkpt lat="47.68156" lon="6.04374">
        <ele>217.09</ele>
        <time>2018-02-23T15:06:04Z</time>
      </trkpt>
      <trkpt lat="47.68161" lon="6.04372">
        <ele>216.99</ele>
        <time>2018-02-23T15:06:05Z</time>
      </trkpt>
      <trkpt lat="47.68167" lon="6.0437">
        <ele>216.9</ele>
        <time>2018-02-23T15:06:06Z</time>
      </trkpt>
      <trkpt lat="47.68172" lon="6.04369">
        <ele>216.81</ele>
        <time>2018-02-23T15:06:07Z</time>
      </trkpt>
      <trkpt lat="47.68178" lon="6.04368">
        <ele>216.73</ele>
        <time>2018-02-23T15:06:08Z</time>
      </trkpt>
      <trkpt lat="47.68184" lon="6.04369">
        <ele>216.64</ele>
        <time>2018-02-23T15:06:09Z</time>
      </trkpt>
      <trkpt lat="47.6819" lon="6.0437">
        <ele>216.56</ele>
        <time>2018-02-23T15:06:10Z</time>
      </trkpt>
      <trkpt lat="47.68195" lon="6.04373">
        <ele>216.47</ele>
        <time>2018-02-23T15:06:11Z</time>
      </trkpt>
      <trkpt lat="47.682" lon="6.04376">
        <ele>216.39</ele>
        <time>2018-02-23T15:06:12Z</time>
      </trkpt>
      <trkpt lat="47.68205" lon="6.04379">
        <ele>216.31</ele>
        <time>2018-02-23T15:06:13Z</time>
      </trkpt>
      <trkpt lat="47.68211" lon="6.04383">
        <ele>216.23</ele>
        <time>2018-02-23T15:06:14Z</time>
      </trkpt>
      <trkpt lat="47.68216" lon="6.04386">
        <ele>216.15</ele>
        <time>2018-02-23T15:06:15Z</time>
      </trkpt>
      <trkpt lat="47.68221" lon="6.04391">
        <ele>216.08</ele>
        <time>2018-02-23T15:06:16Z</time>
      </trkpt>
      <trkpt lat="47.68227" lon="6.04394">
        <ele>216.02</ele>
        <time>2018-02-23T15:06:17Z</time>
      </trkpt>
      <trkpt lat="47.68232" lon="6.04398">
        <ele>215.97</ele>
        <time>2018-02-23T15:06:18Z</time>
      </trkpt>
      <trkpt lat="47.68237" lon="6.04401">
        <ele>215.92</ele>
        <time>2018-02-23T15:06:19Z</time>
      </trkpt>
      <trkpt lat="47.68242" lon="6.04405">
        <ele>215.88</ele>
        <time>2018-02-23T15:06:20Z</time>
      </trkpt>
      <trkpt lat="47.68247" lon="6.04408">
        <ele>215.84</ele>
        <time>2018-02-23T15:06:21Z</time>
      </trkpt>
      <trkpt lat="47.68252" lon="6.04412">
        <ele>215.8</ele>
        <time>2018-02-23T15:06:22Z</time>
      </trkpt>
      <trkpt lat="47.68258" lon="6.04415">
        <ele>215.76</ele>
        <time>2018-02-23T15:06:23Z</time>
      </trkpt>
      <trkpt lat="47.68263" lon="6.04418">
        <ele>215.71</ele>
        <time>2018-02-23T15:06:24Z</time>
      </trkpt>
      <trkpt lat="47.68267" lon="6.0442">
        <ele>215.67</ele>
        <time>2018-02-23T15:06:25Z</time>
      </trkpt>
      <trkpt lat="47.68272" lon="6.04422">
        <ele>215.61</ele>
        <time>2018-02-23T15:06:26Z</time>
      </trkpt>
      <trkpt lat="47.68277" lon="6.04424">
        <ele>215.54</ele>
        <time>2018-02-23T15:06:27Z</time>
      </trkpt>
      <trkpt lat="47.68282" lon="6.04425">
        <ele>215.46</ele>
        <time>2018-02-23T15:06:28Z</time>
      </trkpt>
      <trkpt lat="47.68287" lon="6.04426">
        <ele>215.38</ele>
        <time>2018-02-23T15:06:29Z</time>
      </trkpt>
      <trkpt lat="47.68292" lon="6.04427">
        <ele>215.3</ele>
        <time>2018-02-23T15:06:30Z</time>
      </trkpt>
      <trkpt lat="47.68297" lon="6.04428">
        <ele>215.23</ele>
        <time>2018-02-23T15:06:31Z</time>
      </trkpt>
      <trkpt lat="47.68302" lon="6.04428">
        <ele>215.16</ele>
        <time>2018-02-23T15:06:32Z</time>
      </trkpt>
      <trkpt lat="47.68307" lon="6.04429">
        <ele>215.1</ele>
        <time>2018-02-23T15:06:33Z</time>
      </trkpt>
      <trkpt lat="47.68312" lon="6.0443">
        <ele>215.04</ele>
        <time>2018-02-23T15:06:34Z</time>
      </trkpt>
      <trkpt lat="47.68316" lon="6.0443">
        <ele>214.98</ele>
        <time>2018-02-23T15:06:35Z</time>
      </trkpt>
      <trkpt lat="47.68321" lon="6.04431">
        <ele>214.93</ele>
        <time>2018-02-23T15:06:36Z</time>
      </trkpt>
      <trkpt lat="47.68326" lon="6.04432">
        <ele>214.87</ele>
        <time>2018-02-23T15:06:37Z</time>
      </trkpt>
      <trkpt lat="47.6833" lon="6.04432">
        <ele>214.81</ele>
        <time>2018-02-23T15:06:38Z</time>
      </trkpt>
      <trkpt lat="47.68335" lon="6.04432">
        <ele>214.75</ele>
        <time>2018-02-23T15:06:39Z</time>
      </trkpt>
      <trkpt lat="47.6834" lon="6.04432">
        <ele>214.7</ele>
        <time>2018-02-23T15:06:40Z</time>
      </trkpt>
      <trkpt lat="47.68344" lon="6.04433">
        <ele>214.65</ele>
        <time>2018-02-23T15:06:41Z</time>
      </trkpt>
      <trkpt lat="47.68349" lon="6.04433">
        <ele>214.6</ele>
        <time>2018-02-23T15:06:42Z</time>
      </trkpt>
      <trkpt lat="47.68354" lon="6.04433">
        <ele>214.55</ele>
        <time>2018-02-23T15:06:43Z</time>
      </trkpt>
      <trkpt lat="47.68359" lon="6.04434">
        <ele>214.51</ele>
        <time>2018-02-23T15:06:44Z</time>
      </trkpt>
      <trkpt lat="47.68364" lon="6.04434">
        <ele>214.46</ele>
        <time>2018-02-23T15:06:45Z</time>
      </trkpt>
      <trkpt lat="47.68369" lon="6.04435">
        <ele>214.43</ele>
        <time>2018-02-23T15:06:46Z</time>
      </trkpt>
      <trkpt lat="47.68378" lon="6.04435">
        <ele>214.38</ele>
        <time>2018-02-23T15:06:48Z</time>
      </trkpt>
      <trkpt lat="47.68386" lon="6.04436">
        <ele>214.35</ele>
        <time>2018-02-23T15:06:50Z</time>
      </trkpt>
      <trkpt lat="47.68393" lon="6.04437">
        <ele>214.33</ele>
        <time>2018-02-23T15:06:52Z</time>
      </trkpt>
      <trkpt lat="47.68401" lon="6.04438">
        <ele>214.33</ele>
        <time>2018-02-23T15:06:54Z</time>
      </trkpt>
      <trkpt lat="47.68408" lon="6.04437">
        <ele>214.33</ele>
        <time>2018-02-23T15:06:56Z</time>
      </trkpt>
      <trkpt lat="47.68416" lon="6.04435">
        <ele>214.33</ele>
        <time>2018-02-23T15:06:58Z</time>
      </trkpt>
      <trkpt lat="47.68424" lon="6.04435">
        <ele>214.34</ele>
        <time>2018-02-23T15:07:00Z</time>
      </trkpt>
      <trkpt lat="47.68432" lon="6.04435">
        <ele>214.35</ele>
        <time>2018-02-23T15:07:02Z</time>
      </trkpt>
      <trkpt lat="47.68441" lon="6.04434">
        <ele>214.37</ele>
        <time>2018-02-23T15:07:04Z</time>
      </trkpt>
      <trkpt lat="47.6845" lon="6.04434">
        <ele>214.39</ele>
        <time>2018-02-23T15:07:06Z</time>
      </trkpt>
      <trkpt lat="47.68458" lon="6.04434">
        <ele>214.41</ele>
        <time>2018-02-23T15:07:08Z</time>
      </trkpt>
      <trkpt lat="47.68467" lon="6.04434">
        <ele>214.43</ele>
        <time>2018-02-23T15:07:10Z</time>
      </trkpt>
      <trkpt lat="47.68473" lon="6.04434">
        <ele>214.43</ele>
        <time>2018-02-23T15:07:12Z</time>
      </trkpt>
      <trkpt lat="47.6848" lon="6.04435">
        <ele>214.44</ele>
        <time>2018-02-23T15:07:14Z</time>
      </trkpt>
      <trkpt lat="47.68487" lon="6.04435">
        <ele>214.46</ele>
        <time>2018-02-23T15:07:16Z</time>
      </trkpt>
      <trkpt lat="47.68494" lon="6.04436">
        <ele>214.47</ele>
        <time>2018-02-23T15:07:18Z</time>
      </trkpt>
      <trkpt lat="47.68501" lon="6.04439">
        <ele>214.48</ele>
        <time>2018-02-23T15:07:20Z</time>
      </trkpt>
      <trkpt lat="47.68507" lon="6.04442">
        <ele>214.49</ele>
        <time>2018-02-23T15:07:22Z</time>
      </trkpt>
      <trkpt lat="47.68512" lon="6.04445">
        <ele>214.51</ele>
        <time>2018-02-23T15:07:24Z</time>
      </trkpt>
      <trkpt lat="47.68517" lon="6.04449">
        <ele>214.53</ele>
        <time>2018-02-23T15:07:26Z</time>
      </trkpt>
      <trkpt lat="47.68522" lon="6.04453">
        <ele>214.55</ele>
        <time>2018-02-23T15:07:28Z</time>
      </trkpt>
      <trkpt lat="47.68527" lon="6.04457">
        <ele>214.58</ele>
        <time>2018-02-23T15:07:30Z</time>
      </trkpt>
      <trkpt lat="47.68532" lon="6.04461">
        <ele>214.61</ele>
        <time>2018-02-23T15:07:32Z</time>
      </trkpt>
      <trkpt lat="47.68537" lon="6.04465">
        <ele>214.64</ele>
        <time>2018-02-23T15:07:34Z</time>
      </trkpt>
      <trkpt lat="47.68542" lon="6.04468">
        <ele>214.67</ele>
        <time>2018-02-23T15:07:36Z</time>
      </trkpt>
      <trkpt lat="47.68547" lon="6.04471">
        <ele>214.71</ele>
        <time>2018-02-23T15:07:38Z</time>
      </trkpt>
      <trkpt lat="47.68552" lon="6.04474">
        <ele>214.74</ele>
        <time>2018-02-23T15:07:40Z</time>
      </trkpt>
      <trkpt lat="47.68558" lon="6.04478">
        <ele>214.78</ele>
        <time>2018-02-23T15:07:42Z</time>
      </trkpt>
      <trkpt lat="47.68563" lon="6.04481">
        <ele>214.82</ele>
        <time>2018-02-23T15:07:44Z</time>
      </trkpt>
      <trkpt lat="47.68567" lon="6.04485">
        <ele>214.86</ele>
        <time>2018-02-23T15:07:46Z</time>
      </trkpt>
      <trkpt lat="47.68571" lon="6.04489">
        <ele>214.91</ele>
        <time>2018-02-23T15:07:48Z</time>
      </trkpt>
      <trkpt lat="47.68576" lon="6.04492">
        <ele>214.95</ele>
        <time>2018-02-23T15:07:50Z</time>
      </trkpt>
      <trkpt lat="47.68581" lon="6.04495">
        <ele>214.99</ele>
        <time>2018-02-23T15:07:52Z</time>
      </trkpt>
      <trkpt lat="47.68584" lon="6.04499">
        <ele>215.04</ele>
        <time>2018-02-23T15:07:54Z</time>
      </trkpt>
      <trkpt lat="47.68588" lon="6.04502">
        <ele>215.08</ele>
        <time>2018-02-23T15:07:56Z</time>
      </trkpt>
      <trkpt lat="47.68594" lon="6.04507">
        <ele>215.16</ele>
        <time>2018-02-23T15:07:59Z</time>
      </trkpt>
      <trkpt lat="47.68598" lon="6.0451">
        <ele>215.21</ele>
        <time>2018-02-23T15:08:01Z</time>
      </trkpt>
      <trkpt lat="47.68603" lon="6.04513">
        <ele>215.26</ele>
        <time>2018-02-23T15:08:03Z</time>
      </trkpt>
      <trkpt lat="47.68607" lon="6.04517">
        <ele>215.31</ele>
        <time>2018-02-23T15:08:05Z</time>
      </trkpt>
      <trkpt lat="47.68611" lon="6.0452">
        <ele>215.36</ele>
        <time>2018-02-23T15:08:07Z</time>
      </trkpt>
      <trkpt lat="47.68615" lon="6.04523">
        <ele>215.41</ele>
        <time>2018-02-23T15:08:09Z</time>
      </trkpt>
      <trkpt lat="47.68621" lon="6.04526">
        <ele>215.47</ele>
        <time>2018-02-23T15:08:11Z</time>
      </trkpt>
      <trkpt lat="47.68625" lon="6.04533">
        <ele>215.56</ele>
        <time>2018-02-23T15:08:14Z</time>
      </trkpt>
      <trkpt lat="47.68628" lon="6.04541">
        <ele>215.66</ele>
        <time>2018-02-23T15:08:17Z</time>
      </trkpt>
      <trkpt lat="47.68624" lon="6.04546">
        <ele>216</ele>
        <time>2018-02-23T15:08:28Z</time>
      </trkpt>
    </trkseg>
  </trk>
</gpx>